<?xml version='1.0' encoding='UTF-8'?><gpx version="1.1" creator="JPX - https://github.com/jenetics/jpx" xmlns="http://www.topografix.com/GPX/1/1"><trk><trkseg><trkpt lat="44.2033605" lon="12.1104506"><ele>23.0</ele><time>2026-04-04T07:57:00.313Z</time></trkpt><trkpt lat="44.203315" lon="12.1105622"><ele>23.0</ele><time>2026-04-04T07:57:02.311Z</time></trkpt><trkpt lat="44.2032681" lon="12.1106792"><ele>23.0</ele><time>2026-04-04T07:57:04.318Z</time></trkpt><trkpt lat="44.2032211" lon="12.1108011"><ele>23.0</ele><time>2026-04-04T07:57:06.319Z</time></trkpt><trkpt lat="44.2030571" lon="12.1111794"><ele>23.0</ele><time>2026-04-04T07:57:12.329Z</time></trkpt><trkpt lat="44.2030159" lon="12.111307"><ele>23.0</ele><time>2026-04-04T07:57:14.33Z</time></trkpt><trkpt lat="44.2029648" lon="12.1114434"><ele>23.0</ele><time>2026-04-04T07:57:16.32Z</time></trkpt><trkpt lat="44.202917" lon="12.1115656"><ele>23.0</ele><time>2026-04-04T07:57:18.313Z</time></trkpt><trkpt lat="44.2028727" lon="12.1116972"><ele>23.0</ele><time>2026-04-04T07:57:20.319Z</time></trkpt><trkpt lat="44.2028333" lon="12.1118291"><ele>23.5</ele><time>2026-04-04T07:57:22.19Z</time></trkpt><trkpt lat="44.2027723" lon="12.1119621"><ele>24.0</ele><time>2026-04-04T07:57:24.183Z</time></trkpt><trkpt lat="44.2027115" lon="12.1120904"><ele>24.5</ele><time>2026-04-04T07:57:26.185Z</time></trkpt><trkpt lat="44.2026565" lon="12.1122197"><ele>25.0</ele><time>2026-04-04T07:57:28.186Z</time></trkpt><trkpt lat="44.2025955" lon="12.1123675"><ele>25.2</ele><time>2026-04-04T07:57:30.186Z</time></trkpt><trkpt lat="44.2025376" lon="12.1125181"><ele>25.4</ele><time>2026-04-04T07:57:32.186Z</time></trkpt><trkpt lat="44.2025058" lon="12.1125978"><ele>25.6</ele><time>2026-04-04T07:57:33.182Z</time></trkpt><trkpt lat="44.2024466" lon="12.1127419"><ele>25.8</ele><time>2026-04-04T07:57:35.182Z</time></trkpt><trkpt lat="44.202394" lon="12.1128905"><ele>26.0</ele><time>2026-04-04T07:57:37.183Z</time></trkpt><trkpt lat="44.2023435" lon="12.1130233"><ele>25.75</ele><time>2026-04-04T07:57:39.185Z</time></trkpt><trkpt lat="44.2022853" lon="12.1131658"><ele>25.5</ele><time>2026-04-04T07:57:41.175Z</time></trkpt><trkpt lat="44.202228" lon="12.1133055"><ele>25.25</ele><time>2026-04-04T07:57:43.177Z</time></trkpt><trkpt lat="44.2021847" lon="12.1134401"><ele>25.0</ele><time>2026-04-04T07:57:45.181Z</time></trkpt><trkpt lat="44.2021245" lon="12.1135897"><ele>25.000000000000004</ele><time>2026-04-04T07:57:47.183Z</time></trkpt><trkpt lat="44.2020678" lon="12.1137294"><ele>25.0</ele><time>2026-04-04T07:57:49.184Z</time></trkpt><trkpt lat="44.20204" lon="12.1138218"><ele>25.0</ele><time>2026-04-04T07:57:50.182Z</time></trkpt><trkpt lat="44.2020085" lon="12.1139012"><ele>25.0</ele><time>2026-04-04T07:57:51.188Z</time></trkpt><trkpt lat="44.201978" lon="12.1139807"><ele>25.000000000000004</ele><time>2026-04-04T07:57:52.182Z</time></trkpt><trkpt lat="44.2019443" lon="12.1140614"><ele>25.0</ele><time>2026-04-04T07:57:53.179Z</time></trkpt><trkpt lat="44.2019156" lon="12.1141449"><ele>24.5</ele><time>2026-04-04T07:57:54.184Z</time></trkpt><trkpt lat="44.2018574" lon="12.1142825"><ele>24.0</ele><time>2026-04-04T07:57:56.182Z</time></trkpt><trkpt lat="44.2018009" lon="12.1144178"><ele>23.5</ele><time>2026-04-04T07:57:58.185Z</time></trkpt><trkpt lat="44.201744" lon="12.1145594"><ele>23.0</ele><time>2026-04-04T07:58:00.2Z</time></trkpt><trkpt lat="44.2016872" lon="12.1146989"><ele>23.0</ele><time>2026-04-04T07:58:02.189Z</time></trkpt><trkpt lat="44.2016256" lon="12.1148509"><ele>23.0</ele><time>2026-04-04T07:58:04.187Z</time></trkpt><trkpt lat="44.2016036" lon="12.1149349"><ele>23.0</ele><time>2026-04-04T07:58:05.186Z</time></trkpt><trkpt lat="44.2015496" lon="12.1150672"><ele>23.0</ele><time>2026-04-04T07:58:07.185Z</time></trkpt><trkpt lat="44.2015001" lon="12.1151981"><ele>23.0</ele><time>2026-04-04T07:58:09.187Z</time></trkpt><trkpt lat="44.2014453" lon="12.1153419"><ele>23.25</ele><time>2026-04-04T07:58:11.186Z</time></trkpt><trkpt lat="44.20139" lon="12.1154798"><ele>23.5</ele><time>2026-04-04T07:58:13.186Z</time></trkpt><trkpt lat="44.201339" lon="12.1156277"><ele>23.75</ele><time>2026-04-04T07:58:15.191Z</time></trkpt><trkpt lat="44.2012775" lon="12.115765"><ele>24.0</ele><time>2026-04-04T07:58:17.19Z</time></trkpt><trkpt lat="44.2012168" lon="12.1158902"><ele>24.2</ele><time>2026-04-04T07:58:19.188Z</time></trkpt><trkpt lat="44.2011552" lon="12.1160439"><ele>24.4</ele><time>2026-04-04T07:58:21.184Z</time></trkpt><trkpt lat="44.2010971" lon="12.1162032"><ele>24.6</ele><time>2026-04-04T07:58:23.176Z</time></trkpt><trkpt lat="44.2010644" lon="12.1162867"><ele>24.8</ele><time>2026-04-04T07:58:24.19Z</time></trkpt><trkpt lat="44.2010331" lon="12.1163655"><ele>25.0</ele><time>2026-04-04T07:58:25.179Z</time></trkpt><trkpt lat="44.2010011" lon="12.1164419"><ele>25.0</ele><time>2026-04-04T07:58:26.187Z</time></trkpt><trkpt lat="44.2009523" lon="12.1165994"><ele>25.0</ele><time>2026-04-04T07:58:28.183Z</time></trkpt><trkpt lat="44.2008813" lon="12.1167358"><ele>25.0</ele><time>2026-04-04T07:58:30.183Z</time></trkpt><trkpt lat="44.2008508" lon="12.1168208"><ele>25.0</ele><time>2026-04-04T07:58:31.205Z</time></trkpt><trkpt lat="44.2007836" lon="12.1169706"><ele>25.0</ele><time>2026-04-04T07:58:33.183Z</time></trkpt><trkpt lat="44.2007514" lon="12.1170493"><ele>25.000000000000004</ele><time>2026-04-04T07:58:34.188Z</time></trkpt><trkpt lat="44.2007187" lon="12.1171282"><ele>25.0</ele><time>2026-04-04T07:58:35.184Z</time></trkpt><trkpt lat="44.200683" lon="12.1172018"><ele>25.0</ele><time>2026-04-04T07:58:36.178Z</time></trkpt><trkpt lat="44.2006206" lon="12.1173514"><ele>25.0</ele><time>2026-04-04T07:58:38.182Z</time></trkpt><trkpt lat="44.2005874" lon="12.1174283"><ele>25.000000000000004</ele><time>2026-04-04T07:58:39.18Z</time></trkpt><trkpt lat="44.2005287" lon="12.1175862"><ele>25.0</ele><time>2026-04-04T07:58:41.182Z</time></trkpt><trkpt lat="44.2004943" lon="12.1176602"><ele>25.0</ele><time>2026-04-04T07:58:42.194Z</time></trkpt><trkpt lat="44.2004243" lon="12.1178091"><ele>25.0</ele><time>2026-04-04T07:58:44.187Z</time></trkpt><trkpt lat="44.2003962" lon="12.1178894"><ele>25.0</ele><time>2026-04-04T07:58:45.178Z</time></trkpt><trkpt lat="44.2003384" lon="12.1180429"><ele>25.0</ele><time>2026-04-04T07:58:47.19Z</time></trkpt><trkpt lat="44.2002811" lon="12.1181822"><ele>25.0</ele><time>2026-04-04T07:58:49.19Z</time></trkpt><trkpt lat="44.2002459" lon="12.118257"><ele>25.166666666666668</ele><time>2026-04-04T07:58:50.187Z</time></trkpt><trkpt lat="44.2002073" lon="12.1183268"><ele>25.333333333333336</ele><time>2026-04-04T07:58:51.188Z</time></trkpt><trkpt lat="44.2001684" lon="12.1184002"><ele>25.5</ele><time>2026-04-04T07:58:52.191Z</time></trkpt><trkpt lat="44.200139" lon="12.1184835"><ele>25.666666666666664</ele><time>2026-04-04T07:58:53.185Z</time></trkpt><trkpt lat="44.2000765" lon="12.1186283"><ele>25.833333333333332</ele><time>2026-04-04T07:58:55.184Z</time></trkpt><trkpt lat="44.2000043" lon="12.1187704"><ele>26.0</ele><time>2026-04-04T07:58:57.19Z</time></trkpt><trkpt lat="44.1999412" lon="12.1189155"><ele>25.8</ele><time>2026-04-04T07:58:59.204Z</time></trkpt><trkpt lat="44.1998798" lon="12.1190675"><ele>25.6</ele><time>2026-04-04T07:59:01.187Z</time></trkpt><trkpt lat="44.1998181" lon="12.1192175"><ele>25.4</ele><time>2026-04-04T07:59:03.186Z</time></trkpt><trkpt lat="44.1997907" lon="12.1192993"><ele>25.2</ele><time>2026-04-04T07:59:04.191Z</time></trkpt><trkpt lat="44.1997418" lon="12.1194452"><ele>25.0</ele><time>2026-04-04T07:59:06.186Z</time></trkpt><trkpt lat="44.1997088" lon="12.1195243"><ele>25.0</ele><time>2026-04-04T07:59:07.182Z</time></trkpt><trkpt lat="44.1996524" lon="12.1196723"><ele>25.0</ele><time>2026-04-04T07:59:09.186Z</time></trkpt><trkpt lat="44.1995983" lon="12.1198166"><ele>25.0</ele><time>2026-04-04T07:59:11.187Z</time></trkpt><trkpt lat="44.1995429" lon="12.1199708"><ele>25.0</ele><time>2026-04-04T07:59:13.185Z</time></trkpt><trkpt lat="44.1994802" lon="12.1201167"><ele>24.75</ele><time>2026-04-04T07:59:15.182Z</time></trkpt><trkpt lat="44.1994282" lon="12.1202574"><ele>24.5</ele><time>2026-04-04T07:59:17.181Z</time></trkpt><trkpt lat="44.1993699" lon="12.1203968"><ele>24.25</ele><time>2026-04-04T07:59:19.176Z</time></trkpt><trkpt lat="44.1993128" lon="12.1205337"><ele>24.0</ele><time>2026-04-04T07:59:21.188Z</time></trkpt><trkpt lat="44.199246" lon="12.1206776"><ele>24.2</ele><time>2026-04-04T07:59:23.192Z</time></trkpt><trkpt lat="44.1992104" lon="12.1207504"><ele>24.4</ele><time>2026-04-04T07:59:24.206Z</time></trkpt><trkpt lat="44.1991513" lon="12.1208931"><ele>24.6</ele><time>2026-04-04T07:59:26.195Z</time></trkpt><trkpt lat="44.199087" lon="12.1210372"><ele>24.8</ele><time>2026-04-04T07:59:28.198Z</time></trkpt><trkpt lat="44.1990502" lon="12.121193"><ele>25.0</ele><time>2026-04-04T07:59:30.198Z</time></trkpt><trkpt lat="44.1990554" lon="12.1213445"><ele>25.0</ele><time>2026-04-04T07:59:32.187Z</time></trkpt><trkpt lat="44.1990946" lon="12.1214672"><ele>25.0</ele><time>2026-04-04T07:59:34.198Z</time></trkpt><trkpt lat="44.1991039" lon="12.1215863"><ele>25.0</ele><time>2026-04-04T07:59:36.189Z</time></trkpt><trkpt lat="44.1990106" lon="12.1216547"><ele>25.0</ele><time>2026-04-04T07:59:38.212Z</time></trkpt><trkpt lat="44.1988942" lon="12.1216781"><ele>25.0</ele><time>2026-04-04T07:59:40.194Z</time></trkpt><trkpt lat="44.1987952" lon="12.12173"><ele>24.8</ele><time>2026-04-04T07:59:42.178Z</time></trkpt><trkpt lat="44.1987038" lon="12.1217698"><ele>24.6</ele><time>2026-04-04T07:59:44.155Z</time></trkpt><trkpt lat="44.1986184" lon="12.1218217"><ele>24.4</ele><time>2026-04-04T07:59:46.132Z</time></trkpt><trkpt lat="44.1985584" lon="12.121873"><ele>24.2</ele><time>2026-04-04T07:59:47.126Z</time></trkpt><trkpt lat="44.1984678" lon="12.1218661"><ele>24.0</ele><time>2026-04-04T07:59:48.153Z</time></trkpt><trkpt lat="44.1983571" lon="12.1219461"><ele>24.0</ele><time>2026-04-04T07:59:50.166Z</time></trkpt><trkpt lat="44.1982985" lon="12.1220826"><ele>24.0</ele><time>2026-04-04T07:59:52.174Z</time></trkpt><trkpt lat="44.1982622" lon="12.1222106"><ele>24.0</ele><time>2026-04-04T07:59:54.194Z</time></trkpt><trkpt lat="44.1982261" lon="12.1223243"><ele>24.0</ele><time>2026-04-04T07:59:56.19Z</time></trkpt><trkpt lat="44.1982105" lon="12.1224376"><ele>24.0</ele><time>2026-04-04T07:59:58.199Z</time></trkpt><trkpt lat="44.1981876" lon="12.1225693"><ele>24.0</ele><time>2026-04-04T08:00:00.189Z</time></trkpt><trkpt lat="44.1981014" lon="12.1226908"><ele>24.0</ele><time>2026-04-04T08:00:02.194Z</time></trkpt><trkpt lat="44.1980367" lon="12.1227076"><ele>24.0</ele><time>2026-04-04T08:00:03.195Z</time></trkpt><trkpt lat="44.1979682" lon="12.1227134"><ele>24.0</ele><time>2026-04-04T08:00:04.21Z</time></trkpt><trkpt lat="44.1978569" lon="12.1227342"><ele>24.0</ele><time>2026-04-04T08:00:06.191Z</time></trkpt><trkpt lat="44.1977483" lon="12.1227593"><ele>24.0</ele><time>2026-04-04T08:00:08.187Z</time></trkpt><trkpt lat="44.1976466" lon="12.1227793"><ele>24.0</ele><time>2026-04-04T08:00:10.19Z</time></trkpt><trkpt lat="44.1975467" lon="12.1228049"><ele>24.0</ele><time>2026-04-04T08:00:12.189Z</time></trkpt><trkpt lat="44.1974397" lon="12.1228288"><ele>24.0</ele><time>2026-04-04T08:00:14.19Z</time></trkpt><trkpt lat="44.1973402" lon="12.1228539"><ele>24.0</ele><time>2026-04-04T08:00:16.187Z</time></trkpt><trkpt lat="44.1972442" lon="12.1228784"><ele>24.4</ele><time>2026-04-04T08:00:18.189Z</time></trkpt><trkpt lat="44.1971596" lon="12.1228921"><ele>24.799999999999997</ele><time>2026-04-04T08:00:20.185Z</time></trkpt><trkpt lat="44.1970693" lon="12.122906"><ele>25.200000000000003</ele><time>2026-04-04T08:00:22.18Z</time></trkpt><trkpt lat="44.19696" lon="12.1229158"><ele>25.6</ele><time>2026-04-04T08:00:24.186Z</time></trkpt><trkpt lat="44.1968358" lon="12.1229595"><ele>26.0</ele><time>2026-04-04T08:00:26.183Z</time></trkpt><trkpt lat="44.1967698" lon="12.1229765"><ele>26.0</ele><time>2026-04-04T08:00:27.181Z</time></trkpt><trkpt lat="44.1967012" lon="12.1230049"><ele>26.0</ele><time>2026-04-04T08:00:28.193Z</time></trkpt><trkpt lat="44.1966286" lon="12.1230295"><ele>26.0</ele><time>2026-04-04T08:00:29.194Z</time></trkpt><trkpt lat="44.1965579" lon="12.1230556"><ele>26.0</ele><time>2026-04-04T08:00:30.179Z</time></trkpt><trkpt lat="44.1964925" lon="12.1230786"><ele>26.0</ele><time>2026-04-04T08:00:31.182Z</time></trkpt><trkpt lat="44.1964234" lon="12.1230975"><ele>26.0</ele><time>2026-04-04T08:00:32.169Z</time></trkpt><trkpt lat="44.1963608" lon="12.1231182"><ele>26.0</ele><time>2026-04-04T08:00:33.147Z</time></trkpt><trkpt lat="44.1962911" lon="12.1231375"><ele>26.4</ele><time>2026-04-04T08:00:34.112Z</time></trkpt><trkpt lat="44.1961606" lon="12.1231779"><ele>26.8</ele><time>2026-04-04T08:00:36.082Z</time></trkpt><trkpt lat="44.1960977" lon="12.1231974"><ele>27.199999999999996</ele><time>2026-04-04T08:00:37.068Z</time></trkpt><trkpt lat="44.1960304" lon="12.1231761"><ele>27.599999999999998</ele><time>2026-04-04T08:00:38.12Z</time></trkpt><trkpt lat="44.1959627" lon="12.1231949"><ele>28.0</ele><time>2026-04-04T08:00:39.139Z</time></trkpt><trkpt lat="44.195841" lon="12.1232142"><ele>28.0</ele><time>2026-04-04T08:00:41.16Z</time></trkpt><trkpt lat="44.1957745" lon="12.1232216"><ele>27.999999999999996</ele><time>2026-04-04T08:00:42.166Z</time></trkpt><trkpt lat="44.1956537" lon="12.1232476"><ele>27.999999999999996</ele><time>2026-04-04T08:00:44.178Z</time></trkpt><trkpt lat="44.1955406" lon="12.1232848"><ele>28.0</ele><time>2026-04-04T08:00:46.169Z</time></trkpt><trkpt lat="44.1954281" lon="12.1233207"><ele>28.0</ele><time>2026-04-04T08:00:48.179Z</time></trkpt><trkpt lat="44.1953067" lon="12.1233501"><ele>27.599999999999998</ele><time>2026-04-04T08:00:50.172Z</time></trkpt><trkpt lat="44.1951835" lon="12.1233766"><ele>27.199999999999996</ele><time>2026-04-04T08:00:52.177Z</time></trkpt><trkpt lat="44.1951201" lon="12.1233796"><ele>26.8</ele><time>2026-04-04T08:00:53.169Z</time></trkpt><trkpt lat="44.1950098" lon="12.1234057"><ele>26.4</ele><time>2026-04-04T08:00:55.171Z</time></trkpt><trkpt lat="44.194899" lon="12.1234268"><ele>26.0</ele><time>2026-04-04T08:00:57.172Z</time></trkpt><trkpt lat="44.1947859" lon="12.1234548"><ele>25.999999999999996</ele><time>2026-04-04T08:00:59.187Z</time></trkpt><trkpt lat="44.1947236" lon="12.123471"><ele>26.0</ele><time>2026-04-04T08:01:00.175Z</time></trkpt><trkpt lat="44.1946124" lon="12.1235046"><ele>26.0</ele><time>2026-04-04T08:01:02.173Z</time></trkpt><trkpt lat="44.1945495" lon="12.1235149"><ele>26.0</ele><time>2026-04-04T08:01:03.172Z</time></trkpt><trkpt lat="44.194481" lon="12.1235258"><ele>25.999999999999996</ele><time>2026-04-04T08:01:04.17Z</time></trkpt><trkpt lat="44.194412" lon="12.1235283"><ele>26.0</ele><time>2026-04-04T08:01:05.173Z</time></trkpt><trkpt lat="44.1942913" lon="12.1235615"><ele>26.0</ele><time>2026-04-04T08:01:07.169Z</time></trkpt><trkpt lat="44.1941825" lon="12.1235964"><ele>26.0</ele><time>2026-04-04T08:01:09.17Z</time></trkpt><trkpt lat="44.1941196" lon="12.123618"><ele>26.0</ele><time>2026-04-04T08:01:10.172Z</time></trkpt><trkpt lat="44.1940563" lon="12.1236349"><ele>26.0</ele><time>2026-04-04T08:01:11.177Z</time></trkpt><trkpt lat="44.1939457" lon="12.1236722"><ele>26.0</ele><time>2026-04-04T08:01:13.169Z</time></trkpt><trkpt lat="44.193825" lon="12.123709"><ele>26.166666666666664</ele><time>2026-04-04T08:01:15.169Z</time></trkpt><trkpt lat="44.1937614" lon="12.1237254"><ele>26.333333333333332</ele><time>2026-04-04T08:01:16.169Z</time></trkpt><trkpt lat="44.1936965" lon="12.1237355"><ele>26.5</ele><time>2026-04-04T08:01:17.177Z</time></trkpt><trkpt lat="44.1936314" lon="12.1237463"><ele>26.666666666666664</ele><time>2026-04-04T08:01:18.173Z</time></trkpt><trkpt lat="44.1935091" lon="12.1237629"><ele>26.833333333333332</ele><time>2026-04-04T08:01:20.175Z</time></trkpt><trkpt lat="44.1933906" lon="12.1237934"><ele>27.0</ele><time>2026-04-04T08:01:22.18Z</time></trkpt><trkpt lat="44.1932712" lon="12.1238226"><ele>26.8</ele><time>2026-04-04T08:01:24.18Z</time></trkpt><trkpt lat="44.1931579" lon="12.1238367"><ele>26.6</ele><time>2026-04-04T08:01:26.178Z</time></trkpt><trkpt lat="44.1930331" lon="12.123867"><ele>26.400000000000002</ele><time>2026-04-04T08:01:28.171Z</time></trkpt><trkpt lat="44.1929668" lon="12.1238801"><ele>26.200000000000003</ele><time>2026-04-04T08:01:29.182Z</time></trkpt><trkpt lat="44.1928566" lon="12.1239096"><ele>26.0</ele><time>2026-04-04T08:01:31.178Z</time></trkpt><trkpt lat="44.1927941" lon="12.1239294"><ele>26.0</ele><time>2026-04-04T08:01:32.171Z</time></trkpt><trkpt lat="44.1926702" lon="12.1239576"><ele>26.0</ele><time>2026-04-04T08:01:34.179Z</time></trkpt><trkpt lat="44.1925632" lon="12.1239819"><ele>26.0</ele><time>2026-04-04T08:01:36.169Z</time></trkpt><trkpt lat="44.1924488" lon="12.1240148"><ele>26.0</ele><time>2026-04-04T08:01:38.172Z</time></trkpt><trkpt lat="44.1923336" lon="12.1240598"><ele>26.200000000000003</ele><time>2026-04-04T08:01:40.173Z</time></trkpt><trkpt lat="44.1922699" lon="12.1240788"><ele>26.400000000000002</ele><time>2026-04-04T08:01:41.17Z</time></trkpt><trkpt lat="44.1922016" lon="12.1240968"><ele>26.6</ele><time>2026-04-04T08:01:42.171Z</time></trkpt><trkpt lat="44.1920879" lon="12.1241156"><ele>26.8</ele><time>2026-04-04T08:01:44.175Z</time></trkpt><trkpt lat="44.1919761" lon="12.1241377"><ele>27.0</ele><time>2026-04-04T08:01:46.175Z</time></trkpt><trkpt lat="44.1918633" lon="12.1241637"><ele>27.0</ele><time>2026-04-04T08:01:48.173Z</time></trkpt><trkpt lat="44.1917496" lon="12.1241865"><ele>27.000000000000004</ele><time>2026-04-04T08:01:50.168Z</time></trkpt><trkpt lat="44.191658" lon="12.1241673"><ele>27.000000000000004</ele><time>2026-04-04T08:01:52.177Z</time></trkpt><trkpt lat="44.1915857" lon="12.1241111"><ele>27.0</ele><time>2026-04-04T08:01:54.179Z</time></trkpt><trkpt lat="44.1915127" lon="12.124148"><ele>27.0</ele><time>2026-04-04T08:01:57.189Z</time></trkpt><trkpt lat="44.191427" lon="12.1241976"><ele>27.400000000000002</ele><time>2026-04-04T08:01:59.184Z</time></trkpt><trkpt lat="44.1913204" lon="12.1242246"><ele>27.800000000000004</ele><time>2026-04-04T08:02:01.174Z</time></trkpt><trkpt lat="44.1912125" lon="12.1242351"><ele>28.2</ele><time>2026-04-04T08:02:03.172Z</time></trkpt><trkpt lat="44.1911104" lon="12.1242544"><ele>28.6</ele><time>2026-04-04T08:02:05.172Z</time></trkpt><trkpt lat="44.1910079" lon="12.1242801"><ele>29.0</ele><time>2026-04-04T08:02:07.177Z</time></trkpt><trkpt lat="44.1909055" lon="12.1243016"><ele>29.0</ele><time>2026-04-04T08:02:09.182Z</time></trkpt><trkpt lat="44.1908057" lon="12.1243128"><ele>29.0</ele><time>2026-04-04T08:02:11.167Z</time></trkpt><trkpt lat="44.1907145" lon="12.124322"><ele>29.0</ele><time>2026-04-04T08:02:13.181Z</time></trkpt><trkpt lat="44.1906216" lon="12.1243171"><ele>29.0</ele><time>2026-04-04T08:02:15.191Z</time></trkpt><trkpt lat="44.1905408" lon="12.1242985"><ele>29.0</ele><time>2026-04-04T08:02:17.184Z</time></trkpt><trkpt lat="44.1904601" lon="12.1243355"><ele>28.799999999999997</ele><time>2026-04-04T08:02:22.187Z</time></trkpt><trkpt lat="44.1903856" lon="12.1243874"><ele>28.599999999999998</ele><time>2026-04-04T08:02:25.192Z</time></trkpt><trkpt lat="44.1903047" lon="12.1243702"><ele>28.4</ele><time>2026-04-04T08:02:27.193Z</time></trkpt><trkpt lat="44.1901973" lon="12.1243588"><ele>28.2</ele><time>2026-04-04T08:02:29.187Z</time></trkpt><trkpt lat="44.1900964" lon="12.1243415"><ele>28.0</ele><time>2026-04-04T08:02:31.174Z</time></trkpt><trkpt lat="44.1900003" lon="12.1243169"><ele>28.0</ele><time>2026-04-04T08:02:33.171Z</time></trkpt><trkpt lat="44.1899056" lon="12.124289"><ele>27.999999999999996</ele><time>2026-04-04T08:02:35.183Z</time></trkpt><trkpt lat="44.1898094" lon="12.1242556"><ele>27.999999999999996</ele><time>2026-04-04T08:02:37.192Z</time></trkpt><trkpt lat="44.1897149" lon="12.1243084"><ele>28.0</ele><time>2026-04-04T08:02:40.177Z</time></trkpt><trkpt lat="44.1896254" lon="12.1243472"><ele>28.0</ele><time>2026-04-04T08:02:42.181Z</time></trkpt><trkpt lat="44.1895332" lon="12.1243795"><ele>28.599999999999998</ele><time>2026-04-04T08:02:44.171Z</time></trkpt><trkpt lat="44.1894456" lon="12.124411"><ele>29.199999999999996</ele><time>2026-04-04T08:02:46.176Z</time></trkpt><trkpt lat="44.1893465" lon="12.1244235"><ele>29.8</ele><time>2026-04-04T08:02:48.179Z</time></trkpt><trkpt lat="44.1892549" lon="12.1244263"><ele>30.4</ele><time>2026-04-04T08:02:50.179Z</time></trkpt><trkpt lat="44.1891479" lon="12.1244069"><ele>31.0</ele><time>2026-04-04T08:02:52.173Z</time></trkpt><trkpt lat="44.1890786" lon="12.1244035"><ele>31.0</ele><time>2026-04-04T08:02:53.165Z</time></trkpt><trkpt lat="44.1890081" lon="12.1244225"><ele>31.0</ele><time>2026-04-04T08:02:54.161Z</time></trkpt><trkpt lat="44.188895" lon="12.1244578"><ele>31.0</ele><time>2026-04-04T08:02:56.157Z</time></trkpt><trkpt lat="44.1887789" lon="12.1245061"><ele>31.0</ele><time>2026-04-04T08:02:58.167Z</time></trkpt><trkpt lat="44.1886853" lon="12.1245258"><ele>31.0</ele><time>2026-04-04T08:03:00.17Z</time></trkpt><trkpt lat="44.1886085" lon="12.124537"><ele>31.000000000000004</ele><time>2026-04-04T08:03:02.171Z</time></trkpt><trkpt lat="44.1885196" lon="12.1245533"><ele>31.0</ele><time>2026-04-04T08:03:04.171Z</time></trkpt><trkpt lat="44.1884268" lon="12.1245654"><ele>31.0</ele><time>2026-04-04T08:03:06.154Z</time></trkpt><trkpt lat="44.1883344" lon="12.1245771"><ele>31.0</ele><time>2026-04-04T08:03:08.151Z</time></trkpt><trkpt lat="44.188266" lon="12.1245624"><ele>31.000000000000004</ele><time>2026-04-04T08:03:10.151Z</time></trkpt><trkpt lat="44.1881744" lon="12.1245334"><ele>31.0</ele><time>2026-04-04T08:03:12.142Z</time></trkpt><trkpt lat="44.1880753" lon="12.1245584"><ele>31.0</ele><time>2026-04-04T08:03:14.159Z</time></trkpt><trkpt lat="44.1880117" lon="12.124595"><ele>31.0</ele><time>2026-04-04T08:03:16.159Z</time></trkpt><trkpt lat="44.1879788" lon="12.1247183"><ele>31.0</ele><time>2026-04-04T08:03:18.167Z</time></trkpt><trkpt lat="44.1879389" lon="12.1248717"><ele>31.0</ele><time>2026-04-04T08:03:20.162Z</time></trkpt><trkpt lat="44.1879129" lon="12.1250189"><ele>31.0</ele><time>2026-04-04T08:03:22.155Z</time></trkpt><trkpt lat="44.1878739" lon="12.1251427"><ele>31.200000000000003</ele><time>2026-04-04T08:03:24.162Z</time></trkpt><trkpt lat="44.1878106" lon="12.1252589"><ele>31.400000000000002</ele><time>2026-04-04T08:03:26.156Z</time></trkpt><trkpt lat="44.1877758" lon="12.1253736"><ele>31.6</ele><time>2026-04-04T08:03:28.143Z</time></trkpt><trkpt lat="44.1877332" lon="12.1254882"><ele>31.8</ele><time>2026-04-04T08:03:30.145Z</time></trkpt><trkpt lat="44.1876899" lon="12.1255971"><ele>32.0</ele><time>2026-04-04T08:03:32.14Z</time></trkpt><trkpt lat="44.1876507" lon="12.1257151"><ele>32.0</ele><time>2026-04-04T08:03:34.156Z</time></trkpt><trkpt lat="44.187603" lon="12.1258488"><ele>32.0</ele><time>2026-04-04T08:03:36.165Z</time></trkpt><trkpt lat="44.1875182" lon="12.1259157"><ele>32.0</ele><time>2026-04-04T08:03:38.166Z</time></trkpt><trkpt lat="44.1874055" lon="12.1259594"><ele>32.0</ele><time>2026-04-04T08:03:40.181Z</time></trkpt><trkpt lat="44.1872982" lon="12.1259854"><ele>32.0</ele><time>2026-04-04T08:03:42.172Z</time></trkpt><trkpt lat="44.187191" lon="12.1260005"><ele>31.833333333333332</ele><time>2026-04-04T08:03:44.176Z</time></trkpt><trkpt lat="44.1871117" lon="12.1260123"><ele>31.666666666666664</ele><time>2026-04-04T08:03:46.184Z</time></trkpt><trkpt lat="44.1870444" lon="12.1260171"><ele>31.5</ele><time>2026-04-04T08:03:48.184Z</time></trkpt><trkpt lat="44.1869647" lon="12.1260286"><ele>31.333333333333336</ele><time>2026-04-04T08:03:50.187Z</time></trkpt><trkpt lat="44.1868922" lon="12.1260142"><ele>31.166666666666668</ele><time>2026-04-04T08:03:52.18Z</time></trkpt><trkpt lat="44.1868079" lon="12.1259503"><ele>31.0</ele><time>2026-04-04T08:03:54.176Z</time></trkpt><trkpt lat="44.1867462" lon="12.1258657"><ele>31.000000000000004</ele><time>2026-04-04T08:03:56.178Z</time></trkpt><trkpt lat="44.1866762" lon="12.1258132"><ele>31.0</ele><time>2026-04-04T08:03:58.189Z</time></trkpt><trkpt lat="44.1866138" lon="12.1257677"><ele>31.0</ele><time>2026-04-04T08:04:00.181Z</time></trkpt><trkpt lat="44.186605" lon="12.1256388"><ele>31.0</ele><time>2026-04-04T08:04:02.188Z</time></trkpt><trkpt lat="44.1866027" lon="12.1255448"><ele>31.000000000000004</ele><time>2026-04-04T08:04:03.17Z</time></trkpt><trkpt lat="44.1865727" lon="12.1254591"><ele>31.0</ele><time>2026-04-04T08:04:04.175Z</time></trkpt><trkpt lat="44.1864631" lon="12.1254313"><ele>31.200000000000003</ele><time>2026-04-04T08:04:06.169Z</time></trkpt><trkpt lat="44.1863414" lon="12.1254162"><ele>31.400000000000002</ele><time>2026-04-04T08:04:08.17Z</time></trkpt><trkpt lat="44.1862841" lon="12.1253706"><ele>31.6</ele><time>2026-04-04T08:04:09.175Z</time></trkpt><trkpt lat="44.1861864" lon="12.1252716"><ele>31.8</ele><time>2026-04-04T08:04:11.189Z</time></trkpt><trkpt lat="44.1860922" lon="12.1251808"><ele>32.0</ele><time>2026-04-04T08:04:13.182Z</time></trkpt><trkpt lat="44.1860006" lon="12.1251004"><ele>32.0</ele><time>2026-04-04T08:04:15.179Z</time></trkpt><trkpt lat="44.1859009" lon="12.1250252"><ele>32.0</ele><time>2026-04-04T08:04:17.175Z</time></trkpt><trkpt lat="44.1858147" lon="12.1249487"><ele>32.0</ele><time>2026-04-04T08:04:19.179Z</time></trkpt><trkpt lat="44.1857188" lon="12.124861"><ele>32.0</ele><time>2026-04-04T08:04:21.184Z</time></trkpt><trkpt lat="44.1856313" lon="12.1247664"><ele>32.0</ele><time>2026-04-04T08:04:23.175Z</time></trkpt><trkpt lat="44.1855572" lon="12.1246747"><ele>32.5</ele><time>2026-04-04T08:04:25.181Z</time></trkpt><trkpt lat="44.1854378" lon="12.1246201"><ele>33.0</ele><time>2026-04-04T08:04:27.177Z</time></trkpt><trkpt lat="44.1853379" lon="12.1245302"><ele>33.5</ele><time>2026-04-04T08:04:29.186Z</time></trkpt><trkpt lat="44.1852347" lon="12.1244278"><ele>34.0</ele><time>2026-04-04T08:04:31.181Z</time></trkpt><trkpt lat="44.1851411" lon="12.124333"><ele>34.0</ele><time>2026-04-04T08:04:33.178Z</time></trkpt><trkpt lat="44.1850541" lon="12.1242408"><ele>34.0</ele><time>2026-04-04T08:04:35.18Z</time></trkpt><trkpt lat="44.1849518" lon="12.1241687"><ele>34.0</ele><time>2026-04-04T08:04:37.177Z</time></trkpt><trkpt lat="44.1848469" lon="12.1241004"><ele>34.0</ele><time>2026-04-04T08:04:39.167Z</time></trkpt><trkpt lat="44.1847448" lon="12.1240211"><ele>33.6</ele><time>2026-04-04T08:04:41.17Z</time></trkpt><trkpt lat="44.1846433" lon="12.1239221"><ele>33.2</ele><time>2026-04-04T08:04:43.178Z</time></trkpt><trkpt lat="44.1845393" lon="12.1238482"><ele>32.800000000000004</ele><time>2026-04-04T08:04:45.177Z</time></trkpt><trkpt lat="44.1844334" lon="12.1237662"><ele>32.4</ele><time>2026-04-04T08:04:47.172Z</time></trkpt><trkpt lat="44.1843767" lon="12.1237246"><ele>32.0</ele><time>2026-04-04T08:04:48.175Z</time></trkpt><trkpt lat="44.1842756" lon="12.1236293"><ele>32.0</ele><time>2026-04-04T08:04:50.182Z</time></trkpt><trkpt lat="44.1841857" lon="12.1235126"><ele>32.0</ele><time>2026-04-04T08:04:52.178Z</time></trkpt><trkpt lat="44.1840977" lon="12.1234122"><ele>32.0</ele><time>2026-04-04T08:04:54.179Z</time></trkpt><trkpt lat="44.1840106" lon="12.1233204"><ele>32.0</ele><time>2026-04-04T08:04:56.173Z</time></trkpt><trkpt lat="44.1839112" lon="12.1232378"><ele>32.0</ele><time>2026-04-04T08:04:58.172Z</time></trkpt><trkpt lat="44.1838061" lon="12.1231629"><ele>32.0</ele><time>2026-04-04T08:05:00.173Z</time></trkpt><trkpt lat="44.1837096" lon="12.1230705"><ele>32.0</ele><time>2026-04-04T08:05:02.175Z</time></trkpt><trkpt lat="44.1836089" lon="12.1229836"><ele>32.0</ele><time>2026-04-04T08:05:04.17Z</time></trkpt><trkpt lat="44.1835053" lon="12.1229083"><ele>32.0</ele><time>2026-04-04T08:05:06.173Z</time></trkpt><trkpt lat="44.1834041" lon="12.1228263"><ele>32.0</ele><time>2026-04-04T08:05:08.171Z</time></trkpt><trkpt lat="44.1833058" lon="12.1227376"><ele>32.0</ele><time>2026-04-04T08:05:10.17Z</time></trkpt><trkpt lat="44.1832013" lon="12.1226592"><ele>32.0</ele><time>2026-04-04T08:05:12.169Z</time></trkpt><trkpt lat="44.1830998" lon="12.1225697"><ele>32.25</ele><time>2026-04-04T08:05:14.175Z</time></trkpt><trkpt lat="44.1829986" lon="12.1224913"><ele>32.5</ele><time>2026-04-04T08:05:16.179Z</time></trkpt><trkpt lat="44.1828993" lon="12.1224072"><ele>32.75</ele><time>2026-04-04T08:05:18.179Z</time></trkpt><trkpt lat="44.1828026" lon="12.1223414"><ele>33.0</ele><time>2026-04-04T08:05:20.177Z</time></trkpt><trkpt lat="44.1826989" lon="12.1222667"><ele>33.0</ele><time>2026-04-04T08:05:22.178Z</time></trkpt><trkpt lat="44.1826042" lon="12.1221854"><ele>33.0</ele><time>2026-04-04T08:05:24.18Z</time></trkpt><trkpt lat="44.1825002" lon="12.1221034"><ele>33.0</ele><time>2026-04-04T08:05:26.184Z</time></trkpt><trkpt lat="44.1824399" lon="12.1220658"><ele>33.0</ele><time>2026-04-04T08:05:27.178Z</time></trkpt><trkpt lat="44.1823414" lon="12.1219772"><ele>33.0</ele><time>2026-04-04T08:05:29.19Z</time></trkpt><trkpt lat="44.1822876" lon="12.12193"><ele>32.833333333333336</ele><time>2026-04-04T08:05:30.171Z</time></trkpt><trkpt lat="44.1821722" lon="12.1218501"><ele>32.666666666666664</ele><time>2026-04-04T08:05:32.172Z</time></trkpt><trkpt lat="44.1821132" lon="12.121807"><ele>32.5</ele><time>2026-04-04T08:05:33.165Z</time></trkpt><trkpt lat="44.1820561" lon="12.1217699"><ele>32.33333333333333</ele><time>2026-04-04T08:05:34.175Z</time></trkpt><trkpt lat="44.181952" lon="12.1216856"><ele>32.166666666666664</ele><time>2026-04-04T08:05:36.181Z</time></trkpt><trkpt lat="44.1818911" lon="12.1216455"><ele>32.0</ele><time>2026-04-04T08:05:37.178Z</time></trkpt><trkpt lat="44.1818309" lon="12.121599"><ele>32.166666666666664</ele><time>2026-04-04T08:05:38.181Z</time></trkpt><trkpt lat="44.1817722" lon="12.1215527"><ele>32.33333333333333</ele><time>2026-04-04T08:05:39.173Z</time></trkpt><trkpt lat="44.1817087" lon="12.1215245"><ele>32.5</ele><time>2026-04-04T08:05:40.18Z</time></trkpt><trkpt lat="44.1816498" lon="12.1214878"><ele>32.666666666666664</ele><time>2026-04-04T08:05:41.181Z</time></trkpt><trkpt lat="44.1815919" lon="12.1214437"><ele>32.833333333333336</ele><time>2026-04-04T08:05:42.169Z</time></trkpt><trkpt lat="44.1815374" lon="12.1213934"><ele>33.0</ele><time>2026-04-04T08:05:43.17Z</time></trkpt><trkpt lat="44.1814333" lon="12.1212962"><ele>33.0</ele><time>2026-04-04T08:05:45.174Z</time></trkpt><trkpt lat="44.1813311" lon="12.1212032"><ele>33.0</ele><time>2026-04-04T08:05:47.17Z</time></trkpt><trkpt lat="44.1812227" lon="12.1211273"><ele>33.0</ele><time>2026-04-04T08:05:49.171Z</time></trkpt><trkpt lat="44.1811156" lon="12.1210471"><ele>33.0</ele><time>2026-04-04T08:05:51.185Z</time></trkpt><trkpt lat="44.1810042" lon="12.1209715"><ele>33.0</ele><time>2026-04-04T08:05:53.18Z</time></trkpt><trkpt lat="44.1808944" lon="12.1208962"><ele>33.0</ele><time>2026-04-04T08:05:55.179Z</time></trkpt><trkpt lat="44.1808327" lon="12.1208515"><ele>33.0</ele><time>2026-04-04T08:05:56.174Z</time></trkpt><trkpt lat="44.1807736" lon="12.1208102"><ele>33.0</ele><time>2026-04-04T08:05:57.167Z</time></trkpt><trkpt lat="44.180721" lon="12.1207582"><ele>33.0</ele><time>2026-04-04T08:05:58.171Z</time></trkpt><trkpt lat="44.1806638" lon="12.1207094"><ele>33.0</ele><time>2026-04-04T08:05:59.187Z</time></trkpt><trkpt lat="44.1806072" lon="12.1206659"><ele>32.8</ele><time>2026-04-04T08:06:00.179Z</time></trkpt><trkpt lat="44.1805415" lon="12.1206318"><ele>32.599999999999994</ele><time>2026-04-04T08:06:01.186Z</time></trkpt><trkpt lat="44.1804318" lon="12.120559"><ele>32.400000000000006</ele><time>2026-04-04T08:06:03.173Z</time></trkpt><trkpt lat="44.1803321" lon="12.1204589"><ele>32.2</ele><time>2026-04-04T08:06:05.177Z</time></trkpt><trkpt lat="44.1802386" lon="12.120364"><ele>32.0</ele><time>2026-04-04T08:06:07.172Z</time></trkpt><trkpt lat="44.1801344" lon="12.120279"><ele>32.0</ele><time>2026-04-04T08:06:09.179Z</time></trkpt><trkpt lat="44.1800323" lon="12.1201959"><ele>32.0</ele><time>2026-04-04T08:06:11.177Z</time></trkpt><trkpt lat="44.1799178" lon="12.1201142"><ele>32.0</ele><time>2026-04-04T08:06:13.177Z</time></trkpt><trkpt lat="44.1798551" lon="12.1200645"><ele>32.0</ele><time>2026-04-04T08:06:14.181Z</time></trkpt><trkpt lat="44.1797964" lon="12.1200234"><ele>32.0</ele><time>2026-04-04T08:06:15.198Z</time></trkpt><trkpt lat="44.1796882" lon="12.1199325"><ele>32.0</ele><time>2026-04-04T08:06:17.189Z</time></trkpt><trkpt lat="44.1796316" lon="12.119884"><ele>32.0</ele><time>2026-04-04T08:06:18.178Z</time></trkpt><trkpt lat="44.1795726" lon="12.1198394"><ele>32.0</ele><time>2026-04-04T08:06:19.173Z</time></trkpt><trkpt lat="44.1794701" lon="12.119755"><ele>32.0</ele><time>2026-04-04T08:06:21.179Z</time></trkpt><trkpt lat="44.179366" lon="12.1196776"><ele>32.0</ele><time>2026-04-04T08:06:23.177Z</time></trkpt><trkpt lat="44.1792603" lon="12.1196086"><ele>31.999999999999996</ele><time>2026-04-04T08:06:25.176Z</time></trkpt><trkpt lat="44.1791959" lon="12.11958"><ele>32.0</ele><time>2026-04-04T08:06:26.186Z</time></trkpt><trkpt lat="44.1790983" lon="12.1195184"><ele>32.0</ele><time>2026-04-04T08:06:28.177Z</time></trkpt><trkpt lat="44.1790455" lon="12.1194606"><ele>32.0</ele><time>2026-04-04T08:06:30.181Z</time></trkpt><trkpt lat="44.1789666" lon="12.1194488"><ele>31.999999999999996</ele><time>2026-04-04T08:06:33.19Z</time></trkpt><trkpt lat="44.1789223" lon="12.1195376"><ele>32.0</ele><time>2026-04-04T08:06:35.187Z</time></trkpt><trkpt lat="44.1788539" lon="12.1196487"><ele>32.2</ele><time>2026-04-04T08:06:37.187Z</time></trkpt><trkpt lat="44.1787843" lon="12.119742"><ele>32.400000000000006</ele><time>2026-04-04T08:06:39.178Z</time></trkpt><trkpt lat="44.1787112" lon="12.1198444"><ele>32.599999999999994</ele><time>2026-04-04T08:06:41.177Z</time></trkpt><trkpt lat="44.1786401" lon="12.1199412"><ele>32.8</ele><time>2026-04-04T08:06:43.181Z</time></trkpt><trkpt lat="44.178567" lon="12.120019"><ele>33.0</ele><time>2026-04-04T08:06:45.172Z</time></trkpt><trkpt lat="44.1784763" lon="12.1200936"><ele>33.0</ele><time>2026-04-04T08:06:47.171Z</time></trkpt><trkpt lat="44.1783781" lon="12.1201511"><ele>33.0</ele><time>2026-04-04T08:06:49.175Z</time></trkpt><trkpt lat="44.1782746" lon="12.120186"><ele>33.0</ele><time>2026-04-04T08:06:51.176Z</time></trkpt><trkpt lat="44.1781711" lon="12.1202041"><ele>33.0</ele><time>2026-04-04T08:06:53.179Z</time></trkpt><trkpt lat="44.1780562" lon="12.1201948"><ele>33.0</ele><time>2026-04-04T08:06:55.178Z</time></trkpt><trkpt lat="44.1779463" lon="12.1201701"><ele>33.0</ele><time>2026-04-04T08:06:57.182Z</time></trkpt><trkpt lat="44.1778343" lon="12.1201332"><ele>33.0</ele><time>2026-04-04T08:06:59.187Z</time></trkpt><trkpt lat="44.1777166" lon="12.1200754"><ele>33.0</ele><time>2026-04-04T08:07:01.175Z</time></trkpt><trkpt lat="44.1776574" lon="12.1200375"><ele>33.0</ele><time>2026-04-04T08:07:02.179Z</time></trkpt><trkpt lat="44.1775561" lon="12.1199641"><ele>33.0</ele><time>2026-04-04T08:07:04.179Z</time></trkpt><trkpt lat="44.1774526" lon="12.1198931"><ele>32.4</ele><time>2026-04-04T08:07:06.185Z</time></trkpt><trkpt lat="44.1773439" lon="12.1198173"><ele>31.799999999999997</ele><time>2026-04-04T08:07:08.174Z</time></trkpt><trkpt lat="44.1772374" lon="12.1197383"><ele>31.2</ele><time>2026-04-04T08:07:10.181Z</time></trkpt><trkpt lat="44.177128" lon="12.119666"><ele>30.6</ele><time>2026-04-04T08:07:12.181Z</time></trkpt><trkpt lat="44.1770705" lon="12.1196283"><ele>30.0</ele><time>2026-04-04T08:07:13.182Z</time></trkpt><trkpt lat="44.1769645" lon="12.119557"><ele>30.0</ele><time>2026-04-04T08:07:15.18Z</time></trkpt><trkpt lat="44.1768564" lon="12.119482"><ele>30.0</ele><time>2026-04-04T08:07:17.216Z</time></trkpt><trkpt lat="44.1767526" lon="12.1194055"><ele>30.0</ele><time>2026-04-04T08:07:19.183Z</time></trkpt><trkpt lat="44.1766445" lon="12.119331"><ele>30.0</ele><time>2026-04-04T08:07:21.175Z</time></trkpt><trkpt lat="44.1765439" lon="12.1192476"><ele>30.2</ele><time>2026-04-04T08:07:23.174Z</time></trkpt><trkpt lat="44.176486" lon="12.1192107"><ele>30.4</ele><time>2026-04-04T08:07:24.175Z</time></trkpt><trkpt lat="44.1763819" lon="12.1191273"><ele>30.6</ele><time>2026-04-04T08:07:26.181Z</time></trkpt><trkpt lat="44.1763251" lon="12.1190887"><ele>30.8</ele><time>2026-04-04T08:07:27.175Z</time></trkpt><trkpt lat="44.1762132" lon="12.1190093"><ele>31.0</ele><time>2026-04-04T08:07:29.186Z</time></trkpt><trkpt lat="44.1761075" lon="12.1189443"><ele>31.25</ele><time>2026-04-04T08:07:31.181Z</time></trkpt><trkpt lat="44.1760109" lon="12.1188607"><ele>31.5</ele><time>2026-04-04T08:07:33.176Z</time></trkpt><trkpt lat="44.1759044" lon="12.1187972"><ele>31.75</ele><time>2026-04-04T08:07:35.175Z</time></trkpt><trkpt lat="44.1757978" lon="12.1187006"><ele>32.0</ele><time>2026-04-04T08:07:37.173Z</time></trkpt><trkpt lat="44.1756906" lon="12.1186246"><ele>32.75</ele><time>2026-04-04T08:07:39.175Z</time></trkpt><trkpt lat="44.1755826" lon="12.118549"><ele>33.5</ele><time>2026-04-04T08:07:41.172Z</time></trkpt><trkpt lat="44.1754781" lon="12.118475"><ele>34.25</ele><time>2026-04-04T08:07:43.175Z</time></trkpt><trkpt lat="44.1753685" lon="12.1184089"><ele>35.0</ele><time>2026-04-04T08:07:45.175Z</time></trkpt><trkpt lat="44.1752577" lon="12.118368"><ele>35.0</ele><time>2026-04-04T08:07:47.188Z</time></trkpt><trkpt lat="44.1751362" lon="12.1183564"><ele>35.0</ele><time>2026-04-04T08:07:49.174Z</time></trkpt><trkpt lat="44.1750204" lon="12.1183654"><ele>35.0</ele><time>2026-04-04T08:07:51.176Z</time></trkpt><trkpt lat="44.1749049" lon="12.1183606"><ele>35.0</ele><time>2026-04-04T08:07:53.173Z</time></trkpt><trkpt lat="44.1748416" lon="12.118362"><ele>35.0</ele><time>2026-04-04T08:07:54.175Z</time></trkpt><trkpt lat="44.1747239" lon="12.118395"><ele>34.8</ele><time>2026-04-04T08:07:56.176Z</time></trkpt><trkpt lat="44.1746243" lon="12.1184362"><ele>34.6</ele><time>2026-04-04T08:07:58.178Z</time></trkpt><trkpt lat="44.1745303" lon="12.1185048"><ele>34.4</ele><time>2026-04-04T08:08:00.176Z</time></trkpt><trkpt lat="44.174437" lon="12.1185811"><ele>34.2</ele><time>2026-04-04T08:08:02.174Z</time></trkpt><trkpt lat="44.1743309" lon="12.1186527"><ele>34.0</ele><time>2026-04-04T08:08:04.176Z</time></trkpt><trkpt lat="44.1742262" lon="12.1187076"><ele>34.0</ele><time>2026-04-04T08:08:06.181Z</time></trkpt><trkpt lat="44.174114" lon="12.1187579"><ele>34.0</ele><time>2026-04-04T08:08:08.174Z</time></trkpt><trkpt lat="44.1740007" lon="12.1188038"><ele>34.0</ele><time>2026-04-04T08:08:10.175Z</time></trkpt><trkpt lat="44.1738879" lon="12.118839"><ele>34.0</ele><time>2026-04-04T08:08:12.175Z</time></trkpt><trkpt lat="44.1737698" lon="12.1188578"><ele>33.75</ele><time>2026-04-04T08:08:14.174Z</time></trkpt><trkpt lat="44.1736591" lon="12.1189026"><ele>33.5</ele><time>2026-04-04T08:08:16.174Z</time></trkpt><trkpt lat="44.1735538" lon="12.1189384"><ele>33.25</ele><time>2026-04-04T08:08:18.192Z</time></trkpt><trkpt lat="44.17344" lon="12.1189751"><ele>33.0</ele><time>2026-04-04T08:08:20.178Z</time></trkpt><trkpt lat="44.1733268" lon="12.1189813"><ele>33.0</ele><time>2026-04-04T08:08:22.178Z</time></trkpt><trkpt lat="44.1732051" lon="12.1189742"><ele>33.0</ele><time>2026-04-04T08:08:24.175Z</time></trkpt><trkpt lat="44.1730846" lon="12.1189469"><ele>33.0</ele><time>2026-04-04T08:08:26.173Z</time></trkpt><trkpt lat="44.1729726" lon="12.1189246"><ele>33.0</ele><time>2026-04-04T08:08:28.174Z</time></trkpt><trkpt lat="44.1728586" lon="12.1188998"><ele>33.5</ele><time>2026-04-04T08:08:30.172Z</time></trkpt><trkpt lat="44.172744" lon="12.1188859"><ele>34.0</ele><time>2026-04-04T08:08:32.17Z</time></trkpt><trkpt lat="44.1726313" lon="12.1188948"><ele>34.5</ele><time>2026-04-04T08:08:34.169Z</time></trkpt><trkpt lat="44.1725186" lon="12.1188999"><ele>35.0</ele><time>2026-04-04T08:08:36.171Z</time></trkpt><trkpt lat="44.1723959" lon="12.1188836"><ele>35.2</ele><time>2026-04-04T08:08:38.179Z</time></trkpt><trkpt lat="44.1722782" lon="12.1188788"><ele>35.4</ele><time>2026-04-04T08:08:40.174Z</time></trkpt><trkpt lat="44.1721626" lon="12.1188553"><ele>35.6</ele><time>2026-04-04T08:08:42.175Z</time></trkpt><trkpt lat="44.1720417" lon="12.1188511"><ele>35.8</ele><time>2026-04-04T08:08:44.178Z</time></trkpt><trkpt lat="44.171978" lon="12.1188434"><ele>36.0</ele><time>2026-04-04T08:08:45.174Z</time></trkpt><trkpt lat="44.171911" lon="12.1188344"><ele>36.0</ele><time>2026-04-04T08:08:46.172Z</time></trkpt><trkpt lat="44.1717881" lon="12.1188191"><ele>36.0</ele><time>2026-04-04T08:08:48.17Z</time></trkpt><trkpt lat="44.1716703" lon="12.1188152"><ele>36.0</ele><time>2026-04-04T08:08:50.174Z</time></trkpt><trkpt lat="44.171558" lon="12.1188162"><ele>36.0</ele><time>2026-04-04T08:08:52.174Z</time></trkpt><trkpt lat="44.1714398" lon="12.1188051"><ele>36.0</ele><time>2026-04-04T08:08:54.175Z</time></trkpt><trkpt lat="44.1713768" lon="12.1188044"><ele>36.0</ele><time>2026-04-04T08:08:55.174Z</time></trkpt><trkpt lat="44.1712584" lon="12.1188011"><ele>36.0</ele><time>2026-04-04T08:08:57.174Z</time></trkpt><trkpt lat="44.1711437" lon="12.1188021"><ele>36.0</ele><time>2026-04-04T08:08:59.182Z</time></trkpt><trkpt lat="44.1710263" lon="12.1187978"><ele>36.0</ele><time>2026-04-04T08:09:01.175Z</time></trkpt><trkpt lat="44.1709106" lon="12.1187852"><ele>36.0</ele><time>2026-04-04T08:09:03.174Z</time></trkpt><trkpt lat="44.1707986" lon="12.1187806"><ele>36.0</ele><time>2026-04-04T08:09:05.173Z</time></trkpt><trkpt lat="44.1706844" lon="12.1187701"><ele>36.0</ele><time>2026-04-04T08:09:07.174Z</time></trkpt><trkpt lat="44.1705705" lon="12.1187598"><ele>36.0</ele><time>2026-04-04T08:09:09.178Z</time></trkpt><trkpt lat="44.1704542" lon="12.1187595"><ele>36.6</ele><time>2026-04-04T08:09:11.183Z</time></trkpt><trkpt lat="44.1703445" lon="12.1187477"><ele>37.2</ele><time>2026-04-04T08:09:13.176Z</time></trkpt><trkpt lat="44.1702816" lon="12.1187413"><ele>37.8</ele><time>2026-04-04T08:09:14.178Z</time></trkpt><trkpt lat="44.1702157" lon="12.118738"><ele>38.4</ele><time>2026-04-04T08:09:15.17Z</time></trkpt><trkpt lat="44.1700962" lon="12.1187304"><ele>39.0</ele><time>2026-04-04T08:09:17.173Z</time></trkpt><trkpt lat="44.1699704" lon="12.1187299"><ele>38.8</ele><time>2026-04-04T08:09:19.175Z</time></trkpt><trkpt lat="44.1698395" lon="12.1187256"><ele>38.599999999999994</ele><time>2026-04-04T08:09:21.179Z</time></trkpt><trkpt lat="44.1697191" lon="12.1187147"><ele>38.4</ele><time>2026-04-04T08:09:23.179Z</time></trkpt><trkpt lat="44.1696002" lon="12.1187057"><ele>38.199999999999996</ele><time>2026-04-04T08:09:25.179Z</time></trkpt><trkpt lat="44.1695357" lon="12.1186984"><ele>38.0</ele><time>2026-04-04T08:09:26.172Z</time></trkpt><trkpt lat="44.1694058" lon="12.1186941"><ele>38.0</ele><time>2026-04-04T08:09:28.174Z</time></trkpt><trkpt lat="44.1693382" lon="12.1186841"><ele>38.0</ele><time>2026-04-04T08:09:29.18Z</time></trkpt><trkpt lat="44.1692172" lon="12.118679"><ele>38.0</ele><time>2026-04-04T08:09:31.175Z</time></trkpt><trkpt lat="44.1691015" lon="12.1186735"><ele>38.0</ele><time>2026-04-04T08:09:33.174Z</time></trkpt><trkpt lat="44.1690356" lon="12.1186761"><ele>38.0</ele><time>2026-04-04T08:09:34.174Z</time></trkpt><trkpt lat="44.1689199" lon="12.1186777"><ele>38.0</ele><time>2026-04-04T08:09:36.171Z</time></trkpt><trkpt lat="44.1688542" lon="12.1186806"><ele>38.0</ele><time>2026-04-04T08:09:37.175Z</time></trkpt><trkpt lat="44.1687275" lon="12.1186815"><ele>38.0</ele><time>2026-04-04T08:09:39.182Z</time></trkpt><trkpt lat="44.1686079" lon="12.1186901"><ele>38.0</ele><time>2026-04-04T08:09:41.177Z</time></trkpt><trkpt lat="44.168544" lon="12.1186922"><ele>38.0</ele><time>2026-04-04T08:09:42.177Z</time></trkpt><trkpt lat="44.1684798" lon="12.1186878"><ele>38.0</ele><time>2026-04-04T08:09:43.175Z</time></trkpt><trkpt lat="44.1683644" lon="12.1186817"><ele>38.0</ele><time>2026-04-04T08:09:45.172Z</time></trkpt><trkpt lat="44.168257" lon="12.1186859"><ele>38.0</ele><time>2026-04-04T08:09:47.176Z</time></trkpt><trkpt lat="44.1681928" lon="12.1186908"><ele>38.0</ele><time>2026-04-04T08:09:48.175Z</time></trkpt><trkpt lat="44.1681276" lon="12.1186895"><ele>38.0</ele><time>2026-04-04T08:09:49.18Z</time></trkpt><trkpt lat="44.1680645" lon="12.1186845"><ele>38.0</ele><time>2026-04-04T08:09:50.176Z</time></trkpt><trkpt lat="44.167938" lon="12.1186827"><ele>38.0</ele><time>2026-04-04T08:09:52.18Z</time></trkpt><trkpt lat="44.1678217" lon="12.118687"><ele>38.0</ele><time>2026-04-04T08:09:54.178Z</time></trkpt><trkpt lat="44.1676988" lon="12.1186932"><ele>38.0</ele><time>2026-04-04T08:09:56.187Z</time></trkpt><trkpt lat="44.1675783" lon="12.1186867"><ele>38.0</ele><time>2026-04-04T08:09:58.174Z</time></trkpt><trkpt lat="44.1674615" lon="12.1186863"><ele>38.0</ele><time>2026-04-04T08:10:00.177Z</time></trkpt><trkpt lat="44.1673492" lon="12.1186784"><ele>38.166666666666664</ele><time>2026-04-04T08:10:02.177Z</time></trkpt><trkpt lat="44.1672838" lon="12.1186798"><ele>38.33333333333333</ele><time>2026-04-04T08:10:03.178Z</time></trkpt><trkpt lat="44.1671585" lon="12.1186754"><ele>38.5</ele><time>2026-04-04T08:10:05.174Z</time></trkpt><trkpt lat="44.1670369" lon="12.1186758"><ele>38.666666666666664</ele><time>2026-04-04T08:10:07.186Z</time></trkpt><trkpt lat="44.1669709" lon="12.1186713"><ele>38.833333333333336</ele><time>2026-04-04T08:10:08.173Z</time></trkpt><trkpt lat="44.1669039" lon="12.1186761"><ele>39.0</ele><time>2026-04-04T08:10:09.181Z</time></trkpt><trkpt lat="44.1667735" lon="12.1186952"><ele>39.0</ele><time>2026-04-04T08:10:11.177Z</time></trkpt><trkpt lat="44.1667093" lon="12.1186967"><ele>39.0</ele><time>2026-04-04T08:10:12.175Z</time></trkpt><trkpt lat="44.1666429" lon="12.1186981"><ele>39.0</ele><time>2026-04-04T08:10:13.173Z</time></trkpt><trkpt lat="44.1665294" lon="12.1186952"><ele>39.0</ele><time>2026-04-04T08:10:15.173Z</time></trkpt><trkpt lat="44.1664637" lon="12.1186966"><ele>39.0</ele><time>2026-04-04T08:10:16.176Z</time></trkpt><trkpt lat="44.16635" lon="12.1186959"><ele>39.0</ele><time>2026-04-04T08:10:18.173Z</time></trkpt><trkpt lat="44.1662264" lon="12.118683"><ele>38.8</ele><time>2026-04-04T08:10:20.174Z</time></trkpt><trkpt lat="44.1661126" lon="12.1186727"><ele>38.599999999999994</ele><time>2026-04-04T08:10:22.195Z</time></trkpt><trkpt lat="44.1659866" lon="12.1186778"><ele>38.4</ele><time>2026-04-04T08:10:24.183Z</time></trkpt><trkpt lat="44.1659183" lon="12.1186731"><ele>38.199999999999996</ele><time>2026-04-04T08:10:25.174Z</time></trkpt><trkpt lat="44.1658549" lon="12.1186663"><ele>38.0</ele><time>2026-04-04T08:10:26.177Z</time></trkpt><trkpt lat="44.1657341" lon="12.1186641"><ele>38.4</ele><time>2026-04-04T08:10:28.176Z</time></trkpt><trkpt lat="44.165671" lon="12.1186678"><ele>38.8</ele><time>2026-04-04T08:10:29.18Z</time></trkpt><trkpt lat="44.1655544" lon="12.1186699"><ele>39.2</ele><time>2026-04-04T08:10:31.175Z</time></trkpt><trkpt lat="44.1654339" lon="12.1186802"><ele>39.6</ele><time>2026-04-04T08:10:33.176Z</time></trkpt><trkpt lat="44.1653708" lon="12.1186848"><ele>40.0</ele><time>2026-04-04T08:10:34.177Z</time></trkpt><trkpt lat="44.1652515" lon="12.1187014"><ele>40.0</ele><time>2026-04-04T08:10:36.176Z</time></trkpt><trkpt lat="44.1651305" lon="12.1187244"><ele>40.0</ele><time>2026-04-04T08:10:38.175Z</time></trkpt><trkpt lat="44.1650128" lon="12.1187719"><ele>40.0</ele><time>2026-04-04T08:10:40.173Z</time></trkpt><trkpt lat="44.1648999" lon="12.1188275"><ele>40.0</ele><time>2026-04-04T08:10:42.175Z</time></trkpt><trkpt lat="44.1647893" lon="12.1189097"><ele>40.0</ele><time>2026-04-04T08:10:44.175Z</time></trkpt><trkpt lat="44.1646855" lon="12.1189897"><ele>40.0</ele><time>2026-04-04T08:10:46.175Z</time></trkpt><trkpt lat="44.1645877" lon="12.1190789"><ele>40.0</ele><time>2026-04-04T08:10:48.174Z</time></trkpt><trkpt lat="44.1644921" lon="12.1191572"><ele>40.0</ele><time>2026-04-04T08:10:50.174Z</time></trkpt><trkpt lat="44.164393" lon="12.119231"><ele>40.0</ele><time>2026-04-04T08:10:52.175Z</time></trkpt><trkpt lat="44.1643388" lon="12.1192769"><ele>40.0</ele><time>2026-04-04T08:10:53.193Z</time></trkpt><trkpt lat="44.1642829" lon="12.1193228"><ele>40.0</ele><time>2026-04-04T08:10:54.176Z</time></trkpt><trkpt lat="44.1641832" lon="12.1194126"><ele>40.0</ele><time>2026-04-04T08:10:56.175Z</time></trkpt><trkpt lat="44.1640763" lon="12.1195057"><ele>40.0</ele><time>2026-04-04T08:10:58.175Z</time></trkpt><trkpt lat="44.1639702" lon="12.1195885"><ele>40.0</ele><time>2026-04-04T08:11:00.175Z</time></trkpt><trkpt lat="44.1638804" lon="12.1196742"><ele>40.0</ele><time>2026-04-04T08:11:02.172Z</time></trkpt><trkpt lat="44.1638273" lon="12.1197217"><ele>40.0</ele><time>2026-04-04T08:11:03.175Z</time></trkpt><trkpt lat="44.1637231" lon="12.1198029"><ele>40.0</ele><time>2026-04-04T08:11:05.171Z</time></trkpt><trkpt lat="44.1636125" lon="12.1198838"><ele>40.0</ele><time>2026-04-04T08:11:07.181Z</time></trkpt><trkpt lat="44.1635511" lon="12.1199131"><ele>40.0</ele><time>2026-04-04T08:11:08.174Z</time></trkpt><trkpt lat="44.163487" lon="12.1199404"><ele>40.0</ele><time>2026-04-04T08:11:09.172Z</time></trkpt><trkpt lat="44.1633739" lon="12.1199708"><ele>40.0</ele><time>2026-04-04T08:11:11.174Z</time></trkpt><trkpt lat="44.1632539" lon="12.119973"><ele>40.0</ele><time>2026-04-04T08:11:13.176Z</time></trkpt><trkpt lat="44.1631378" lon="12.1199769"><ele>40.0</ele><time>2026-04-04T08:11:15.176Z</time></trkpt><trkpt lat="44.1630124" lon="12.1199744"><ele>40.0</ele><time>2026-04-04T08:11:17.186Z</time></trkpt><trkpt lat="44.1628963" lon="12.1199693"><ele>40.0</ele><time>2026-04-04T08:11:19.175Z</time></trkpt><trkpt lat="44.1627747" lon="12.1199827"><ele>40.0</ele><time>2026-04-04T08:11:21.174Z</time></trkpt><trkpt lat="44.1627104" lon="12.1199863"><ele>40.0</ele><time>2026-04-04T08:11:22.175Z</time></trkpt><trkpt lat="44.1625941" lon="12.1199821"><ele>40.0</ele><time>2026-04-04T08:11:24.195Z</time></trkpt><trkpt lat="44.1624789" lon="12.1199827"><ele>40.0</ele><time>2026-04-04T08:11:26.181Z</time></trkpt><trkpt lat="44.1623681" lon="12.1199862"><ele>40.0</ele><time>2026-04-04T08:11:28.176Z</time></trkpt><trkpt lat="44.1622527" lon="12.1199849"><ele>40.0</ele><time>2026-04-04T08:11:30.174Z</time></trkpt><trkpt lat="44.1621417" lon="12.1199897"><ele>40.0</ele><time>2026-04-04T08:11:32.174Z</time></trkpt><trkpt lat="44.1620232" lon="12.1199935"><ele>40.333333333333336</ele><time>2026-04-04T08:11:34.172Z</time></trkpt><trkpt lat="44.1619576" lon="12.1199993"><ele>40.66666666666667</ele><time>2026-04-04T08:11:35.174Z</time></trkpt><trkpt lat="44.1618885" lon="12.1200059"><ele>41.0</ele><time>2026-04-04T08:11:36.173Z</time></trkpt><trkpt lat="44.1618241" lon="12.1200016"><ele>41.333333333333336</ele><time>2026-04-04T08:11:37.182Z</time></trkpt><trkpt lat="44.1617019" lon="12.1200141"><ele>41.666666666666664</ele><time>2026-04-04T08:11:39.174Z</time></trkpt><trkpt lat="44.1616067" lon="12.1200147"><ele>42.0</ele><time>2026-04-04T08:11:41.169Z</time></trkpt><trkpt lat="44.1615137" lon="12.1199721"><ele>42.333333333333336</ele><time>2026-04-04T08:11:43.16Z</time></trkpt><trkpt lat="44.1614732" lon="12.1198074"><ele>42.666666666666664</ele><time>2026-04-04T08:11:45.165Z</time></trkpt><trkpt lat="44.1614752" lon="12.1197036"><ele>43.0</ele><time>2026-04-04T08:11:46.179Z</time></trkpt><trkpt lat="44.1614685" lon="12.1196139"><ele>43.33333333333333</ele><time>2026-04-04T08:11:47.183Z</time></trkpt><trkpt lat="44.1614611" lon="12.1195263"><ele>43.666666666666664</ele><time>2026-04-04T08:11:48.17Z</time></trkpt><trkpt lat="44.1614425" lon="12.119363"><ele>44.0</ele><time>2026-04-04T08:11:50.173Z</time></trkpt><trkpt lat="44.1614182" lon="12.1192028"><ele>44.2</ele><time>2026-04-04T08:11:52.175Z</time></trkpt><trkpt lat="44.1613944" lon="12.1190412"><ele>44.400000000000006</ele><time>2026-04-04T08:11:54.173Z</time></trkpt><trkpt lat="44.1613775" lon="12.1188982"><ele>44.6</ele><time>2026-04-04T08:11:56.174Z</time></trkpt><trkpt lat="44.1613535" lon="12.1187521"><ele>44.8</ele><time>2026-04-04T08:11:58.174Z</time></trkpt><trkpt lat="44.161329" lon="12.1186115"><ele>45.0</ele><time>2026-04-04T08:12:00.173Z</time></trkpt><trkpt lat="44.1613039" lon="12.1184598"><ele>45.0</ele><time>2026-04-04T08:12:02.173Z</time></trkpt><trkpt lat="44.1612762" lon="12.1183124"><ele>45.0</ele><time>2026-04-04T08:12:04.173Z</time></trkpt><trkpt lat="44.1612398" lon="12.1181764"><ele>45.0</ele><time>2026-04-04T08:12:06.171Z</time></trkpt><trkpt lat="44.1612334" lon="12.1180315"><ele>45.0</ele><time>2026-04-04T08:12:08.172Z</time></trkpt><trkpt lat="44.1612133" lon="12.1179119"><ele>45.0</ele><time>2026-04-04T08:12:10.168Z</time></trkpt><trkpt lat="44.161208" lon="12.1178066"><ele>46.2</ele><time>2026-04-04T08:12:12.181Z</time></trkpt><trkpt lat="44.1611216" lon="12.1177903"><ele>47.4</ele><time>2026-04-04T08:12:14.185Z</time></trkpt><trkpt lat="44.1610368" lon="12.1178518"><ele>48.599999999999994</ele><time>2026-04-04T08:12:16.186Z</time></trkpt><trkpt lat="44.1609477" lon="12.117909"><ele>49.8</ele><time>2026-04-04T08:12:18.173Z</time></trkpt><trkpt lat="44.1608603" lon="12.1179571"><ele>51.0</ele><time>2026-04-04T08:12:20.172Z</time></trkpt><trkpt lat="44.1607633" lon="12.1179848"><ele>52.0</ele><time>2026-04-04T08:12:22.182Z</time></trkpt><trkpt lat="44.1606703" lon="12.1180304"><ele>53.0</ele><time>2026-04-04T08:12:24.183Z</time></trkpt><trkpt lat="44.1605817" lon="12.1180679"><ele>53.99999999999999</ele><time>2026-04-04T08:12:26.182Z</time></trkpt><trkpt lat="44.1604824" lon="12.1181129"><ele>55.0</ele><time>2026-04-04T08:12:28.184Z</time></trkpt><trkpt lat="44.1603928" lon="12.11815"><ele>56.0</ele><time>2026-04-04T08:12:30.179Z</time></trkpt><trkpt lat="44.1602936" lon="12.11818"><ele>56.0</ele><time>2026-04-04T08:12:32.172Z</time></trkpt><trkpt lat="44.160202" lon="12.1182052"><ele>55.99999999999999</ele><time>2026-04-04T08:12:34.174Z</time></trkpt><trkpt lat="44.1601117" lon="12.1182407"><ele>55.99999999999999</ele><time>2026-04-04T08:12:36.171Z</time></trkpt><trkpt lat="44.1600243" lon="12.1182611"><ele>56.0</ele><time>2026-04-04T08:12:38.169Z</time></trkpt><trkpt lat="44.1599195" lon="12.1182829"><ele>56.0</ele><time>2026-04-04T08:12:40.166Z</time></trkpt><trkpt lat="44.1598215" lon="12.1183096"><ele>55.0</ele><time>2026-04-04T08:12:42.173Z</time></trkpt><trkpt lat="44.1597213" lon="12.1183328"><ele>53.99999999999999</ele><time>2026-04-04T08:12:44.174Z</time></trkpt><trkpt lat="44.1596206" lon="12.1183411"><ele>53.0</ele><time>2026-04-04T08:12:46.172Z</time></trkpt><trkpt lat="44.1595168" lon="12.1183804"><ele>52.0</ele><time>2026-04-04T08:12:48.172Z</time></trkpt><trkpt lat="44.1594143" lon="12.1184032"><ele>51.0</ele><time>2026-04-04T08:12:50.172Z</time></trkpt><trkpt lat="44.1593142" lon="12.1184306"><ele>51.0</ele><time>2026-04-04T08:12:52.174Z</time></trkpt><trkpt lat="44.1592028" lon="12.1184531"><ele>51.0</ele><time>2026-04-04T08:12:54.173Z</time></trkpt><trkpt lat="44.1590972" lon="12.1184692"><ele>51.0</ele><time>2026-04-04T08:12:56.186Z</time></trkpt><trkpt lat="44.1589868" lon="12.1184908"><ele>51.0</ele><time>2026-04-04T08:12:58.179Z</time></trkpt><trkpt lat="44.1588886" lon="12.1185306"><ele>51.0</ele><time>2026-04-04T08:13:00.173Z</time></trkpt><trkpt lat="44.1587761" lon="12.1185597"><ele>51.199999999999996</ele><time>2026-04-04T08:13:02.171Z</time></trkpt><trkpt lat="44.1587081" lon="12.1185825"><ele>51.4</ele><time>2026-04-04T08:13:03.185Z</time></trkpt><trkpt lat="44.1585898" lon="12.1186262"><ele>51.6</ele><time>2026-04-04T08:13:05.178Z</time></trkpt><trkpt lat="44.1584838" lon="12.1186565"><ele>51.8</ele><time>2026-04-04T08:13:07.163Z</time></trkpt><trkpt lat="44.158372" lon="12.1186729"><ele>52.0</ele><time>2026-04-04T08:13:09.17Z</time></trkpt><trkpt lat="44.1582738" lon="12.1187236"><ele>51.400000000000006</ele><time>2026-04-04T08:13:11.169Z</time></trkpt><trkpt lat="44.1581886" lon="12.11878"><ele>50.800000000000004</ele><time>2026-04-04T08:13:13.18Z</time></trkpt><trkpt lat="44.1580918" lon="12.1188452"><ele>50.2</ele><time>2026-04-04T08:13:15.178Z</time></trkpt><trkpt lat="44.1580101" lon="12.1189311"><ele>49.6</ele><time>2026-04-04T08:13:17.17Z</time></trkpt><trkpt lat="44.1579289" lon="12.119032"><ele>49.0</ele><time>2026-04-04T08:13:19.172Z</time></trkpt><trkpt lat="44.1578362" lon="12.1191297"><ele>49.0</ele><time>2026-04-04T08:13:21.173Z</time></trkpt><trkpt lat="44.1577853" lon="12.1191864"><ele>49.0</ele><time>2026-04-04T08:13:22.175Z</time></trkpt><trkpt lat="44.1577124" lon="12.1192962"><ele>49.0</ele><time>2026-04-04T08:13:24.175Z</time></trkpt><trkpt lat="44.1576316" lon="12.1193855"><ele>49.0</ele><time>2026-04-04T08:13:26.174Z</time></trkpt><trkpt lat="44.1575474" lon="12.119476"><ele>49.0</ele><time>2026-04-04T08:13:28.173Z</time></trkpt><trkpt lat="44.1574519" lon="12.1195372"><ele>49.0</ele><time>2026-04-04T08:13:30.172Z</time></trkpt><trkpt lat="44.1573776" lon="12.1196151"><ele>49.0</ele><time>2026-04-04T08:13:32.171Z</time></trkpt><trkpt lat="44.1573673" lon="12.1197663"><ele>49.0</ele><time>2026-04-04T08:13:34.174Z</time></trkpt><trkpt lat="44.1573838" lon="12.119937"><ele>49.0</ele><time>2026-04-04T08:13:36.17Z</time></trkpt><trkpt lat="44.1573913" lon="12.1200275"><ele>49.0</ele><time>2026-04-04T08:13:37.172Z</time></trkpt><trkpt lat="44.1573997" lon="12.1201215"><ele>48.25</ele><time>2026-04-04T08:13:38.174Z</time></trkpt><trkpt lat="44.1573956" lon="12.1202992"><ele>47.5</ele><time>2026-04-04T08:13:40.172Z</time></trkpt><trkpt lat="44.1573939" lon="12.1204563"><ele>46.75</ele><time>2026-04-04T08:13:42.174Z</time></trkpt><trkpt lat="44.1574087" lon="12.1206127"><ele>46.0</ele><time>2026-04-04T08:13:44.175Z</time></trkpt><trkpt lat="44.1574168" lon="12.1207578"><ele>46.0</ele><time>2026-04-04T08:13:46.173Z</time></trkpt><trkpt lat="44.1574174" lon="12.1208855"><ele>46.0</ele><time>2026-04-04T08:13:48.173Z</time></trkpt><trkpt lat="44.1574294" lon="12.1210151"><ele>46.0</ele><time>2026-04-04T08:13:50.178Z</time></trkpt><trkpt lat="44.1574283" lon="12.1211098"><ele>46.0</ele><time>2026-04-04T08:13:52.187Z</time></trkpt><trkpt lat="44.1574272" lon="12.1212155"><ele>46.0</ele><time>2026-04-04T08:13:54.183Z</time></trkpt><trkpt lat="44.1574318" lon="12.1213072"><ele>46.0</ele><time>2026-04-04T08:13:56.185Z</time></trkpt><trkpt lat="44.157428" lon="12.121402"><ele>46.0</ele><time>2026-04-04T08:13:58.2Z</time></trkpt><trkpt lat="44.1574283" lon="12.1215059"><ele>46.0</ele><time>2026-04-04T08:14:00.181Z</time></trkpt><trkpt lat="44.1574257" lon="12.1216004"><ele>46.0</ele><time>2026-04-04T08:14:02.182Z</time></trkpt><trkpt lat="44.1574212" lon="12.1217009"><ele>46.0</ele><time>2026-04-04T08:14:04.182Z</time></trkpt><trkpt lat="44.1574273" lon="12.1217951"><ele>46.0</ele><time>2026-04-04T08:14:06.18Z</time></trkpt><trkpt lat="44.1574351" lon="12.121907"><ele>46.0</ele><time>2026-04-04T08:14:09.134Z</time></trkpt><trkpt lat="44.1574457" lon="12.1220224"><ele>46.0</ele><time>2026-04-04T08:14:12.18Z</time></trkpt><trkpt lat="44.1574554" lon="12.122135"><ele>46.142857142857146</ele><time>2026-04-04T08:14:15.186Z</time></trkpt><trkpt lat="44.1574627" lon="12.1222545"><ele>46.285714285714285</ele><time>2026-04-04T08:14:19.183Z</time></trkpt><trkpt lat="44.1574617" lon="12.122355"><ele>46.42857142857143</ele><time>2026-04-04T08:14:22.181Z</time></trkpt><trkpt lat="44.1574375" lon="12.1224427"><ele>46.57142857142857</ele><time>2026-04-04T08:14:25.181Z</time></trkpt><trkpt lat="44.1573666" lon="12.1224957"><ele>46.71428571428571</ele><time>2026-04-04T08:14:28.185Z</time></trkpt><trkpt lat="44.1572997" lon="12.1225228"><ele>46.857142857142854</ele><time>2026-04-04T08:14:31.181Z</time></trkpt><trkpt lat="44.1572371" lon="12.1225374"><ele>47.0</ele><time>2026-04-04T08:14:34.171Z</time></trkpt><trkpt lat="44.1571731" lon="12.1225571"><ele>49.0</ele><time>2026-04-04T08:14:37.176Z</time></trkpt><trkpt lat="44.1570957" lon="12.1225832"><ele>51.0</ele><time>2026-04-04T08:14:41.18Z</time></trkpt><trkpt lat="44.1570243" lon="12.1226246"><ele>53.0</ele><time>2026-04-04T08:14:45.181Z</time></trkpt><trkpt lat="44.1569765" lon="12.1226825"><ele>55.0</ele><time>2026-04-04T08:14:48.182Z</time></trkpt><trkpt lat="44.15692" lon="12.1227242"><ele>57.0</ele><time>2026-04-04T08:14:57.179Z</time></trkpt><trkpt lat="44.156865" lon="12.1226583"><ele>58.99999999999999</ele><time>2026-04-04T08:15:00.216Z</time></trkpt><trkpt lat="44.1567954" lon="12.1226244"><ele>60.99999999999999</ele><time>2026-04-04T08:15:03.183Z</time></trkpt><trkpt lat="44.1567102" lon="12.1225936"><ele>60.99999999999999</ele><time>2026-04-04T08:15:06.175Z</time></trkpt><trkpt lat="44.1566339" lon="12.1225942"><ele>61.0</ele><time>2026-04-04T08:15:09.177Z</time></trkpt><trkpt lat="44.1565655" lon="12.1226567"><ele>60.99999999999999</ele><time>2026-04-04T08:15:12.178Z</time></trkpt><trkpt lat="44.15654" lon="12.1227598"><ele>60.99999999999999</ele><time>2026-04-04T08:15:15.176Z</time></trkpt><trkpt lat="44.1565469" lon="12.1228531"><ele>61.0</ele><time>2026-04-04T08:15:18.188Z</time></trkpt><trkpt lat="44.1565569" lon="12.1229528"><ele>60.99999999999999</ele><time>2026-04-04T08:15:21.096Z</time></trkpt><trkpt lat="44.1565727" lon="12.123048"><ele>60.99999999999999</ele><time>2026-04-04T08:15:24.186Z</time></trkpt><trkpt lat="44.156576" lon="12.1231368"><ele>60.99999999999999</ele><time>2026-04-04T08:15:27.182Z</time></trkpt><trkpt lat="44.1565797" lon="12.1232265"><ele>61.0</ele><time>2026-04-04T08:15:30.185Z</time></trkpt><trkpt lat="44.1565873" lon="12.1233273"><ele>60.99999999999999</ele><time>2026-04-04T08:15:34.183Z</time></trkpt><trkpt lat="44.1565888" lon="12.1234331"><ele>60.99999999999999</ele><time>2026-04-04T08:15:39.185Z</time></trkpt><trkpt lat="44.1565829" lon="12.1235336"><ele>61.0</ele><time>2026-04-04T08:15:43.182Z</time></trkpt><trkpt lat="44.1565887" lon="12.1236305"><ele>60.99999999999999</ele><time>2026-04-04T08:15:47.187Z</time></trkpt><trkpt lat="44.1565988" lon="12.1237235"><ele>60.99999999999999</ele><time>2026-04-04T08:15:51.185Z</time></trkpt><trkpt lat="44.1566046" lon="12.1238239"><ele>62.28571428571428</ele><time>2026-04-04T08:15:55.183Z</time></trkpt><trkpt lat="44.1566109" lon="12.1239167"><ele>63.57142857142857</ele><time>2026-04-04T08:15:59.185Z</time></trkpt><trkpt lat="44.1566178" lon="12.1240196"><ele>64.85714285714286</ele><time>2026-04-04T08:16:03.183Z</time></trkpt><trkpt lat="44.1566183" lon="12.1241184"><ele>66.14285714285714</ele><time>2026-04-04T08:16:07.183Z</time></trkpt><trkpt lat="44.1566168" lon="12.1242129"><ele>67.42857142857143</ele><time>2026-04-04T08:16:11.184Z</time></trkpt><trkpt lat="44.1566666" lon="12.124295"><ele>68.71428571428571</ele><time>2026-04-04T08:16:15.183Z</time></trkpt><trkpt lat="44.1566903" lon="12.1243809"><ele>70.0</ele><time>2026-04-04T08:16:18.185Z</time></trkpt><trkpt lat="44.156697" lon="12.1244714"><ele>70.83333333333333</ele><time>2026-04-04T08:16:21.187Z</time></trkpt><trkpt lat="44.1566942" lon="12.1245668"><ele>71.66666666666666</ele><time>2026-04-04T08:16:24.189Z</time></trkpt><trkpt lat="44.1566139" lon="12.1245889"><ele>72.5</ele><time>2026-04-04T08:16:28.187Z</time></trkpt><trkpt lat="44.1565381" lon="12.1245651"><ele>73.33333333333333</ele><time>2026-04-04T08:16:31.19Z</time></trkpt><trkpt lat="44.156486" lon="12.1245139"><ele>74.16666666666667</ele><time>2026-04-04T08:16:33.199Z</time></trkpt><trkpt lat="44.1564148" lon="12.1244733"><ele>75.0</ele><time>2026-04-04T08:16:35.185Z</time></trkpt><trkpt lat="44.1563273" lon="12.1244211"><ele>75.0</ele><time>2026-04-04T08:16:37.181Z</time></trkpt><trkpt lat="44.1562156" lon="12.1243601"><ele>75.0</ele><time>2026-04-04T08:16:39.17Z</time></trkpt><trkpt lat="44.1561068" lon="12.1243956"><ele>75.0</ele><time>2026-04-04T08:16:41.165Z</time></trkpt><trkpt lat="44.1560419" lon="12.1245297"><ele>75.0</ele><time>2026-04-04T08:16:43.174Z</time></trkpt><trkpt lat="44.1559914" lon="12.1246902"><ele>75.0</ele><time>2026-04-04T08:16:45.174Z</time></trkpt><trkpt lat="44.155931" lon="12.1248293"><ele>75.0</ele><time>2026-04-04T08:16:47.163Z</time></trkpt><trkpt lat="44.1558733" lon="12.1249148"><ele>75.0</ele><time>2026-04-04T08:16:49.172Z</time></trkpt><trkpt lat="44.1558174" lon="12.1250032"><ele>75.0</ele><time>2026-04-04T08:16:52.185Z</time></trkpt><trkpt lat="44.1557427" lon="12.1250796"><ele>75.0</ele><time>2026-04-04T08:16:55.18Z</time></trkpt><trkpt lat="44.155691" lon="12.1251449"><ele>75.0</ele><time>2026-04-04T08:16:58.182Z</time></trkpt><trkpt lat="44.1556376" lon="12.1251939"><ele>75.85714285714285</ele><time>2026-04-04T08:17:01.184Z</time></trkpt><trkpt lat="44.1555763" lon="12.1252541"><ele>76.71428571428571</ele><time>2026-04-04T08:17:04.198Z</time></trkpt><trkpt lat="44.1555294" lon="12.1253349"><ele>77.57142857142857</ele><time>2026-04-04T08:17:07.181Z</time></trkpt><trkpt lat="44.155469" lon="12.1253971"><ele>78.42857142857142</ele><time>2026-04-04T08:17:10.183Z</time></trkpt><trkpt lat="44.1554192" lon="12.1254518"><ele>79.28571428571428</ele><time>2026-04-04T08:17:13.184Z</time></trkpt><trkpt lat="44.1553545" lon="12.125521"><ele>80.14285714285714</ele><time>2026-04-04T08:17:17.185Z</time></trkpt><trkpt lat="44.1552914" lon="12.1255864"><ele>81.0</ele><time>2026-04-04T08:17:21.194Z</time></trkpt><trkpt lat="44.1552379" lon="12.1256417"><ele>81.0</ele><time>2026-04-04T08:17:25.199Z</time></trkpt><trkpt lat="44.1551928" lon="12.1257039"><ele>81.0</ele><time>2026-04-04T08:17:28.197Z</time></trkpt><trkpt lat="44.155132" lon="12.1257678"><ele>81.0</ele><time>2026-04-04T08:17:32.187Z</time></trkpt><trkpt lat="44.1550675" lon="12.1258364"><ele>81.0</ele><time>2026-04-04T08:17:36.184Z</time></trkpt><trkpt lat="44.1549984" lon="12.125896"><ele>81.0</ele><time>2026-04-04T08:17:41.182Z</time></trkpt><trkpt lat="44.1549428" lon="12.1259627"><ele>81.0</ele><time>2026-04-04T08:17:45.186Z</time></trkpt><trkpt lat="44.1548903" lon="12.1260262"><ele>81.0</ele><time>2026-04-04T08:17:49.19Z</time></trkpt><trkpt lat="44.1548358" lon="12.1260995"><ele>81.85714285714286</ele><time>2026-04-04T08:17:53.181Z</time></trkpt><trkpt lat="44.1547706" lon="12.1261681"><ele>82.71428571428571</ele><time>2026-04-04T08:17:57.183Z</time></trkpt><trkpt lat="44.1547258" lon="12.12623"><ele>83.57142857142857</ele><time>2026-04-04T08:18:00.188Z</time></trkpt><trkpt lat="44.1546762" lon="12.126286"><ele>84.42857142857143</ele><time>2026-04-04T08:18:03.186Z</time></trkpt><trkpt lat="44.1546237" lon="12.1263388"><ele>85.28571428571429</ele><time>2026-04-04T08:18:06.207Z</time></trkpt><trkpt lat="44.1545608" lon="12.1264094"><ele>86.14285714285714</ele><time>2026-04-04T08:18:10.184Z</time></trkpt><trkpt lat="44.1545177" lon="12.1264739"><ele>87.0</ele><time>2026-04-04T08:18:13.189Z</time></trkpt><trkpt lat="44.1544629" lon="12.1265328"><ele>88.14285714285714</ele><time>2026-04-04T08:18:17.19Z</time></trkpt><trkpt lat="44.1544169" lon="12.1265961"><ele>89.28571428571429</ele><time>2026-04-04T08:18:20.191Z</time></trkpt><trkpt lat="44.154373" lon="12.1266647"><ele>90.42857142857143</ele><time>2026-04-04T08:18:23.192Z</time></trkpt><trkpt lat="44.1543337" lon="12.1267337"><ele>91.57142857142857</ele><time>2026-04-04T08:18:26.188Z</time></trkpt><trkpt lat="44.1542923" lon="12.126825"><ele>92.71428571428572</ele><time>2026-04-04T08:18:30.188Z</time></trkpt><trkpt lat="44.1542679" lon="12.1269312"><ele>93.85714285714286</ele><time>2026-04-04T08:18:34.185Z</time></trkpt><trkpt lat="44.1542586" lon="12.1270329"><ele>95.0</ele><time>2026-04-04T08:18:38.183Z</time></trkpt><trkpt lat="44.1542629" lon="12.1271211"><ele>95.0</ele><time>2026-04-04T08:22:10.195Z</time></trkpt><trkpt lat="44.1542793" lon="12.1272308"><ele>95.0</ele><time>2026-04-04T08:22:13.192Z</time></trkpt><trkpt lat="44.1542865" lon="12.1273202"><ele>95.0</ele><time>2026-04-04T08:22:15.184Z</time></trkpt><trkpt lat="44.154295" lon="12.1274297"><ele>95.0</ele><time>2026-04-04T08:22:17.183Z</time></trkpt><trkpt lat="44.1542978" lon="12.1275407"><ele>95.0</ele><time>2026-04-04T08:22:19.181Z</time></trkpt><trkpt lat="44.1543096" lon="12.1276368"><ele>95.0</ele><time>2026-04-04T08:22:21.182Z</time></trkpt><trkpt lat="44.1543282" lon="12.1277267"><ele>95.0</ele><time>2026-04-04T08:22:23.185Z</time></trkpt><trkpt lat="44.1543378" lon="12.1278383"><ele>95.71428571428572</ele><time>2026-04-04T08:22:26.18Z</time></trkpt><trkpt lat="44.1543543" lon="12.1279292"><ele>96.42857142857143</ele><time>2026-04-04T08:22:29.187Z</time></trkpt><trkpt lat="44.1543654" lon="12.1280236"><ele>97.14285714285714</ele><time>2026-04-04T08:22:32.179Z</time></trkpt><trkpt lat="44.1543828" lon="12.1281428"><ele>97.85714285714286</ele><time>2026-04-04T08:22:35.185Z</time></trkpt><trkpt lat="44.1543932" lon="12.1282349"><ele>98.57142857142857</ele><time>2026-04-04T08:22:37.18Z</time></trkpt><trkpt lat="44.1544006" lon="12.128323"><ele>99.28571428571429</ele><time>2026-04-04T08:22:39.18Z</time></trkpt><trkpt lat="44.1544043" lon="12.1284125"><ele>100.0</ele><time>2026-04-04T08:22:41.18Z</time></trkpt><trkpt lat="44.1544103" lon="12.1285372"><ele>101.33333333333334</ele><time>2026-04-04T08:22:44.197Z</time></trkpt><trkpt lat="44.1544021" lon="12.1286491"><ele>102.66666666666667</ele><time>2026-04-04T08:22:47.182Z</time></trkpt><trkpt lat="44.1543968" lon="12.1287375"><ele>104.0</ele><time>2026-04-04T08:22:49.178Z</time></trkpt><trkpt lat="44.1544055" lon="12.1288503"><ele>105.33333333333334</ele><time>2026-04-04T08:22:52.179Z</time></trkpt><trkpt lat="44.1544019" lon="12.128984"><ele>106.66666666666667</ele><time>2026-04-04T08:22:55.181Z</time></trkpt><trkpt lat="44.1544148" lon="12.1291038"><ele>108.0</ele><time>2026-04-04T08:22:58.187Z</time></trkpt><trkpt lat="44.1544216" lon="12.1292046"><ele>109.0</ele><time>2026-04-04T08:23:01.178Z</time></trkpt><trkpt lat="44.1544191" lon="12.129304"><ele>110.0</ele><time>2026-04-04T08:23:04.182Z</time></trkpt><trkpt lat="44.1544255" lon="12.1294037"><ele>111.0</ele><time>2026-04-04T08:23:07.184Z</time></trkpt><trkpt lat="44.1544309" lon="12.129503"><ele>112.0</ele><time>2026-04-04T08:23:10.184Z</time></trkpt><trkpt lat="44.1544371" lon="12.1296028"><ele>113.0</ele><time>2026-04-04T08:23:13.18Z</time></trkpt><trkpt lat="44.154441" lon="12.1296917"><ele>113.99999999999999</ele><time>2026-04-04T08:23:15.196Z</time></trkpt><trkpt lat="44.1544587" lon="12.1298019"><ele>114.99999999999999</ele><time>2026-04-04T08:23:18.181Z</time></trkpt><trkpt lat="44.1544533" lon="12.1299058"><ele>115.83333333333334</ele><time>2026-04-04T08:23:22.192Z</time></trkpt><trkpt lat="44.1544154" lon="12.1299776"><ele>116.66666666666667</ele><time>2026-04-04T08:23:53.197Z</time></trkpt><trkpt lat="44.1543795" lon="12.1300704"><ele>117.5</ele><time>2026-04-04T08:23:57.186Z</time></trkpt><trkpt lat="44.1543294" lon="12.1301533"><ele>118.33333333333334</ele><time>2026-04-04T08:24:00.186Z</time></trkpt><trkpt lat="44.1542853" lon="12.1302403"><ele>119.16666666666667</ele><time>2026-04-04T08:24:03.182Z</time></trkpt><trkpt lat="44.1542251" lon="12.1303315"><ele>120.0</ele><time>2026-04-04T08:24:06.184Z</time></trkpt><trkpt lat="44.1541705" lon="12.130421"><ele>120.0</ele><time>2026-04-04T08:24:09.185Z</time></trkpt><trkpt lat="44.1541129" lon="12.1305108"><ele>120.0</ele><time>2026-04-04T08:24:12.188Z</time></trkpt><trkpt lat="44.1540696" lon="12.1305778"><ele>120.0</ele><time>2026-04-04T08:24:14.203Z</time></trkpt><trkpt lat="44.1540326" lon="12.1306536"><ele>120.0</ele><time>2026-04-04T08:24:16.187Z</time></trkpt><trkpt lat="44.1539791" lon="12.1307607"><ele>120.0</ele><time>2026-04-04T08:24:19.19Z</time></trkpt><trkpt lat="44.153938" lon="12.130833"><ele>120.0</ele><time>2026-04-04T08:24:21.187Z</time></trkpt><trkpt lat="44.1538957" lon="12.1309088"><ele>120.0</ele><time>2026-04-04T08:24:23.183Z</time></trkpt><trkpt lat="44.1538408" lon="12.1310051"><ele>122.16666666666667</ele><time>2026-04-04T08:24:26.192Z</time></trkpt><trkpt lat="44.1537868" lon="12.1310766"><ele>124.33333333333334</ele><time>2026-04-04T08:24:28.19Z</time></trkpt><trkpt lat="44.1537459" lon="12.1311509"><ele>126.5</ele><time>2026-04-04T08:24:30.183Z</time></trkpt><trkpt lat="44.153683" lon="12.1312061"><ele>128.66666666666669</ele><time>2026-04-04T08:24:32.182Z</time></trkpt><trkpt lat="44.1536164" lon="12.1312843"><ele>130.83333333333334</ele><time>2026-04-04T08:24:35.183Z</time></trkpt><trkpt lat="44.1535707" lon="12.1313479"><ele>133.0</ele><time>2026-04-04T08:24:37.178Z</time></trkpt><trkpt lat="44.1535385" lon="12.1314591"><ele>133.0</ele><time>2026-04-04T08:24:40.179Z</time></trkpt><trkpt lat="44.1534892" lon="12.1315492"><ele>133.0</ele><time>2026-04-04T08:24:43.187Z</time></trkpt><trkpt lat="44.1534436" lon="12.1316187"><ele>133.0</ele><time>2026-04-04T08:24:45.184Z</time></trkpt><trkpt lat="44.1534009" lon="12.1316855"><ele>133.0</ele><time>2026-04-04T08:24:47.185Z</time></trkpt><trkpt lat="44.1533505" lon="12.1317587"><ele>133.0</ele><time>2026-04-04T08:24:49.192Z</time></trkpt><trkpt lat="44.1533067" lon="12.1318251"><ele>133.0</ele><time>2026-04-04T08:24:51.184Z</time></trkpt><trkpt lat="44.1532447" lon="12.1319358"><ele>135.5</ele><time>2026-04-04T08:24:54.207Z</time></trkpt><trkpt lat="44.1531857" lon="12.1320357"><ele>138.0</ele><time>2026-04-04T08:24:57.186Z</time></trkpt><trkpt lat="44.1531372" lon="12.1321009"><ele>140.5</ele><time>2026-04-04T08:24:59.19Z</time></trkpt><trkpt lat="44.1531026" lon="12.1321776"><ele>143.0</ele><time>2026-04-04T08:25:01.185Z</time></trkpt><trkpt lat="44.1530433" lon="12.1322718"><ele>145.5</ele><time>2026-04-04T08:25:04.195Z</time></trkpt><trkpt lat="44.1529871" lon="12.1323701"><ele>148.0</ele><time>2026-04-04T08:25:07.182Z</time></trkpt><trkpt lat="44.1529389" lon="12.1324375"><ele>148.0</ele><time>2026-04-04T08:25:09.183Z</time></trkpt><trkpt lat="44.1529012" lon="12.132512"><ele>148.0</ele><time>2026-04-04T08:25:11.185Z</time></trkpt><trkpt lat="44.1528355" lon="12.1326127"><ele>148.0</ele><time>2026-04-04T08:25:14.195Z</time></trkpt><trkpt lat="44.1527794" lon="12.1327169"><ele>148.0</ele><time>2026-04-04T08:25:17.189Z</time></trkpt><trkpt lat="44.1527357" lon="12.1328351"><ele>148.0</ele><time>2026-04-04T08:25:20.178Z</time></trkpt><trkpt lat="44.1526957" lon="12.1329176"><ele>148.0</ele><time>2026-04-04T08:25:22.189Z</time></trkpt><trkpt lat="44.1526623" lon="12.1329994"><ele>148.0</ele><time>2026-04-04T08:25:24.199Z</time></trkpt><trkpt lat="44.1526343" lon="12.133092"><ele>148.0</ele><time>2026-04-04T08:25:26.181Z</time></trkpt><trkpt lat="44.1526089" lon="12.1332146"><ele>148.0</ele><time>2026-04-04T08:25:29.182Z</time></trkpt><trkpt lat="44.15258" lon="12.1333041"><ele>148.0</ele><time>2026-04-04T08:25:31.18Z</time></trkpt><trkpt lat="44.1525582" lon="12.1333885"><ele>148.0</ele><time>2026-04-04T08:25:33.186Z</time></trkpt><trkpt lat="44.1525366" lon="12.1334828"><ele>148.0</ele><time>2026-04-04T08:25:35.177Z</time></trkpt><trkpt lat="44.1525224" lon="12.1335832"><ele>148.0</ele><time>2026-04-04T08:25:37.178Z</time></trkpt><trkpt lat="44.1525072" lon="12.1336836"><ele>148.0</ele><time>2026-04-04T08:25:39.182Z</time></trkpt><trkpt lat="44.152492" lon="12.133786"><ele>148.0</ele><time>2026-04-04T08:25:41.184Z</time></trkpt><trkpt lat="44.152485" lon="12.1338893"><ele>148.0</ele><time>2026-04-04T08:25:43.176Z</time></trkpt><trkpt lat="44.1524533" lon="12.1340014"><ele>148.0</ele><time>2026-04-04T08:25:45.178Z</time></trkpt><trkpt lat="44.1524226" lon="12.1340969"><ele>148.0</ele><time>2026-04-04T08:25:47.17Z</time></trkpt><trkpt lat="44.1523902" lon="12.1341925"><ele>148.0</ele><time>2026-04-04T08:25:49.171Z</time></trkpt><trkpt lat="44.1523627" lon="12.1342897"><ele>150.33333333333334</ele><time>2026-04-04T08:25:51.177Z</time></trkpt><trkpt lat="44.1523408" lon="12.1344024"><ele>152.66666666666669</ele><time>2026-04-04T08:25:53.173Z</time></trkpt><trkpt lat="44.1523048" lon="12.1345075"><ele>155.0</ele><time>2026-04-04T08:25:55.174Z</time></trkpt><trkpt lat="44.1522639" lon="12.1345926"><ele>157.33333333333334</ele><time>2026-04-04T08:25:57.178Z</time></trkpt><trkpt lat="44.1522155" lon="12.1346688"><ele>159.66666666666666</ele><time>2026-04-04T08:25:59.172Z</time></trkpt><trkpt lat="44.152166" lon="12.1347441"><ele>162.0</ele><time>2026-04-04T08:26:01.173Z</time></trkpt><trkpt lat="44.1521132" lon="12.1348157"><ele>161.0</ele><time>2026-04-04T08:26:03.167Z</time></trkpt><trkpt lat="44.1520578" lon="12.1348893"><ele>160.0</ele><time>2026-04-04T08:26:05.171Z</time></trkpt><trkpt lat="44.152" lon="12.1349642"><ele>159.0</ele><time>2026-04-04T08:26:07.173Z</time></trkpt><trkpt lat="44.1519444" lon="12.1350487"><ele>158.0</ele><time>2026-04-04T08:26:09.172Z</time></trkpt><trkpt lat="44.1518941" lon="12.1351327"><ele>157.0</ele><time>2026-04-04T08:26:11.172Z</time></trkpt><trkpt lat="44.1518503" lon="12.135221"><ele>156.0</ele><time>2026-04-04T08:26:13.174Z</time></trkpt><trkpt lat="44.1518175" lon="12.1353082"><ele>156.0</ele><time>2026-04-04T08:26:15.168Z</time></trkpt><trkpt lat="44.1517969" lon="12.1354066"><ele>156.0</ele><time>2026-04-04T08:26:17.176Z</time></trkpt><trkpt lat="44.1517854" lon="12.1355103"><ele>156.0</ele><time>2026-04-04T08:26:19.175Z</time></trkpt><trkpt lat="44.1517806" lon="12.1356171"><ele>156.0</ele><time>2026-04-04T08:26:21.172Z</time></trkpt><trkpt lat="44.1517948" lon="12.1357234"><ele>156.0</ele><time>2026-04-04T08:26:23.175Z</time></trkpt><trkpt lat="44.151817" lon="12.1358255"><ele>156.0</ele><time>2026-04-04T08:26:25.184Z</time></trkpt><trkpt lat="44.1518398" lon="12.1359279"><ele>156.5</ele><time>2026-04-04T08:26:27.181Z</time></trkpt><trkpt lat="44.1518604" lon="12.1360299"><ele>157.0</ele><time>2026-04-04T08:26:29.183Z</time></trkpt><trkpt lat="44.1518935" lon="12.1361403"><ele>157.5</ele><time>2026-04-04T08:26:31.189Z</time></trkpt><trkpt lat="44.1519362" lon="12.1362335"><ele>158.0</ele><time>2026-04-04T08:26:33.178Z</time></trkpt><trkpt lat="44.1519786" lon="12.1363212"><ele>158.5</ele><time>2026-04-04T08:26:35.185Z</time></trkpt><trkpt lat="44.1520266" lon="12.1364069"><ele>159.0</ele><time>2026-04-04T08:26:37.183Z</time></trkpt><trkpt lat="44.1520815" lon="12.1364879"><ele>160.0</ele><time>2026-04-04T08:26:39.181Z</time></trkpt><trkpt lat="44.1521349" lon="12.1365697"><ele>161.0</ele><time>2026-04-04T08:26:41.186Z</time></trkpt><trkpt lat="44.1521839" lon="12.1366577"><ele>162.0</ele><time>2026-04-04T08:26:43.182Z</time></trkpt><trkpt lat="44.1522312" lon="12.13676"><ele>163.0</ele><time>2026-04-04T08:26:45.172Z</time></trkpt><trkpt lat="44.1522762" lon="12.1368479"><ele>164.0</ele><time>2026-04-04T08:26:47.184Z</time></trkpt><trkpt lat="44.1523266" lon="12.1369272"><ele>165.0</ele><time>2026-04-04T08:26:49.187Z</time></trkpt><trkpt lat="44.1523678" lon="12.1370139"><ele>164.14285714285717</ele><time>2026-04-04T08:26:51.195Z</time></trkpt><trkpt lat="44.1523994" lon="12.1371053"><ele>163.28571428571428</ele><time>2026-04-04T08:26:53.183Z</time></trkpt><trkpt lat="44.1524348" lon="12.1371908"><ele>162.42857142857144</ele><time>2026-04-04T08:26:55.181Z</time></trkpt><trkpt lat="44.1524774" lon="12.1372797"><ele>161.57142857142858</ele><time>2026-04-04T08:26:57.181Z</time></trkpt><trkpt lat="44.1525163" lon="12.137373"><ele>160.71428571428572</ele><time>2026-04-04T08:26:59.182Z</time></trkpt><trkpt lat="44.1525556" lon="12.1374569"><ele>159.85714285714286</ele><time>2026-04-04T08:27:01.108Z</time></trkpt><trkpt lat="44.1525984" lon="12.1375439"><ele>159.0</ele><time>2026-04-04T08:27:03.182Z</time></trkpt><trkpt lat="44.152618" lon="12.1376276"><ele>159.0</ele><time>2026-04-04T08:27:05.178Z</time></trkpt><trkpt lat="44.1526383" lon="12.1377298"><ele>159.0</ele><time>2026-04-04T08:27:07.18Z</time></trkpt><trkpt lat="44.1526638" lon="12.1378301"><ele>159.0</ele><time>2026-04-04T08:27:09.186Z</time></trkpt><trkpt lat="44.152685" lon="12.1379276"><ele>159.0</ele><time>2026-04-04T08:27:11.184Z</time></trkpt><trkpt lat="44.1526983" lon="12.1380201"><ele>159.0</ele><time>2026-04-04T08:27:13.185Z</time></trkpt><trkpt lat="44.152698" lon="12.1381106"><ele>159.0</ele><time>2026-04-04T08:27:15.178Z</time></trkpt><trkpt lat="44.1526792" lon="12.1382024"><ele>159.0</ele><time>2026-04-04T08:27:17.189Z</time></trkpt><trkpt lat="44.1526332" lon="12.1383098"><ele>159.83333333333334</ele><time>2026-04-04T08:27:20.184Z</time></trkpt><trkpt lat="44.1525759" lon="12.1384227"><ele>160.66666666666666</ele><time>2026-04-04T08:27:23.185Z</time></trkpt><trkpt lat="44.1525251" lon="12.1384827"><ele>161.5</ele><time>2026-04-04T08:27:25.179Z</time></trkpt><trkpt lat="44.152473" lon="12.1385465"><ele>162.33333333333331</ele><time>2026-04-04T08:27:27.18Z</time></trkpt><trkpt lat="44.1524101" lon="12.1385952"><ele>163.16666666666666</ele><time>2026-04-04T08:27:29.19Z</time></trkpt><trkpt lat="44.15234" lon="12.1386136"><ele>164.0</ele><time>2026-04-04T08:27:31.18Z</time></trkpt><trkpt lat="44.1522644" lon="12.1385939"><ele>164.7142857142857</ele><time>2026-04-04T08:27:33.199Z</time></trkpt><trkpt lat="44.1521977" lon="12.1385513"><ele>165.42857142857142</ele><time>2026-04-04T08:27:35.192Z</time></trkpt><trkpt lat="44.1521394" lon="12.1384941"><ele>166.14285714285714</ele><time>2026-04-04T08:27:37.185Z</time></trkpt><trkpt lat="44.1520834" lon="12.1384333"><ele>166.85714285714283</ele><time>2026-04-04T08:27:39.187Z</time></trkpt><trkpt lat="44.1520093" lon="12.1383493"><ele>167.57142857142856</ele><time>2026-04-04T08:27:42.193Z</time></trkpt><trkpt lat="44.1519641" lon="12.1382759"><ele>168.28571428571428</ele><time>2026-04-04T08:27:44.2Z</time></trkpt><trkpt lat="44.1519188" lon="12.1382067"><ele>169.0</ele><time>2026-04-04T08:27:46.185Z</time></trkpt><trkpt lat="44.1518477" lon="12.1381225"><ele>169.0</ele><time>2026-04-04T08:27:49.189Z</time></trkpt><trkpt lat="44.1517948" lon="12.1380748"><ele>169.0</ele><time>2026-04-04T08:27:51.181Z</time></trkpt><trkpt lat="44.151713" lon="12.1380108"><ele>169.0</ele><time>2026-04-04T08:27:54.194Z</time></trkpt><trkpt lat="44.1516361" lon="12.1379619"><ele>169.0</ele><time>2026-04-04T08:27:57.181Z</time></trkpt><trkpt lat="44.151567" lon="12.1378814"><ele>169.0</ele><time>2026-04-04T08:28:00.177Z</time></trkpt><trkpt lat="44.1515203" lon="12.1377944"><ele>169.0</ele><time>2026-04-04T08:28:02.18Z</time></trkpt><trkpt lat="44.1514691" lon="12.137742"><ele>170.16666666666669</ele><time>2026-04-04T08:28:04.197Z</time></trkpt><trkpt lat="44.1513892" lon="12.1376793"><ele>171.33333333333334</ele><time>2026-04-04T08:28:07.166Z</time></trkpt><trkpt lat="44.1513363" lon="12.1376234"><ele>172.5</ele><time>2026-04-04T08:28:09.179Z</time></trkpt><trkpt lat="44.1512652" lon="12.1375371"><ele>173.66666666666666</ele><time>2026-04-04T08:28:12.187Z</time></trkpt><trkpt lat="44.1512103" lon="12.1374766"><ele>174.83333333333331</ele><time>2026-04-04T08:28:14.184Z</time></trkpt><trkpt lat="44.1511408" lon="12.1373961"><ele>176.0</ele><time>2026-04-04T08:28:17.187Z</time></trkpt><trkpt lat="44.1510887" lon="12.1373434"><ele>176.14285714285714</ele><time>2026-04-04T08:28:19.181Z</time></trkpt><trkpt lat="44.1510248" lon="12.1372818"><ele>176.28571428571428</ele><time>2026-04-04T08:28:21.178Z</time></trkpt><trkpt lat="44.1509623" lon="12.1372294"><ele>176.42857142857144</ele><time>2026-04-04T08:28:23.178Z</time></trkpt><trkpt lat="44.1509074" lon="12.1371817"><ele>176.57142857142856</ele><time>2026-04-04T08:28:25.18Z</time></trkpt><trkpt lat="44.1508518" lon="12.1371296"><ele>176.7142857142857</ele><time>2026-04-04T08:28:27.175Z</time></trkpt><trkpt lat="44.150806" lon="12.1370655"><ele>176.85714285714286</ele><time>2026-04-04T08:28:29.177Z</time></trkpt><trkpt lat="44.1507497" lon="12.1369755"><ele>177.0</ele><time>2026-04-04T08:28:32.174Z</time></trkpt><trkpt lat="44.1506752" lon="12.1369133"><ele>177.66666666666666</ele><time>2026-04-04T08:28:35.176Z</time></trkpt><trkpt lat="44.1505971" lon="12.1368477"><ele>178.33333333333334</ele><time>2026-04-04T08:28:38.175Z</time></trkpt><trkpt lat="44.1505327" lon="12.1367932"><ele>179.0</ele><time>2026-04-04T08:28:40.172Z</time></trkpt><trkpt lat="44.1504761" lon="12.1367305"><ele>179.66666666666669</ele><time>2026-04-04T08:28:42.175Z</time></trkpt><trkpt lat="44.1504171" lon="12.1366898"><ele>180.33333333333334</ele><time>2026-04-04T08:28:44.177Z</time></trkpt><trkpt lat="44.1503524" lon="12.1366429"><ele>181.0</ele><time>2026-04-04T08:28:46.179Z</time></trkpt><trkpt lat="44.150271" lon="12.1365819"><ele>181.5</ele><time>2026-04-04T08:28:49.183Z</time></trkpt><trkpt lat="44.1502036" lon="12.1365053"><ele>182.0</ele><time>2026-04-04T08:28:52.177Z</time></trkpt><trkpt lat="44.1501516" lon="12.1364476"><ele>182.5</ele><time>2026-04-04T08:28:54.182Z</time></trkpt><trkpt lat="44.1500968" lon="12.1363532"><ele>183.0</ele><time>2026-04-04T08:28:57.175Z</time></trkpt><trkpt lat="44.1500303" lon="12.1362524"><ele>183.5</ele><time>2026-04-04T08:29:00.169Z</time></trkpt><trkpt lat="44.1499685" lon="12.1361708"><ele>184.0</ele><time>2026-04-04T08:29:03.172Z</time></trkpt><trkpt lat="44.1499212" lon="12.1361119"><ele>184.71428571428572</ele><time>2026-04-04T08:29:05.173Z</time></trkpt><trkpt lat="44.1498743" lon="12.136052"><ele>185.42857142857142</ele><time>2026-04-04T08:29:07.171Z</time></trkpt><trkpt lat="44.1498303" lon="12.1359631"><ele>186.14285714285714</ele><time>2026-04-04T08:29:09.17Z</time></trkpt><trkpt lat="44.149788" lon="12.1358725"><ele>186.85714285714286</ele><time>2026-04-04T08:29:11.175Z</time></trkpt><trkpt lat="44.1497539" lon="12.1357836"><ele>187.57142857142856</ele><time>2026-04-04T08:29:13.179Z</time></trkpt><trkpt lat="44.1496895" lon="12.1357165"><ele>188.28571428571428</ele><time>2026-04-04T08:29:15.165Z</time></trkpt><trkpt lat="44.1496268" lon="12.1356833"><ele>189.0</ele><time>2026-04-04T08:29:17.165Z</time></trkpt><trkpt lat="44.1495615" lon="12.1356592"><ele>191.5</ele><time>2026-04-04T08:29:19.16Z</time></trkpt><trkpt lat="44.1494765" lon="12.1356113"><ele>194.0</ele><time>2026-04-04T08:29:22.166Z</time></trkpt><trkpt lat="44.1493941" lon="12.1355745"><ele>196.5</ele><time>2026-04-04T08:29:25.173Z</time></trkpt><trkpt lat="44.1493286" lon="12.1355044"><ele>199.0</ele><time>2026-04-04T08:29:28.171Z</time></trkpt><trkpt lat="44.1492591" lon="12.1354359"><ele>201.5</ele><time>2026-04-04T08:29:31.177Z</time></trkpt><trkpt lat="44.1491794" lon="12.1353958"><ele>204.0</ele><time>2026-04-04T08:29:34.177Z</time></trkpt><trkpt lat="44.1491118" lon="12.1353365"><ele>204.0</ele><time>2026-04-04T08:29:37.168Z</time></trkpt><trkpt lat="44.149044" lon="12.1352898"><ele>204.0</ele><time>2026-04-04T08:29:40.178Z</time></trkpt><trkpt lat="44.1489673" lon="12.1352523"><ele>204.0</ele><time>2026-04-04T08:29:43.172Z</time></trkpt><trkpt lat="44.1488848" lon="12.13522"><ele>204.0</ele><time>2026-04-04T08:29:46.18Z</time></trkpt><trkpt lat="44.1488088" lon="12.1351996"><ele>204.0</ele><time>2026-04-04T08:29:49.174Z</time></trkpt><trkpt lat="44.1487322" lon="12.1352074"><ele>204.0</ele><time>2026-04-04T08:29:52.164Z</time></trkpt><trkpt lat="44.1486513" lon="12.1352234"><ele>206.16666666666666</ele><time>2026-04-04T08:29:55.164Z</time></trkpt><trkpt lat="44.1485757" lon="12.1352184"><ele>208.33333333333331</ele><time>2026-04-04T08:29:58.168Z</time></trkpt><trkpt lat="44.1484969" lon="12.1352211"><ele>210.5</ele><time>2026-04-04T08:30:01.169Z</time></trkpt><trkpt lat="44.1484147" lon="12.1352335"><ele>212.66666666666666</ele><time>2026-04-04T08:30:04.17Z</time></trkpt><trkpt lat="44.1483417" lon="12.1352449"><ele>214.83333333333331</ele><time>2026-04-04T08:30:07.17Z</time></trkpt><trkpt lat="44.1482608" lon="12.1352613"><ele>217.0</ele><time>2026-04-04T08:30:10.167Z</time></trkpt><trkpt lat="44.1481799" lon="12.1352712"><ele>217.33333333333331</ele><time>2026-04-04T08:30:13.167Z</time></trkpt><trkpt lat="44.1481" lon="12.1352917"><ele>217.66666666666666</ele><time>2026-04-04T08:30:16.162Z</time></trkpt><trkpt lat="44.1480302" lon="12.1352938"><ele>218.0</ele><time>2026-04-04T08:30:19.161Z</time></trkpt><trkpt lat="44.1479665" lon="12.1352768"><ele>218.33333333333331</ele><time>2026-04-04T08:30:22.157Z</time></trkpt><trkpt lat="44.1478923" lon="12.1352681"><ele>218.66666666666666</ele><time>2026-04-04T08:30:25.159Z</time></trkpt><trkpt lat="44.1478138" lon="12.1352682"><ele>219.0</ele><time>2026-04-04T08:30:28.191Z</time></trkpt><trkpt lat="44.1477302" lon="12.1352687"><ele>219.0</ele><time>2026-04-04T08:30:31.162Z</time></trkpt><trkpt lat="44.1476518" lon="12.1352604"><ele>219.0</ele><time>2026-04-04T08:30:34.159Z</time></trkpt><trkpt lat="44.1475643" lon="12.1352529"><ele>219.0</ele><time>2026-04-04T08:30:37.156Z</time></trkpt><trkpt lat="44.1474859" lon="12.1352474"><ele>219.0</ele><time>2026-04-04T08:30:40.159Z</time></trkpt><trkpt lat="44.1474188" lon="12.1352419"><ele>219.0</ele><time>2026-04-04T08:30:43.152Z</time></trkpt><trkpt lat="44.1473441" lon="12.1352311"><ele>219.0</ele><time>2026-04-04T08:30:46.156Z</time></trkpt><trkpt lat="44.1472509" lon="12.1352157"><ele>219.5</ele><time>2026-04-04T08:30:49.147Z</time></trkpt><trkpt lat="44.1471866" lon="12.1352131"><ele>220.0</ele><time>2026-04-04T08:30:51.152Z</time></trkpt><trkpt lat="44.1470968" lon="12.1352022"><ele>220.5</ele><time>2026-04-04T08:30:54.153Z</time></trkpt><trkpt lat="44.1470172" lon="12.1351747"><ele>221.0</ele><time>2026-04-04T08:30:57.16Z</time></trkpt><trkpt lat="44.1469378" lon="12.1351572"><ele>221.5</ele><time>2026-04-04T08:31:00.165Z</time></trkpt><trkpt lat="44.1468678" lon="12.1351442"><ele>222.0</ele><time>2026-04-04T08:31:03.158Z</time></trkpt><trkpt lat="44.1467804" lon="12.1351553"><ele>222.0</ele><time>2026-04-04T08:31:06.163Z</time></trkpt><trkpt lat="44.1466831" lon="12.1351859"><ele>222.0</ele><time>2026-04-04T08:31:09.16Z</time></trkpt><trkpt lat="44.1465958" lon="12.1351864"><ele>222.0</ele><time>2026-04-04T08:31:11.156Z</time></trkpt><trkpt lat="44.146497" lon="12.1352351"><ele>222.0</ele><time>2026-04-04T08:31:13.15Z</time></trkpt><trkpt lat="44.1464207" lon="12.1352754"><ele>222.0</ele><time>2026-04-04T08:31:15.151Z</time></trkpt><trkpt lat="44.1463463" lon="12.1352757"><ele>222.0</ele><time>2026-04-04T08:31:17.151Z</time></trkpt><trkpt lat="44.1462518" lon="12.1352893"><ele>221.39999999999998</ele><time>2026-04-04T08:31:19.153Z</time></trkpt><trkpt lat="44.1461665" lon="12.1353266"><ele>220.79999999999998</ele><time>2026-04-04T08:31:21.157Z</time></trkpt><trkpt lat="44.146069" lon="12.1353456"><ele>220.2</ele><time>2026-04-04T08:31:23.157Z</time></trkpt><trkpt lat="44.1459853" lon="12.1353559"><ele>219.6</ele><time>2026-04-04T08:31:25.159Z</time></trkpt><trkpt lat="44.1459331" lon="12.1354739"><ele>219.0</ele><time>2026-04-04T08:31:27.165Z</time></trkpt><trkpt lat="44.1458883" lon="12.1355958"><ele>219.0</ele><time>2026-04-04T08:31:29.181Z</time></trkpt><trkpt lat="44.1458528" lon="12.1356876"><ele>219.0</ele><time>2026-04-04T08:31:31.174Z</time></trkpt><trkpt lat="44.1458222" lon="12.1358037"><ele>219.0</ele><time>2026-04-04T08:31:33.17Z</time></trkpt><trkpt lat="44.145795" lon="12.135918"><ele>219.0</ele><time>2026-04-04T08:31:35.172Z</time></trkpt><trkpt lat="44.1457634" lon="12.136039"><ele>219.0</ele><time>2026-04-04T08:31:37.17Z</time></trkpt><trkpt lat="44.1457186" lon="12.1361478"><ele>219.0</ele><time>2026-04-04T08:31:39.166Z</time></trkpt><trkpt lat="44.1456774" lon="12.1362847"><ele>223.0</ele><time>2026-04-04T08:31:41.169Z</time></trkpt><trkpt lat="44.145641" lon="12.1364257"><ele>226.99999999999997</ele><time>2026-04-04T08:31:43.172Z</time></trkpt><trkpt lat="44.1455802" lon="12.1365656"><ele>230.99999999999997</ele><time>2026-04-04T08:31:45.162Z</time></trkpt><trkpt lat="44.1455429" lon="12.1366873"><ele>235.0</ele><time>2026-04-04T08:31:47.163Z</time></trkpt><trkpt lat="44.1454816" lon="12.1368303"><ele>239.0</ele><time>2026-04-04T08:31:49.157Z</time></trkpt><trkpt lat="44.1454536" lon="12.1369517"><ele>239.0</ele><time>2026-04-04T08:31:51.162Z</time></trkpt><trkpt lat="44.1454116" lon="12.1371004"><ele>238.99999999999997</ele><time>2026-04-04T08:31:53.157Z</time></trkpt><trkpt lat="44.145377" lon="12.1372479"><ele>238.99999999999997</ele><time>2026-04-04T08:31:55.161Z</time></trkpt><trkpt lat="44.1453141" lon="12.1373768"><ele>239.0</ele><time>2026-04-04T08:31:57.166Z</time></trkpt><trkpt lat="44.1452734" lon="12.1375002"><ele>239.0</ele><time>2026-04-04T08:31:59.16Z</time></trkpt><trkpt lat="44.1452298" lon="12.1376394"><ele>237.0</ele><time>2026-04-04T08:32:01.155Z</time></trkpt><trkpt lat="44.1451954" lon="12.1377624"><ele>234.99999999999997</ele><time>2026-04-04T08:32:03.156Z</time></trkpt><trkpt lat="44.1451436" lon="12.1379246"><ele>232.99999999999997</ele><time>2026-04-04T08:32:05.156Z</time></trkpt><trkpt lat="44.1451132" lon="12.138012"><ele>231.0</ele><time>2026-04-04T08:32:06.155Z</time></trkpt><trkpt lat="44.1450783" lon="12.1381631"><ele>229.0</ele><time>2026-04-04T08:32:08.15Z</time></trkpt><trkpt lat="44.1450269" lon="12.1383159"><ele>226.75</ele><time>2026-04-04T08:32:10.161Z</time></trkpt><trkpt lat="44.1449734" lon="12.1384647"><ele>224.5</ele><time>2026-04-04T08:32:12.16Z</time></trkpt><trkpt lat="44.1449117" lon="12.1386034"><ele>222.25</ele><time>2026-04-04T08:32:14.165Z</time></trkpt><trkpt lat="44.1448555" lon="12.1387406"><ele>220.0</ele><time>2026-04-04T08:32:16.158Z</time></trkpt><trkpt lat="44.1447784" lon="12.1388632"><ele>221.0</ele><time>2026-04-04T08:32:18.161Z</time></trkpt><trkpt lat="44.1447368" lon="12.1389299"><ele>222.0</ele><time>2026-04-04T08:32:19.16Z</time></trkpt><trkpt lat="44.1446918" lon="12.1389972"><ele>223.0</ele><time>2026-04-04T08:32:20.155Z</time></trkpt><trkpt lat="44.1446235" lon="12.1391377"><ele>224.0</ele><time>2026-04-04T08:32:22.154Z</time></trkpt><trkpt lat="44.1445486" lon="12.1392607"><ele>225.0</ele><time>2026-04-04T08:32:24.148Z</time></trkpt><trkpt lat="44.1444731" lon="12.139398"><ele>225.0</ele><time>2026-04-04T08:32:26.155Z</time></trkpt><trkpt lat="44.1444338" lon="12.1394724"><ele>225.0</ele><time>2026-04-04T08:32:27.156Z</time></trkpt><trkpt lat="44.1443868" lon="12.1395415"><ele>225.0</ele><time>2026-04-04T08:32:28.158Z</time></trkpt><trkpt lat="44.1443473" lon="12.1396204"><ele>225.0</ele><time>2026-04-04T08:32:29.16Z</time></trkpt><trkpt lat="44.1443075" lon="12.1396964"><ele>225.0</ele><time>2026-04-04T08:32:30.156Z</time></trkpt><trkpt lat="44.1442214" lon="12.1398064"><ele>225.0</ele><time>2026-04-04T08:32:32.157Z</time></trkpt><trkpt lat="44.1441438" lon="12.1399363"><ele>223.2</ele><time>2026-04-04T08:32:34.153Z</time></trkpt><trkpt lat="44.1440696" lon="12.140077"><ele>221.4</ele><time>2026-04-04T08:32:36.153Z</time></trkpt><trkpt lat="44.1439971" lon="12.1402049"><ele>219.60000000000002</ele><time>2026-04-04T08:32:38.146Z</time></trkpt><trkpt lat="44.1439245" lon="12.1403382"><ele>217.8</ele><time>2026-04-04T08:32:40.146Z</time></trkpt><trkpt lat="44.1438889" lon="12.1404117"><ele>216.0</ele><time>2026-04-04T08:32:41.152Z</time></trkpt><trkpt lat="44.1438016" lon="12.1405402"><ele>218.0</ele><time>2026-04-04T08:32:43.152Z</time></trkpt><trkpt lat="44.1437433" lon="12.1406703"><ele>220.00000000000003</ele><time>2026-04-04T08:32:45.153Z</time></trkpt><trkpt lat="44.1437003" lon="12.1407365"><ele>222.00000000000003</ele><time>2026-04-04T08:32:46.15Z</time></trkpt><trkpt lat="44.1436288" lon="12.1408426"><ele>224.0</ele><time>2026-04-04T08:32:48.154Z</time></trkpt><trkpt lat="44.1435773" lon="12.1409645"><ele>226.0</ele><time>2026-04-04T08:32:50.15Z</time></trkpt><trkpt lat="44.1435231" lon="12.1410873"><ele>226.0</ele><time>2026-04-04T08:32:52.156Z</time></trkpt><trkpt lat="44.1434702" lon="12.1412242"><ele>226.00000000000003</ele><time>2026-04-04T08:32:54.163Z</time></trkpt><trkpt lat="44.143436" lon="12.1412982"><ele>226.00000000000003</ele><time>2026-04-04T08:32:55.155Z</time></trkpt><trkpt lat="44.1433651" lon="12.1413981"><ele>226.0</ele><time>2026-04-04T08:32:57.15Z</time></trkpt><trkpt lat="44.1433336" lon="12.1414777"><ele>226.0</ele><time>2026-04-04T08:32:58.154Z</time></trkpt><trkpt lat="44.1432761" lon="12.1416166"><ele>227.16666666666666</ele><time>2026-04-04T08:33:00.154Z</time></trkpt><trkpt lat="44.1432112" lon="12.1417486"><ele>228.33333333333331</ele><time>2026-04-04T08:33:02.166Z</time></trkpt><trkpt lat="44.1431507" lon="12.1418867"><ele>229.5</ele><time>2026-04-04T08:33:04.167Z</time></trkpt><trkpt lat="44.1431138" lon="12.141973"><ele>230.66666666666669</ele><time>2026-04-04T08:33:05.163Z</time></trkpt><trkpt lat="44.1430682" lon="12.1420532"><ele>231.83333333333334</ele><time>2026-04-04T08:33:06.163Z</time></trkpt><trkpt lat="44.143023" lon="12.1421255"><ele>233.0</ele><time>2026-04-04T08:33:07.165Z</time></trkpt><trkpt lat="44.1429459" lon="12.1422611"><ele>231.0</ele><time>2026-04-04T08:33:09.166Z</time></trkpt><trkpt lat="44.1428646" lon="12.1423951"><ele>229.0</ele><time>2026-04-04T08:33:11.176Z</time></trkpt><trkpt lat="44.1428289" lon="12.1424743"><ele>227.0</ele><time>2026-04-04T08:33:12.171Z</time></trkpt><trkpt lat="44.1427618" lon="12.1426179"><ele>225.0</ele><time>2026-04-04T08:33:14.175Z</time></trkpt><trkpt lat="44.1426936" lon="12.1427579"><ele>223.0</ele><time>2026-04-04T08:33:16.168Z</time></trkpt><trkpt lat="44.1426271" lon="12.1428814"><ele>223.0</ele><time>2026-04-04T08:33:18.168Z</time></trkpt><trkpt lat="44.142572" lon="12.1430157"><ele>223.0</ele><time>2026-04-04T08:33:20.165Z</time></trkpt><trkpt lat="44.1425194" lon="12.1431641"><ele>223.0</ele><time>2026-04-04T08:33:22.165Z</time></trkpt><trkpt lat="44.1424489" lon="12.1433052"><ele>223.0</ele><time>2026-04-04T08:33:24.166Z</time></trkpt><trkpt lat="44.1423753" lon="12.1434552"><ele>224.4</ele><time>2026-04-04T08:33:26.172Z</time></trkpt><trkpt lat="44.1423402" lon="12.1435402"><ele>225.8</ele><time>2026-04-04T08:33:27.167Z</time></trkpt><trkpt lat="44.142311" lon="12.1436181"><ele>227.2</ele><time>2026-04-04T08:33:28.169Z</time></trkpt><trkpt lat="44.1422219" lon="12.1437301"><ele>228.6</ele><time>2026-04-04T08:33:30.165Z</time></trkpt><trkpt lat="44.1421222" lon="12.1438381"><ele>230.0</ele><time>2026-04-04T08:33:32.164Z</time></trkpt><trkpt lat="44.1420583" lon="12.1438834"><ele>230.0</ele><time>2026-04-04T08:33:33.178Z</time></trkpt><trkpt lat="44.1419978" lon="12.1439335"><ele>230.0</ele><time>2026-04-04T08:33:34.166Z</time></trkpt><trkpt lat="44.1418896" lon="12.1439904"><ele>230.0</ele><time>2026-04-04T08:33:36.166Z</time></trkpt><trkpt lat="44.1417661" lon="12.1440354"><ele>230.0</ele><time>2026-04-04T08:33:38.163Z</time></trkpt><trkpt lat="44.1417016" lon="12.1440617"><ele>230.0</ele><time>2026-04-04T08:33:39.164Z</time></trkpt><trkpt lat="44.1415909" lon="12.1441167"><ele>227.50000000000003</ele><time>2026-04-04T08:33:41.161Z</time></trkpt><trkpt lat="44.1415289" lon="12.1441466"><ele>225.0</ele><time>2026-04-04T08:33:42.166Z</time></trkpt><trkpt lat="44.1414619" lon="12.1441843"><ele>222.5</ele><time>2026-04-04T08:33:43.153Z</time></trkpt><trkpt lat="44.141398" lon="12.1442225"><ele>220.0</ele><time>2026-04-04T08:33:44.171Z</time></trkpt><trkpt lat="44.1413325" lon="12.1442558"><ele>217.50000000000003</ele><time>2026-04-04T08:33:45.164Z</time></trkpt><trkpt lat="44.1412172" lon="12.1443175"><ele>215.0</ele><time>2026-04-04T08:33:47.168Z</time></trkpt><trkpt lat="44.1411556" lon="12.1443376"><ele>215.00000000000003</ele><time>2026-04-04T08:33:48.168Z</time></trkpt><trkpt lat="44.1410411" lon="12.1444034"><ele>215.0</ele><time>2026-04-04T08:33:50.174Z</time></trkpt><trkpt lat="44.1409803" lon="12.14443"><ele>215.0</ele><time>2026-04-04T08:33:51.167Z</time></trkpt><trkpt lat="44.1409216" lon="12.1444673"><ele>215.0</ele><time>2026-04-04T08:33:52.168Z</time></trkpt><trkpt lat="44.1408253" lon="12.1445398"><ele>215.00000000000003</ele><time>2026-04-04T08:33:54.172Z</time></trkpt><trkpt lat="44.1407615" lon="12.1445689"><ele>215.0</ele><time>2026-04-04T08:33:55.168Z</time></trkpt><trkpt lat="44.1406971" lon="12.1445978"><ele>215.00000000000003</ele><time>2026-04-04T08:33:56.179Z</time></trkpt><trkpt lat="44.1406356" lon="12.1446302"><ele>215.0</ele><time>2026-04-04T08:33:57.169Z</time></trkpt><trkpt lat="44.1405106" lon="12.1446866"><ele>215.0</ele><time>2026-04-04T08:33:59.169Z</time></trkpt><trkpt lat="44.1404511" lon="12.1447215"><ele>215.0</ele><time>2026-04-04T08:34:00.17Z</time></trkpt><trkpt lat="44.1403884" lon="12.1447479"><ele>215.00000000000003</ele><time>2026-04-04T08:34:01.17Z</time></trkpt><trkpt lat="44.1403248" lon="12.1447818"><ele>215.0</ele><time>2026-04-04T08:34:02.177Z</time></trkpt><trkpt lat="44.1402017" lon="12.144837"><ele>213.2</ele><time>2026-04-04T08:34:04.184Z</time></trkpt><trkpt lat="44.1400889" lon="12.1448939"><ele>211.4</ele><time>2026-04-04T08:34:06.167Z</time></trkpt><trkpt lat="44.1399789" lon="12.1449475"><ele>209.60000000000002</ele><time>2026-04-04T08:34:08.172Z</time></trkpt><trkpt lat="44.1399148" lon="12.1449708"><ele>207.8</ele><time>2026-04-04T08:34:09.169Z</time></trkpt><trkpt lat="44.1398027" lon="12.1450163"><ele>206.0</ele><time>2026-04-04T08:34:11.167Z</time></trkpt><trkpt lat="44.1396878" lon="12.1450598"><ele>206.0</ele><time>2026-04-04T08:34:13.171Z</time></trkpt><trkpt lat="44.1396184" lon="12.1450697"><ele>206.0</ele><time>2026-04-04T08:34:14.172Z</time></trkpt><trkpt lat="44.1395051" lon="12.1450952"><ele>206.0</ele><time>2026-04-04T08:34:16.178Z</time></trkpt><trkpt lat="44.1393891" lon="12.1451154"><ele>206.0</ele><time>2026-04-04T08:34:18.169Z</time></trkpt><trkpt lat="44.1392706" lon="12.1451235"><ele>206.0</ele><time>2026-04-04T08:34:20.169Z</time></trkpt><trkpt lat="44.1392061" lon="12.1451149"><ele>206.0</ele><time>2026-04-04T08:34:21.175Z</time></trkpt><trkpt lat="44.1390865" lon="12.1451054"><ele>206.0</ele><time>2026-04-04T08:34:23.17Z</time></trkpt><trkpt lat="44.1389613" lon="12.145111"><ele>206.0</ele><time>2026-04-04T08:34:25.173Z</time></trkpt><trkpt lat="44.1388445" lon="12.1451133"><ele>206.0</ele><time>2026-04-04T08:34:27.174Z</time></trkpt><trkpt lat="44.138724" lon="12.145122"><ele>206.33333333333334</ele><time>2026-04-04T08:34:29.174Z</time></trkpt><trkpt lat="44.13866" lon="12.1451243"><ele>206.66666666666669</ele><time>2026-04-04T08:34:30.171Z</time></trkpt><trkpt lat="44.1385448" lon="12.1451201"><ele>207.0</ele><time>2026-04-04T08:34:32.17Z</time></trkpt><trkpt lat="44.1384793" lon="12.1451128"><ele>207.33333333333331</ele><time>2026-04-04T08:34:33.167Z</time></trkpt><trkpt lat="44.138414" lon="12.1451187"><ele>207.66666666666666</ele><time>2026-04-04T08:34:34.169Z</time></trkpt><trkpt lat="44.1382977" lon="12.1451255"><ele>208.0</ele><time>2026-04-04T08:34:36.16Z</time></trkpt><trkpt lat="44.1382277" lon="12.1451343"><ele>208.16666666666666</ele><time>2026-04-04T08:34:37.168Z</time></trkpt><trkpt lat="44.1381628" lon="12.1451416"><ele>208.33333333333331</ele><time>2026-04-04T08:34:38.163Z</time></trkpt><trkpt lat="44.1380308" lon="12.1451619"><ele>208.5</ele><time>2026-04-04T08:34:40.164Z</time></trkpt><trkpt lat="44.137967" lon="12.1451833"><ele>208.66666666666669</ele><time>2026-04-04T08:34:41.169Z</time></trkpt><trkpt lat="44.1378942" lon="12.1452011"><ele>208.83333333333334</ele><time>2026-04-04T08:34:42.171Z</time></trkpt><trkpt lat="44.1378262" lon="12.145223"><ele>209.0</ele><time>2026-04-04T08:34:43.167Z</time></trkpt><trkpt lat="44.1377092" lon="12.1452823"><ele>209.00000000000003</ele><time>2026-04-04T08:34:45.175Z</time></trkpt><trkpt lat="44.1376467" lon="12.1453077"><ele>209.0</ele><time>2026-04-04T08:34:46.171Z</time></trkpt><trkpt lat="44.1375809" lon="12.1453314"><ele>209.0</ele><time>2026-04-04T08:34:47.175Z</time></trkpt><trkpt lat="44.1375065" lon="12.1453697"><ele>209.0</ele><time>2026-04-04T08:34:48.176Z</time></trkpt><trkpt lat="44.1374254" lon="12.145404"><ele>209.00000000000003</ele><time>2026-04-04T08:34:49.173Z</time></trkpt><trkpt lat="44.1373436" lon="12.1454395"><ele>209.0</ele><time>2026-04-04T08:34:50.176Z</time></trkpt><trkpt lat="44.1372709" lon="12.1454772"><ele>207.33333333333334</ele><time>2026-04-04T08:34:51.183Z</time></trkpt><trkpt lat="44.1371932" lon="12.1455119"><ele>205.66666666666669</ele><time>2026-04-04T08:34:52.179Z</time></trkpt><trkpt lat="44.1371084" lon="12.1455455"><ele>204.0</ele><time>2026-04-04T08:34:53.185Z</time></trkpt><trkpt lat="44.1370184" lon="12.1455895"><ele>202.33333333333331</ele><time>2026-04-04T08:34:54.179Z</time></trkpt><trkpt lat="44.1369413" lon="12.145632"><ele>200.66666666666666</ele><time>2026-04-04T08:34:55.17Z</time></trkpt><trkpt lat="44.1368597" lon="12.1456765"><ele>199.0</ele><time>2026-04-04T08:34:56.171Z</time></trkpt><trkpt lat="44.1367871" lon="12.1457261"><ele>198.49999999999997</ele><time>2026-04-04T08:34:57.181Z</time></trkpt><trkpt lat="44.1367098" lon="12.1457942"><ele>198.0</ele><time>2026-04-04T08:34:58.181Z</time></trkpt><trkpt lat="44.1366344" lon="12.1458505"><ele>197.5</ele><time>2026-04-04T08:34:59.18Z</time></trkpt><trkpt lat="44.1365596" lon="12.1459016"><ele>197.0</ele><time>2026-04-04T08:35:00.176Z</time></trkpt><trkpt lat="44.136494" lon="12.1459614"><ele>196.49999999999997</ele><time>2026-04-04T08:35:01.178Z</time></trkpt><trkpt lat="44.1364312" lon="12.1460239"><ele>196.0</ele><time>2026-04-04T08:35:02.168Z</time></trkpt><trkpt lat="44.1363771" lon="12.1460882"><ele>195.83333333333331</ele><time>2026-04-04T08:35:03.174Z</time></trkpt><trkpt lat="44.1363176" lon="12.1461555"><ele>195.66666666666666</ele><time>2026-04-04T08:35:04.175Z</time></trkpt><trkpt lat="44.1362627" lon="12.1462222"><ele>195.5</ele><time>2026-04-04T08:35:05.178Z</time></trkpt><trkpt lat="44.136223" lon="12.1462976"><ele>195.33333333333331</ele><time>2026-04-04T08:35:06.207Z</time></trkpt><trkpt lat="44.1361777" lon="12.1463716"><ele>195.16666666666666</ele><time>2026-04-04T08:35:07.174Z</time></trkpt><trkpt lat="44.1361404" lon="12.1464426"><ele>195.0</ele><time>2026-04-04T08:35:08.177Z</time></trkpt><trkpt lat="44.1360643" lon="12.1465804"><ele>194.5</ele><time>2026-04-04T08:35:10.169Z</time></trkpt><trkpt lat="44.1359877" lon="12.1467059"><ele>194.0</ele><time>2026-04-04T08:35:12.169Z</time></trkpt><trkpt lat="44.1358946" lon="12.1468277"><ele>193.5</ele><time>2026-04-04T08:35:14.173Z</time></trkpt><trkpt lat="44.1358059" lon="12.1469338"><ele>193.0</ele><time>2026-04-04T08:35:16.171Z</time></trkpt><trkpt lat="44.1357165" lon="12.1470353"><ele>192.99999999999997</ele><time>2026-04-04T08:35:18.165Z</time></trkpt><trkpt lat="44.1356602" lon="12.1470794"><ele>193.0</ele><time>2026-04-04T08:35:19.174Z</time></trkpt><trkpt lat="44.1356066" lon="12.1471259"><ele>193.0</ele><time>2026-04-04T08:35:20.171Z</time></trkpt><trkpt lat="44.135554" lon="12.147178"><ele>193.0</ele><time>2026-04-04T08:35:21.18Z</time></trkpt><trkpt lat="44.1354496" lon="12.1472696"><ele>192.99999999999997</ele><time>2026-04-04T08:35:23.181Z</time></trkpt><trkpt lat="44.135342" lon="12.1473493"><ele>193.0</ele><time>2026-04-04T08:35:25.181Z</time></trkpt><trkpt lat="44.1352816" lon="12.1473867"><ele>192.8</ele><time>2026-04-04T08:35:26.177Z</time></trkpt><trkpt lat="44.1351762" lon="12.1474584"><ele>192.60000000000002</ele><time>2026-04-04T08:35:28.177Z</time></trkpt><trkpt lat="44.1350755" lon="12.1475526"><ele>192.39999999999998</ele><time>2026-04-04T08:35:30.18Z</time></trkpt><trkpt lat="44.1349721" lon="12.1476126"><ele>192.2</ele><time>2026-04-04T08:35:32.177Z</time></trkpt><trkpt lat="44.1349139" lon="12.1476491"><ele>192.0</ele><time>2026-04-04T08:35:33.175Z</time></trkpt><trkpt lat="44.1348542" lon="12.1476819"><ele>192.0</ele><time>2026-04-04T08:35:34.176Z</time></trkpt><trkpt lat="44.1347548" lon="12.1477561"><ele>192.0</ele><time>2026-04-04T08:35:36.187Z</time></trkpt><trkpt lat="44.1346479" lon="12.1478081"><ele>192.0</ele><time>2026-04-04T08:35:38.181Z</time></trkpt><trkpt lat="44.13454" lon="12.1478671"><ele>192.0</ele><time>2026-04-04T08:35:40.182Z</time></trkpt><trkpt lat="44.1344539" lon="12.1479267"><ele>192.0</ele><time>2026-04-04T08:35:42.179Z</time></trkpt><trkpt lat="44.1343684" lon="12.1479964"><ele>192.0</ele><time>2026-04-04T08:35:44.177Z</time></trkpt><trkpt lat="44.1342617" lon="12.1480721"><ele>192.0</ele><time>2026-04-04T08:35:46.173Z</time></trkpt><trkpt lat="44.1341803" lon="12.1482003"><ele>192.0</ele><time>2026-04-04T08:35:48.168Z</time></trkpt><trkpt lat="44.1341348" lon="12.1482714"><ele>192.0</ele><time>2026-04-04T08:35:49.182Z</time></trkpt><trkpt lat="44.1340857" lon="12.1483391"><ele>192.0</ele><time>2026-04-04T08:35:50.165Z</time></trkpt><trkpt lat="44.1340294" lon="12.1484109"><ele>191.28571428571428</ele><time>2026-04-04T08:35:51.168Z</time></trkpt><trkpt lat="44.1339772" lon="12.1484899"><ele>190.57142857142856</ele><time>2026-04-04T08:35:52.179Z</time></trkpt><trkpt lat="44.1339237" lon="12.1485635"><ele>189.85714285714283</ele><time>2026-04-04T08:35:53.171Z</time></trkpt><trkpt lat="44.1338723" lon="12.1486453"><ele>189.14285714285714</ele><time>2026-04-04T08:35:54.184Z</time></trkpt><trkpt lat="44.1338262" lon="12.1487187"><ele>188.42857142857144</ele><time>2026-04-04T08:35:55.185Z</time></trkpt><trkpt lat="44.1337788" lon="12.1487886"><ele>187.7142857142857</ele><time>2026-04-04T08:35:56.18Z</time></trkpt><trkpt lat="44.1337265" lon="12.1488618"><ele>187.0</ele><time>2026-04-04T08:35:57.179Z</time></trkpt><trkpt lat="44.1336833" lon="12.1489343"><ele>187.0</ele><time>2026-04-04T08:35:58.182Z</time></trkpt><trkpt lat="44.1336412" lon="12.1490048"><ele>187.0</ele><time>2026-04-04T08:35:59.178Z</time></trkpt><trkpt lat="44.1335898" lon="12.1490655"><ele>187.0</ele><time>2026-04-04T08:36:00.185Z</time></trkpt><trkpt lat="44.1335419" lon="12.1491315"><ele>187.0</ele><time>2026-04-04T08:36:01.18Z</time></trkpt><trkpt lat="44.1334926" lon="12.149191"><ele>187.0</ele><time>2026-04-04T08:36:02.181Z</time></trkpt><trkpt lat="44.1334037" lon="12.1493097"><ele>187.0</ele><time>2026-04-04T08:36:04.179Z</time></trkpt><trkpt lat="44.1333518" lon="12.149376"><ele>187.8</ele><time>2026-04-04T08:36:05.185Z</time></trkpt><trkpt lat="44.1332957" lon="12.1494396"><ele>188.6</ele><time>2026-04-04T08:36:06.18Z</time></trkpt><trkpt lat="44.1332118" lon="12.1495523"><ele>189.4</ele><time>2026-04-04T08:36:08.182Z</time></trkpt><trkpt lat="44.1331428" lon="12.1496946"><ele>190.20000000000002</ele><time>2026-04-04T08:36:10.179Z</time></trkpt><trkpt lat="44.1330869" lon="12.1498423"><ele>191.0</ele><time>2026-04-04T08:36:12.178Z</time></trkpt><trkpt lat="44.1330408" lon="12.1499865"><ele>192.60000000000002</ele><time>2026-04-04T08:36:14.177Z</time></trkpt><trkpt lat="44.1329927" lon="12.1501231"><ele>194.2</ele><time>2026-04-04T08:36:16.178Z</time></trkpt><trkpt lat="44.1329459" lon="12.1502446"><ele>195.8</ele><time>2026-04-04T08:36:18.175Z</time></trkpt><trkpt lat="44.1328945" lon="12.1503755"><ele>197.39999999999998</ele><time>2026-04-04T08:36:20.175Z</time></trkpt><trkpt lat="44.1328462" lon="12.1505111"><ele>199.0</ele><time>2026-04-04T08:36:22.182Z</time></trkpt><trkpt lat="44.1328017" lon="12.1506576"><ele>199.6</ele><time>2026-04-04T08:36:24.184Z</time></trkpt><trkpt lat="44.1327552" lon="12.1508051"><ele>200.2</ele><time>2026-04-04T08:36:26.177Z</time></trkpt><trkpt lat="44.1327277" lon="12.1509585"><ele>200.79999999999998</ele><time>2026-04-04T08:36:28.18Z</time></trkpt><trkpt lat="44.1327285" lon="12.1511181"><ele>201.39999999999998</ele><time>2026-04-04T08:36:30.185Z</time></trkpt><trkpt lat="44.1327325" lon="12.1512085"><ele>202.0</ele><time>2026-04-04T08:36:31.177Z</time></trkpt><trkpt lat="44.1327473" lon="12.1513004"><ele>201.99999999999997</ele><time>2026-04-04T08:36:32.178Z</time></trkpt><trkpt lat="44.1327668" lon="12.1513948"><ele>202.0</ele><time>2026-04-04T08:36:33.176Z</time></trkpt><trkpt lat="44.1327825" lon="12.1514941"><ele>202.0</ele><time>2026-04-04T08:36:34.18Z</time></trkpt><trkpt lat="44.1327836" lon="12.1515916"><ele>202.0</ele><time>2026-04-04T08:36:35.176Z</time></trkpt><trkpt lat="44.1327952" lon="12.1516959"><ele>201.99999999999997</ele><time>2026-04-04T08:36:36.182Z</time></trkpt><trkpt lat="44.1328083" lon="12.1518066"><ele>202.0</ele><time>2026-04-04T08:36:37.184Z</time></trkpt><trkpt lat="44.1328191" lon="12.1519288"><ele>201.8</ele><time>2026-04-04T08:36:38.196Z</time></trkpt><trkpt lat="44.1328237" lon="12.1520504"><ele>201.6</ele><time>2026-04-04T08:36:39.179Z</time></trkpt><trkpt lat="44.1328302" lon="12.1521709"><ele>201.4</ele><time>2026-04-04T08:36:40.184Z</time></trkpt><trkpt lat="44.1328498" lon="12.1522997"><ele>201.20000000000002</ele><time>2026-04-04T08:36:41.183Z</time></trkpt><trkpt lat="44.1328742" lon="12.1524224"><ele>201.0</ele><time>2026-04-04T08:36:42.181Z</time></trkpt><trkpt lat="44.1329135" lon="12.1525466"><ele>199.8</ele><time>2026-04-04T08:36:43.176Z</time></trkpt><trkpt lat="44.1329595" lon="12.1526684"><ele>198.60000000000002</ele><time>2026-04-04T08:36:44.185Z</time></trkpt><trkpt lat="44.1330135" lon="12.1527816"><ele>197.4</ele><time>2026-04-04T08:36:45.181Z</time></trkpt><trkpt lat="44.133063" lon="12.152896"><ele>196.2</ele><time>2026-04-04T08:36:46.184Z</time></trkpt><trkpt lat="44.133105" lon="12.1530113"><ele>195.0</ele><time>2026-04-04T08:36:47.187Z</time></trkpt><trkpt lat="44.1331426" lon="12.1531264"><ele>193.4</ele><time>2026-04-04T08:36:48.186Z</time></trkpt><trkpt lat="44.1331876" lon="12.1532475"><ele>191.8</ele><time>2026-04-04T08:36:49.193Z</time></trkpt><trkpt lat="44.1332303" lon="12.1533631"><ele>190.2</ele><time>2026-04-04T08:36:50.18Z</time></trkpt><trkpt lat="44.1332695" lon="12.1534777"><ele>188.6</ele><time>2026-04-04T08:36:51.18Z</time></trkpt><trkpt lat="44.1333125" lon="12.1535884"><ele>187.0</ele><time>2026-04-04T08:36:52.183Z</time></trkpt><trkpt lat="44.1333534" lon="12.1536967"><ele>186.16666666666669</ele><time>2026-04-04T08:36:53.185Z</time></trkpt><trkpt lat="44.133395" lon="12.1538135"><ele>185.33333333333334</ele><time>2026-04-04T08:36:54.192Z</time></trkpt><trkpt lat="44.1334286" lon="12.1539212"><ele>184.5</ele><time>2026-04-04T08:36:55.186Z</time></trkpt><trkpt lat="44.1334674" lon="12.1540303"><ele>183.66666666666666</ele><time>2026-04-04T08:36:56.182Z</time></trkpt><trkpt lat="44.133503" lon="12.1541346"><ele>182.83333333333331</ele><time>2026-04-04T08:36:57.183Z</time></trkpt><trkpt lat="44.1335449" lon="12.1542429"><ele>182.0</ele><time>2026-04-04T08:36:58.176Z</time></trkpt><trkpt lat="44.1335774" lon="12.1543486"><ele>181.33333333333331</ele><time>2026-04-04T08:36:59.193Z</time></trkpt><trkpt lat="44.1336127" lon="12.1544535"><ele>180.66666666666666</ele><time>2026-04-04T08:37:00.184Z</time></trkpt><trkpt lat="44.1336585" lon="12.1545632"><ele>180.0</ele><time>2026-04-04T08:37:01.179Z</time></trkpt><trkpt lat="44.1336995" lon="12.15467"><ele>179.33333333333334</ele><time>2026-04-04T08:37:02.177Z</time></trkpt><trkpt lat="44.1337243" lon="12.1547785"><ele>178.66666666666669</ele><time>2026-04-04T08:37:03.18Z</time></trkpt><trkpt lat="44.1337584" lon="12.154877"><ele>178.0</ele><time>2026-04-04T08:37:04.178Z</time></trkpt><trkpt lat="44.1337971" lon="12.154976"><ele>176.16666666666669</ele><time>2026-04-04T08:37:05.18Z</time></trkpt><trkpt lat="44.1338335" lon="12.1550745"><ele>174.33333333333334</ele><time>2026-04-04T08:37:06.18Z</time></trkpt><trkpt lat="44.1338727" lon="12.1551811"><ele>172.5</ele><time>2026-04-04T08:37:07.179Z</time></trkpt><trkpt lat="44.133908" lon="12.155289"><ele>170.66666666666666</ele><time>2026-04-04T08:37:08.176Z</time></trkpt><trkpt lat="44.1339406" lon="12.1553861"><ele>168.83333333333331</ele><time>2026-04-04T08:37:09.195Z</time></trkpt><trkpt lat="44.1339807" lon="12.1554923"><ele>167.0</ele><time>2026-04-04T08:37:10.178Z</time></trkpt><trkpt lat="44.1340195" lon="12.1556014"><ele>168.0</ele><time>2026-04-04T08:37:11.178Z</time></trkpt><trkpt lat="44.1340541" lon="12.1557121"><ele>169.0</ele><time>2026-04-04T08:37:12.181Z</time></trkpt><trkpt lat="44.1340887" lon="12.155814"><ele>170.0</ele><time>2026-04-04T08:37:13.171Z</time></trkpt><trkpt lat="44.1341283" lon="12.1559223"><ele>171.0</ele><time>2026-04-04T08:37:14.183Z</time></trkpt><trkpt lat="44.1341675" lon="12.1560386"><ele>172.0</ele><time>2026-04-04T08:37:15.193Z</time></trkpt><trkpt lat="44.1342059" lon="12.1561573"><ele>173.0</ele><time>2026-04-04T08:37:16.186Z</time></trkpt><trkpt lat="44.1342221" lon="12.1562711"><ele>173.0</ele><time>2026-04-04T08:37:17.202Z</time></trkpt><trkpt lat="44.1342103" lon="12.1564092"><ele>173.0</ele><time>2026-04-04T08:37:18.183Z</time></trkpt><trkpt lat="44.1341754" lon="12.1565373"><ele>173.0</ele><time>2026-04-04T08:37:19.261Z</time></trkpt><trkpt lat="44.1341398" lon="12.156661"><ele>173.0</ele><time>2026-04-04T08:37:20.273Z</time></trkpt><trkpt lat="44.1341033" lon="12.156781"><ele>173.0</ele><time>2026-04-04T08:37:21.27Z</time></trkpt><trkpt lat="44.1340665" lon="12.1569004"><ele>169.0</ele><time>2026-04-04T08:37:22.278Z</time></trkpt><trkpt lat="44.1340301" lon="12.1570228"><ele>165.0</ele><time>2026-04-04T08:37:23.27Z</time></trkpt><trkpt lat="44.1339926" lon="12.1571414"><ele>161.0</ele><time>2026-04-04T08:37:24.275Z</time></trkpt><trkpt lat="44.1339538" lon="12.1572658"><ele>157.0</ele><time>2026-04-04T08:37:25.272Z</time></trkpt><trkpt lat="44.1339152" lon="12.1573939"><ele>153.0</ele><time>2026-04-04T08:37:26.265Z</time></trkpt><trkpt lat="44.133874" lon="12.1575265"><ele>153.0</ele><time>2026-04-04T08:37:27.261Z</time></trkpt><trkpt lat="44.1338316" lon="12.1576591"><ele>153.0</ele><time>2026-04-04T08:37:28.261Z</time></trkpt><trkpt lat="44.133788" lon="12.1577924"><ele>153.0</ele><time>2026-04-04T08:37:29.261Z</time></trkpt><trkpt lat="44.1337058" lon="12.1579241"><ele>153.0</ele><time>2026-04-04T08:37:30.256Z</time></trkpt><trkpt lat="44.1336609" lon="12.1580595"><ele>153.0</ele><time>2026-04-04T08:37:31.265Z</time></trkpt><trkpt lat="44.1336163" lon="12.1581975"><ele>153.4</ele><time>2026-04-04T08:37:32.256Z</time></trkpt><trkpt lat="44.1335717" lon="12.1583357"><ele>153.8</ele><time>2026-04-04T08:37:33.261Z</time></trkpt><trkpt lat="44.1335281" lon="12.1584704"><ele>154.2</ele><time>2026-04-04T08:37:34.258Z</time></trkpt><trkpt lat="44.1334863" lon="12.1586042"><ele>154.6</ele><time>2026-04-04T08:37:35.253Z</time></trkpt><trkpt lat="44.1334448" lon="12.1587397"><ele>155.0</ele><time>2026-04-04T08:37:36.256Z</time></trkpt><trkpt lat="44.1334038" lon="12.1588722"><ele>155.0</ele><time>2026-04-04T08:37:37.26Z</time></trkpt><trkpt lat="44.1333642" lon="12.1590037"><ele>155.0</ele><time>2026-04-04T08:37:38.256Z</time></trkpt><trkpt lat="44.1333251" lon="12.1591316"><ele>155.0</ele><time>2026-04-04T08:37:39.268Z</time></trkpt><trkpt lat="44.1332859" lon="12.1592568"><ele>155.0</ele><time>2026-04-04T08:37:40.27Z</time></trkpt><trkpt lat="44.1332459" lon="12.1593832"><ele>155.0</ele><time>2026-04-04T08:37:41.257Z</time></trkpt><trkpt lat="44.1332033" lon="12.1595063"><ele>154.4</ele><time>2026-04-04T08:37:42.261Z</time></trkpt><trkpt lat="44.1331662" lon="12.1596295"><ele>153.8</ele><time>2026-04-04T08:37:43.259Z</time></trkpt><trkpt lat="44.1331278" lon="12.1597489"><ele>153.2</ele><time>2026-04-04T08:37:44.271Z</time></trkpt><trkpt lat="44.1330897" lon="12.1598666"><ele>152.6</ele><time>2026-04-04T08:37:45.272Z</time></trkpt><trkpt lat="44.1330528" lon="12.1599821"><ele>152.0</ele><time>2026-04-04T08:37:46.273Z</time></trkpt><trkpt lat="44.1330177" lon="12.1600943"><ele>152.0</ele><time>2026-04-04T08:37:47.276Z</time></trkpt><trkpt lat="44.1329844" lon="12.1602091"><ele>152.0</ele><time>2026-04-04T08:37:48.273Z</time></trkpt><trkpt lat="44.1329523" lon="12.1603183"><ele>152.0</ele><time>2026-04-04T08:37:49.276Z</time></trkpt><trkpt lat="44.1329193" lon="12.1604215"><ele>152.0</ele><time>2026-04-04T08:37:50.281Z</time></trkpt><trkpt lat="44.1328866" lon="12.1605223"><ele>152.0</ele><time>2026-04-04T08:37:51.276Z</time></trkpt><trkpt lat="44.1328552" lon="12.1606218"><ele>152.0</ele><time>2026-04-04T08:37:52.273Z</time></trkpt><trkpt lat="44.1328236" lon="12.1607175"><ele>152.16666666666666</ele><time>2026-04-04T08:37:53.276Z</time></trkpt><trkpt lat="44.1327937" lon="12.1608118"><ele>152.33333333333331</ele><time>2026-04-04T08:37:54.279Z</time></trkpt><trkpt lat="44.1327622" lon="12.1609069"><ele>152.5</ele><time>2026-04-04T08:37:55.276Z</time></trkpt><trkpt lat="44.1327298" lon="12.1610004"><ele>152.66666666666666</ele><time>2026-04-04T08:37:56.265Z</time></trkpt><trkpt lat="44.1326989" lon="12.1610936"><ele>152.83333333333334</ele><time>2026-04-04T08:37:57.266Z</time></trkpt><trkpt lat="44.1326659" lon="12.1611896"><ele>153.0</ele><time>2026-04-04T08:37:58.264Z</time></trkpt><trkpt lat="44.1326317" lon="12.1612876"><ele>153.0</ele><time>2026-04-04T08:37:59.264Z</time></trkpt><trkpt lat="44.1325985" lon="12.1613867"><ele>153.0</ele><time>2026-04-04T08:38:00.272Z</time></trkpt><trkpt lat="44.1325695" lon="12.1614868"><ele>153.0</ele><time>2026-04-04T08:38:01.26Z</time></trkpt><trkpt lat="44.132545" lon="12.1615884"><ele>153.0</ele><time>2026-04-04T08:38:02.267Z</time></trkpt><trkpt lat="44.1325256" lon="12.1616911"><ele>153.0</ele><time>2026-04-04T08:38:03.257Z</time></trkpt><trkpt lat="44.1325072" lon="12.161793"><ele>153.0</ele><time>2026-04-04T08:38:04.262Z</time></trkpt><trkpt lat="44.132493" lon="12.161894"><ele>152.42857142857142</ele><time>2026-04-04T08:38:05.263Z</time></trkpt><trkpt lat="44.1324818" lon="12.1619906"><ele>151.85714285714286</ele><time>2026-04-04T08:38:06.263Z</time></trkpt><trkpt lat="44.1324705" lon="12.1620873"><ele>151.28571428571428</ele><time>2026-04-04T08:38:07.283Z</time></trkpt><trkpt lat="44.1324623" lon="12.1621792"><ele>150.71428571428572</ele><time>2026-04-04T08:38:08.262Z</time></trkpt><trkpt lat="44.1324566" lon="12.1622674"><ele>150.14285714285714</ele><time>2026-04-04T08:38:09.268Z</time></trkpt><trkpt lat="44.1324539" lon="12.1623568"><ele>149.57142857142856</ele><time>2026-04-04T08:38:10.27Z</time></trkpt><trkpt lat="44.1324447" lon="12.1624438"><ele>149.0</ele><time>2026-04-04T08:38:11.283Z</time></trkpt><trkpt lat="44.1324263" lon="12.1626139"><ele>148.8</ele><time>2026-04-04T08:38:13.269Z</time></trkpt><trkpt lat="44.1324183" lon="12.1627648"><ele>148.60000000000002</ele><time>2026-04-04T08:38:15.268Z</time></trkpt><trkpt lat="44.1324068" lon="12.1629062"><ele>148.4</ele><time>2026-04-04T08:38:17.272Z</time></trkpt><trkpt lat="44.1323955" lon="12.1630332"><ele>148.20000000000002</ele><time>2026-04-04T08:38:19.251Z</time></trkpt><trkpt lat="44.1323863" lon="12.1631419"><ele>148.0</ele><time>2026-04-04T08:38:21.248Z</time></trkpt><trkpt lat="44.1323739" lon="12.1632396"><ele>147.57142857142858</ele><time>2026-04-04T08:38:23.28Z</time></trkpt><trkpt lat="44.1323577" lon="12.163339"><ele>147.14285714285714</ele><time>2026-04-04T08:38:25.282Z</time></trkpt><trkpt lat="44.1323371" lon="12.163446"><ele>146.71428571428572</ele><time>2026-04-04T08:38:27.284Z</time></trkpt><trkpt lat="44.1323247" lon="12.1635487"><ele>146.28571428571428</ele><time>2026-04-04T08:38:29.283Z</time></trkpt><trkpt lat="44.1323732" lon="12.1636324"><ele>145.85714285714286</ele><time>2026-04-04T08:38:32.281Z</time></trkpt><trkpt lat="44.1324441" lon="12.1636698"><ele>145.42857142857144</ele><time>2026-04-04T08:38:35.277Z</time></trkpt><trkpt lat="44.1325089" lon="12.1636952"><ele>145.0</ele><time>2026-04-04T08:38:38.278Z</time></trkpt><trkpt lat="44.1325865" lon="12.1637438"><ele>146.14285714285714</ele><time>2026-04-04T08:38:41.274Z</time></trkpt><trkpt lat="44.1326515" lon="12.1637376"><ele>147.2857142857143</ele><time>2026-04-04T08:38:45.282Z</time></trkpt><trkpt lat="44.1326994" lon="12.1636781"><ele>148.42857142857144</ele><time>2026-04-04T08:40:03.197Z</time></trkpt><trkpt lat="44.132714" lon="12.1635777"><ele>149.57142857142858</ele><time>2026-04-04T08:40:06.186Z</time></trkpt><trkpt lat="44.1327766" lon="12.1635381"><ele>150.71428571428572</ele><time>2026-04-04T08:44:21.209Z</time></trkpt><trkpt lat="44.1327198" lon="12.1635922"><ele>151.85714285714286</ele><time>2026-04-04T09:02:44.204Z</time></trkpt><trkpt lat="44.1326951" lon="12.163676"><ele>153.0</ele><time>2026-04-04T09:03:00.185Z</time></trkpt><trkpt lat="44.132673" lon="12.1637729"><ele>153.0</ele><time>2026-04-04T09:03:04.164Z</time></trkpt><trkpt lat="44.1325836" lon="12.1637502"><ele>153.0</ele><time>2026-04-04T09:03:08.178Z</time></trkpt><trkpt lat="44.1325219" lon="12.1637159"><ele>153.0</ele><time>2026-04-04T09:03:10.178Z</time></trkpt><trkpt lat="44.1324322" lon="12.1636639"><ele>153.0</ele><time>2026-04-04T09:03:13.18Z</time></trkpt><trkpt lat="44.1323534" lon="12.1636486"><ele>153.0</ele><time>2026-04-04T09:03:15.17Z</time></trkpt><trkpt lat="44.1322746" lon="12.1636973"><ele>153.0</ele><time>2026-04-04T09:03:18.172Z</time></trkpt><trkpt lat="44.1322183" lon="12.1637981"><ele>153.4</ele><time>2026-04-04T09:03:20.166Z</time></trkpt><trkpt lat="44.1321874" lon="12.1639339"><ele>153.8</ele><time>2026-04-04T09:03:22.176Z</time></trkpt><trkpt lat="44.1321463" lon="12.1640476"><ele>154.2</ele><time>2026-04-04T09:03:24.181Z</time></trkpt><trkpt lat="44.1320916" lon="12.1641619"><ele>154.6</ele><time>2026-04-04T09:03:26.181Z</time></trkpt><trkpt lat="44.1320469" lon="12.1642925"><ele>155.0</ele><time>2026-04-04T09:03:28.168Z</time></trkpt><trkpt lat="44.1319951" lon="12.1644235"><ele>155.0</ele><time>2026-04-04T09:03:30.169Z</time></trkpt><trkpt lat="44.1319479" lon="12.1645329"><ele>155.0</ele><time>2026-04-04T09:03:32.167Z</time></trkpt><trkpt lat="44.1318982" lon="12.1646338"><ele>155.0</ele><time>2026-04-04T09:03:34.172Z</time></trkpt><trkpt lat="44.1318552" lon="12.1647341"><ele>155.0</ele><time>2026-04-04T09:03:36.187Z</time></trkpt><trkpt lat="44.1318029" lon="12.1648344"><ele>155.0</ele><time>2026-04-04T09:03:38.174Z</time></trkpt><trkpt lat="44.1317641" lon="12.1649054"><ele>155.0</ele><time>2026-04-04T09:03:40.177Z</time></trkpt><trkpt lat="44.1317369" lon="12.1649989"><ele>155.2</ele><time>2026-04-04T09:03:42.176Z</time></trkpt><trkpt lat="44.1316976" lon="12.1650925"><ele>155.4</ele><time>2026-04-04T09:03:44.181Z</time></trkpt><trkpt lat="44.1316574" lon="12.1652091"><ele>155.6</ele><time>2026-04-04T09:03:46.182Z</time></trkpt><trkpt lat="44.131608" lon="12.1653317"><ele>155.8</ele><time>2026-04-04T09:03:48.175Z</time></trkpt><trkpt lat="44.1315577" lon="12.1654637"><ele>156.0</ele><time>2026-04-04T09:03:50.17Z</time></trkpt><trkpt lat="44.1315096" lon="12.1656037"><ele>155.0</ele><time>2026-04-04T09:03:52.173Z</time></trkpt><trkpt lat="44.1314712" lon="12.1657381"><ele>154.0</ele><time>2026-04-04T09:03:54.17Z</time></trkpt><trkpt lat="44.1314345" lon="12.1658619"><ele>153.0</ele><time>2026-04-04T09:03:56.184Z</time></trkpt><trkpt lat="44.1313941" lon="12.1660022"><ele>152.0</ele><time>2026-04-04T09:03:58.175Z</time></trkpt><trkpt lat="44.1313532" lon="12.1661302"><ele>151.0</ele><time>2026-04-04T09:04:00.172Z</time></trkpt><trkpt lat="44.1313161" lon="12.1662616"><ele>151.0</ele><time>2026-04-04T09:04:02.168Z</time></trkpt><trkpt lat="44.131285" lon="12.1663822"><ele>151.0</ele><time>2026-04-04T09:04:04.168Z</time></trkpt><trkpt lat="44.1312387" lon="12.1664989"><ele>151.0</ele><time>2026-04-04T09:04:06.172Z</time></trkpt><trkpt lat="44.1311967" lon="12.1666251"><ele>151.0</ele><time>2026-04-04T09:04:08.174Z</time></trkpt><trkpt lat="44.1311592" lon="12.1667312"><ele>151.0</ele><time>2026-04-04T09:04:10.174Z</time></trkpt><trkpt lat="44.1311249" lon="12.1668534"><ele>152.0</ele><time>2026-04-04T09:04:12.167Z</time></trkpt><trkpt lat="44.1310954" lon="12.1669793"><ele>153.0</ele><time>2026-04-04T09:04:14.184Z</time></trkpt><trkpt lat="44.1310398" lon="12.1670911"><ele>154.0</ele><time>2026-04-04T09:04:16.168Z</time></trkpt><trkpt lat="44.1309619" lon="12.1671724"><ele>155.0</ele><time>2026-04-04T09:04:18.163Z</time></trkpt><trkpt lat="44.1308749" lon="12.16724"><ele>156.0</ele><time>2026-04-04T09:04:20.168Z</time></trkpt><trkpt lat="44.1307823" lon="12.1673203"><ele>154.2</ele><time>2026-04-04T09:04:22.167Z</time></trkpt><trkpt lat="44.1306943" lon="12.1674087"><ele>152.39999999999998</ele><time>2026-04-04T09:04:24.167Z</time></trkpt><trkpt lat="44.1306125" lon="12.1674912"><ele>150.6</ele><time>2026-04-04T09:04:26.154Z</time></trkpt><trkpt lat="44.1305057" lon="12.1675889"><ele>148.79999999999998</ele><time>2026-04-04T09:04:28.161Z</time></trkpt><trkpt lat="44.1304586" lon="12.1676494"><ele>147.0</ele><time>2026-04-04T09:04:29.178Z</time></trkpt><trkpt lat="44.1304099" lon="12.1677073"><ele>147.0</ele><time>2026-04-04T09:04:30.166Z</time></trkpt><trkpt lat="44.1303222" lon="12.1678252"><ele>147.0</ele><time>2026-04-04T09:04:32.167Z</time></trkpt><trkpt lat="44.1302756" lon="12.1678952"><ele>147.0</ele><time>2026-04-04T09:04:33.155Z</time></trkpt><trkpt lat="44.1302264" lon="12.1679603"><ele>147.0</ele><time>2026-04-04T09:04:34.164Z</time></trkpt><trkpt lat="44.1301881" lon="12.1680402"><ele>147.0</ele><time>2026-04-04T09:04:35.165Z</time></trkpt><trkpt lat="44.1301462" lon="12.1681228"><ele>147.0</ele><time>2026-04-04T09:04:36.162Z</time></trkpt><trkpt lat="44.1301061" lon="12.1682126"><ele>148.16666666666666</ele><time>2026-04-04T09:04:37.164Z</time></trkpt><trkpt lat="44.1300637" lon="12.1683104"><ele>149.33333333333334</ele><time>2026-04-04T09:04:38.164Z</time></trkpt><trkpt lat="44.1300216" lon="12.1684072"><ele>150.5</ele><time>2026-04-04T09:04:39.176Z</time></trkpt><trkpt lat="44.1299802" lon="12.1685062"><ele>151.66666666666669</ele><time>2026-04-04T09:04:40.166Z</time></trkpt><trkpt lat="44.1299348" lon="12.1686109"><ele>152.83333333333334</ele><time>2026-04-04T09:04:41.159Z</time></trkpt><trkpt lat="44.1298873" lon="12.1687139"><ele>154.0</ele><time>2026-04-04T09:04:42.161Z</time></trkpt><trkpt lat="44.1298397" lon="12.1688063"><ele>153.16666666666669</ele><time>2026-04-04T09:04:43.151Z</time></trkpt><trkpt lat="44.1297895" lon="12.1688939"><ele>152.33333333333334</ele><time>2026-04-04T09:04:44.159Z</time></trkpt><trkpt lat="44.1297327" lon="12.1689828"><ele>151.5</ele><time>2026-04-04T09:04:45.15Z</time></trkpt><trkpt lat="44.1296787" lon="12.1690575"><ele>150.66666666666666</ele><time>2026-04-04T09:04:46.151Z</time></trkpt><trkpt lat="44.1296261" lon="12.1691313"><ele>149.83333333333331</ele><time>2026-04-04T09:04:47.154Z</time></trkpt><trkpt lat="44.1295749" lon="12.1692026"><ele>149.0</ele><time>2026-04-04T09:04:48.155Z</time></trkpt><trkpt lat="44.1295217" lon="12.169278"><ele>149.0</ele><time>2026-04-04T09:04:49.161Z</time></trkpt><trkpt lat="44.1294626" lon="12.1693563"><ele>149.0</ele><time>2026-04-04T09:04:50.154Z</time></trkpt><trkpt lat="44.1294082" lon="12.1694145"><ele>149.0</ele><time>2026-04-04T09:04:51.157Z</time></trkpt><trkpt lat="44.1293534" lon="12.1694688"><ele>149.0</ele><time>2026-04-04T09:04:52.15Z</time></trkpt><trkpt lat="44.1293111" lon="12.1695339"><ele>149.0</ele><time>2026-04-04T09:04:53.159Z</time></trkpt><trkpt lat="44.1292255" lon="12.1696587"><ele>149.0</ele><time>2026-04-04T09:04:55.155Z</time></trkpt><trkpt lat="44.1291426" lon="12.1697782"><ele>149.16666666666666</ele><time>2026-04-04T09:04:57.159Z</time></trkpt><trkpt lat="44.129073" lon="12.1698675"><ele>149.33333333333331</ele><time>2026-04-04T09:04:59.171Z</time></trkpt><trkpt lat="44.1289752" lon="12.1698008"><ele>149.5</ele><time>2026-04-04T09:05:02.157Z</time></trkpt><trkpt lat="44.1288955" lon="12.1696801"><ele>149.66666666666666</ele><time>2026-04-04T09:05:04.152Z</time></trkpt><trkpt lat="44.1288492" lon="12.1696184"><ele>149.83333333333334</ele><time>2026-04-04T09:05:05.154Z</time></trkpt><trkpt lat="44.1288044" lon="12.1695552"><ele>150.0</ele><time>2026-04-04T09:05:06.153Z</time></trkpt><trkpt lat="44.1287121" lon="12.1694352"><ele>150.0</ele><time>2026-04-04T09:05:08.16Z</time></trkpt><trkpt lat="44.1286616" lon="12.1693828"><ele>150.0</ele><time>2026-04-04T09:05:09.152Z</time></trkpt><trkpt lat="44.1285665" lon="12.1692696"><ele>150.0</ele><time>2026-04-04T09:05:11.15Z</time></trkpt><trkpt lat="44.1284671" lon="12.169162"><ele>150.0</ele><time>2026-04-04T09:05:13.157Z</time></trkpt><trkpt lat="44.1283755" lon="12.1690504"><ele>150.0</ele><time>2026-04-04T09:05:15.148Z</time></trkpt><trkpt lat="44.1283225" lon="12.1689946"><ele>149.0</ele><time>2026-04-04T09:05:16.145Z</time></trkpt><trkpt lat="44.1281999" lon="12.1689573"><ele>148.0</ele><time>2026-04-04T09:05:18.143Z</time></trkpt><trkpt lat="44.1281357" lon="12.1689653"><ele>147.0</ele><time>2026-04-04T09:05:19.141Z</time></trkpt><trkpt lat="44.1280335" lon="12.1690102"><ele>146.0</ele><time>2026-04-04T09:05:21.137Z</time></trkpt><trkpt lat="44.1279371" lon="12.1690541"><ele>145.0</ele><time>2026-04-04T09:05:23.146Z</time></trkpt><trkpt lat="44.1278729" lon="12.1690574"><ele>145.0</ele><time>2026-04-04T09:05:24.146Z</time></trkpt><trkpt lat="44.1278094" lon="12.1690723"><ele>145.0</ele><time>2026-04-04T09:05:25.152Z</time></trkpt><trkpt lat="44.1276872" lon="12.169127"><ele>145.0</ele><time>2026-04-04T09:05:27.158Z</time></trkpt><trkpt lat="44.1275577" lon="12.1691557"><ele>145.0</ele><time>2026-04-04T09:05:29.186Z</time></trkpt><trkpt lat="44.1274944" lon="12.1691608"><ele>145.0</ele><time>2026-04-04T09:05:30.148Z</time></trkpt><trkpt lat="44.1274067" lon="12.1691644"><ele>142.4</ele><time>2026-04-04T09:05:31.151Z</time></trkpt><trkpt lat="44.1273153" lon="12.1691519"><ele>139.8</ele><time>2026-04-04T09:05:32.149Z</time></trkpt><trkpt lat="44.1272158" lon="12.1691314"><ele>137.2</ele><time>2026-04-04T09:05:33.149Z</time></trkpt><trkpt lat="44.127107" lon="12.169108"><ele>134.6</ele><time>2026-04-04T09:05:34.152Z</time></trkpt><trkpt lat="44.1270028" lon="12.1690788"><ele>132.0</ele><time>2026-04-04T09:05:35.159Z</time></trkpt><trkpt lat="44.1268951" lon="12.1690432"><ele>130.0</ele><time>2026-04-04T09:05:36.15Z</time></trkpt><trkpt lat="44.1267849" lon="12.1689996"><ele>127.99999999999999</ele><time>2026-04-04T09:05:37.157Z</time></trkpt><trkpt lat="44.126692" lon="12.1689574"><ele>125.99999999999999</ele><time>2026-04-04T09:05:38.152Z</time></trkpt><trkpt lat="44.1265944" lon="12.1689174"><ele>124.0</ele><time>2026-04-04T09:05:39.154Z</time></trkpt><trkpt lat="44.1264923" lon="12.1688751"><ele>122.0</ele><time>2026-04-04T09:05:40.165Z</time></trkpt><trkpt lat="44.1263859" lon="12.1688457"><ele>120.99999999999999</ele><time>2026-04-04T09:05:41.162Z</time></trkpt><trkpt lat="44.126282" lon="12.168817"><ele>120.0</ele><time>2026-04-04T09:05:42.165Z</time></trkpt><trkpt lat="44.126193" lon="12.168794"><ele>119.0</ele><time>2026-04-04T09:05:43.155Z</time></trkpt><trkpt lat="44.1261143" lon="12.1687804"><ele>118.0</ele><time>2026-04-04T09:05:44.161Z</time></trkpt><trkpt lat="44.1260401" lon="12.1687499"><ele>116.99999999999999</ele><time>2026-04-04T09:05:45.162Z</time></trkpt><trkpt lat="44.1259733" lon="12.1687168"><ele>116.0</ele><time>2026-04-04T09:05:46.16Z</time></trkpt><trkpt lat="44.1259072" lon="12.1686835"><ele>115.99999999999999</ele><time>2026-04-04T09:05:47.173Z</time></trkpt><trkpt lat="44.1258386" lon="12.1686454"><ele>116.0</ele><time>2026-04-04T09:05:48.165Z</time></trkpt><trkpt lat="44.1257681" lon="12.1686139"><ele>116.0</ele><time>2026-04-04T09:05:49.161Z</time></trkpt><trkpt lat="44.1257082" lon="12.1685868"><ele>116.0</ele><time>2026-04-04T09:05:50.166Z</time></trkpt><trkpt lat="44.1255947" lon="12.1685361"><ele>115.99999999999999</ele><time>2026-04-04T09:05:52.166Z</time></trkpt><trkpt lat="44.1254836" lon="12.1684834"><ele>116.0</ele><time>2026-04-04T09:05:54.167Z</time></trkpt><trkpt lat="44.1254144" lon="12.1684412"><ele>115.66666666666666</ele><time>2026-04-04T09:05:56.175Z</time></trkpt><trkpt lat="44.1253457" lon="12.1683973"><ele>115.33333333333333</ele><time>2026-04-04T09:06:14.169Z</time></trkpt><trkpt lat="44.1252719" lon="12.1683651"><ele>115.0</ele><time>2026-04-04T09:06:16.157Z</time></trkpt><trkpt lat="44.1251852" lon="12.1683579"><ele>114.66666666666666</ele><time>2026-04-04T09:06:18.163Z</time></trkpt><trkpt lat="44.1251145" lon="12.1683297"><ele>114.33333333333333</ele><time>2026-04-04T09:06:20.166Z</time></trkpt><trkpt lat="44.1250394" lon="12.1682862"><ele>114.0</ele><time>2026-04-04T09:06:22.174Z</time></trkpt><trkpt lat="44.1249451" lon="12.1682683"><ele>111.83333333333333</ele><time>2026-04-04T09:06:24.17Z</time></trkpt><trkpt lat="44.1248502" lon="12.1682889"><ele>109.66666666666666</ele><time>2026-04-04T09:06:26.161Z</time></trkpt><trkpt lat="44.1247885" lon="12.1683097"><ele>107.5</ele><time>2026-04-04T09:06:27.164Z</time></trkpt><trkpt lat="44.124692" lon="12.1683576"><ele>105.33333333333333</ele><time>2026-04-04T09:06:29.16Z</time></trkpt><trkpt lat="44.1246237" lon="12.1684141"><ele>103.16666666666666</ele><time>2026-04-04T09:06:32.164Z</time></trkpt><trkpt lat="44.1245506" lon="12.16851"><ele>101.0</ele><time>2026-04-04T09:06:34.154Z</time></trkpt><trkpt lat="44.1244976" lon="12.1685627"><ele>101.0</ele><time>2026-04-04T09:06:35.158Z</time></trkpt><trkpt lat="44.1244043" lon="12.1686568"><ele>101.0</ele><time>2026-04-04T09:06:37.154Z</time></trkpt><trkpt lat="44.1243503" lon="12.1687155"><ele>101.0</ele><time>2026-04-04T09:06:38.156Z</time></trkpt><trkpt lat="44.1242608" lon="12.1688238"><ele>101.0</ele><time>2026-04-04T09:06:40.162Z</time></trkpt><trkpt lat="44.1241712" lon="12.16891"><ele>101.0</ele><time>2026-04-04T09:06:42.153Z</time></trkpt><trkpt lat="44.1241144" lon="12.1689529"><ele>98.49999999999999</ele><time>2026-04-04T09:06:43.143Z</time></trkpt><trkpt lat="44.1240518" lon="12.16901"><ele>96.0</ele><time>2026-04-04T09:06:44.169Z</time></trkpt><trkpt lat="44.1239814" lon="12.1690834"><ele>93.5</ele><time>2026-04-04T09:06:45.157Z</time></trkpt><trkpt lat="44.1239065" lon="12.1691584"><ele>91.0</ele><time>2026-04-04T09:06:46.153Z</time></trkpt><trkpt lat="44.1238312" lon="12.169232"><ele>88.5</ele><time>2026-04-04T09:06:47.154Z</time></trkpt><trkpt lat="44.1237626" lon="12.1692987"><ele>86.0</ele><time>2026-04-04T09:06:48.15Z</time></trkpt><trkpt lat="44.1237029" lon="12.1693728"><ele>86.0</ele><time>2026-04-04T09:06:49.146Z</time></trkpt><trkpt lat="44.1236402" lon="12.1694353"><ele>86.0</ele><time>2026-04-04T09:06:50.148Z</time></trkpt><trkpt lat="44.1235769" lon="12.1694982"><ele>86.0</ele><time>2026-04-04T09:06:51.147Z</time></trkpt><trkpt lat="44.1235089" lon="12.1695628"><ele>86.0</ele><time>2026-04-04T09:06:52.145Z</time></trkpt><trkpt lat="44.1234479" lon="12.1696238"><ele>86.0</ele><time>2026-04-04T09:06:53.146Z</time></trkpt><trkpt lat="44.1233927" lon="12.1696841"><ele>86.0</ele><time>2026-04-04T09:06:54.145Z</time></trkpt><trkpt lat="44.1233346" lon="12.1697403"><ele>86.0</ele><time>2026-04-04T09:06:55.148Z</time></trkpt><trkpt lat="44.1232761" lon="12.1697975"><ele>86.0</ele><time>2026-04-04T09:06:56.147Z</time></trkpt><trkpt lat="44.1232156" lon="12.1698558"><ele>86.0</ele><time>2026-04-04T09:06:57.147Z</time></trkpt><trkpt lat="44.1231527" lon="12.1699194"><ele>86.0</ele><time>2026-04-04T09:06:58.146Z</time></trkpt><trkpt lat="44.1230861" lon="12.1699984"><ele>86.0</ele><time>2026-04-04T09:06:59.15Z</time></trkpt><trkpt lat="44.1230151" lon="12.1700696"><ele>86.0</ele><time>2026-04-04T09:07:00.145Z</time></trkpt><trkpt lat="44.1229511" lon="12.1701421"><ele>83.39999999999999</ele><time>2026-04-04T09:07:01.151Z</time></trkpt><trkpt lat="44.1228865" lon="12.1702081"><ele>80.8</ele><time>2026-04-04T09:07:02.16Z</time></trkpt><trkpt lat="44.1228176" lon="12.1702778"><ele>78.19999999999999</ele><time>2026-04-04T09:07:03.147Z</time></trkpt><trkpt lat="44.1227602" lon="12.1703316"><ele>75.6</ele><time>2026-04-04T09:07:04.146Z</time></trkpt><trkpt lat="44.1226675" lon="12.1704394"><ele>73.0</ele><time>2026-04-04T09:07:06.144Z</time></trkpt><trkpt lat="44.122589" lon="12.1705264"><ele>73.0</ele><time>2026-04-04T09:07:08.15Z</time></trkpt><trkpt lat="44.1225213" lon="12.170486"><ele>73.0</ele><time>2026-04-04T09:07:10.158Z</time></trkpt><trkpt lat="44.122506" lon="12.1703535"><ele>73.0</ele><time>2026-04-04T09:07:12.161Z</time></trkpt><trkpt lat="44.1224827" lon="12.1702229"><ele>73.0</ele><time>2026-04-04T09:07:14.144Z</time></trkpt><trkpt lat="44.1224257" lon="12.1701089"><ele>73.0</ele><time>2026-04-04T09:07:16.149Z</time></trkpt><trkpt lat="44.1223842" lon="12.1700409"><ele>73.0</ele><time>2026-04-04T09:07:17.152Z</time></trkpt><trkpt lat="44.1223474" lon="12.1699694"><ele>74.0</ele><time>2026-04-04T09:07:18.154Z</time></trkpt><trkpt lat="44.1222877" lon="12.1698363"><ele>75.0</ele><time>2026-04-04T09:07:20.151Z</time></trkpt><trkpt lat="44.1222252" lon="12.1697053"><ele>76.0</ele><time>2026-04-04T09:07:22.151Z</time></trkpt><trkpt lat="44.1221605" lon="12.1695633"><ele>77.0</ele><time>2026-04-04T09:07:24.147Z</time></trkpt><trkpt lat="44.1221111" lon="12.1694476"><ele>78.0</ele><time>2026-04-04T09:07:26.148Z</time></trkpt><trkpt lat="44.122068" lon="12.1693295"><ele>78.0</ele><time>2026-04-04T09:07:28.153Z</time></trkpt><trkpt lat="44.1220036" lon="12.1692287"><ele>78.0</ele><time>2026-04-04T09:07:30.16Z</time></trkpt><trkpt lat="44.1219288" lon="12.1691408"><ele>78.0</ele><time>2026-04-04T09:07:32.144Z</time></trkpt><trkpt lat="44.1218427" lon="12.1690573"><ele>78.0</ele><time>2026-04-04T09:07:34.153Z</time></trkpt><trkpt lat="44.1217804" lon="12.1689839"><ele>78.0</ele><time>2026-04-04T09:07:36.157Z</time></trkpt><trkpt lat="44.1216747" lon="12.1688961"><ele>79.0</ele><time>2026-04-04T09:07:39.161Z</time></trkpt><trkpt lat="44.1216001" lon="12.168852"><ele>80.0</ele><time>2026-04-04T09:07:41.162Z</time></trkpt><trkpt lat="44.1215277" lon="12.1688325"><ele>81.0</ele><time>2026-04-04T09:07:43.164Z</time></trkpt><trkpt lat="44.1214358" lon="12.1688159"><ele>82.0</ele><time>2026-04-04T09:07:46.162Z</time></trkpt><trkpt lat="44.1213363" lon="12.1687859"><ele>83.0</ele><time>2026-04-04T09:07:49.16Z</time></trkpt><trkpt lat="44.1212347" lon="12.1687186"><ele>83.5</ele><time>2026-04-04T09:07:53.162Z</time></trkpt><trkpt lat="44.1211546" lon="12.1686619"><ele>84.0</ele><time>2026-04-04T09:07:56.153Z</time></trkpt><trkpt lat="44.1210769" lon="12.168608"><ele>84.5</ele><time>2026-04-04T09:07:59.157Z</time></trkpt><trkpt lat="44.1210005" lon="12.1685507"><ele>85.0</ele><time>2026-04-04T09:08:02.157Z</time></trkpt><trkpt lat="44.1209321" lon="12.1684887"><ele>85.5</ele><time>2026-04-04T09:08:05.16Z</time></trkpt><trkpt lat="44.1208755" lon="12.1684405"><ele>86.0</ele><time>2026-04-04T09:08:08.16Z</time></trkpt><trkpt lat="44.120814" lon="12.1683861"><ele>86.33333333333334</ele><time>2026-04-04T09:08:11.159Z</time></trkpt><trkpt lat="44.1207056" lon="12.1682948"><ele>86.66666666666667</ele><time>2026-04-04T09:08:15.153Z</time></trkpt><trkpt lat="44.1206406" lon="12.1682528"><ele>87.0</ele><time>2026-04-04T09:08:17.155Z</time></trkpt><trkpt lat="44.1205491" lon="12.1681994"><ele>87.33333333333333</ele><time>2026-04-04T09:08:20.152Z</time></trkpt><trkpt lat="44.1204949" lon="12.1681407"><ele>87.66666666666666</ele><time>2026-04-04T09:08:22.155Z</time></trkpt><trkpt lat="44.1204628" lon="12.1680605"><ele>88.0</ele><time>2026-04-04T09:08:24.154Z</time></trkpt><trkpt lat="44.1204213" lon="12.1679764"><ele>88.0</ele><time>2026-04-04T09:08:26.154Z</time></trkpt><trkpt lat="44.1203196" lon="12.1678934"><ele>88.0</ele><time>2026-04-04T09:08:29.158Z</time></trkpt><trkpt lat="44.1202259" lon="12.1678255"><ele>88.0</ele><time>2026-04-04T09:08:32.149Z</time></trkpt><trkpt lat="44.120172" lon="12.1677709"><ele>88.0</ele><time>2026-04-04T09:08:34.165Z</time></trkpt><trkpt lat="44.1200999" lon="12.1677143"><ele>88.0</ele><time>2026-04-04T09:08:36.144Z</time></trkpt><trkpt lat="44.1200455" lon="12.167645"><ele>88.0</ele><time>2026-04-04T09:08:38.141Z</time></trkpt><trkpt lat="44.119985" lon="12.1675813"><ele>88.0</ele><time>2026-04-04T09:08:40.147Z</time></trkpt><trkpt lat="44.1199295" lon="12.1675152"><ele>88.0</ele><time>2026-04-04T09:08:42.148Z</time></trkpt><trkpt lat="44.1198738" lon="12.1674415"><ele>88.0</ele><time>2026-04-04T09:08:44.146Z</time></trkpt><trkpt lat="44.1198263" lon="12.1673671"><ele>88.0</ele><time>2026-04-04T09:08:46.144Z</time></trkpt><trkpt lat="44.1197694" lon="12.1673029"><ele>88.0</ele><time>2026-04-04T09:08:48.143Z</time></trkpt><trkpt lat="44.119709" lon="12.1672547"><ele>88.0</ele><time>2026-04-04T09:08:50.145Z</time></trkpt><trkpt lat="44.119645" lon="12.1671927"><ele>88.0</ele><time>2026-04-04T09:08:52.143Z</time></trkpt><trkpt lat="44.1195933" lon="12.1671112"><ele>88.66666666666666</ele><time>2026-04-04T09:08:54.137Z</time></trkpt><trkpt lat="44.1195326" lon="12.1670443"><ele>89.33333333333333</ele><time>2026-04-04T09:08:56.14Z</time></trkpt><trkpt lat="44.1194536" lon="12.16701"><ele>90.0</ele><time>2026-04-04T09:08:58.142Z</time></trkpt><trkpt lat="44.1193759" lon="12.1670362"><ele>90.66666666666667</ele><time>2026-04-04T09:09:00.145Z</time></trkpt><trkpt lat="44.1192837" lon="12.1670474"><ele>91.33333333333334</ele><time>2026-04-04T09:09:03.151Z</time></trkpt><trkpt lat="44.119201" lon="12.1670235"><ele>92.0</ele><time>2026-04-04T09:09:06.139Z</time></trkpt><trkpt lat="44.1191378" lon="12.1670395"><ele>92.0</ele><time>2026-04-04T09:09:08.15Z</time></trkpt><trkpt lat="44.1190765" lon="12.1670613"><ele>92.0</ele><time>2026-04-04T09:09:10.148Z</time></trkpt><trkpt lat="44.1189991" lon="12.1670614"><ele>92.0</ele><time>2026-04-04T09:09:13.149Z</time></trkpt><trkpt lat="44.1189115" lon="12.1670829"><ele>92.0</ele><time>2026-04-04T09:09:16.159Z</time></trkpt><trkpt lat="44.1188356" lon="12.167097"><ele>92.0</ele><time>2026-04-04T09:09:19.153Z</time></trkpt><trkpt lat="44.1187647" lon="12.1671082"><ele>92.0</ele><time>2026-04-04T09:09:22.151Z</time></trkpt><trkpt lat="44.1186969" lon="12.1671195"><ele>92.0</ele><time>2026-04-04T09:09:25.157Z</time></trkpt><trkpt lat="44.1185573" lon="12.1671265"><ele>93.0</ele><time>2026-04-04T09:09:44.165Z</time></trkpt><trkpt lat="44.1184927" lon="12.167132"><ele>94.0</ele><time>2026-04-04T09:09:46.156Z</time></trkpt><trkpt lat="44.1184188" lon="12.1671376"><ele>95.0</ele><time>2026-04-04T09:09:48.141Z</time></trkpt><trkpt lat="44.118348" lon="12.1671251"><ele>96.0</ele><time>2026-04-04T09:09:50.15Z</time></trkpt><trkpt lat="44.1182834" lon="12.1671108"><ele>97.0</ele><time>2026-04-04T09:09:52.141Z</time></trkpt><trkpt lat="44.1182037" lon="12.1671066"><ele>98.0</ele><time>2026-04-04T09:09:55.152Z</time></trkpt><trkpt lat="44.1181254" lon="12.1670915"><ele>99.0</ele><time>2026-04-04T09:09:59.16Z</time></trkpt><trkpt lat="44.1180459" lon="12.1670571"><ele>102.0</ele><time>2026-04-04T09:10:02.155Z</time></trkpt><trkpt lat="44.1179787" lon="12.1670374"><ele>105.0</ele><time>2026-04-04T09:10:05.154Z</time></trkpt><trkpt lat="44.117897" lon="12.1670101"><ele>108.0</ele><time>2026-04-04T09:10:09.163Z</time></trkpt><trkpt lat="44.1178287" lon="12.1669872"><ele>111.0</ele><time>2026-04-04T09:10:13.163Z</time></trkpt><trkpt lat="44.117744" lon="12.1669767"><ele>114.0</ele><time>2026-04-04T09:10:17.162Z</time></trkpt><trkpt lat="44.11767" lon="12.1669644"><ele>117.0</ele><time>2026-04-04T09:10:21.162Z</time></trkpt><trkpt lat="44.1175982" lon="12.1669296"><ele>117.0</ele><time>2026-04-04T09:10:25.162Z</time></trkpt><trkpt lat="44.1175224" lon="12.1669175"><ele>117.00000000000001</ele><time>2026-04-04T09:10:29.164Z</time></trkpt><trkpt lat="44.117458" lon="12.1669234"><ele>117.0</ele><time>2026-04-04T09:10:34.167Z</time></trkpt><trkpt lat="44.1173896" lon="12.166907"><ele>117.0</ele><time>2026-04-04T09:10:39.163Z</time></trkpt><trkpt lat="44.1173137" lon="12.1668795"><ele>117.00000000000001</ele><time>2026-04-04T09:10:44.17Z</time></trkpt><trkpt lat="44.1172468" lon="12.1668551"><ele>117.0</ele><time>2026-04-04T09:10:48.167Z</time></trkpt><trkpt lat="44.1171837" lon="12.1668482"><ele>117.0</ele><time>2026-04-04T09:10:52.166Z</time></trkpt><trkpt lat="44.1171179" lon="12.1668403"><ele>118.71428571428572</ele><time>2026-04-04T09:10:57.17Z</time></trkpt><trkpt lat="44.1170506" lon="12.1668094"><ele>120.42857142857144</ele><time>2026-04-04T09:11:02.165Z</time></trkpt><trkpt lat="44.1169775" lon="12.1667632"><ele>122.14285714285714</ele><time>2026-04-04T09:11:07.163Z</time></trkpt><trkpt lat="44.1169175" lon="12.166711"><ele>123.85714285714286</ele><time>2026-04-04T09:11:12.169Z</time></trkpt><trkpt lat="44.1168596" lon="12.166659"><ele>125.57142857142857</ele><time>2026-04-04T09:11:17.168Z</time></trkpt><trkpt lat="44.1168053" lon="12.1666123"><ele>127.28571428571428</ele><time>2026-04-04T09:11:22.169Z</time></trkpt><trkpt lat="44.1167417" lon="12.1665515"><ele>129.0</ele><time>2026-04-04T09:11:27.166Z</time></trkpt><trkpt lat="44.1167037" lon="12.1664786"><ele>130.14285714285714</ele><time>2026-04-04T09:11:31.164Z</time></trkpt><trkpt lat="44.1166389" lon="12.1664168"><ele>131.28571428571428</ele><time>2026-04-04T09:11:37.162Z</time></trkpt><trkpt lat="44.1165872" lon="12.1663538"><ele>132.42857142857144</ele><time>2026-04-04T09:11:41.167Z</time></trkpt><trkpt lat="44.1165579" lon="12.1662703"><ele>133.57142857142856</ele><time>2026-04-04T09:11:45.167Z</time></trkpt><trkpt lat="44.1165938" lon="12.1661741"><ele>134.71428571428572</ele><time>2026-04-04T09:11:50.166Z</time></trkpt><trkpt lat="44.1166596" lon="12.1661093"><ele>135.85714285714286</ele><time>2026-04-04T09:11:54.172Z</time></trkpt><trkpt lat="44.1167172" lon="12.1660624"><ele>137.0</ele><time>2026-04-04T09:11:57.169Z</time></trkpt><trkpt lat="44.1167757" lon="12.1660165"><ele>137.0</ele><time>2026-04-04T09:12:00.164Z</time></trkpt><trkpt lat="44.1168396" lon="12.1659501"><ele>137.0</ele><time>2026-04-04T09:12:04.168Z</time></trkpt><trkpt lat="44.1168957" lon="12.1658611"><ele>137.0</ele><time>2026-04-04T09:12:08.166Z</time></trkpt><trkpt lat="44.1169287" lon="12.1657705"><ele>137.0</ele><time>2026-04-04T09:12:11.199Z</time></trkpt><trkpt lat="44.116952" lon="12.1656821"><ele>137.0</ele><time>2026-04-04T09:12:14.177Z</time></trkpt><trkpt lat="44.1169629" lon="12.1655727"><ele>137.0</ele><time>2026-04-04T09:12:18.175Z</time></trkpt><trkpt lat="44.1169506" lon="12.1654594"><ele>137.5</ele><time>2026-04-04T09:12:22.17Z</time></trkpt><trkpt lat="44.1169296" lon="12.1653692"><ele>138.0</ele><time>2026-04-04T09:12:25.169Z</time></trkpt><trkpt lat="44.1168941" lon="12.1652707"><ele>138.5</ele><time>2026-04-04T09:12:29.173Z</time></trkpt><trkpt lat="44.1168649" lon="12.165174"><ele>139.0</ele><time>2026-04-04T09:12:33.168Z</time></trkpt><trkpt lat="44.1168233" lon="12.1650729"><ele>139.5</ele><time>2026-04-04T09:12:36.171Z</time></trkpt><trkpt lat="44.1167668" lon="12.1650096"><ele>140.0</ele><time>2026-04-04T09:12:39.169Z</time></trkpt><trkpt lat="44.1166887" lon="12.1649844"><ele>140.0</ele><time>2026-04-04T09:12:43.169Z</time></trkpt><trkpt lat="44.1166141" lon="12.1649902"><ele>140.0</ele><time>2026-04-04T09:12:47.167Z</time></trkpt><trkpt lat="44.1165424" lon="12.1650225"><ele>140.0</ele><time>2026-04-04T09:12:51.166Z</time></trkpt><trkpt lat="44.116471" lon="12.1650635"><ele>140.0</ele><time>2026-04-04T09:12:56.163Z</time></trkpt><trkpt lat="44.1163991" lon="12.1650957"><ele>140.0</ele><time>2026-04-04T09:13:00.165Z</time></trkpt><trkpt lat="44.1163339" lon="12.1651522"><ele>140.0</ele><time>2026-04-04T09:13:05.167Z</time></trkpt><trkpt lat="44.1162587" lon="12.1651835"><ele>141.85714285714286</ele><time>2026-04-04T09:13:11.164Z</time></trkpt><trkpt lat="44.116183" lon="12.1652106"><ele>143.71428571428572</ele><time>2026-04-04T09:13:16.161Z</time></trkpt><trkpt lat="44.1161232" lon="12.1652558"><ele>145.57142857142856</ele><time>2026-04-04T09:13:19.15Z</time></trkpt><trkpt lat="44.1161153" lon="12.165348"><ele>147.42857142857144</ele><time>2026-04-04T09:13:22.163Z</time></trkpt><trkpt lat="44.1161248" lon="12.1654416"><ele>149.28571428571428</ele><time>2026-04-04T09:13:25.163Z</time></trkpt><trkpt lat="44.116081" lon="12.1655123"><ele>151.14285714285714</ele><time>2026-04-04T09:13:30.161Z</time></trkpt><trkpt lat="44.1160118" lon="12.1654815"><ele>153.0</ele><time>2026-04-04T09:13:35.166Z</time></trkpt><trkpt lat="44.1159494" lon="12.1654647"><ele>153.0</ele><time>2026-04-04T09:13:39.17Z</time></trkpt><trkpt lat="44.1158793" lon="12.1654583"><ele>153.0</ele><time>2026-04-04T09:13:44.173Z</time></trkpt><trkpt lat="44.1158081" lon="12.1654417"><ele>153.0</ele><time>2026-04-04T09:13:48.159Z</time></trkpt><trkpt lat="44.1157345" lon="12.1654197"><ele>153.0</ele><time>2026-04-04T09:13:53.17Z</time></trkpt><trkpt lat="44.1156594" lon="12.165392"><ele>153.0</ele><time>2026-04-04T09:13:58.168Z</time></trkpt><trkpt lat="44.1155919" lon="12.1653809"><ele>153.0</ele><time>2026-04-04T09:14:02.165Z</time></trkpt><trkpt lat="44.1155239" lon="12.1653784"><ele>153.0</ele><time>2026-04-04T09:14:06.164Z</time></trkpt><trkpt lat="44.1154542" lon="12.1654019"><ele>156.0</ele><time>2026-04-04T09:14:11.165Z</time></trkpt><trkpt lat="44.1154191" lon="12.1654813"><ele>159.0</ele><time>2026-04-04T09:14:16.163Z</time></trkpt><trkpt lat="44.1153996" lon="12.165567"><ele>162.0</ele><time>2026-04-04T09:14:20.168Z</time></trkpt><trkpt lat="44.1153558" lon="12.1656426"><ele>165.0</ele><time>2026-04-04T09:14:25.169Z</time></trkpt><trkpt lat="44.1153213" lon="12.1657373"><ele>168.0</ele><time>2026-04-04T09:14:30.168Z</time></trkpt><trkpt lat="44.1153024" lon="12.1658332"><ele>171.0</ele><time>2026-04-04T09:14:34.167Z</time></trkpt><trkpt lat="44.1153004" lon="12.165932"><ele>174.0</ele><time>2026-04-04T09:14:38.167Z</time></trkpt><trkpt lat="44.1153197" lon="12.1660272"><ele>174.0</ele><time>2026-04-04T09:14:42.164Z</time></trkpt><trkpt lat="44.1153103" lon="12.1661162"><ele>174.0</ele><time>2026-04-04T09:14:45.185Z</time></trkpt><trkpt lat="44.1152926" lon="12.1662238"><ele>174.0</ele><time>2026-04-04T09:14:49.162Z</time></trkpt><trkpt lat="44.1152519" lon="12.1663144"><ele>174.0</ele><time>2026-04-04T09:14:53.168Z</time></trkpt><trkpt lat="44.1152286" lon="12.1664449"><ele>174.0</ele><time>2026-04-04T09:14:58.164Z</time></trkpt><trkpt lat="44.1152014" lon="12.1665254"><ele>174.0</ele><time>2026-04-04T09:15:01.166Z</time></trkpt><trkpt lat="44.1151449" lon="12.1666146"><ele>174.0</ele><time>2026-04-04T09:15:04.16Z</time></trkpt><trkpt lat="44.1150904" lon="12.1667129"><ele>174.0</ele><time>2026-04-04T09:15:07.164Z</time></trkpt><trkpt lat="44.1150494" lon="12.1667865"><ele>174.0</ele><time>2026-04-04T09:15:09.16Z</time></trkpt><trkpt lat="44.1150171" lon="12.1668815"><ele>174.0</ele><time>2026-04-04T09:15:11.168Z</time></trkpt><trkpt lat="44.1149844" lon="12.1669821"><ele>174.0</ele><time>2026-04-04T09:15:13.16Z</time></trkpt><trkpt lat="44.114963" lon="12.1670967"><ele>174.0</ele><time>2026-04-04T09:15:15.153Z</time></trkpt><trkpt lat="44.1149606" lon="12.1672165"><ele>174.0</ele><time>2026-04-04T09:15:17.162Z</time></trkpt><trkpt lat="44.1149714" lon="12.1673147"><ele>174.0</ele><time>2026-04-04T09:15:19.159Z</time></trkpt><trkpt lat="44.114997" lon="12.1674383"><ele>174.0</ele><time>2026-04-04T09:15:22.169Z</time></trkpt><trkpt lat="44.1150264" lon="12.1675315"><ele>174.0</ele><time>2026-04-04T09:15:24.167Z</time></trkpt><trkpt lat="44.1150881" lon="12.1676173"><ele>174.0</ele><time>2026-04-04T09:15:27.171Z</time></trkpt><trkpt lat="44.115136" lon="12.1676923"><ele>174.0</ele><time>2026-04-04T09:15:29.173Z</time></trkpt><trkpt lat="44.1151834" lon="12.1677524"><ele>174.57142857142856</ele><time>2026-04-04T09:15:31.177Z</time></trkpt><trkpt lat="44.1152357" lon="12.1678018"><ele>175.14285714285714</ele><time>2026-04-04T09:15:33.163Z</time></trkpt><trkpt lat="44.1152837" lon="12.1678692"><ele>175.71428571428572</ele><time>2026-04-04T09:15:35.155Z</time></trkpt><trkpt lat="44.1153402" lon="12.1679483"><ele>176.28571428571428</ele><time>2026-04-04T09:15:37.157Z</time></trkpt><trkpt lat="44.1153866" lon="12.1680347"><ele>176.85714285714286</ele><time>2026-04-04T09:15:39.166Z</time></trkpt><trkpt lat="44.1154295" lon="12.1681007"><ele>177.42857142857142</ele><time>2026-04-04T09:15:41.158Z</time></trkpt><trkpt lat="44.1154904" lon="12.1681536"><ele>178.0</ele><time>2026-04-04T09:15:43.146Z</time></trkpt><trkpt lat="44.1155494" lon="12.1682203"><ele>177.42857142857142</ele><time>2026-04-04T09:15:45.156Z</time></trkpt><trkpt lat="44.1155965" lon="12.1682842"><ele>176.85714285714286</ele><time>2026-04-04T09:15:47.179Z</time></trkpt><trkpt lat="44.1156316" lon="12.1683658"><ele>176.28571428571428</ele><time>2026-04-04T09:15:50.156Z</time></trkpt><trkpt lat="44.1156778" lon="12.1684419"><ele>175.71428571428572</ele><time>2026-04-04T09:15:54.157Z</time></trkpt><trkpt lat="44.1157462" lon="12.1685098"><ele>175.14285714285714</ele><time>2026-04-04T09:15:58.158Z</time></trkpt><trkpt lat="44.1157944" lon="12.1685724"><ele>174.57142857142856</ele><time>2026-04-04T09:16:01.168Z</time></trkpt><trkpt lat="44.1158393" lon="12.1686456"><ele>174.0</ele><time>2026-04-04T09:16:04.168Z</time></trkpt><trkpt lat="44.1158879" lon="12.1687414"><ele>174.0</ele><time>2026-04-04T09:16:08.164Z</time></trkpt><trkpt lat="44.1159189" lon="12.1688487"><ele>174.0</ele><time>2026-04-04T09:16:12.157Z</time></trkpt><trkpt lat="44.1158884" lon="12.1689416"><ele>174.0</ele><time>2026-04-04T09:16:16.173Z</time></trkpt><trkpt lat="44.1158071" lon="12.1689461"><ele>174.0</ele><time>2026-04-04T09:16:20.154Z</time></trkpt><trkpt lat="44.1157553" lon="12.1688704"><ele>174.0</ele><time>2026-04-04T09:16:23.151Z</time></trkpt><trkpt lat="44.1157055" lon="12.1688097"><ele>174.0</ele><time>2026-04-04T09:16:26.164Z</time></trkpt><trkpt lat="44.1156483" lon="12.1687494"><ele>176.28571428571428</ele><time>2026-04-04T09:16:29.165Z</time></trkpt><trkpt lat="44.1155852" lon="12.1687034"><ele>178.57142857142858</ele><time>2026-04-04T09:16:32.157Z</time></trkpt><trkpt lat="44.1155165" lon="12.1686604"><ele>180.85714285714286</ele><time>2026-04-04T09:16:36.12Z</time></trkpt><trkpt lat="44.1154387" lon="12.1686643"><ele>183.14285714285714</ele><time>2026-04-04T09:16:40.175Z</time></trkpt><trkpt lat="44.1153646" lon="12.168659"><ele>185.42857142857144</ele><time>2026-04-04T09:16:44.164Z</time></trkpt><trkpt lat="44.1152845" lon="12.1686639"><ele>187.71428571428572</ele><time>2026-04-04T09:16:48.165Z</time></trkpt><trkpt lat="44.1152183" lon="12.1686851"><ele>190.0</ele><time>2026-04-04T09:16:52.165Z</time></trkpt><trkpt lat="44.1151553" lon="12.1687087"><ele>190.0</ele><time>2026-04-04T09:16:56.167Z</time></trkpt><trkpt lat="44.1150964" lon="12.1687402"><ele>190.0</ele><time>2026-04-04T09:17:00.166Z</time></trkpt><trkpt lat="44.1150201" lon="12.168749"><ele>190.0</ele><time>2026-04-04T09:17:05.168Z</time></trkpt><trkpt lat="44.1149532" lon="12.1687286"><ele>190.0</ele><time>2026-04-04T09:17:09.167Z</time></trkpt><trkpt lat="44.1148827" lon="12.1687224"><ele>190.0</ele><time>2026-04-04T09:17:13.163Z</time></trkpt><trkpt lat="44.1148231" lon="12.1686668"><ele>190.0</ele><time>2026-04-04T09:17:18.172Z</time></trkpt><trkpt lat="44.1147701" lon="12.168607"><ele>190.0</ele><time>2026-04-04T09:17:22.159Z</time></trkpt><trkpt lat="44.1147081" lon="12.1685697"><ele>192.57142857142858</ele><time>2026-04-04T09:17:26.166Z</time></trkpt><trkpt lat="44.1146469" lon="12.1685439"><ele>195.14285714285717</ele><time>2026-04-04T09:17:29.165Z</time></trkpt><trkpt lat="44.1145677" lon="12.1685113"><ele>197.71428571428572</ele><time>2026-04-04T09:17:33.158Z</time></trkpt><trkpt lat="44.1144965" lon="12.1684892"><ele>200.28571428571428</ele><time>2026-04-04T09:17:37.164Z</time></trkpt><trkpt lat="44.1144321" lon="12.1684625"><ele>202.85714285714286</ele><time>2026-04-04T09:17:40.161Z</time></trkpt><trkpt lat="44.1143603" lon="12.1684328"><ele>205.42857142857142</ele><time>2026-04-04T09:17:44.172Z</time></trkpt><trkpt lat="44.1142901" lon="12.1683765"><ele>208.0</ele><time>2026-04-04T09:17:48.176Z</time></trkpt><trkpt lat="44.1142279" lon="12.1683509"><ele>207.99999999999997</ele><time>2026-04-04T09:17:51.169Z</time></trkpt><trkpt lat="44.1141635" lon="12.1683077"><ele>208.0</ele><time>2026-04-04T09:17:55.173Z</time></trkpt><trkpt lat="44.1140857" lon="12.1682518"><ele>208.0</ele><time>2026-04-04T09:17:59.172Z</time></trkpt><trkpt lat="44.114013" lon="12.1682053"><ele>208.0</ele><time>2026-04-04T09:18:02.166Z</time></trkpt><trkpt lat="44.1139555" lon="12.1681585"><ele>207.99999999999997</ele><time>2026-04-04T09:18:04.164Z</time></trkpt><trkpt lat="44.1138803" lon="12.1681039"><ele>208.0</ele><time>2026-04-04T09:18:07.157Z</time></trkpt><trkpt lat="44.1138058" lon="12.1680781"><ele>208.83333333333331</ele><time>2026-04-04T09:18:10.17Z</time></trkpt><trkpt lat="44.1137373" lon="12.1680385"><ele>209.66666666666666</ele><time>2026-04-04T09:18:13.162Z</time></trkpt><trkpt lat="44.1136576" lon="12.1680053"><ele>210.5</ele><time>2026-04-04T09:18:16.164Z</time></trkpt><trkpt lat="44.1135835" lon="12.1679781"><ele>211.33333333333331</ele><time>2026-04-04T09:18:19.163Z</time></trkpt><trkpt lat="44.1135064" lon="12.1679491"><ele>212.16666666666666</ele><time>2026-04-04T09:18:22.166Z</time></trkpt><trkpt lat="44.1134356" lon="12.1679086"><ele>213.0</ele><time>2026-04-04T09:18:25.16Z</time></trkpt><trkpt lat="44.1133987" lon="12.1678065"><ele>213.0</ele><time>2026-04-04T09:18:28.172Z</time></trkpt><trkpt lat="44.1133795" lon="12.1677076"><ele>213.0</ele><time>2026-04-04T09:18:31.163Z</time></trkpt><trkpt lat="44.1133564" lon="12.1675872"><ele>213.0</ele><time>2026-04-04T09:18:34.169Z</time></trkpt><trkpt lat="44.1133187" lon="12.1674902"><ele>213.0</ele><time>2026-04-04T09:18:37.17Z</time></trkpt><trkpt lat="44.1132818" lon="12.1673893"><ele>213.0</ele><time>2026-04-04T09:18:40.171Z</time></trkpt><trkpt lat="44.1132337" lon="12.1672959"><ele>213.0</ele><time>2026-04-04T09:18:43.165Z</time></trkpt><trkpt lat="44.1131808" lon="12.1671973"><ele>212.57142857142856</ele><time>2026-04-04T09:18:46.161Z</time></trkpt><trkpt lat="44.113143" lon="12.1671133"><ele>212.14285714285714</ele><time>2026-04-04T09:18:48.171Z</time></trkpt><trkpt lat="44.1131019" lon="12.1670414"><ele>211.71428571428572</ele><time>2026-04-04T09:18:50.155Z</time></trkpt><trkpt lat="44.1130793" lon="12.1669576"><ele>211.28571428571428</ele><time>2026-04-04T09:18:52.167Z</time></trkpt><trkpt lat="44.1130371" lon="12.1668573"><ele>210.85714285714286</ele><time>2026-04-04T09:18:55.15Z</time></trkpt><trkpt lat="44.1129736" lon="12.1667723"><ele>210.42857142857142</ele><time>2026-04-04T09:18:58.155Z</time></trkpt><trkpt lat="44.1129294" lon="12.1667005"><ele>210.0</ele><time>2026-04-04T09:19:00.146Z</time></trkpt><trkpt lat="44.1128879" lon="12.1666207"><ele>210.0</ele><time>2026-04-04T09:19:02.141Z</time></trkpt><trkpt lat="44.1128624" lon="12.1665404"><ele>210.0</ele><time>2026-04-04T09:19:04.14Z</time></trkpt><trkpt lat="44.1128125" lon="12.1664617"><ele>210.0</ele><time>2026-04-04T09:19:06.139Z</time></trkpt><trkpt lat="44.1127735" lon="12.1663831"><ele>210.0</ele><time>2026-04-04T09:19:08.158Z</time></trkpt><trkpt lat="44.1127337" lon="12.1663025"><ele>210.0</ele><time>2026-04-04T09:19:10.155Z</time></trkpt><trkpt lat="44.1127" lon="12.1661927"><ele>210.0</ele><time>2026-04-04T09:19:13.149Z</time></trkpt><trkpt lat="44.1126615" lon="12.1660838"><ele>210.83333333333334</ele><time>2026-04-04T09:19:16.154Z</time></trkpt><trkpt lat="44.1126536" lon="12.1659922"><ele>211.66666666666669</ele><time>2026-04-04T09:19:19.155Z</time></trkpt><trkpt lat="44.1126277" lon="12.1658801"><ele>212.5</ele><time>2026-04-04T09:19:23.18Z</time></trkpt><trkpt lat="44.1125916" lon="12.1657689"><ele>213.33333333333334</ele><time>2026-04-04T09:19:25.163Z</time></trkpt><trkpt lat="44.1125028" lon="12.1657506"><ele>214.16666666666669</ele><time>2026-04-04T09:19:27.16Z</time></trkpt><trkpt lat="44.1124157" lon="12.1657639"><ele>215.0</ele><time>2026-04-04T09:19:29.154Z</time></trkpt><trkpt lat="44.1123011" lon="12.1657161"><ele>212.33333333333334</ele><time>2026-04-04T09:19:31.152Z</time></trkpt><trkpt lat="44.112157" lon="12.1657231"><ele>209.66666666666669</ele><time>2026-04-04T09:19:33.151Z</time></trkpt><trkpt lat="44.1120821" lon="12.1657417"><ele>207.0</ele><time>2026-04-04T09:19:34.155Z</time></trkpt><trkpt lat="44.1120092" lon="12.1657595"><ele>204.33333333333331</ele><time>2026-04-04T09:19:35.157Z</time></trkpt><trkpt lat="44.1119396" lon="12.1657651"><ele>201.66666666666666</ele><time>2026-04-04T09:19:36.154Z</time></trkpt><trkpt lat="44.1118651" lon="12.1657714"><ele>199.0</ele><time>2026-04-04T09:19:37.157Z</time></trkpt><trkpt lat="44.1117942" lon="12.1657814"><ele>198.99999999999997</ele><time>2026-04-04T09:19:38.152Z</time></trkpt><trkpt lat="44.1117239" lon="12.1657917"><ele>199.0</ele><time>2026-04-04T09:19:39.151Z</time></trkpt><trkpt lat="44.1116568" lon="12.1657969"><ele>199.0</ele><time>2026-04-04T09:19:40.154Z</time></trkpt><trkpt lat="44.1115908" lon="12.1658016"><ele>199.0</ele><time>2026-04-04T09:19:41.151Z</time></trkpt><trkpt lat="44.1114883" lon="12.1658382"><ele>198.99999999999997</ele><time>2026-04-04T09:19:43.151Z</time></trkpt><trkpt lat="44.1114187" lon="12.1658545"><ele>199.0</ele><time>2026-04-04T09:19:45.16Z</time></trkpt><trkpt lat="44.1113289" lon="12.1658797"><ele>195.2</ele><time>2026-04-04T09:19:48.162Z</time></trkpt><trkpt lat="44.1112486" lon="12.1658865"><ele>191.39999999999998</ele><time>2026-04-04T09:19:50.162Z</time></trkpt><trkpt lat="44.1111398" lon="12.1658987"><ele>187.6</ele><time>2026-04-04T09:19:52.143Z</time></trkpt><trkpt lat="44.11102" lon="12.1659045"><ele>183.8</ele><time>2026-04-04T09:19:54.157Z</time></trkpt><trkpt lat="44.1109066" lon="12.1659158"><ele>180.0</ele><time>2026-04-04T09:19:56.149Z</time></trkpt><trkpt lat="44.1108404" lon="12.1659319"><ele>180.0</ele><time>2026-04-04T09:19:57.141Z</time></trkpt><trkpt lat="44.1107744" lon="12.1659386"><ele>180.0</ele><time>2026-04-04T09:19:58.141Z</time></trkpt><trkpt lat="44.1107102" lon="12.1659417"><ele>180.0</ele><time>2026-04-04T09:19:59.147Z</time></trkpt><trkpt lat="44.110647" lon="12.1659416"><ele>180.0</ele><time>2026-04-04T09:20:00.144Z</time></trkpt><trkpt lat="44.110578" lon="12.1659355"><ele>180.0</ele><time>2026-04-04T09:20:01.152Z</time></trkpt><trkpt lat="44.1104706" lon="12.1659198"><ele>180.0</ele><time>2026-04-04T09:20:03.145Z</time></trkpt><trkpt lat="44.1103869" lon="12.1658824"><ele>177.5</ele><time>2026-04-04T09:20:05.143Z</time></trkpt><trkpt lat="44.1103115" lon="12.1658384"><ele>175.0</ele><time>2026-04-04T09:20:07.15Z</time></trkpt><trkpt lat="44.1102398" lon="12.1657987"><ele>172.5</ele><time>2026-04-04T09:20:09.144Z</time></trkpt><trkpt lat="44.1101791" lon="12.1657672"><ele>170.0</ele><time>2026-04-04T09:20:11.143Z</time></trkpt><trkpt lat="44.1101151" lon="12.1658263"><ele>167.5</ele><time>2026-04-04T09:20:14.145Z</time></trkpt><trkpt lat="44.1101719" lon="12.1659318"><ele>165.0</ele><time>2026-04-04T09:20:17.149Z</time></trkpt><trkpt lat="44.1102416" lon="12.1659991"><ele>165.0</ele><time>2026-04-04T09:20:19.151Z</time></trkpt><trkpt lat="44.110301" lon="12.1660672"><ele>165.0</ele><time>2026-04-04T09:20:21.137Z</time></trkpt><trkpt lat="44.1103606" lon="12.1661488"><ele>165.0</ele><time>2026-04-04T09:20:23.143Z</time></trkpt><trkpt lat="44.1104264" lon="12.1662455"><ele>165.0</ele><time>2026-04-04T09:20:25.158Z</time></trkpt><trkpt lat="44.1105036" lon="12.1663416"><ele>165.0</ele><time>2026-04-04T09:20:27.151Z</time></trkpt><trkpt lat="44.1105693" lon="12.1664285"><ele>165.00000000000003</ele><time>2026-04-04T09:20:29.146Z</time></trkpt><trkpt lat="44.110623" lon="12.1664893"><ele>165.0</ele><time>2026-04-04T09:20:32.142Z</time></trkpt><trkpt lat="44.1106854" lon="12.1665499"><ele>165.0</ele><time>2026-04-04T09:20:35.142Z</time></trkpt><trkpt lat="44.1107471" lon="12.1666006"><ele>165.0</ele><time>2026-04-04T09:20:38.145Z</time></trkpt><trkpt lat="44.1108284" lon="12.1666565"><ele>165.0</ele><time>2026-04-04T09:20:41.149Z</time></trkpt><trkpt lat="44.1108909" lon="12.1666904"><ele>165.00000000000003</ele><time>2026-04-04T09:20:43.14Z</time></trkpt><trkpt lat="44.1109486" lon="12.166731"><ele>165.0</ele><time>2026-04-04T09:20:45.14Z</time></trkpt><trkpt lat="44.1110184" lon="12.1668025"><ele>166.2</ele><time>2026-04-04T09:20:48.139Z</time></trkpt><trkpt lat="44.1110792" lon="12.1668667"><ele>167.4</ele><time>2026-04-04T09:20:50.136Z</time></trkpt><trkpt lat="44.111175" lon="12.1669593"><ele>168.60000000000002</ele><time>2026-04-04T09:20:52.134Z</time></trkpt><trkpt lat="44.111226" lon="12.1670179"><ele>169.8</ele><time>2026-04-04T09:20:53.128Z</time></trkpt><trkpt lat="44.1113067" lon="12.167118"><ele>171.0</ele><time>2026-04-04T09:20:55.129Z</time></trkpt><trkpt lat="44.1113721" lon="12.1672079"><ele>171.0</ele><time>2026-04-04T09:20:57.132Z</time></trkpt><trkpt lat="44.1114256" lon="12.167333"><ele>171.0</ele><time>2026-04-04T09:20:59.124Z</time></trkpt><trkpt lat="44.1114544" lon="12.1674768"><ele>171.0</ele><time>2026-04-04T09:21:01.132Z</time></trkpt><trkpt lat="44.1114623" lon="12.1676052"><ele>171.0</ele><time>2026-04-04T09:21:03.131Z</time></trkpt><trkpt lat="44.1114266" lon="12.1677398"><ele>171.0</ele><time>2026-04-04T09:21:05.13Z</time></trkpt><trkpt lat="44.111359" lon="12.1678579"><ele>168.60000000000002</ele><time>2026-04-04T09:21:07.125Z</time></trkpt><trkpt lat="44.1113025" lon="12.1679596"><ele>166.20000000000002</ele><time>2026-04-04T09:21:09.134Z</time></trkpt><trkpt lat="44.1112294" lon="12.1680082"><ele>163.8</ele><time>2026-04-04T09:21:11.138Z</time></trkpt><trkpt lat="44.1111291" lon="12.168018"><ele>161.4</ele><time>2026-04-04T09:21:13.126Z</time></trkpt><trkpt lat="44.1110219" lon="12.1680312"><ele>159.0</ele><time>2026-04-04T09:21:15.128Z</time></trkpt><trkpt lat="44.110916" lon="12.1680151"><ele>159.0</ele><time>2026-04-04T09:21:17.131Z</time></trkpt><trkpt lat="44.1108176" lon="12.1679408"><ele>159.0</ele><time>2026-04-04T09:21:19.135Z</time></trkpt><trkpt lat="44.1107063" lon="12.1678885"><ele>159.0</ele><time>2026-04-04T09:21:21.133Z</time></trkpt><trkpt lat="44.1106032" lon="12.1678796"><ele>159.0</ele><time>2026-04-04T09:21:23.133Z</time></trkpt><trkpt lat="44.1104601" lon="12.1679161"><ele>156.83333333333334</ele><time>2026-04-04T09:21:25.133Z</time></trkpt><trkpt lat="44.1103888" lon="12.1679254"><ele>154.66666666666666</ele><time>2026-04-04T09:21:26.13Z</time></trkpt><trkpt lat="44.1103119" lon="12.16794"><ele>152.5</ele><time>2026-04-04T09:21:27.168Z</time></trkpt><trkpt lat="44.1102353" lon="12.1679531"><ele>150.33333333333331</ele><time>2026-04-04T09:21:28.13Z</time></trkpt><trkpt lat="44.1101619" lon="12.1679552"><ele>148.16666666666666</ele><time>2026-04-04T09:21:29.146Z</time></trkpt><trkpt lat="44.1100551" lon="12.1679817"><ele>146.0</ele><time>2026-04-04T09:21:31.134Z</time></trkpt><trkpt lat="44.1099883" lon="12.1679927"><ele>143.85714285714286</ele><time>2026-04-04T09:22:29.165Z</time></trkpt><trkpt lat="44.1098993" lon="12.1679513"><ele>141.71428571428572</ele><time>2026-04-04T09:24:34.138Z</time></trkpt><trkpt lat="44.1098429" lon="12.1678945"><ele>139.57142857142858</ele><time>2026-04-04T09:24:36.139Z</time></trkpt><trkpt lat="44.1098222" lon="12.1677826"><ele>137.42857142857144</ele><time>2026-04-04T09:24:39.14Z</time></trkpt><trkpt lat="44.1098293" lon="12.1676947"><ele>135.2857142857143</ele><time>2026-04-04T09:24:43.142Z</time></trkpt><trkpt lat="44.1098067" lon="12.167603"><ele>133.14285714285714</ele><time>2026-04-04T09:24:52.147Z</time></trkpt><trkpt lat="44.1097592" lon="12.1675408"><ele>131.0</ele><time>2026-04-04T09:24:55.13Z</time></trkpt><trkpt lat="44.1096903" lon="12.1674935"><ele>131.0</ele><time>2026-04-04T09:24:57.138Z</time></trkpt><trkpt lat="44.1096053" lon="12.1674628"><ele>131.0</ele><time>2026-04-04T09:24:59.134Z</time></trkpt><trkpt lat="44.1095091" lon="12.1674183"><ele>131.0</ele><time>2026-04-04T09:25:01.13Z</time></trkpt><trkpt lat="44.1094167" lon="12.1673492"><ele>131.0</ele><time>2026-04-04T09:25:03.146Z</time></trkpt><trkpt lat="44.1093322" lon="12.1672758"><ele>131.0</ele><time>2026-04-04T09:25:05.131Z</time></trkpt><trkpt lat="44.1092382" lon="12.1672147"><ele>130.66666666666666</ele><time>2026-04-04T09:25:07.12Z</time></trkpt><trkpt lat="44.1091789" lon="12.1671616"><ele>130.33333333333331</ele><time>2026-04-04T09:25:09.124Z</time></trkpt><trkpt lat="44.1091074" lon="12.1671019"><ele>130.0</ele><time>2026-04-04T09:25:12.12Z</time></trkpt><trkpt lat="44.1090362" lon="12.1670731"><ele>129.66666666666666</ele><time>2026-04-04T09:25:15.127Z</time></trkpt><trkpt lat="44.1089663" lon="12.166988"><ele>129.33333333333334</ele><time>2026-04-04T09:25:18.137Z</time></trkpt><trkpt lat="44.1088883" lon="12.1669384"><ele>129.0</ele><time>2026-04-04T09:25:22.134Z</time></trkpt><trkpt lat="44.1087729" lon="12.1669001"><ele>126.16666666666667</ele><time>2026-04-04T09:25:24.125Z</time></trkpt><trkpt lat="44.1087002" lon="12.166869"><ele>123.33333333333334</ele><time>2026-04-04T09:25:25.128Z</time></trkpt><trkpt lat="44.1086227" lon="12.1668431"><ele>120.5</ele><time>2026-04-04T09:25:26.123Z</time></trkpt><trkpt lat="44.108549" lon="12.1668103"><ele>117.66666666666667</ele><time>2026-04-04T09:25:27.125Z</time></trkpt><trkpt lat="44.108468" lon="12.1667827"><ele>114.83333333333334</ele><time>2026-04-04T09:25:28.127Z</time></trkpt><trkpt lat="44.1083852" lon="12.1667629"><ele>112.0</ele><time>2026-04-04T09:25:29.131Z</time></trkpt><trkpt lat="44.1083073" lon="12.1667279"><ele>110.57142857142857</ele><time>2026-04-04T09:25:30.127Z</time></trkpt><trkpt lat="44.1082259" lon="12.1666961"><ele>109.14285714285714</ele><time>2026-04-04T09:25:31.134Z</time></trkpt><trkpt lat="44.1081513" lon="12.1666714"><ele>107.71428571428572</ele><time>2026-04-04T09:25:32.126Z</time></trkpt><trkpt lat="44.1080831" lon="12.1666368"><ele>106.28571428571428</ele><time>2026-04-04T09:25:33.127Z</time></trkpt><trkpt lat="44.1080206" lon="12.1665904"><ele>104.85714285714286</ele><time>2026-04-04T09:25:34.142Z</time></trkpt><trkpt lat="44.1079589" lon="12.1665451"><ele>103.42857142857143</ele><time>2026-04-04T09:25:35.127Z</time></trkpt><trkpt lat="44.107903" lon="12.1664917"><ele>102.0</ele><time>2026-04-04T09:25:36.128Z</time></trkpt><trkpt lat="44.1078465" lon="12.166447"><ele>102.0</ele><time>2026-04-04T09:25:37.132Z</time></trkpt><trkpt lat="44.1077453" lon="12.1663606"><ele>102.0</ele><time>2026-04-04T09:25:39.135Z</time></trkpt><trkpt lat="44.1076443" lon="12.1662765"><ele>102.0</ele><time>2026-04-04T09:25:41.131Z</time></trkpt><trkpt lat="44.1075478" lon="12.1662244"><ele>102.0</ele><time>2026-04-04T09:25:43.13Z</time></trkpt><trkpt lat="44.1074805" lon="12.1662395"><ele>102.0</ele><time>2026-04-04T09:25:45.14Z</time></trkpt><trkpt lat="44.1074265" lon="12.1663381"><ele>102.5</ele><time>2026-04-04T09:25:47.14Z</time></trkpt><trkpt lat="44.1074046" lon="12.1664688"><ele>103.0</ele><time>2026-04-04T09:25:49.135Z</time></trkpt><trkpt lat="44.107361" lon="12.1665684"><ele>103.5</ele><time>2026-04-04T09:25:51.137Z</time></trkpt><trkpt lat="44.1073127" lon="12.1666908"><ele>104.0</ele><time>2026-04-04T09:25:54.13Z</time></trkpt><trkpt lat="44.1072888" lon="12.1667909"><ele>104.5</ele><time>2026-04-04T09:25:56.134Z</time></trkpt><trkpt lat="44.1072622" lon="12.1668851"><ele>105.0</ele><time>2026-04-04T09:25:58.135Z</time></trkpt><trkpt lat="44.1072692" lon="12.166985"><ele>105.0</ele><time>2026-04-04T09:26:00.134Z</time></trkpt><trkpt lat="44.1072748" lon="12.1670738"><ele>105.0</ele><time>2026-04-04T09:26:02.131Z</time></trkpt><trkpt lat="44.1072555" lon="12.1671934"><ele>105.0</ele><time>2026-04-04T09:26:05.167Z</time></trkpt><trkpt lat="44.1072112" lon="12.1672761"><ele>105.0</ele><time>2026-04-04T09:26:07.141Z</time></trkpt><trkpt lat="44.107136" lon="12.1673356"><ele>105.0</ele><time>2026-04-04T09:26:09.128Z</time></trkpt><trkpt lat="44.1070655" lon="12.1673782"><ele>105.0</ele><time>2026-04-04T09:26:11.13Z</time></trkpt><trkpt lat="44.1069889" lon="12.1674109"><ele>103.83333333333333</ele><time>2026-04-04T09:26:13.129Z</time></trkpt><trkpt lat="44.1069005" lon="12.1674358"><ele>102.66666666666666</ele><time>2026-04-04T09:26:15.131Z</time></trkpt><trkpt lat="44.1068112" lon="12.1674683"><ele>101.5</ele><time>2026-04-04T09:26:17.138Z</time></trkpt><trkpt lat="44.1067403" lon="12.1675297"><ele>100.33333333333333</ele><time>2026-04-04T09:26:19.135Z</time></trkpt><trkpt lat="44.1066886" lon="12.1676217"><ele>99.16666666666666</ele><time>2026-04-04T09:26:21.133Z</time></trkpt><trkpt lat="44.1066355" lon="12.167711"><ele>98.0</ele><time>2026-04-04T09:26:23.133Z</time></trkpt><trkpt lat="44.1065859" lon="12.1677963"><ele>98.66666666666666</ele><time>2026-04-04T09:26:25.134Z</time></trkpt><trkpt lat="44.1065391" lon="12.1678839"><ele>99.33333333333333</ele><time>2026-04-04T09:26:27.13Z</time></trkpt><trkpt lat="44.1064858" lon="12.1679684"><ele>100.0</ele><time>2026-04-04T09:26:29.136Z</time></trkpt><trkpt lat="44.1064397" lon="12.1680597"><ele>100.66666666666666</ele><time>2026-04-04T09:26:31.136Z</time></trkpt><trkpt lat="44.1063826" lon="12.1681616"><ele>101.33333333333333</ele><time>2026-04-04T09:26:33.129Z</time></trkpt><trkpt lat="44.1063325" lon="12.1682883"><ele>102.0</ele><time>2026-04-04T09:26:35.138Z</time></trkpt><trkpt lat="44.1062811" lon="12.1683884"><ele>102.0</ele><time>2026-04-04T09:26:37.077Z</time></trkpt><trkpt lat="44.1062342" lon="12.1684918"><ele>102.0</ele><time>2026-04-04T09:26:39.131Z</time></trkpt><trkpt lat="44.106174" lon="12.1685757"><ele>102.0</ele><time>2026-04-04T09:26:41.125Z</time></trkpt><trkpt lat="44.106094" lon="12.1686513"><ele>102.0</ele><time>2026-04-04T09:26:43.119Z</time></trkpt><trkpt lat="44.1060544" lon="12.1687828"><ele>102.0</ele><time>2026-04-04T09:26:45.125Z</time></trkpt><trkpt lat="44.1060286" lon="12.1689139"><ele>100.6</ele><time>2026-04-04T09:26:47.127Z</time></trkpt><trkpt lat="44.1059947" lon="12.1690461"><ele>99.19999999999999</ele><time>2026-04-04T09:26:49.124Z</time></trkpt><trkpt lat="44.1059561" lon="12.1691843"><ele>97.8</ele><time>2026-04-04T09:26:51.127Z</time></trkpt><trkpt lat="44.1059312" lon="12.1692995"><ele>96.4</ele><time>2026-04-04T09:26:53.128Z</time></trkpt><trkpt lat="44.105898" lon="12.1694125"><ele>95.0</ele><time>2026-04-04T09:26:55.129Z</time></trkpt><trkpt lat="44.1058631" lon="12.1695444"><ele>95.0</ele><time>2026-04-04T09:26:57.132Z</time></trkpt><trkpt lat="44.1058624" lon="12.1696599"><ele>95.0</ele><time>2026-04-04T09:26:59.128Z</time></trkpt><trkpt lat="44.1058727" lon="12.169796"><ele>95.0</ele><time>2026-04-04T09:27:01.131Z</time></trkpt><trkpt lat="44.105883" lon="12.1699308"><ele>95.0</ele><time>2026-04-04T09:27:03.125Z</time></trkpt><trkpt lat="44.105866" lon="12.1700791"><ele>95.0</ele><time>2026-04-04T09:27:05.117Z</time></trkpt><trkpt lat="44.1058353" lon="12.170228"><ele>95.16666666666667</ele><time>2026-04-04T09:27:07.118Z</time></trkpt><trkpt lat="44.105808" lon="12.1703532"><ele>95.33333333333334</ele><time>2026-04-04T09:27:09.117Z</time></trkpt><trkpt lat="44.1057595" lon="12.1704738"><ele>95.5</ele><time>2026-04-04T09:27:11.118Z</time></trkpt><trkpt lat="44.1057012" lon="12.1705591"><ele>95.66666666666667</ele><time>2026-04-04T09:27:13.129Z</time></trkpt><trkpt lat="44.1056477" lon="12.1706534"><ele>95.83333333333333</ele><time>2026-04-04T09:27:15.13Z</time></trkpt><trkpt lat="44.1056041" lon="12.1707344"><ele>96.0</ele><time>2026-04-04T09:27:17.136Z</time></trkpt><trkpt lat="44.1055465" lon="12.1708316"><ele>96.66666666666667</ele><time>2026-04-04T09:27:19.133Z</time></trkpt><trkpt lat="44.1055079" lon="12.1709216"><ele>97.33333333333334</ele><time>2026-04-04T09:27:21.13Z</time></trkpt><trkpt lat="44.1054619" lon="12.1709897"><ele>98.0</ele><time>2026-04-04T09:27:23.131Z</time></trkpt><trkpt lat="44.1053817" lon="12.1710153"><ele>98.66666666666667</ele><time>2026-04-04T09:27:26.126Z</time></trkpt><trkpt lat="44.1052991" lon="12.1709768"><ele>99.33333333333334</ele><time>2026-04-04T09:27:28.129Z</time></trkpt><trkpt lat="44.1052797" lon="12.1708632"><ele>100.0</ele><time>2026-04-04T09:27:30.131Z</time></trkpt><trkpt lat="44.1053108" lon="12.1707532"><ele>101.00000000000001</ele><time>2026-04-04T09:27:32.135Z</time></trkpt><trkpt lat="44.1053578" lon="12.1706821"><ele>102.0</ele><time>2026-04-04T09:27:34.127Z</time></trkpt><trkpt lat="44.1054286" lon="12.170602"><ele>103.0</ele><time>2026-04-04T09:27:36.131Z</time></trkpt><trkpt lat="44.1055072" lon="12.1705264"><ele>104.0</ele><time>2026-04-04T09:27:38.13Z</time></trkpt><trkpt lat="44.1055648" lon="12.170442"><ele>105.00000000000001</ele><time>2026-04-04T09:27:40.132Z</time></trkpt><trkpt lat="44.1056134" lon="12.1703278"><ele>106.0</ele><time>2026-04-04T09:27:42.128Z</time></trkpt><trkpt lat="44.1056595" lon="12.1701955"><ele>106.0</ele><time>2026-04-04T09:27:44.133Z</time></trkpt><trkpt lat="44.1056764" lon="12.1700872"><ele>106.0</ele><time>2026-04-04T09:27:46.126Z</time></trkpt><trkpt lat="44.1057022" lon="12.1699694"><ele>106.0</ele><time>2026-04-04T09:27:48.129Z</time></trkpt><trkpt lat="44.1057102" lon="12.1698122"><ele>106.0</ele><time>2026-04-04T09:27:50.132Z</time></trkpt><trkpt lat="44.1057056" lon="12.1696745"><ele>106.0</ele><time>2026-04-04T09:27:52.129Z</time></trkpt><trkpt lat="44.1056896" lon="12.1695513"><ele>106.16666666666667</ele><time>2026-04-04T09:27:54.124Z</time></trkpt><trkpt lat="44.1056656" lon="12.1694513"><ele>106.33333333333334</ele><time>2026-04-04T09:27:56.129Z</time></trkpt><trkpt lat="44.1056397" lon="12.1693419"><ele>106.5</ele><time>2026-04-04T09:27:59.138Z</time></trkpt><trkpt lat="44.1056001" lon="12.1692598"><ele>106.66666666666666</ele><time>2026-04-04T09:28:02.134Z</time></trkpt><trkpt lat="44.1055512" lon="12.1691612"><ele>106.83333333333333</ele><time>2026-04-04T09:28:05.137Z</time></trkpt><trkpt lat="44.1055105" lon="12.1690634"><ele>107.0</ele><time>2026-04-04T09:28:08.148Z</time></trkpt><trkpt lat="44.1054672" lon="12.1689924"><ele>107.16666666666666</ele><time>2026-04-04T09:28:11.133Z</time></trkpt><trkpt lat="44.105418" lon="12.1689194"><ele>107.33333333333333</ele><time>2026-04-04T09:28:15.092Z</time></trkpt><trkpt lat="44.1053632" lon="12.1688419"><ele>107.5</ele><time>2026-04-04T09:28:18.138Z</time></trkpt><trkpt lat="44.105333" lon="12.1687616"><ele>107.66666666666666</ele><time>2026-04-04T09:28:21.14Z</time></trkpt><trkpt lat="44.1052738" lon="12.168674"><ele>107.83333333333333</ele><time>2026-04-04T09:28:25.145Z</time></trkpt><trkpt lat="44.1052058" lon="12.1686002"><ele>108.0</ele><time>2026-04-04T09:28:29.14Z</time></trkpt><trkpt lat="44.1051509" lon="12.1685421"><ele>108.0</ele><time>2026-04-04T09:28:32.133Z</time></trkpt><trkpt lat="44.1051035" lon="12.168472"><ele>108.0</ele><time>2026-04-04T09:28:35.139Z</time></trkpt><trkpt lat="44.1050751" lon="12.1683669"><ele>108.0</ele><time>2026-04-04T09:28:39.158Z</time></trkpt><trkpt lat="44.1050594" lon="12.1682761"><ele>108.0</ele><time>2026-04-04T09:28:43.14Z</time></trkpt><trkpt lat="44.1051246" lon="12.1682379"><ele>108.0</ele><time>2026-04-04T09:28:49.056Z</time></trkpt><trkpt lat="44.1051865" lon="12.1682838"><ele>108.0</ele><time>2026-04-04T09:28:54.09Z</time></trkpt><trkpt lat="44.1052596" lon="12.1683167"><ele>108.0</ele><time>2026-04-04T09:28:58.142Z</time></trkpt><trkpt lat="44.1053388" lon="12.1682887"><ele>108.0</ele><time>2026-04-04T09:29:02.139Z</time></trkpt><trkpt lat="44.1053863" lon="12.1682162"><ele>108.0</ele><time>2026-04-04T09:29:05.144Z</time></trkpt><trkpt lat="44.1054085" lon="12.1681222"><ele>108.0</ele><time>2026-04-04T09:29:08.133Z</time></trkpt><trkpt lat="44.1054291" lon="12.1680234"><ele>108.0</ele><time>2026-04-04T09:29:11.147Z</time></trkpt><trkpt lat="44.1054417" lon="12.1679215"><ele>108.0</ele><time>2026-04-04T09:29:15.146Z</time></trkpt><trkpt lat="44.105439" lon="12.1678189"><ele>108.0</ele><time>2026-04-04T09:29:19.146Z</time></trkpt><trkpt lat="44.1054292" lon="12.1677235"><ele>108.0</ele><time>2026-04-04T09:29:23.16Z</time></trkpt><trkpt lat="44.1054026" lon="12.1676319"><ele>110.57142857142857</ele><time>2026-04-04T09:29:27.146Z</time></trkpt><trkpt lat="44.1053764" lon="12.1675408"><ele>113.14285714285714</ele><time>2026-04-04T09:29:31.057Z</time></trkpt><trkpt lat="44.105376" lon="12.1674453"><ele>115.71428571428572</ele><time>2026-04-04T09:29:35.147Z</time></trkpt><trkpt lat="44.1053965" lon="12.1673403"><ele>118.28571428571428</ele><time>2026-04-04T09:29:40.149Z</time></trkpt><trkpt lat="44.1054124" lon="12.1672498"><ele>120.85714285714286</ele><time>2026-04-04T09:29:44.144Z</time></trkpt><trkpt lat="44.1054222" lon="12.1671481"><ele>123.42857142857143</ele><time>2026-04-04T09:29:48.151Z</time></trkpt><trkpt lat="44.1054109" lon="12.1670537"><ele>126.0</ele><time>2026-04-04T09:31:00.154Z</time></trkpt><trkpt lat="44.105392" lon="12.1669635"><ele>128.66666666666666</ele><time>2026-04-04T09:31:05.141Z</time></trkpt><trkpt lat="44.1053642" lon="12.1668467"><ele>131.33333333333334</ele><time>2026-04-04T09:31:10.143Z</time></trkpt><trkpt lat="44.105339" lon="12.1667544"><ele>134.0</ele><time>2026-04-04T09:31:14.147Z</time></trkpt><trkpt lat="44.1053182" lon="12.1666497"><ele>136.66666666666669</ele><time>2026-04-04T09:31:18.131Z</time></trkpt><trkpt lat="44.1053056" lon="12.1665496"><ele>139.33333333333334</ele><time>2026-04-04T09:31:22.144Z</time></trkpt><trkpt lat="44.1053201" lon="12.16644"><ele>142.0</ele><time>2026-04-04T09:31:27.146Z</time></trkpt><trkpt lat="44.1053602" lon="12.166349"><ele>145.0</ele><time>2026-04-04T09:31:41.161Z</time></trkpt><trkpt lat="44.1053881" lon="12.1662474"><ele>148.0</ele><time>2026-04-04T09:31:45.139Z</time></trkpt><trkpt lat="44.1053729" lon="12.1661196"><ele>151.0</ele><time>2026-04-04T09:31:50.147Z</time></trkpt><trkpt lat="44.1053647" lon="12.1660207"><ele>154.0</ele><time>2026-04-04T09:31:55.152Z</time></trkpt><trkpt lat="44.1053768" lon="12.1659123"><ele>157.0</ele><time>2026-04-04T09:31:59.153Z</time></trkpt><trkpt lat="44.1053752" lon="12.1658111"><ele>160.0</ele><time>2026-04-04T09:32:03.149Z</time></trkpt><trkpt lat="44.1053847" lon="12.1657109"><ele>162.57142857142856</ele><time>2026-04-04T09:32:08.152Z</time></trkpt><trkpt lat="44.1054003" lon="12.1656234"><ele>165.14285714285714</ele><time>2026-04-04T09:32:12.148Z</time></trkpt><trkpt lat="44.1054367" lon="12.1655335"><ele>167.71428571428572</ele><time>2026-04-04T09:32:16.15Z</time></trkpt><trkpt lat="44.1054566" lon="12.165446"><ele>170.28571428571428</ele><time>2026-04-04T09:32:20.149Z</time></trkpt><trkpt lat="44.105464" lon="12.1653465"><ele>172.85714285714286</ele><time>2026-04-04T09:32:25.148Z</time></trkpt><trkpt lat="44.1054733" lon="12.1652493"><ele>175.42857142857142</ele><time>2026-04-04T09:32:30.148Z</time></trkpt><trkpt lat="44.1054964" lon="12.1651654"><ele>178.0</ele><time>2026-04-04T09:32:36.149Z</time></trkpt><trkpt lat="44.1055206" lon="12.1650638"><ele>177.99999999999997</ele><time>2026-04-04T09:32:44.149Z</time></trkpt><trkpt lat="44.1055387" lon="12.1649791"><ele>178.0</ele><time>2026-04-04T09:32:49.151Z</time></trkpt><trkpt lat="44.10557" lon="12.1648853"><ele>178.0</ele><time>2026-04-04T09:32:54.146Z</time></trkpt><trkpt lat="44.1056107" lon="12.1647991"><ele>178.0</ele><time>2026-04-04T09:33:00.151Z</time></trkpt><trkpt lat="44.1056606" lon="12.1647149"><ele>178.0</ele><time>2026-04-04T09:33:04.148Z</time></trkpt><trkpt lat="44.1056956" lon="12.1646383"><ele>177.99999999999997</ele><time>2026-04-04T09:33:08.142Z</time></trkpt><trkpt lat="44.1057363" lon="12.164549"><ele>178.0</ele><time>2026-04-04T09:33:13.157Z</time></trkpt><trkpt lat="44.1057735" lon="12.1644741"><ele>178.14285714285714</ele><time>2026-04-04T09:33:17.162Z</time></trkpt><trkpt lat="44.1058087" lon="12.1643851"><ele>178.28571428571428</ele><time>2026-04-04T09:33:21.145Z</time></trkpt><trkpt lat="44.1058349" lon="12.1642761"><ele>178.42857142857144</ele><time>2026-04-04T09:33:25.146Z</time></trkpt><trkpt lat="44.1058661" lon="12.1641993"><ele>178.57142857142856</ele><time>2026-04-04T09:33:28.15Z</time></trkpt><trkpt lat="44.1059013" lon="12.1641058"><ele>178.71428571428572</ele><time>2026-04-04T09:33:32.147Z</time></trkpt><trkpt lat="44.1059256" lon="12.1640143"><ele>178.85714285714286</ele><time>2026-04-04T09:33:36.147Z</time></trkpt><trkpt lat="44.1059492" lon="12.1639217"><ele>179.0</ele><time>2026-04-04T09:33:40.152Z</time></trkpt><trkpt lat="44.1059776" lon="12.1638409"><ele>179.00000000000003</ele><time>2026-04-04T09:33:43.154Z</time></trkpt><trkpt lat="44.1060055" lon="12.1637597"><ele>179.0</ele><time>2026-04-04T09:33:46.143Z</time></trkpt><trkpt lat="44.106026" lon="12.1636741"><ele>179.0</ele><time>2026-04-04T09:33:49.148Z</time></trkpt><trkpt lat="44.1060614" lon="12.1635903"><ele>179.0</ele><time>2026-04-04T09:33:52.145Z</time></trkpt><trkpt lat="44.1061152" lon="12.1634903"><ele>179.0</ele><time>2026-04-04T09:33:55.149Z</time></trkpt><trkpt lat="44.1061498" lon="12.1634118"><ele>179.00000000000003</ele><time>2026-04-04T09:33:57.144Z</time></trkpt><trkpt lat="44.1061919" lon="12.1633197"><ele>179.0</ele><time>2026-04-04T09:33:59.141Z</time></trkpt><trkpt lat="44.1062341" lon="12.1632346"><ele>179.85714285714286</ele><time>2026-04-04T09:34:01.147Z</time></trkpt><trkpt lat="44.106279" lon="12.1631116"><ele>180.71428571428572</ele><time>2026-04-04T09:34:04.141Z</time></trkpt><trkpt lat="44.106334" lon="12.1630525"><ele>181.57142857142856</ele><time>2026-04-04T09:34:06.142Z</time></trkpt><trkpt lat="44.1063797" lon="12.1629835"><ele>182.42857142857144</ele><time>2026-04-04T09:34:08.141Z</time></trkpt><trkpt lat="44.1064461" lon="12.1629527"><ele>183.28571428571428</ele><time>2026-04-04T09:34:10.143Z</time></trkpt><trkpt lat="44.1065079" lon="12.1629177"><ele>184.14285714285714</ele><time>2026-04-04T09:34:12.142Z</time></trkpt><trkpt lat="44.1065753" lon="12.1628755"><ele>185.0</ele><time>2026-04-04T09:34:14.137Z</time></trkpt><trkpt lat="44.106673" lon="12.1627617"><ele>180.83333333333331</ele><time>2026-04-04T09:34:16.134Z</time></trkpt><trkpt lat="44.1067598" lon="12.1626546"><ele>176.66666666666666</ele><time>2026-04-04T09:34:18.133Z</time></trkpt><trkpt lat="44.106803" lon="12.1625786"><ele>172.5</ele><time>2026-04-04T09:34:19.151Z</time></trkpt><trkpt lat="44.1068431" lon="12.1624838"><ele>168.33333333333334</ele><time>2026-04-04T09:34:20.133Z</time></trkpt><trkpt lat="44.1068741" lon="12.1623979"><ele>164.16666666666669</ele><time>2026-04-04T09:34:21.134Z</time></trkpt><trkpt lat="44.1069041" lon="12.162314"><ele>160.0</ele><time>2026-04-04T09:34:22.135Z</time></trkpt><trkpt lat="44.106929" lon="12.162144"><ele>160.0</ele><time>2026-04-04T09:34:24.134Z</time></trkpt><trkpt lat="44.1069428" lon="12.1619856"><ele>160.0</ele><time>2026-04-04T09:34:26.132Z</time></trkpt><trkpt lat="44.1069381" lon="12.1618904"><ele>160.0</ele><time>2026-04-04T09:34:28.143Z</time></trkpt><trkpt lat="44.1069095" lon="12.1618013"><ele>160.0</ele><time>2026-04-04T09:34:30.149Z</time></trkpt><trkpt lat="44.1068904" lon="12.161712"><ele>160.0</ele><time>2026-04-04T09:34:32.141Z</time></trkpt><trkpt lat="44.1068823" lon="12.1616239"><ele>160.0</ele><time>2026-04-04T09:34:34.144Z</time></trkpt><trkpt lat="44.1068726" lon="12.1615203"><ele>160.71428571428572</ele><time>2026-04-04T09:34:37.151Z</time></trkpt><trkpt lat="44.1068545" lon="12.1614093"><ele>161.42857142857144</ele><time>2026-04-04T09:34:40.151Z</time></trkpt><trkpt lat="44.106839" lon="12.1613143"><ele>162.14285714285717</ele><time>2026-04-04T09:34:43.149Z</time></trkpt><trkpt lat="44.1068256" lon="12.1612254"><ele>162.85714285714286</ele><time>2026-04-04T09:34:46.143Z</time></trkpt><trkpt lat="44.1068183" lon="12.1611152"><ele>163.57142857142858</ele><time>2026-04-04T09:34:49.148Z</time></trkpt><trkpt lat="44.1068331" lon="12.1610279"><ele>164.2857142857143</ele><time>2026-04-04T09:34:51.143Z</time></trkpt><trkpt lat="44.1068464" lon="12.160919"><ele>165.0</ele><time>2026-04-04T09:34:53.135Z</time></trkpt><trkpt lat="44.106858" lon="12.1607723"><ele>164.6</ele><time>2026-04-04T09:34:55.135Z</time></trkpt><trkpt lat="44.1069204" lon="12.160643"><ele>164.2</ele><time>2026-04-04T09:34:57.134Z</time></trkpt><trkpt lat="44.1069737" lon="12.1605049"><ele>163.8</ele><time>2026-04-04T09:34:59.131Z</time></trkpt><trkpt lat="44.1070161" lon="12.1603529"><ele>163.4</ele><time>2026-04-04T09:35:01.135Z</time></trkpt><trkpt lat="44.1070318" lon="12.1602621"><ele>163.0</ele><time>2026-04-04T09:35:02.127Z</time></trkpt><trkpt lat="44.1070276" lon="12.160079"><ele>163.0</ele><time>2026-04-04T09:35:04.132Z</time></trkpt><trkpt lat="44.1070166" lon="12.1599923"><ele>163.0</ele><time>2026-04-04T09:35:05.132Z</time></trkpt><trkpt lat="44.106996" lon="12.1598456"><ele>163.0</ele><time>2026-04-04T09:35:07.134Z</time></trkpt><trkpt lat="44.1070019" lon="12.1597109"><ele>163.0</ele><time>2026-04-04T09:35:09.129Z</time></trkpt><trkpt lat="44.1070359" lon="12.1595561"><ele>163.0</ele><time>2026-04-04T09:35:11.128Z</time></trkpt><trkpt lat="44.1070921" lon="12.1594449"><ele>163.0</ele><time>2026-04-04T09:35:13.132Z</time></trkpt><trkpt lat="44.1071511" lon="12.1593466"><ele>163.0</ele><time>2026-04-04T09:35:15.132Z</time></trkpt><trkpt lat="44.1071673" lon="12.1592508"><ele>163.0</ele><time>2026-04-04T09:35:20.15Z</time></trkpt><trkpt lat="44.1071588" lon="12.1591541"><ele>163.0</ele><time>2026-04-04T09:35:24.149Z</time></trkpt><trkpt lat="44.1071093" lon="12.1590486"><ele>163.0</ele><time>2026-04-04T09:35:28.149Z</time></trkpt><trkpt lat="44.1070604" lon="12.1589933"><ele>163.0</ele><time>2026-04-04T09:35:31.142Z</time></trkpt><trkpt lat="44.107008" lon="12.1588975"><ele>162.66666666666669</ele><time>2026-04-04T09:35:35.14Z</time></trkpt><trkpt lat="44.1069653" lon="12.1588035"><ele>162.33333333333334</ele><time>2026-04-04T09:35:39.138Z</time></trkpt><trkpt lat="44.1069103" lon="12.1587274"><ele>162.0</ele><time>2026-04-04T09:35:43.144Z</time></trkpt><trkpt lat="44.106866" lon="12.1586512"><ele>161.66666666666666</ele><time>2026-04-04T09:35:46.138Z</time></trkpt><trkpt lat="44.1068227" lon="12.1585405"><ele>161.33333333333331</ele><time>2026-04-04T09:35:50.142Z</time></trkpt><trkpt lat="44.1067876" lon="12.1584604"><ele>161.0</ele><time>2026-04-04T09:35:53.146Z</time></trkpt><trkpt lat="44.10672" lon="12.1583829"><ele>161.0</ele><time>2026-04-04T09:35:58.135Z</time></trkpt><trkpt lat="44.1067378" lon="12.1582658"><ele>161.0</ele><time>2026-04-04T09:36:03.142Z</time></trkpt><trkpt lat="44.1067772" lon="12.1581682"><ele>161.0</ele><time>2026-04-04T09:36:08.129Z</time></trkpt><trkpt lat="44.1068031" lon="12.158077"><ele>161.0</ele><time>2026-04-04T09:36:11.151Z</time></trkpt><trkpt lat="44.1068071" lon="12.1579607"><ele>161.0</ele><time>2026-04-04T09:36:14.153Z</time></trkpt><trkpt lat="44.1067805" lon="12.1578541"><ele>161.0</ele><time>2026-04-04T09:36:17.15Z</time></trkpt><trkpt lat="44.106756" lon="12.157751"><ele>161.14285714285714</ele><time>2026-04-04T09:36:20.148Z</time></trkpt><trkpt lat="44.1067223" lon="12.1576652"><ele>161.28571428571428</ele><time>2026-04-04T09:36:23.17Z</time></trkpt><trkpt lat="44.1066823" lon="12.1575951"><ele>161.42857142857144</ele><time>2026-04-04T09:36:26.147Z</time></trkpt><trkpt lat="44.1066496" lon="12.1575005"><ele>161.57142857142856</ele><time>2026-04-04T09:36:30.149Z</time></trkpt><trkpt lat="44.1066303" lon="12.1574149"><ele>161.71428571428572</ele><time>2026-04-04T09:36:33.145Z</time></trkpt><trkpt lat="44.1065922" lon="12.1573351"><ele>161.85714285714286</ele><time>2026-04-04T09:36:36.154Z</time></trkpt><trkpt lat="44.1065584" lon="12.1572306"><ele>162.0</ele><time>2026-04-04T09:36:40.147Z</time></trkpt><trkpt lat="44.1065263" lon="12.157127"><ele>165.71428571428572</ele><time>2026-04-04T09:36:44.153Z</time></trkpt><trkpt lat="44.1064879" lon="12.1570267"><ele>169.42857142857142</ele><time>2026-04-04T09:36:48.153Z</time></trkpt><trkpt lat="44.1064366" lon="12.1569441"><ele>173.14285714285714</ele><time>2026-04-04T09:36:52.149Z</time></trkpt><trkpt lat="44.106399" lon="12.1568497"><ele>176.85714285714286</ele><time>2026-04-04T09:36:56.152Z</time></trkpt><trkpt lat="44.1063479" lon="12.1567715"><ele>180.57142857142856</ele><time>2026-04-04T09:37:00.157Z</time></trkpt><trkpt lat="44.1063209" lon="12.1566902"><ele>184.28571428571428</ele><time>2026-04-04T09:37:04.15Z</time></trkpt><trkpt lat="44.1062684" lon="12.1566305"><ele>188.0</ele><time>2026-04-04T09:37:08.148Z</time></trkpt><trkpt lat="44.1062151" lon="12.1565721"><ele>185.0</ele><time>2026-04-04T09:37:13.15Z</time></trkpt><trkpt lat="44.1061486" lon="12.1565031"><ele>182.0</ele><time>2026-04-04T09:37:27.147Z</time></trkpt><trkpt lat="44.1061013" lon="12.1564253"><ele>179.0</ele><time>2026-04-04T09:37:31.142Z</time></trkpt><trkpt lat="44.1060436" lon="12.1563336"><ele>176.0</ele><time>2026-04-04T09:37:35.147Z</time></trkpt><trkpt lat="44.1059883" lon="12.156271"><ele>173.0</ele><time>2026-04-04T09:37:38.151Z</time></trkpt><trkpt lat="44.1059229" lon="12.1562253"><ele>170.0</ele><time>2026-04-04T09:37:41.147Z</time></trkpt><trkpt lat="44.1058634" lon="12.156191"><ele>170.0</ele><time>2026-04-04T09:37:44.149Z</time></trkpt><trkpt lat="44.1057946" lon="12.1561774"><ele>170.0</ele><time>2026-04-04T09:37:48.146Z</time></trkpt><trkpt lat="44.1057228" lon="12.1561805"><ele>170.0</ele><time>2026-04-04T09:37:52.15Z</time></trkpt><trkpt lat="44.1056579" lon="12.156167"><ele>170.0</ele><time>2026-04-04T09:37:55.145Z</time></trkpt><trkpt lat="44.1055799" lon="12.1561823"><ele>170.0</ele><time>2026-04-04T09:37:59.139Z</time></trkpt><trkpt lat="44.105515" lon="12.1562536"><ele>170.0</ele><time>2026-04-04T09:38:03.139Z</time></trkpt><trkpt lat="44.1054535" lon="12.1563275"><ele>172.14285714285714</ele><time>2026-04-04T09:38:07.14Z</time></trkpt><trkpt lat="44.1054097" lon="12.1564024"><ele>174.28571428571428</ele><time>2026-04-04T09:38:12.133Z</time></trkpt><trkpt lat="44.1053605" lon="12.1564626"><ele>176.42857142857142</ele><time>2026-04-04T09:38:16.139Z</time></trkpt><trkpt lat="44.1053028" lon="12.1565056"><ele>178.57142857142856</ele><time>2026-04-04T09:38:20.143Z</time></trkpt><trkpt lat="44.1052451" lon="12.1565691"><ele>180.71428571428572</ele><time>2026-04-04T09:38:25.142Z</time></trkpt><trkpt lat="44.1051883" lon="12.1566311"><ele>182.85714285714283</ele><time>2026-04-04T09:38:30.139Z</time></trkpt><trkpt lat="44.1051258" lon="12.1566519"><ele>185.0</ele><time>2026-04-04T09:38:35.135Z</time></trkpt><trkpt lat="44.1050593" lon="12.1566865"><ele>186.7142857142857</ele><time>2026-04-04T09:38:40.144Z</time></trkpt><trkpt lat="44.1049969" lon="12.1567078"><ele>188.42857142857142</ele><time>2026-04-04T09:38:46.141Z</time></trkpt><trkpt lat="44.1049404" lon="12.1567484"><ele>190.14285714285714</ele><time>2026-04-04T09:38:51.145Z</time></trkpt><trkpt lat="44.1048713" lon="12.1567933"><ele>191.85714285714283</ele><time>2026-04-04T09:38:56.142Z</time></trkpt><trkpt lat="44.1048058" lon="12.1568513"><ele>193.57142857142858</ele><time>2026-04-04T09:39:00.149Z</time></trkpt><trkpt lat="44.1047455" lon="12.1568962"><ele>195.28571428571428</ele><time>2026-04-04T09:39:04.15Z</time></trkpt><trkpt lat="44.1046798" lon="12.1569316"><ele>197.0</ele><time>2026-04-04T09:39:08.137Z</time></trkpt><trkpt lat="44.1046169" lon="12.1569527"><ele>197.85714285714286</ele><time>2026-04-04T09:39:12.139Z</time></trkpt><trkpt lat="44.1045506" lon="12.1569595"><ele>198.71428571428572</ele><time>2026-04-04T09:39:16.14Z</time></trkpt><trkpt lat="44.1044752" lon="12.156963"><ele>199.57142857142856</ele><time>2026-04-04T09:39:21.143Z</time></trkpt><trkpt lat="44.1044062" lon="12.1569734"><ele>200.42857142857144</ele><time>2026-04-04T09:39:26.144Z</time></trkpt><trkpt lat="44.1043386" lon="12.156987"><ele>201.28571428571428</ele><time>2026-04-04T09:39:31.149Z</time></trkpt><trkpt lat="44.1042667" lon="12.157002"><ele>202.14285714285714</ele><time>2026-04-04T09:39:36.145Z</time></trkpt><trkpt lat="44.1042005" lon="12.1569991"><ele>203.0</ele><time>2026-04-04T09:39:41.146Z</time></trkpt><trkpt lat="44.1041342" lon="12.1569657"><ele>207.0</ele><time>2026-04-04T09:39:47.146Z</time></trkpt><trkpt lat="44.1040677" lon="12.1569596"><ele>211.0</ele><time>2026-04-04T09:39:51.148Z</time></trkpt><trkpt lat="44.1039982" lon="12.1569538"><ele>215.0</ele><time>2026-04-04T09:39:55.148Z</time></trkpt><trkpt lat="44.1039253" lon="12.1569712"><ele>219.0</ele><time>2026-04-04T09:39:59.147Z</time></trkpt><trkpt lat="44.1038681" lon="12.1569261"><ele>223.0</ele><time>2026-04-04T09:40:04.141Z</time></trkpt><trkpt lat="44.1038383" lon="12.1568364"><ele>227.0</ele><time>2026-04-04T09:40:09.135Z</time></trkpt><trkpt lat="44.1038105" lon="12.1567455"><ele>231.0</ele><time>2026-04-04T09:40:14.148Z</time></trkpt><trkpt lat="44.1037875" lon="12.156647"><ele>231.0</ele><time>2026-04-04T09:40:19.151Z</time></trkpt><trkpt lat="44.1037565" lon="12.1565544"><ele>231.0</ele><time>2026-04-04T09:40:24.15Z</time></trkpt><trkpt lat="44.1037376" lon="12.1564545"><ele>231.0</ele><time>2026-04-04T09:40:30.164Z</time></trkpt><trkpt lat="44.1037194" lon="12.1563598"><ele>231.0</ele><time>2026-04-04T09:40:35.148Z</time></trkpt><trkpt lat="44.1037039" lon="12.1562735"><ele>231.0</ele><time>2026-04-04T09:40:39.148Z</time></trkpt><trkpt lat="44.1037028" lon="12.1561718"><ele>231.0</ele><time>2026-04-04T09:40:44.144Z</time></trkpt><trkpt lat="44.1037009" lon="12.1560724"><ele>231.0</ele><time>2026-04-04T09:40:49.156Z</time></trkpt><trkpt lat="44.1037205" lon="12.1559802"><ele>232.33333333333334</ele><time>2026-04-04T09:40:55.147Z</time></trkpt><trkpt lat="44.10374" lon="12.1558777"><ele>233.66666666666669</ele><time>2026-04-04T09:41:00.146Z</time></trkpt><trkpt lat="44.1037601" lon="12.1557766"><ele>235.0</ele><time>2026-04-04T09:41:05.149Z</time></trkpt><trkpt lat="44.1037868" lon="12.155678"><ele>236.33333333333334</ele><time>2026-04-04T09:41:10.148Z</time></trkpt><trkpt lat="44.1038158" lon="12.1555896"><ele>237.66666666666669</ele><time>2026-04-04T09:41:14.148Z</time></trkpt><trkpt lat="44.1038333" lon="12.1554908"><ele>239.0</ele><time>2026-04-04T09:41:18.15Z</time></trkpt><trkpt lat="44.1038491" lon="12.1553793"><ele>240.14285714285717</ele><time>2026-04-04T09:41:23.152Z</time></trkpt><trkpt lat="44.1038748" lon="12.1552914"><ele>241.28571428571428</ele><time>2026-04-04T09:41:27.15Z</time></trkpt><trkpt lat="44.1038867" lon="12.1552038"><ele>242.42857142857144</ele><time>2026-04-04T09:41:31.148Z</time></trkpt><trkpt lat="44.1038981" lon="12.1551122"><ele>243.57142857142858</ele><time>2026-04-04T09:41:35.15Z</time></trkpt><trkpt lat="44.1039022" lon="12.1550218"><ele>244.71428571428572</ele><time>2026-04-04T09:41:40.149Z</time></trkpt><trkpt lat="44.1039039" lon="12.1549148"><ele>245.85714285714286</ele><time>2026-04-04T09:41:45.155Z</time></trkpt><trkpt lat="44.1039199" lon="12.1548259"><ele>247.0</ele><time>2026-04-04T09:41:49.157Z</time></trkpt><trkpt lat="44.1039141" lon="12.1547271"><ele>244.28571428571428</ele><time>2026-04-04T09:41:53.153Z</time></trkpt><trkpt lat="44.1038997" lon="12.1546241"><ele>241.57142857142856</ele><time>2026-04-04T09:41:58.148Z</time></trkpt><trkpt lat="44.1038601" lon="12.154529"><ele>238.85714285714283</ele><time>2026-04-04T09:42:04.154Z</time></trkpt><trkpt lat="44.1038066" lon="12.1544748"><ele>236.14285714285714</ele><time>2026-04-04T09:42:08.155Z</time></trkpt><trkpt lat="44.1037404" lon="12.1544252"><ele>233.4285714285714</ele><time>2026-04-04T09:42:13.147Z</time></trkpt><trkpt lat="44.1036754" lon="12.1543699"><ele>230.7142857142857</ele><time>2026-04-04T09:42:18.15Z</time></trkpt><trkpt lat="44.1036082" lon="12.154348"><ele>228.0</ele><time>2026-04-04T09:42:23.154Z</time></trkpt><trkpt lat="44.1035398" lon="12.154338"><ele>228.0</ele><time>2026-04-04T09:42:28.153Z</time></trkpt><trkpt lat="44.1034691" lon="12.1543522"><ele>227.99999999999997</ele><time>2026-04-04T09:42:33.156Z</time></trkpt><trkpt lat="44.1034035" lon="12.1543807"><ele>228.0</ele><time>2026-04-04T09:42:38.153Z</time></trkpt><trkpt lat="44.1033416" lon="12.1544249"><ele>228.0</ele><time>2026-04-04T09:42:43.156Z</time></trkpt><trkpt lat="44.1032906" lon="12.1544776"><ele>227.99999999999997</ele><time>2026-04-04T09:42:48.156Z</time></trkpt><trkpt lat="44.1032256" lon="12.1545277"><ele>228.0</ele><time>2026-04-04T09:42:53.155Z</time></trkpt><trkpt lat="44.1031611" lon="12.1545423"><ele>228.0</ele><time>2026-04-04T09:42:58.151Z</time></trkpt><trkpt lat="44.1031043" lon="12.1545819"><ele>229.0</ele><time>2026-04-04T09:43:02.156Z</time></trkpt><trkpt lat="44.1030325" lon="12.1546031"><ele>229.99999999999997</ele><time>2026-04-04T09:43:07.158Z</time></trkpt><trkpt lat="44.1029709" lon="12.154646"><ele>231.0</ele><time>2026-04-04T09:43:12.158Z</time></trkpt><trkpt lat="44.1029537" lon="12.1547391"><ele>232.0</ele><time>2026-04-04T09:43:17.155Z</time></trkpt><trkpt lat="44.1030113" lon="12.1547935"><ele>232.99999999999997</ele><time>2026-04-04T09:43:20.141Z</time></trkpt><trkpt lat="44.1030728" lon="12.1548207"><ele>234.0</ele><time>2026-04-04T09:43:25.168Z</time></trkpt><trkpt lat="44.1031154" lon="12.1549003"><ele>235.0</ele><time>2026-04-04T09:43:30.164Z</time></trkpt><trkpt lat="44.1031096" lon="12.1549911"><ele>238.28571428571428</ele><time>2026-04-04T09:43:35.174Z</time></trkpt><trkpt lat="44.1030553" lon="12.1550509"><ele>241.57142857142856</ele><time>2026-04-04T09:43:39.163Z</time></trkpt><trkpt lat="44.1029878" lon="12.1550425"><ele>244.85714285714283</ele><time>2026-04-04T09:43:43.171Z</time></trkpt><trkpt lat="44.1029416" lon="12.1551053"><ele>248.1428571428571</ele><time>2026-04-04T09:43:47.165Z</time></trkpt><trkpt lat="44.1029483" lon="12.1552016"><ele>251.42857142857142</ele><time>2026-04-04T09:43:52.162Z</time></trkpt><trkpt lat="44.1028994" lon="12.1552842"><ele>254.71428571428567</ele><time>2026-04-04T09:43:57.162Z</time></trkpt><trkpt lat="44.1029036" lon="12.1553752"><ele>258.0</ele><time>2026-04-04T09:44:01.168Z</time></trkpt><trkpt lat="44.1029126" lon="12.1554748"><ele>257.99999999999994</ele><time>2026-04-04T09:44:09.155Z</time></trkpt><trkpt lat="44.1028624" lon="12.1555593"><ele>258.0</ele><time>2026-04-04T09:44:13.153Z</time></trkpt><trkpt lat="44.1028245" lon="12.1556345"><ele>258.0</ele><time>2026-04-04T09:44:35.162Z</time></trkpt><trkpt lat="44.1027781" lon="12.155701"><ele>258.0</ele><time>2026-04-04T09:44:38.193Z</time></trkpt><trkpt lat="44.102734" lon="12.155769"><ele>258.0</ele><time>2026-04-04T09:44:42.162Z</time></trkpt><trkpt lat="44.1026826" lon="12.155829"><ele>257.99999999999994</ele><time>2026-04-04T09:44:46.169Z</time></trkpt><trkpt lat="44.1026184" lon="12.1558898"><ele>258.0</ele><time>2026-04-04T09:44:50.169Z</time></trkpt><trkpt lat="44.1025592" lon="12.1559644"><ele>257.57142857142856</ele><time>2026-04-04T09:44:54.164Z</time></trkpt><trkpt lat="44.1025043" lon="12.1560472"><ele>257.1428571428571</ele><time>2026-04-04T09:44:58.166Z</time></trkpt><trkpt lat="44.1024488" lon="12.1561125"><ele>256.7142857142857</ele><time>2026-04-04T09:45:02.134Z</time></trkpt><trkpt lat="44.1023938" lon="12.1561667"><ele>256.2857142857143</ele><time>2026-04-04T09:45:05.15Z</time></trkpt><trkpt lat="44.1023442" lon="12.1562344"><ele>255.8571428571429</ele><time>2026-04-04T09:45:08.091Z</time></trkpt><trkpt lat="44.1023002" lon="12.1563125"><ele>255.42857142857144</ele><time>2026-04-04T09:45:12.139Z</time></trkpt><trkpt lat="44.1022602" lon="12.1564102"><ele>255.0</ele><time>2026-04-04T09:45:16.068Z</time></trkpt><trkpt lat="44.102206" lon="12.1564713"><ele>255.0</ele><time>2026-04-04T09:45:19.137Z</time></trkpt><trkpt lat="44.1021476" lon="12.1565084"><ele>255.00000000000003</ele><time>2026-04-04T09:45:22.064Z</time></trkpt><trkpt lat="44.1020893" lon="12.1565423"><ele>255.0</ele><time>2026-04-04T09:45:25.147Z</time></trkpt><trkpt lat="44.1020381" lon="12.1565955"><ele>255.0</ele><time>2026-04-04T09:45:28.134Z</time></trkpt><trkpt lat="44.1019706" lon="12.156635"><ele>255.00000000000003</ele><time>2026-04-04T09:45:32.134Z</time></trkpt><trkpt lat="44.1019058" lon="12.1566993"><ele>255.0</ele><time>2026-04-04T09:45:36.133Z</time></trkpt><trkpt lat="44.1018365" lon="12.1567637"><ele>255.0</ele><time>2026-04-04T09:45:40.134Z</time></trkpt><trkpt lat="44.1017967" lon="12.1568327"><ele>257.57142857142856</ele><time>2026-04-04T09:45:44.138Z</time></trkpt><trkpt lat="44.1017431" lon="12.1568836"><ele>260.14285714285717</ele><time>2026-04-04T09:45:48.13Z</time></trkpt><trkpt lat="44.1016763" lon="12.1569366"><ele>262.7142857142857</ele><time>2026-04-04T09:45:52.132Z</time></trkpt><trkpt lat="44.1016183" lon="12.1570129"><ele>265.2857142857143</ele><time>2026-04-04T09:45:56.131Z</time></trkpt><trkpt lat="44.1015953" lon="12.1571134"><ele>267.8571428571429</ele><time>2026-04-04T09:46:01.134Z</time></trkpt><trkpt lat="44.1015751" lon="12.1572001"><ele>270.42857142857144</ele><time>2026-04-04T09:46:05.143Z</time></trkpt><trkpt lat="44.1015491" lon="12.1572965"><ele>273.0</ele><time>2026-04-04T09:46:09.134Z</time></trkpt><trkpt lat="44.1015293" lon="12.1573967"><ele>276.42857142857144</ele><time>2026-04-04T09:46:13.131Z</time></trkpt><trkpt lat="44.1015023" lon="12.1574765"><ele>279.8571428571429</ele><time>2026-04-04T09:46:16.133Z</time></trkpt><trkpt lat="44.1014635" lon="12.1575748"><ele>283.2857142857143</ele><time>2026-04-04T09:46:20.128Z</time></trkpt><trkpt lat="44.1014104" lon="12.1576548"><ele>286.7142857142857</ele><time>2026-04-04T09:46:24.125Z</time></trkpt><trkpt lat="44.1013647" lon="12.1577253"><ele>290.14285714285717</ele><time>2026-04-04T09:46:27.134Z</time></trkpt><trkpt lat="44.1013102" lon="12.1577838"><ele>293.57142857142856</ele><time>2026-04-04T09:46:30.091Z</time></trkpt><trkpt lat="44.1012316" lon="12.157823"><ele>297.0</ele><time>2026-04-04T09:46:33.129Z</time></trkpt><trkpt lat="44.1011568" lon="12.1578216"><ele>297.0</ele><time>2026-04-04T09:46:36.132Z</time></trkpt><trkpt lat="44.1010711" lon="12.1578014"><ele>297.0</ele><time>2026-04-04T09:46:40.13Z</time></trkpt><trkpt lat="44.100982" lon="12.1577766"><ele>297.0</ele><time>2026-04-04T09:46:44.133Z</time></trkpt><trkpt lat="44.1009089" lon="12.1577374"><ele>297.0</ele><time>2026-04-04T09:46:47.134Z</time></trkpt><trkpt lat="44.1008458" lon="12.1577054"><ele>297.0</ele><time>2026-04-04T09:46:50.133Z</time></trkpt><trkpt lat="44.1007782" lon="12.1576717"><ele>297.0</ele><time>2026-04-04T09:46:54.129Z</time></trkpt><trkpt lat="44.1007195" lon="12.157635"><ele>298.0</ele><time>2026-04-04T09:46:58.132Z</time></trkpt><trkpt lat="44.1006501" lon="12.1575892"><ele>299.0</ele><time>2026-04-04T09:47:02.061Z</time></trkpt><trkpt lat="44.1005926" lon="12.1575319"><ele>300.0</ele><time>2026-04-04T09:47:05.133Z</time></trkpt><trkpt lat="44.1005265" lon="12.1574828"><ele>301.0</ele><time>2026-04-04T09:47:09.133Z</time></trkpt><trkpt lat="44.1004679" lon="12.1574382"><ele>302.0</ele><time>2026-04-04T09:47:12.149Z</time></trkpt><trkpt lat="44.1004091" lon="12.157392"><ele>303.0</ele><time>2026-04-04T09:47:15.134Z</time></trkpt><trkpt lat="44.1003301" lon="12.1573729"><ele>304.0</ele><time>2026-04-04T09:47:19.136Z</time></trkpt><trkpt lat="44.1002627" lon="12.1574065"><ele>304.0</ele><time>2026-04-04T09:47:23.138Z</time></trkpt><trkpt lat="44.1002103" lon="12.1574925"><ele>304.0</ele><time>2026-04-04T09:47:28.135Z</time></trkpt><trkpt lat="44.1002054" lon="12.1575813"><ele>304.0</ele><time>2026-04-04T09:47:32.131Z</time></trkpt><trkpt lat="44.100235" lon="12.1576726"><ele>304.0</ele><time>2026-04-04T09:47:36.142Z</time></trkpt><trkpt lat="44.1002577" lon="12.1577706"><ele>304.0</ele><time>2026-04-04T09:47:40.132Z</time></trkpt><trkpt lat="44.100292" lon="12.1578565"><ele>304.0</ele><time>2026-04-04T09:47:44.134Z</time></trkpt><trkpt lat="44.1003225" lon="12.1579463"><ele>304.0</ele><time>2026-04-04T09:47:47.124Z</time></trkpt><trkpt lat="44.1003454" lon="12.1580375"><ele>304.0</ele><time>2026-04-04T09:47:50.114Z</time></trkpt><trkpt lat="44.1003537" lon="12.1581407"><ele>304.0</ele><time>2026-04-04T09:47:53.127Z</time></trkpt><trkpt lat="44.1003719" lon="12.1582642"><ele>304.0</ele><time>2026-04-04T09:47:56.122Z</time></trkpt><trkpt lat="44.1003909" lon="12.1583779"><ele>304.0</ele><time>2026-04-04T09:47:59.126Z</time></trkpt><trkpt lat="44.1003874" lon="12.1584739"><ele>304.0</ele><time>2026-04-04T09:48:02.128Z</time></trkpt><trkpt lat="44.1003444" lon="12.1585525"><ele>304.0</ele><time>2026-04-04T09:48:05.13Z</time></trkpt><trkpt lat="44.1003333" lon="12.1586547"><ele>305.66666666666663</ele><time>2026-04-04T09:48:08.129Z</time></trkpt><trkpt lat="44.1003263" lon="12.158759"><ele>307.3333333333333</ele><time>2026-04-04T09:48:11.133Z</time></trkpt><trkpt lat="44.100302" lon="12.1588683"><ele>309.0</ele><time>2026-04-04T09:48:14.154Z</time></trkpt><trkpt lat="44.1002569" lon="12.1589751"><ele>310.6666666666667</ele><time>2026-04-04T09:48:17.136Z</time></trkpt><trkpt lat="44.1002298" lon="12.159072"><ele>312.33333333333337</ele><time>2026-04-04T09:48:20.137Z</time></trkpt><trkpt lat="44.1001871" lon="12.1591526"><ele>314.0</ele><time>2026-04-04T09:48:23.137Z</time></trkpt><trkpt lat="44.1001352" lon="12.1592128"><ele>315.83333333333337</ele><time>2026-04-04T09:48:26.131Z</time></trkpt><trkpt lat="44.1000863" lon="12.1592977"><ele>317.6666666666667</ele><time>2026-04-04T09:48:30.128Z</time></trkpt><trkpt lat="44.1000036" lon="12.1592562"><ele>319.5</ele><time>2026-04-04T09:48:45.142Z</time></trkpt><trkpt lat="44.0999227" lon="12.1592154"><ele>321.3333333333333</ele><time>2026-04-04T09:48:48.119Z</time></trkpt><trkpt lat="44.0998611" lon="12.1591821"><ele>323.16666666666663</ele><time>2026-04-04T09:48:51.122Z</time></trkpt><trkpt lat="44.099802" lon="12.1591377"><ele>325.0</ele><time>2026-04-04T09:48:54.123Z</time></trkpt><trkpt lat="44.0997334" lon="12.1590854"><ele>324.3333333333333</ele><time>2026-04-04T09:48:57.119Z</time></trkpt><trkpt lat="44.0996451" lon="12.1590255"><ele>323.66666666666663</ele><time>2026-04-04T09:49:00.126Z</time></trkpt><trkpt lat="44.0995522" lon="12.1590067"><ele>323.0</ele><time>2026-04-04T09:49:03.121Z</time></trkpt><trkpt lat="44.0994834" lon="12.1589679"><ele>322.3333333333333</ele><time>2026-04-04T09:49:06.126Z</time></trkpt><trkpt lat="44.0994169" lon="12.1589344"><ele>321.6666666666667</ele><time>2026-04-04T09:49:09.13Z</time></trkpt><trkpt lat="44.099332" lon="12.1588937"><ele>321.0</ele><time>2026-04-04T09:49:12.127Z</time></trkpt><trkpt lat="44.0992483" lon="12.1588514"><ele>321.0</ele><time>2026-04-04T09:49:15.124Z</time></trkpt><trkpt lat="44.0991726" lon="12.1588019"><ele>321.0</ele><time>2026-04-04T09:49:18.127Z</time></trkpt><trkpt lat="44.0990972" lon="12.1587672"><ele>321.0</ele><time>2026-04-04T09:49:21.128Z</time></trkpt><trkpt lat="44.0990337" lon="12.1587337"><ele>321.0</ele><time>2026-04-04T09:49:23.119Z</time></trkpt><trkpt lat="44.0989652" lon="12.1587015"><ele>321.0</ele><time>2026-04-04T09:49:25.118Z</time></trkpt><trkpt lat="44.098876" lon="12.1586807"><ele>321.0</ele><time>2026-04-04T09:49:27.123Z</time></trkpt><trkpt lat="44.0987914" lon="12.1586623"><ele>322.1666666666667</ele><time>2026-04-04T09:49:29.119Z</time></trkpt><trkpt lat="44.0987172" lon="12.1586381"><ele>323.3333333333333</ele><time>2026-04-04T09:49:31.122Z</time></trkpt><trkpt lat="44.0986529" lon="12.1586209"><ele>324.5</ele><time>2026-04-04T09:49:33.121Z</time></trkpt><trkpt lat="44.0985596" lon="12.1585727"><ele>325.66666666666663</ele><time>2026-04-04T09:49:36.12Z</time></trkpt><trkpt lat="44.0984874" lon="12.1585051"><ele>326.8333333333333</ele><time>2026-04-04T09:49:38.12Z</time></trkpt><trkpt lat="44.0984189" lon="12.1584511"><ele>328.0</ele><time>2026-04-04T09:49:39.112Z</time></trkpt><trkpt lat="44.0983525" lon="12.1583933"><ele>328.0</ele><time>2026-04-04T09:49:40.117Z</time></trkpt><trkpt lat="44.0982887" lon="12.1583231"><ele>328.0</ele><time>2026-04-04T09:49:41.115Z</time></trkpt><trkpt lat="44.0982187" lon="12.1582565"><ele>328.0</ele><time>2026-04-04T09:49:42.114Z</time></trkpt><trkpt lat="44.0981432" lon="12.1581832"><ele>328.0</ele><time>2026-04-04T09:49:43.111Z</time></trkpt><trkpt lat="44.0980793" lon="12.1580957"><ele>328.0</ele><time>2026-04-04T09:49:44.114Z</time></trkpt><trkpt lat="44.0980094" lon="12.1580051"><ele>328.0</ele><time>2026-04-04T09:49:45.113Z</time></trkpt><trkpt lat="44.0979331" lon="12.1579317"><ele>327.4</ele><time>2026-04-04T09:49:46.127Z</time></trkpt><trkpt lat="44.0978525" lon="12.1578751"><ele>326.79999999999995</ele><time>2026-04-04T09:49:47.11Z</time></trkpt><trkpt lat="44.0977609" lon="12.1578209"><ele>326.2</ele><time>2026-04-04T09:49:48.114Z</time></trkpt><trkpt lat="44.097658" lon="12.1577634"><ele>325.6</ele><time>2026-04-04T09:49:49.111Z</time></trkpt><trkpt lat="44.0975399" lon="12.1576982"><ele>325.0</ele><time>2026-04-04T09:49:50.11Z</time></trkpt><trkpt lat="44.0974305" lon="12.1576277"><ele>325.4</ele><time>2026-04-04T09:49:51.104Z</time></trkpt><trkpt lat="44.0973227" lon="12.1575548"><ele>325.8</ele><time>2026-04-04T09:49:52.105Z</time></trkpt><trkpt lat="44.0972306" lon="12.157492"><ele>326.20000000000005</ele><time>2026-04-04T09:49:53.099Z</time></trkpt><trkpt lat="44.0971432" lon="12.1574179"><ele>326.6</ele><time>2026-04-04T09:49:54.098Z</time></trkpt><trkpt lat="44.0970612" lon="12.1573553"><ele>327.0</ele><time>2026-04-04T09:49:55.109Z</time></trkpt><trkpt lat="44.0969764" lon="12.1572989"><ele>327.0</ele><time>2026-04-04T09:49:56.104Z</time></trkpt><trkpt lat="44.0969085" lon="12.1572475"><ele>327.0</ele><time>2026-04-04T09:49:57.114Z</time></trkpt><trkpt lat="44.0968375" lon="12.1572058"><ele>327.0</ele><time>2026-04-04T09:49:58.104Z</time></trkpt><trkpt lat="44.0967709" lon="12.1571772"><ele>327.0</ele><time>2026-04-04T09:49:59.11Z</time></trkpt><trkpt lat="44.0966723" lon="12.1571118"><ele>327.0</ele><time>2026-04-04T09:50:01.107Z</time></trkpt><trkpt lat="44.0965844" lon="12.157071"><ele>327.0</ele><time>2026-04-04T09:50:03.109Z</time></trkpt><trkpt lat="44.0965141" lon="12.1570177"><ele>323.20000000000005</ele><time>2026-04-04T09:50:05.117Z</time></trkpt><trkpt lat="44.0964458" lon="12.1569333"><ele>319.40000000000003</ele><time>2026-04-04T09:50:07.115Z</time></trkpt><trkpt lat="44.0964052" lon="12.1568008"><ele>315.6</ele><time>2026-04-04T09:50:09.126Z</time></trkpt><trkpt lat="44.0964051" lon="12.1566598"><ele>311.8</ele><time>2026-04-04T09:50:11.125Z</time></trkpt><trkpt lat="44.0964494" lon="12.1565189"><ele>308.0</ele><time>2026-04-04T09:50:13.117Z</time></trkpt><trkpt lat="44.0965118" lon="12.1564089"><ele>308.0</ele><time>2026-04-04T09:50:15.122Z</time></trkpt><trkpt lat="44.0965557" lon="12.1563328"><ele>308.0</ele><time>2026-04-04T09:50:17.144Z</time></trkpt><trkpt lat="44.0965772" lon="12.1562327"><ele>308.0</ele><time>2026-04-04T09:50:19.122Z</time></trkpt><trkpt lat="44.096589" lon="12.1561175"><ele>308.0</ele><time>2026-04-04T09:50:21.121Z</time></trkpt><trkpt lat="44.0965973" lon="12.1559969"><ele>308.0</ele><time>2026-04-04T09:50:23.12Z</time></trkpt><trkpt lat="44.0966" lon="12.1558631"><ele>308.0</ele><time>2026-04-04T09:50:25.122Z</time></trkpt><trkpt lat="44.0965779" lon="12.1557565"><ele>311.4</ele><time>2026-04-04T09:50:27.117Z</time></trkpt><trkpt lat="44.096539" lon="12.155651"><ele>314.8</ele><time>2026-04-04T09:50:29.118Z</time></trkpt><trkpt lat="44.0964889" lon="12.1555536"><ele>318.2</ele><time>2026-04-04T09:50:31.119Z</time></trkpt><trkpt lat="44.0964165" lon="12.1554595"><ele>321.6</ele><time>2026-04-04T09:50:33.118Z</time></trkpt><trkpt lat="44.0963371" lon="12.1553837"><ele>325.0</ele><time>2026-04-04T09:50:35.079Z</time></trkpt><trkpt lat="44.0962512" lon="12.1553134"><ele>325.0</ele><time>2026-04-04T09:50:37.109Z</time></trkpt><trkpt lat="44.0961778" lon="12.1552311"><ele>325.0</ele><time>2026-04-04T09:50:39.122Z</time></trkpt><trkpt lat="44.096103" lon="12.1551644"><ele>325.0</ele><time>2026-04-04T09:50:41.121Z</time></trkpt><trkpt lat="44.0960287" lon="12.1551085"><ele>325.0</ele><time>2026-04-04T09:50:43.121Z</time></trkpt><trkpt lat="44.095967" lon="12.1550668"><ele>325.0</ele><time>2026-04-04T09:50:45.122Z</time></trkpt><trkpt lat="44.0958832" lon="12.1550161"><ele>325.0</ele><time>2026-04-04T09:50:47.092Z</time></trkpt><trkpt lat="44.0958065" lon="12.1549854"><ele>324.0</ele><time>2026-04-04T09:50:49.122Z</time></trkpt><trkpt lat="44.0957271" lon="12.1549527"><ele>323.0</ele><time>2026-04-04T09:50:51.123Z</time></trkpt><trkpt lat="44.0956408" lon="12.1549175"><ele>322.0</ele><time>2026-04-04T09:50:53.115Z</time></trkpt><trkpt lat="44.0955669" lon="12.1548776"><ele>321.0</ele><time>2026-04-04T09:50:55.117Z</time></trkpt><trkpt lat="44.0954935" lon="12.1548544"><ele>320.0</ele><time>2026-04-04T09:50:57.122Z</time></trkpt><trkpt lat="44.0954082" lon="12.1548186"><ele>319.0</ele><time>2026-04-04T09:50:59.123Z</time></trkpt><trkpt lat="44.0953245" lon="12.1547963"><ele>321.6</ele><time>2026-04-04T09:51:01.115Z</time></trkpt><trkpt lat="44.0952389" lon="12.1547498"><ele>324.2</ele><time>2026-04-04T09:51:03.115Z</time></trkpt><trkpt lat="44.0951452" lon="12.1546986"><ele>326.8</ele><time>2026-04-04T09:51:05.114Z</time></trkpt><trkpt lat="44.0950674" lon="12.1546472"><ele>329.40000000000003</ele><time>2026-04-04T09:51:07.115Z</time></trkpt><trkpt lat="44.0949926" lon="12.1545847"><ele>332.0</ele><time>2026-04-04T09:51:09.12Z</time></trkpt><trkpt lat="44.0949117" lon="12.1545263"><ele>332.0</ele><time>2026-04-04T09:51:11.119Z</time></trkpt><trkpt lat="44.0948331" lon="12.1544769"><ele>332.0</ele><time>2026-04-04T09:51:13.115Z</time></trkpt><trkpt lat="44.0947559" lon="12.154428"><ele>332.0</ele><time>2026-04-04T09:51:15.109Z</time></trkpt><trkpt lat="44.0946765" lon="12.15438"><ele>332.0</ele><time>2026-04-04T09:51:17.111Z</time></trkpt><trkpt lat="44.0945974" lon="12.1543349"><ele>332.0</ele><time>2026-04-04T09:51:19.134Z</time></trkpt><trkpt lat="44.0945228" lon="12.1542946"><ele>332.0</ele><time>2026-04-04T09:51:21.085Z</time></trkpt><trkpt lat="44.0944432" lon="12.1542375"><ele>332.0</ele><time>2026-04-04T09:51:23.117Z</time></trkpt><trkpt lat="44.0943643" lon="12.1541993"><ele>332.0</ele><time>2026-04-04T09:51:25.089Z</time></trkpt><trkpt lat="44.0942827" lon="12.1541652"><ele>332.0</ele><time>2026-04-04T09:51:27.031Z</time></trkpt><trkpt lat="44.0941851" lon="12.1541322"><ele>332.0</ele><time>2026-04-04T09:51:29.121Z</time></trkpt><trkpt lat="44.0941004" lon="12.1540952"><ele>332.0</ele><time>2026-04-04T09:51:31.123Z</time></trkpt><trkpt lat="44.0940163" lon="12.1540654"><ele>332.0</ele><time>2026-04-04T09:51:33.117Z</time></trkpt><trkpt lat="44.093929" lon="12.1540464"><ele>332.0</ele><time>2026-04-04T09:51:35.114Z</time></trkpt><trkpt lat="44.0938492" lon="12.1540147"><ele>332.0</ele><time>2026-04-04T09:51:37.116Z</time></trkpt><trkpt lat="44.0937661" lon="12.1539966"><ele>332.0</ele><time>2026-04-04T09:51:39.118Z</time></trkpt><trkpt lat="44.0936841" lon="12.1539494"><ele>332.0</ele><time>2026-04-04T09:51:41.116Z</time></trkpt><trkpt lat="44.0936105" lon="12.1538793"><ele>332.0</ele><time>2026-04-04T09:51:43.112Z</time></trkpt><trkpt lat="44.0935749" lon="12.1537802"><ele>332.0</ele><time>2026-04-04T09:51:45.11Z</time></trkpt><trkpt lat="44.0935332" lon="12.1536559"><ele>332.0</ele><time>2026-04-04T09:51:47.11Z</time></trkpt><trkpt lat="44.0935075" lon="12.153534"><ele>332.0</ele><time>2026-04-04T09:51:49.115Z</time></trkpt><trkpt lat="44.0934991" lon="12.1534083"><ele>332.0</ele><time>2026-04-04T09:51:51.111Z</time></trkpt><trkpt lat="44.0934877" lon="12.1532893"><ele>332.0</ele><time>2026-04-04T09:51:53.11Z</time></trkpt><trkpt lat="44.0934493" lon="12.1531654"><ele>332.0</ele><time>2026-04-04T09:51:55.106Z</time></trkpt><trkpt lat="44.093399" lon="12.1530688"><ele>331.6666666666667</ele><time>2026-04-04T09:51:57.114Z</time></trkpt><trkpt lat="44.0933247" lon="12.1530072"><ele>331.33333333333337</ele><time>2026-04-04T09:51:59.127Z</time></trkpt><trkpt lat="44.0932671" lon="12.1529565"><ele>331.0</ele><time>2026-04-04T09:52:01.115Z</time></trkpt><trkpt lat="44.0931945" lon="12.1528901"><ele>330.6666666666667</ele><time>2026-04-04T09:52:03.116Z</time></trkpt><trkpt lat="44.0931141" lon="12.1528302"><ele>330.3333333333333</ele><time>2026-04-04T09:52:05.117Z</time></trkpt><trkpt lat="44.0930363" lon="12.1527699"><ele>330.0</ele><time>2026-04-04T09:52:07.113Z</time></trkpt><trkpt lat="44.0929641" lon="12.1527224"><ele>330.0</ele><time>2026-04-04T09:52:09.123Z</time></trkpt><trkpt lat="44.0928853" lon="12.1526667"><ele>330.0</ele><time>2026-04-04T09:52:11.119Z</time></trkpt><trkpt lat="44.0928112" lon="12.152608"><ele>330.0</ele><time>2026-04-04T09:52:13.118Z</time></trkpt><trkpt lat="44.0927407" lon="12.1525677"><ele>330.0</ele><time>2026-04-04T09:52:15.119Z</time></trkpt><trkpt lat="44.0926916" lon="12.1524729"><ele>330.0</ele><time>2026-04-04T09:52:18.117Z</time></trkpt><trkpt lat="44.0926761" lon="12.1523792"><ele>330.0</ele><time>2026-04-04T09:52:20.116Z</time></trkpt><trkpt lat="44.0926415" lon="12.1522887"><ele>330.8333333333333</ele><time>2026-04-04T09:52:22.115Z</time></trkpt><trkpt lat="44.0926218" lon="12.1521859"><ele>331.6666666666667</ele><time>2026-04-04T09:52:24.121Z</time></trkpt><trkpt lat="44.0926236" lon="12.1520688"><ele>332.5</ele><time>2026-04-04T09:52:26.121Z</time></trkpt><trkpt lat="44.0926306" lon="12.1519565"><ele>333.33333333333337</ele><time>2026-04-04T09:52:28.121Z</time></trkpt><trkpt lat="44.0926415" lon="12.1518461"><ele>334.1666666666667</ele><time>2026-04-04T09:52:30.122Z</time></trkpt><trkpt lat="44.0926694" lon="12.1517153"><ele>335.0</ele><time>2026-04-04T09:52:32.123Z</time></trkpt><trkpt lat="44.0927083" lon="12.1516107"><ele>334.2</ele><time>2026-04-04T09:52:34.123Z</time></trkpt><trkpt lat="44.0927404" lon="12.1514833"><ele>333.4</ele><time>2026-04-04T09:52:36.116Z</time></trkpt><trkpt lat="44.0927762" lon="12.1513613"><ele>332.6</ele><time>2026-04-04T09:52:38.105Z</time></trkpt><trkpt lat="44.0928147" lon="12.1512342"><ele>331.8</ele><time>2026-04-04T09:52:40.109Z</time></trkpt><trkpt lat="44.0928543" lon="12.1511062"><ele>331.0</ele><time>2026-04-04T09:52:42.106Z</time></trkpt><trkpt lat="44.092882" lon="12.151005"><ele>331.0</ele><time>2026-04-04T09:52:44.114Z</time></trkpt><trkpt lat="44.092913" lon="12.150884"><ele>331.0</ele><time>2026-04-04T09:52:46.109Z</time></trkpt><trkpt lat="44.0929441" lon="12.150782"><ele>331.0</ele><time>2026-04-04T09:52:48.114Z</time></trkpt><trkpt lat="44.09298" lon="12.1506643"><ele>331.0</ele><time>2026-04-04T09:52:50.115Z</time></trkpt><trkpt lat="44.0929946" lon="12.1505316"><ele>331.0</ele><time>2026-04-04T09:52:52.135Z</time></trkpt><trkpt lat="44.0930109" lon="12.1503808"><ele>331.20000000000005</ele><time>2026-04-04T09:52:54.109Z</time></trkpt><trkpt lat="44.0930053" lon="12.1502501"><ele>331.40000000000003</ele><time>2026-04-04T09:52:56.108Z</time></trkpt><trkpt lat="44.0930138" lon="12.1501316"><ele>331.6</ele><time>2026-04-04T09:52:58.116Z</time></trkpt><trkpt lat="44.0930024" lon="12.1500039"><ele>331.8</ele><time>2026-04-04T09:53:00.119Z</time></trkpt><trkpt lat="44.0929915" lon="12.1498743"><ele>332.0</ele><time>2026-04-04T09:53:02.117Z</time></trkpt><trkpt lat="44.0929691" lon="12.1497447"><ele>332.0</ele><time>2026-04-04T09:53:04.117Z</time></trkpt><trkpt lat="44.0929598" lon="12.1496153"><ele>332.0</ele><time>2026-04-04T09:53:06.117Z</time></trkpt><trkpt lat="44.0929556" lon="12.1494877"><ele>332.0</ele><time>2026-04-04T09:53:08.115Z</time></trkpt><trkpt lat="44.0929565" lon="12.1493623"><ele>332.0</ele><time>2026-04-04T09:53:10.116Z</time></trkpt><trkpt lat="44.0929537" lon="12.1492359"><ele>332.0</ele><time>2026-04-04T09:53:12.122Z</time></trkpt><trkpt lat="44.0929598" lon="12.1491112"><ele>333.20000000000005</ele><time>2026-04-04T09:53:14.126Z</time></trkpt><trkpt lat="44.0929597" lon="12.1489877"><ele>334.4</ele><time>2026-04-04T09:53:16.125Z</time></trkpt><trkpt lat="44.0929536" lon="12.148846"><ele>335.6</ele><time>2026-04-04T09:53:18.118Z</time></trkpt><trkpt lat="44.0929624" lon="12.1486994"><ele>336.79999999999995</ele><time>2026-04-04T09:53:20.118Z</time></trkpt><trkpt lat="44.0929663" lon="12.1485244"><ele>338.0</ele><time>2026-04-04T09:53:22.118Z</time></trkpt><trkpt lat="44.0929618" lon="12.1483453"><ele>338.0</ele><time>2026-04-04T09:53:24.12Z</time></trkpt><trkpt lat="44.0929604" lon="12.148246"><ele>338.0</ele><time>2026-04-04T09:53:25.111Z</time></trkpt><trkpt lat="44.0929578" lon="12.1481374"><ele>338.0</ele><time>2026-04-04T09:53:26.119Z</time></trkpt><trkpt lat="44.0929566" lon="12.1480281"><ele>338.0</ele><time>2026-04-04T09:53:27.121Z</time></trkpt><trkpt lat="44.0929547" lon="12.1479123"><ele>338.0</ele><time>2026-04-04T09:53:28.12Z</time></trkpt><trkpt lat="44.0929537" lon="12.1477956"><ele>338.0</ele><time>2026-04-04T09:53:29.117Z</time></trkpt><trkpt lat="44.0929518" lon="12.1476755"><ele>338.79999999999995</ele><time>2026-04-04T09:53:30.115Z</time></trkpt><trkpt lat="44.0929514" lon="12.1475555"><ele>339.6</ele><time>2026-04-04T09:53:31.107Z</time></trkpt><trkpt lat="44.0929519" lon="12.147434"><ele>340.4</ele><time>2026-04-04T09:53:32.113Z</time></trkpt><trkpt lat="44.0929511" lon="12.1473039"><ele>341.20000000000005</ele><time>2026-04-04T09:53:33.112Z</time></trkpt><trkpt lat="44.0929683" lon="12.1471714"><ele>342.0</ele><time>2026-04-04T09:53:34.111Z</time></trkpt><trkpt lat="44.0929947" lon="12.147033"><ele>342.20000000000005</ele><time>2026-04-04T09:53:35.112Z</time></trkpt><trkpt lat="44.0930276" lon="12.1468998"><ele>342.4</ele><time>2026-04-04T09:53:36.107Z</time></trkpt><trkpt lat="44.0930734" lon="12.1467702"><ele>342.6</ele><time>2026-04-04T09:53:37.104Z</time></trkpt><trkpt lat="44.0931389" lon="12.1466477"><ele>342.79999999999995</ele><time>2026-04-04T09:53:38.105Z</time></trkpt><trkpt lat="44.0932217" lon="12.1465281"><ele>343.0</ele><time>2026-04-04T09:53:39.11Z</time></trkpt><trkpt lat="44.0933019" lon="12.1464179"><ele>340.59999999999997</ele><time>2026-04-04T09:53:40.102Z</time></trkpt><trkpt lat="44.0933819" lon="12.1463218"><ele>338.2</ele><time>2026-04-04T09:53:41.113Z</time></trkpt><trkpt lat="44.0934631" lon="12.1462337"><ele>335.8</ele><time>2026-04-04T09:53:42.117Z</time></trkpt><trkpt lat="44.0935394" lon="12.146146"><ele>333.4</ele><time>2026-04-04T09:53:43.111Z</time></trkpt><trkpt lat="44.0936161" lon="12.146048"><ele>331.0</ele><time>2026-04-04T09:53:44.124Z</time></trkpt><trkpt lat="44.0937003" lon="12.1459544"><ele>331.0</ele><time>2026-04-04T09:53:45.117Z</time></trkpt><trkpt lat="44.0937645" lon="12.1458562"><ele>331.0</ele><time>2026-04-04T09:53:46.114Z</time></trkpt><trkpt lat="44.0938259" lon="12.1457565"><ele>331.0</ele><time>2026-04-04T09:53:47.119Z</time></trkpt><trkpt lat="44.0939061" lon="12.1456654"><ele>331.0</ele><time>2026-04-04T09:53:48.121Z</time></trkpt><trkpt lat="44.093995" lon="12.1455793"><ele>331.0</ele><time>2026-04-04T09:53:49.121Z</time></trkpt><trkpt lat="44.0940827" lon="12.1455006"><ele>328.2</ele><time>2026-04-04T09:53:50.119Z</time></trkpt><trkpt lat="44.0941622" lon="12.1454193"><ele>325.40000000000003</ele><time>2026-04-04T09:53:51.123Z</time></trkpt><trkpt lat="44.0942385" lon="12.1453508"><ele>322.6</ele><time>2026-04-04T09:53:52.117Z</time></trkpt><trkpt lat="44.094322" lon="12.1452786"><ele>319.8</ele><time>2026-04-04T09:53:53.112Z</time></trkpt><trkpt lat="44.0944169" lon="12.1452158"><ele>317.0</ele><time>2026-04-04T09:53:54.146Z</time></trkpt><trkpt lat="44.09452" lon="12.1451805"><ele>317.0</ele><time>2026-04-04T09:53:55.123Z</time></trkpt><trkpt lat="44.0946199" lon="12.1451343"><ele>317.0</ele><time>2026-04-04T09:53:56.127Z</time></trkpt><trkpt lat="44.0947163" lon="12.1450706"><ele>317.0</ele><time>2026-04-04T09:53:57.124Z</time></trkpt><trkpt lat="44.0948128" lon="12.144999"><ele>317.0</ele><time>2026-04-04T09:53:58.12Z</time></trkpt><trkpt lat="44.0949132" lon="12.1449297"><ele>317.0</ele><time>2026-04-04T09:53:59.124Z</time></trkpt><trkpt lat="44.0950134" lon="12.1448651"><ele>315.0</ele><time>2026-04-04T09:54:00.121Z</time></trkpt><trkpt lat="44.0951209" lon="12.1448266"><ele>313.0</ele><time>2026-04-04T09:54:01.118Z</time></trkpt><trkpt lat="44.0952262" lon="12.1448066"><ele>311.0</ele><time>2026-04-04T09:54:02.117Z</time></trkpt><trkpt lat="44.0953271" lon="12.1447915"><ele>309.0</ele><time>2026-04-04T09:54:03.118Z</time></trkpt><trkpt lat="44.0954175" lon="12.1447934"><ele>307.0</ele><time>2026-04-04T09:54:04.115Z</time></trkpt><trkpt lat="44.095499" lon="12.1448085"><ele>306.99999999999994</ele><time>2026-04-04T09:54:05.119Z</time></trkpt><trkpt lat="44.0955714" lon="12.1448272"><ele>307.0</ele><time>2026-04-04T09:54:06.116Z</time></trkpt><trkpt lat="44.0956425" lon="12.1448332"><ele>307.0</ele><time>2026-04-04T09:54:07.119Z</time></trkpt><trkpt lat="44.0957168" lon="12.1448399"><ele>307.0</ele><time>2026-04-04T09:54:08.116Z</time></trkpt><trkpt lat="44.0957829" lon="12.1448412"><ele>307.0</ele><time>2026-04-04T09:54:09.108Z</time></trkpt><trkpt lat="44.0958463" lon="12.1448437"><ele>306.99999999999994</ele><time>2026-04-04T09:54:10.11Z</time></trkpt><trkpt lat="44.0959118" lon="12.144852"><ele>307.0</ele><time>2026-04-04T09:54:11.109Z</time></trkpt><trkpt lat="44.0960085" lon="12.1448364"><ele>308.8</ele><time>2026-04-04T09:54:13.118Z</time></trkpt><trkpt lat="44.0960906" lon="12.1448163"><ele>310.6</ele><time>2026-04-04T09:54:15.12Z</time></trkpt><trkpt lat="44.0961756" lon="12.144752"><ele>312.40000000000003</ele><time>2026-04-04T09:54:17.122Z</time></trkpt><trkpt lat="44.0962524" lon="12.1446631"><ele>314.2</ele><time>2026-04-04T09:54:19.121Z</time></trkpt><trkpt lat="44.0963378" lon="12.1445437"><ele>316.0</ele><time>2026-04-04T09:54:21.118Z</time></trkpt><trkpt lat="44.0963717" lon="12.1444519"><ele>316.0</ele><time>2026-04-04T09:54:22.118Z</time></trkpt><trkpt lat="44.0964007" lon="12.1443596"><ele>316.0</ele><time>2026-04-04T09:54:23.115Z</time></trkpt><trkpt lat="44.0964208" lon="12.1442663"><ele>316.0</ele><time>2026-04-04T09:54:24.142Z</time></trkpt><trkpt lat="44.0964336" lon="12.1441802"><ele>316.0</ele><time>2026-04-04T09:54:25.121Z</time></trkpt><trkpt lat="44.0964489" lon="12.1440934"><ele>316.0</ele><time>2026-04-04T09:54:26.119Z</time></trkpt><trkpt lat="44.0964486" lon="12.1439488"><ele>316.0</ele><time>2026-04-04T09:54:28.119Z</time></trkpt><trkpt lat="44.0964751" lon="12.143834"><ele>316.16666666666663</ele><time>2026-04-04T09:54:30.114Z</time></trkpt><trkpt lat="44.0965367" lon="12.1437727"><ele>316.3333333333333</ele><time>2026-04-04T09:54:32.127Z</time></trkpt><trkpt lat="44.0965501" lon="12.1436675"><ele>316.5</ele><time>2026-04-04T09:54:34.128Z</time></trkpt><trkpt lat="44.0965458" lon="12.1435511"><ele>316.6666666666667</ele><time>2026-04-04T09:54:36.125Z</time></trkpt><trkpt lat="44.0965446" lon="12.1434436"><ele>316.83333333333337</ele><time>2026-04-04T09:54:38.123Z</time></trkpt><trkpt lat="44.0965543" lon="12.1433454"><ele>317.0</ele><time>2026-04-04T09:54:40.127Z</time></trkpt><trkpt lat="44.0966117" lon="12.1432886"><ele>317.0</ele><time>2026-04-04T09:54:42.125Z</time></trkpt><trkpt lat="44.0966676" lon="12.1432272"><ele>317.0</ele><time>2026-04-04T09:54:44.134Z</time></trkpt><trkpt lat="44.0967068" lon="12.1431411"><ele>317.0</ele><time>2026-04-04T09:54:46.138Z</time></trkpt><trkpt lat="44.0967555" lon="12.1430757"><ele>317.0</ele><time>2026-04-04T09:54:48.138Z</time></trkpt><trkpt lat="44.0968095" lon="12.1429975"><ele>317.0</ele><time>2026-04-04T09:54:50.131Z</time></trkpt><trkpt lat="44.0968673" lon="12.1429175"><ele>317.0</ele><time>2026-04-04T09:54:52.138Z</time></trkpt><trkpt lat="44.0969185" lon="12.142838"><ele>317.0</ele><time>2026-04-04T09:54:54.136Z</time></trkpt><trkpt lat="44.0969662" lon="12.1427721"><ele>316.83333333333337</ele><time>2026-04-04T09:54:56.131Z</time></trkpt><trkpt lat="44.0970405" lon="12.1427346"><ele>316.6666666666667</ele><time>2026-04-04T09:54:59.141Z</time></trkpt><trkpt lat="44.0971245" lon="12.1426853"><ele>316.5</ele><time>2026-04-04T09:55:02.135Z</time></trkpt><trkpt lat="44.0971901" lon="12.1426471"><ele>316.3333333333333</ele><time>2026-04-04T09:55:04.136Z</time></trkpt><trkpt lat="44.0972604" lon="12.1425845"><ele>316.16666666666663</ele><time>2026-04-04T09:55:15.126Z</time></trkpt><trkpt lat="44.0973416" lon="12.1425102"><ele>316.0</ele><time>2026-04-04T09:55:17.138Z</time></trkpt><trkpt lat="44.0974337" lon="12.1424332"><ele>317.0</ele><time>2026-04-04T09:55:19.134Z</time></trkpt><trkpt lat="44.0975326" lon="12.1423538"><ele>318.0</ele><time>2026-04-04T09:55:21.128Z</time></trkpt><trkpt lat="44.0976231" lon="12.1422928"><ele>319.0</ele><time>2026-04-04T09:55:23.128Z</time></trkpt><trkpt lat="44.0977257" lon="12.1422312"><ele>320.0</ele><time>2026-04-04T09:55:25.131Z</time></trkpt><trkpt lat="44.097825" lon="12.1421658"><ele>321.0</ele><time>2026-04-04T09:55:27.126Z</time></trkpt><trkpt lat="44.0979181" lon="12.1421243"><ele>321.0</ele><time>2026-04-04T09:55:29.127Z</time></trkpt><trkpt lat="44.0980148" lon="12.1420844"><ele>321.0</ele><time>2026-04-04T09:55:31.13Z</time></trkpt><trkpt lat="44.0981006" lon="12.1420637"><ele>321.0</ele><time>2026-04-04T09:55:33.138Z</time></trkpt><trkpt lat="44.0981951" lon="12.1420586"><ele>321.0</ele><time>2026-04-04T09:55:35.124Z</time></trkpt><trkpt lat="44.09829" lon="12.1420828"><ele>321.0</ele><time>2026-04-04T09:55:37.131Z</time></trkpt><trkpt lat="44.0983809" lon="12.1421081"><ele>321.1666666666667</ele><time>2026-04-04T09:55:39.134Z</time></trkpt><trkpt lat="44.0984685" lon="12.1421432"><ele>321.3333333333333</ele><time>2026-04-04T09:55:41.136Z</time></trkpt><trkpt lat="44.0985511" lon="12.1421801"><ele>321.5</ele><time>2026-04-04T09:55:43.129Z</time></trkpt><trkpt lat="44.0986201" lon="12.1422198"><ele>321.66666666666663</ele><time>2026-04-04T09:55:45.135Z</time></trkpt><trkpt lat="44.0986885" lon="12.1422691"><ele>321.8333333333333</ele><time>2026-04-04T09:55:47.136Z</time></trkpt><trkpt lat="44.0987601" lon="12.1423221"><ele>322.0</ele><time>2026-04-04T09:55:49.133Z</time></trkpt><trkpt lat="44.0988371" lon="12.1423707"><ele>323.0</ele><time>2026-04-04T09:55:51.133Z</time></trkpt><trkpt lat="44.0989155" lon="12.14243"><ele>324.0</ele><time>2026-04-04T09:55:53.135Z</time></trkpt><trkpt lat="44.0989885" lon="12.1424884"><ele>325.0</ele><time>2026-04-04T09:55:55.139Z</time></trkpt><trkpt lat="44.0990562" lon="12.1425475"><ele>326.0</ele><time>2026-04-04T09:55:57.153Z</time></trkpt><trkpt lat="44.099121" lon="12.142621"><ele>327.0</ele><time>2026-04-04T09:55:59.137Z</time></trkpt><trkpt lat="44.0991944" lon="12.1426821"><ele>328.0</ele><time>2026-04-04T09:56:01.135Z</time></trkpt><trkpt lat="44.0992626" lon="12.1427541"><ele>328.0</ele><time>2026-04-04T09:56:03.137Z</time></trkpt><trkpt lat="44.099326" lon="12.1428136"><ele>328.0</ele><time>2026-04-04T09:56:05.138Z</time></trkpt><trkpt lat="44.0993862" lon="12.1428827"><ele>328.0</ele><time>2026-04-04T09:56:07.14Z</time></trkpt><trkpt lat="44.099442" lon="12.1429669"><ele>328.0</ele><time>2026-04-04T09:56:09.138Z</time></trkpt><trkpt lat="44.0995051" lon="12.1430615"><ele>328.0</ele><time>2026-04-04T09:56:11.135Z</time></trkpt><trkpt lat="44.0995598" lon="12.1431561"><ele>328.0</ele><time>2026-04-04T09:56:13.146Z</time></trkpt><trkpt lat="44.0996233" lon="12.1432637"><ele>328.2</ele><time>2026-04-04T09:56:15.146Z</time></trkpt><trkpt lat="44.0996842" lon="12.1433566"><ele>328.4</ele><time>2026-04-04T09:56:17.147Z</time></trkpt><trkpt lat="44.099744" lon="12.143449"><ele>328.59999999999997</ele><time>2026-04-04T09:56:19.141Z</time></trkpt><trkpt lat="44.0998024" lon="12.1435524"><ele>328.79999999999995</ele><time>2026-04-04T09:56:21.139Z</time></trkpt><trkpt lat="44.0998642" lon="12.1436637"><ele>329.0</ele><time>2026-04-04T09:56:23.138Z</time></trkpt><trkpt lat="44.099928" lon="12.1437886"><ele>328.6</ele><time>2026-04-04T09:56:25.144Z</time></trkpt><trkpt lat="44.0999833" lon="12.1439116"><ele>328.2</ele><time>2026-04-04T09:56:27.143Z</time></trkpt><trkpt lat="44.1000313" lon="12.144059"><ele>327.8</ele><time>2026-04-04T09:56:29.138Z</time></trkpt><trkpt lat="44.1000847" lon="12.1442226"><ele>327.40000000000003</ele><time>2026-04-04T09:56:31.138Z</time></trkpt><trkpt lat="44.1001115" lon="12.1443196"><ele>327.0</ele><time>2026-04-04T09:56:32.141Z</time></trkpt><trkpt lat="44.1001354" lon="12.1444173"><ele>326.0</ele><time>2026-04-04T09:56:33.135Z</time></trkpt><trkpt lat="44.1001549" lon="12.144526"><ele>325.0</ele><time>2026-04-04T09:56:34.14Z</time></trkpt><trkpt lat="44.100177" lon="12.1446357"><ele>324.0</ele><time>2026-04-04T09:56:35.135Z</time></trkpt><trkpt lat="44.1002034" lon="12.1447481"><ele>323.0</ele><time>2026-04-04T09:56:36.13Z</time></trkpt><trkpt lat="44.1002421" lon="12.1448554"><ele>322.0</ele><time>2026-04-04T09:56:37.132Z</time></trkpt><trkpt lat="44.1002906" lon="12.1449699"><ele>321.0</ele><time>2026-04-04T09:56:38.135Z</time></trkpt><trkpt lat="44.1003459" lon="12.1450845"><ele>318.6</ele><time>2026-04-04T09:56:39.128Z</time></trkpt><trkpt lat="44.1003972" lon="12.1452021"><ele>316.20000000000005</ele><time>2026-04-04T09:56:40.132Z</time></trkpt><trkpt lat="44.1004504" lon="12.1453206"><ele>313.79999999999995</ele><time>2026-04-04T09:56:41.128Z</time></trkpt><trkpt lat="44.1005056" lon="12.1454499"><ele>311.4</ele><time>2026-04-04T09:56:42.121Z</time></trkpt><trkpt lat="44.1005532" lon="12.1455863"><ele>309.0</ele><time>2026-04-04T09:56:43.129Z</time></trkpt><trkpt lat="44.1005978" lon="12.1457164"><ele>308.8333333333333</ele><time>2026-04-04T09:56:44.131Z</time></trkpt><trkpt lat="44.1006362" lon="12.1458384"><ele>308.6666666666667</ele><time>2026-04-04T09:56:45.131Z</time></trkpt><trkpt lat="44.1006766" lon="12.1459387"><ele>308.5</ele><time>2026-04-04T09:56:46.129Z</time></trkpt><trkpt lat="44.1007159" lon="12.1460276"><ele>308.33333333333337</ele><time>2026-04-04T09:56:47.134Z</time></trkpt><trkpt lat="44.1007592" lon="12.1460937"><ele>308.1666666666667</ele><time>2026-04-04T09:56:48.133Z</time></trkpt><trkpt lat="44.1008228" lon="12.1461717"><ele>308.0</ele><time>2026-04-04T09:56:50.124Z</time></trkpt><trkpt lat="44.1009117" lon="12.1461809"><ele>308.0</ele><time>2026-04-04T09:56:52.135Z</time></trkpt><trkpt lat="44.1010118" lon="12.1461232"><ele>308.0</ele><time>2026-04-04T09:56:54.123Z</time></trkpt><trkpt lat="44.1010739" lon="12.1459814"><ele>308.0</ele><time>2026-04-04T09:56:56.12Z</time></trkpt><trkpt lat="44.1010779" lon="12.1458904"><ele>308.0</ele><time>2026-04-04T09:56:57.125Z</time></trkpt><trkpt lat="44.1010597" lon="12.1458024"><ele>308.0</ele><time>2026-04-04T09:56:58.115Z</time></trkpt><trkpt lat="44.101022" lon="12.145714"><ele>308.0</ele><time>2026-04-04T09:56:59.142Z</time></trkpt><trkpt lat="44.1009791" lon="12.1456277"><ele>307.33333333333337</ele><time>2026-04-04T09:57:00.125Z</time></trkpt><trkpt lat="44.1009329" lon="12.1455413"><ele>306.6666666666667</ele><time>2026-04-04T09:57:01.119Z</time></trkpt><trkpt lat="44.1008925" lon="12.145449"><ele>306.0</ele><time>2026-04-04T09:57:02.119Z</time></trkpt><trkpt lat="44.1008671" lon="12.1453553"><ele>305.3333333333333</ele><time>2026-04-04T09:57:03.115Z</time></trkpt><trkpt lat="44.1008535" lon="12.1452515"><ele>304.66666666666663</ele><time>2026-04-04T09:57:04.116Z</time></trkpt><trkpt lat="44.1008592" lon="12.1451438"><ele>304.0</ele><time>2026-04-04T09:57:05.117Z</time></trkpt><trkpt lat="44.100888" lon="12.1450411"><ele>304.0</ele><time>2026-04-04T09:57:06.106Z</time></trkpt><trkpt lat="44.1009338" lon="12.1449413"><ele>304.0</ele><time>2026-04-04T09:57:07.119Z</time></trkpt><trkpt lat="44.100985" lon="12.1448417"><ele>304.0</ele><time>2026-04-04T09:57:08.115Z</time></trkpt><trkpt lat="44.101036" lon="12.144741"><ele>304.0</ele><time>2026-04-04T09:57:09.116Z</time></trkpt><trkpt lat="44.1010957" lon="12.1446408"><ele>304.0</ele><time>2026-04-04T09:57:10.131Z</time></trkpt><trkpt lat="44.1011566" lon="12.1445442"><ele>304.0</ele><time>2026-04-04T09:57:11.122Z</time></trkpt><trkpt lat="44.1012185" lon="12.1444381"><ele>304.2</ele><time>2026-04-04T09:57:12.13Z</time></trkpt><trkpt lat="44.1012813" lon="12.1443301"><ele>304.4</ele><time>2026-04-04T09:57:13.121Z</time></trkpt><trkpt lat="44.1013332" lon="12.144214"><ele>304.6</ele><time>2026-04-04T09:57:14.121Z</time></trkpt><trkpt lat="44.1013792" lon="12.1440911"><ele>304.8</ele><time>2026-04-04T09:57:15.127Z</time></trkpt><trkpt lat="44.1014197" lon="12.1439578"><ele>305.0</ele><time>2026-04-04T09:57:16.125Z</time></trkpt><trkpt lat="44.1014578" lon="12.1438254"><ele>305.0</ele><time>2026-04-04T09:57:17.133Z</time></trkpt><trkpt lat="44.101504" lon="12.1436929"><ele>305.0</ele><time>2026-04-04T09:57:18.115Z</time></trkpt><trkpt lat="44.1015538" lon="12.1435554"><ele>305.0</ele><time>2026-04-04T09:57:19.125Z</time></trkpt><trkpt lat="44.101607" lon="12.1434246"><ele>305.0</ele><time>2026-04-04T09:57:20.126Z</time></trkpt><trkpt lat="44.1016715" lon="12.1432867"><ele>305.0</ele><time>2026-04-04T09:57:21.128Z</time></trkpt><trkpt lat="44.1017491" lon="12.1431491"><ele>299.6</ele><time>2026-04-04T09:57:22.116Z</time></trkpt><trkpt lat="44.1018247" lon="12.1430263"><ele>294.2</ele><time>2026-04-04T09:57:23.117Z</time></trkpt><trkpt lat="44.1019021" lon="12.1429173"><ele>288.8</ele><time>2026-04-04T09:57:24.122Z</time></trkpt><trkpt lat="44.101974" lon="12.1428179"><ele>283.4</ele><time>2026-04-04T09:57:25.122Z</time></trkpt><trkpt lat="44.1020279" lon="12.1427195"><ele>278.0</ele><time>2026-04-04T09:57:26.113Z</time></trkpt><trkpt lat="44.1020735" lon="12.1426266"><ele>278.0</ele><time>2026-04-04T09:57:27.128Z</time></trkpt><trkpt lat="44.1021251" lon="12.1425675"><ele>278.0</ele><time>2026-04-04T09:57:28.121Z</time></trkpt><trkpt lat="44.1021877" lon="12.1425456"><ele>278.0</ele><time>2026-04-04T09:57:29.13Z</time></trkpt><trkpt lat="44.102254" lon="12.1425394"><ele>278.0</ele><time>2026-04-04T09:57:30.135Z</time></trkpt><trkpt lat="44.1023672" lon="12.142538"><ele>278.0</ele><time>2026-04-04T09:57:32.126Z</time></trkpt><trkpt lat="44.1024689" lon="12.142525"><ele>278.0</ele><time>2026-04-04T09:57:34.128Z</time></trkpt><trkpt lat="44.1025719" lon="12.1425054"><ele>276.2</ele><time>2026-04-04T09:57:36.125Z</time></trkpt><trkpt lat="44.1026745" lon="12.1424691"><ele>274.4</ele><time>2026-04-04T09:57:38.129Z</time></trkpt><trkpt lat="44.1027822" lon="12.1424375"><ele>272.59999999999997</ele><time>2026-04-04T09:57:40.131Z</time></trkpt><trkpt lat="44.1028861" lon="12.1424068"><ele>270.8</ele><time>2026-04-04T09:57:42.133Z</time></trkpt><trkpt lat="44.1030006" lon="12.142376"><ele>269.0</ele><time>2026-04-04T09:57:44.138Z</time></trkpt><trkpt lat="44.1031105" lon="12.1423393"><ele>269.0</ele><time>2026-04-04T09:57:46.137Z</time></trkpt><trkpt lat="44.1032293" lon="12.1423148"><ele>269.0</ele><time>2026-04-04T09:57:48.127Z</time></trkpt><trkpt lat="44.1032955" lon="12.142303"><ele>269.0</ele><time>2026-04-04T09:57:49.134Z</time></trkpt><trkpt lat="44.1033579" lon="12.142284"><ele>269.0</ele><time>2026-04-04T09:57:50.132Z</time></trkpt><trkpt lat="44.1034841" lon="12.1422453"><ele>269.0</ele><time>2026-04-04T09:57:52.131Z</time></trkpt><trkpt lat="44.103548" lon="12.142235"><ele>269.0</ele><time>2026-04-04T09:57:53.133Z</time></trkpt><trkpt lat="44.1036207" lon="12.1422287"><ele>269.0</ele><time>2026-04-04T09:57:54.131Z</time></trkpt><trkpt lat="44.1036908" lon="12.1422214"><ele>269.0</ele><time>2026-04-04T09:57:55.125Z</time></trkpt><trkpt lat="44.103754" lon="12.1422215"><ele>269.0</ele><time>2026-04-04T09:57:56.127Z</time></trkpt><trkpt lat="44.1038762" lon="12.1422357"><ele>269.0</ele><time>2026-04-04T09:57:58.127Z</time></trkpt><trkpt lat="44.1039979" lon="12.142243"><ele>269.0</ele><time>2026-04-04T09:58:00.119Z</time></trkpt><trkpt lat="44.104063" lon="12.142243"><ele>269.0</ele><time>2026-04-04T09:58:01.141Z</time></trkpt><trkpt lat="44.1041887" lon="12.1422364"><ele>269.8571428571429</ele><time>2026-04-04T09:58:03.119Z</time></trkpt><trkpt lat="44.1042523" lon="12.1422405"><ele>270.7142857142857</ele><time>2026-04-04T09:58:04.123Z</time></trkpt><trkpt lat="44.1043219" lon="12.142243"><ele>271.57142857142856</ele><time>2026-04-04T09:58:05.129Z</time></trkpt><trkpt lat="44.1043877" lon="12.1422449"><ele>272.42857142857144</ele><time>2026-04-04T09:58:06.122Z</time></trkpt><trkpt lat="44.1044516" lon="12.1422451"><ele>273.2857142857143</ele><time>2026-04-04T09:58:07.121Z</time></trkpt><trkpt lat="44.1045165" lon="12.1422395"><ele>274.14285714285717</ele><time>2026-04-04T09:58:08.12Z</time></trkpt><trkpt lat="44.1045792" lon="12.142227"><ele>275.0</ele><time>2026-04-04T09:58:09.118Z</time></trkpt><trkpt lat="44.1046488" lon="12.1422185"><ele>275.0</ele><time>2026-04-04T09:58:10.122Z</time></trkpt><trkpt lat="44.10472" lon="12.142198"><ele>275.0</ele><time>2026-04-04T09:58:11.122Z</time></trkpt><trkpt lat="44.104787" lon="12.1421758"><ele>275.0</ele><time>2026-04-04T09:58:12.121Z</time></trkpt><trkpt lat="44.1048507" lon="12.1421405"><ele>275.0</ele><time>2026-04-04T09:58:13.128Z</time></trkpt><trkpt lat="44.1049154" lon="12.1420956"><ele>275.0</ele><time>2026-04-04T09:58:14.128Z</time></trkpt><trkpt lat="44.1049805" lon="12.1420429"><ele>275.0</ele><time>2026-04-04T09:58:15.126Z</time></trkpt><trkpt lat="44.1050485" lon="12.1419864"><ele>275.0</ele><time>2026-04-04T09:58:16.129Z</time></trkpt><trkpt lat="44.1051199" lon="12.1419348"><ele>273.83333333333337</ele><time>2026-04-04T09:58:17.127Z</time></trkpt><trkpt lat="44.1051883" lon="12.1418875"><ele>272.6666666666667</ele><time>2026-04-04T09:58:18.125Z</time></trkpt><trkpt lat="44.1052614" lon="12.1418503"><ele>271.5</ele><time>2026-04-04T09:58:19.126Z</time></trkpt><trkpt lat="44.1053293" lon="12.141822"><ele>270.3333333333333</ele><time>2026-04-04T09:58:20.117Z</time></trkpt><trkpt lat="44.1053974" lon="12.1417851"><ele>269.16666666666663</ele><time>2026-04-04T09:58:21.132Z</time></trkpt><trkpt lat="44.1054788" lon="12.1417425"><ele>268.0</ele><time>2026-04-04T09:58:22.126Z</time></trkpt><trkpt lat="44.105552" lon="12.1417157"><ele>268.0</ele><time>2026-04-04T09:58:23.128Z</time></trkpt><trkpt lat="44.1056212" lon="12.1416773"><ele>268.0</ele><time>2026-04-04T09:58:24.122Z</time></trkpt><trkpt lat="44.10569" lon="12.1416527"><ele>268.0</ele><time>2026-04-04T09:58:25.125Z</time></trkpt><trkpt lat="44.1057594" lon="12.141631"><ele>268.0</ele><time>2026-04-04T09:58:26.134Z</time></trkpt><trkpt lat="44.1058247" lon="12.1416199"><ele>268.0</ele><time>2026-04-04T09:58:27.124Z</time></trkpt><trkpt lat="44.1058909" lon="12.1416129"><ele>268.0</ele><time>2026-04-04T09:58:28.128Z</time></trkpt><trkpt lat="44.1059567" lon="12.1416019"><ele>268.0</ele><time>2026-04-04T09:58:29.129Z</time></trkpt><trkpt lat="44.1060707" lon="12.1415877"><ele>266.66666666666663</ele><time>2026-04-04T09:58:31.119Z</time></trkpt><trkpt lat="44.1061341" lon="12.1415815"><ele>265.3333333333333</ele><time>2026-04-04T09:58:32.142Z</time></trkpt><trkpt lat="44.1062022" lon="12.1415825"><ele>264.0</ele><time>2026-04-04T09:58:33.119Z</time></trkpt><trkpt lat="44.1062673" lon="12.1415774"><ele>262.6666666666667</ele><time>2026-04-04T09:58:34.129Z</time></trkpt><trkpt lat="44.1063844" lon="12.1415978"><ele>261.33333333333337</ele><time>2026-04-04T09:58:36.119Z</time></trkpt><trkpt lat="44.1064831" lon="12.141648"><ele>260.0</ele><time>2026-04-04T09:58:38.113Z</time></trkpt><trkpt lat="44.1065681" lon="12.1417052"><ele>261.75</ele><time>2026-04-04T09:58:40.124Z</time></trkpt><trkpt lat="44.1066736" lon="12.1417562"><ele>263.5</ele><time>2026-04-04T09:58:42.129Z</time></trkpt><trkpt lat="44.1067786" lon="12.1418152"><ele>265.25</ele><time>2026-04-04T09:58:44.132Z</time></trkpt><trkpt lat="44.1068941" lon="12.1418478"><ele>267.0</ele><time>2026-04-04T09:58:46.118Z</time></trkpt><trkpt lat="44.1070037" lon="12.141859"><ele>267.0</ele><time>2026-04-04T09:58:48.119Z</time></trkpt><trkpt lat="44.1070707" lon="12.1418644"><ele>267.0</ele><time>2026-04-04T09:58:49.13Z</time></trkpt><trkpt lat="44.1071815" lon="12.141859"><ele>267.0</ele><time>2026-04-04T09:58:51.121Z</time></trkpt><trkpt lat="44.1072968" lon="12.1418237"><ele>267.0</ele><time>2026-04-04T09:58:53.124Z</time></trkpt><trkpt lat="44.1074099" lon="12.1417888"><ele>267.0</ele><time>2026-04-04T09:58:55.126Z</time></trkpt><trkpt lat="44.1074937" lon="12.1417509"><ele>267.8333333333333</ele><time>2026-04-04T09:58:57.134Z</time></trkpt><trkpt lat="44.1075796" lon="12.1417294"><ele>268.6666666666667</ele><time>2026-04-04T09:58:59.143Z</time></trkpt><trkpt lat="44.1076715" lon="12.1416826"><ele>269.5</ele><time>2026-04-04T09:59:01.138Z</time></trkpt><trkpt lat="44.10776" lon="12.1416598"><ele>270.33333333333337</ele><time>2026-04-04T09:59:03.134Z</time></trkpt><trkpt lat="44.1078326" lon="12.1416421"><ele>271.1666666666667</ele><time>2026-04-04T09:59:05.15Z</time></trkpt><trkpt lat="44.1079253" lon="12.1416154"><ele>272.0</ele><time>2026-04-04T09:59:07.147Z</time></trkpt><trkpt lat="44.1080175" lon="12.1416011"><ele>272.0</ele><time>2026-04-04T09:59:09.138Z</time></trkpt><trkpt lat="44.108102" lon="12.1415851"><ele>272.0</ele><time>2026-04-04T09:59:11.14Z</time></trkpt><trkpt lat="44.1081921" lon="12.1415646"><ele>272.0</ele><time>2026-04-04T09:59:13.147Z</time></trkpt><trkpt lat="44.1082769" lon="12.1415487"><ele>272.0</ele><time>2026-04-04T09:59:15.147Z</time></trkpt><trkpt lat="44.1083564" lon="12.1415326"><ele>272.0</ele><time>2026-04-04T09:59:17.142Z</time></trkpt><trkpt lat="44.1084386" lon="12.1415173"><ele>272.0</ele><time>2026-04-04T09:59:19.143Z</time></trkpt><trkpt lat="44.1085108" lon="12.1414954"><ele>270.71428571428567</ele><time>2026-04-04T09:59:21.14Z</time></trkpt><trkpt lat="44.1085852" lon="12.1414816"><ele>269.42857142857144</ele><time>2026-04-04T09:59:23.142Z</time></trkpt><trkpt lat="44.1086658" lon="12.1414704"><ele>268.1428571428571</ele><time>2026-04-04T09:59:25.14Z</time></trkpt><trkpt lat="44.10874" lon="12.1414615"><ele>266.85714285714283</ele><time>2026-04-04T09:59:27.154Z</time></trkpt><trkpt lat="44.1088124" lon="12.1414508"><ele>265.57142857142856</ele><time>2026-04-04T09:59:29.154Z</time></trkpt><trkpt lat="44.1088826" lon="12.1414254"><ele>264.2857142857143</ele><time>2026-04-04T09:59:31.153Z</time></trkpt><trkpt lat="44.1089499" lon="12.1414228"><ele>263.0</ele><time>2026-04-04T09:59:33.158Z</time></trkpt><trkpt lat="44.1090238" lon="12.1414153"><ele>263.83333333333337</ele><time>2026-04-04T09:59:35.145Z</time></trkpt><trkpt lat="44.109105" lon="12.1414135"><ele>264.6666666666667</ele><time>2026-04-04T09:59:37.14Z</time></trkpt><trkpt lat="44.1091846" lon="12.1414127"><ele>265.5</ele><time>2026-04-04T09:59:39.145Z</time></trkpt><trkpt lat="44.1092574" lon="12.1413918"><ele>266.3333333333333</ele><time>2026-04-04T09:59:41.139Z</time></trkpt><trkpt lat="44.1093391" lon="12.1414154"><ele>267.16666666666663</ele><time>2026-04-04T09:59:43.138Z</time></trkpt><trkpt lat="44.1094268" lon="12.1414535"><ele>268.0</ele><time>2026-04-04T09:59:45.133Z</time></trkpt><trkpt lat="44.109521" lon="12.1414693"><ele>268.0</ele><time>2026-04-04T09:59:47.136Z</time></trkpt><trkpt lat="44.1096099" lon="12.1414953"><ele>268.0</ele><time>2026-04-04T09:59:49.131Z</time></trkpt><trkpt lat="44.1097059" lon="12.1415091"><ele>268.0</ele><time>2026-04-04T09:59:51.133Z</time></trkpt><trkpt lat="44.1098096" lon="12.1415349"><ele>268.0</ele><time>2026-04-04T09:59:53.135Z</time></trkpt><trkpt lat="44.1098962" lon="12.1415501"><ele>268.0</ele><time>2026-04-04T09:59:55.142Z</time></trkpt><trkpt lat="44.1099769" lon="12.1415631"><ele>269.6</ele><time>2026-04-04T09:59:57.133Z</time></trkpt><trkpt lat="44.110068" lon="12.141579"><ele>271.20000000000005</ele><time>2026-04-04T09:59:59.136Z</time></trkpt><trkpt lat="44.1101703" lon="12.1416147"><ele>272.8</ele><time>2026-04-04T10:00:01.129Z</time></trkpt><trkpt lat="44.1102772" lon="12.1416426"><ele>274.40000000000003</ele><time>2026-04-04T10:00:03.12Z</time></trkpt><trkpt lat="44.1103869" lon="12.1416513"><ele>276.0</ele><time>2026-04-04T10:00:05.128Z</time></trkpt><trkpt lat="44.1104885" lon="12.1416594"><ele>276.0</ele><time>2026-04-04T10:00:07.125Z</time></trkpt><trkpt lat="44.1105955" lon="12.1416914"><ele>276.0</ele><time>2026-04-04T10:00:09.138Z</time></trkpt><trkpt lat="44.1106971" lon="12.1417222"><ele>276.0</ele><time>2026-04-04T10:00:11.129Z</time></trkpt><trkpt lat="44.1107939" lon="12.1417619"><ele>276.0</ele><time>2026-04-04T10:00:13.126Z</time></trkpt><trkpt lat="44.1109066" lon="12.1417911"><ele>276.0</ele><time>2026-04-04T10:00:15.119Z</time></trkpt><trkpt lat="44.1110234" lon="12.1418175"><ele>276.25</ele><time>2026-04-04T10:00:17.128Z</time></trkpt><trkpt lat="44.1111336" lon="12.1418511"><ele>276.5</ele><time>2026-04-04T10:00:19.128Z</time></trkpt><trkpt lat="44.1112487" lon="12.1418738"><ele>276.75</ele><time>2026-04-04T10:00:21.138Z</time></trkpt><trkpt lat="44.1113599" lon="12.141895"><ele>277.0</ele><time>2026-04-04T10:00:23.12Z</time></trkpt><trkpt lat="44.1114752" lon="12.1419332"><ele>278.4</ele><time>2026-04-04T10:00:25.124Z</time></trkpt><trkpt lat="44.1115875" lon="12.1419601"><ele>279.79999999999995</ele><time>2026-04-04T10:00:27.125Z</time></trkpt><trkpt lat="44.1116889" lon="12.141968"><ele>281.2</ele><time>2026-04-04T10:00:29.128Z</time></trkpt><trkpt lat="44.1117893" lon="12.1419743"><ele>282.59999999999997</ele><time>2026-04-04T10:00:31.123Z</time></trkpt><trkpt lat="44.1118805" lon="12.1419557"><ele>284.0</ele><time>2026-04-04T10:00:33.13Z</time></trkpt><trkpt lat="44.111984" lon="12.1418932"><ele>284.0</ele><time>2026-04-04T10:00:35.15Z</time></trkpt><trkpt lat="44.1120758" lon="12.1418168"><ele>284.0</ele><time>2026-04-04T10:00:37.131Z</time></trkpt><trkpt lat="44.1121584" lon="12.1417509"><ele>284.0</ele><time>2026-04-04T10:00:39.131Z</time></trkpt><trkpt lat="44.1122514" lon="12.1416626"><ele>284.0</ele><time>2026-04-04T10:00:41.12Z</time></trkpt><trkpt lat="44.1123292" lon="12.1415738"><ele>284.0</ele><time>2026-04-04T10:00:43.135Z</time></trkpt><trkpt lat="44.1123994" lon="12.1414894"><ele>285.6666666666667</ele><time>2026-04-04T10:00:45.13Z</time></trkpt><trkpt lat="44.1124824" lon="12.1414368"><ele>287.33333333333337</ele><time>2026-04-04T10:00:47.131Z</time></trkpt><trkpt lat="44.1125689" lon="12.1414031"><ele>289.0</ele><time>2026-04-04T10:00:49.134Z</time></trkpt><trkpt lat="44.1126537" lon="12.1413824"><ele>290.6666666666667</ele><time>2026-04-04T10:00:51.135Z</time></trkpt><trkpt lat="44.1127416" lon="12.141368"><ele>292.3333333333333</ele><time>2026-04-04T10:00:53.135Z</time></trkpt><trkpt lat="44.1128249" lon="12.1413514"><ele>294.0</ele><time>2026-04-04T10:00:55.139Z</time></trkpt><trkpt lat="44.1128967" lon="12.1413509"><ele>294.0</ele><time>2026-04-04T10:00:57.135Z</time></trkpt><trkpt lat="44.1129651" lon="12.1413499"><ele>294.0</ele><time>2026-04-04T10:00:59.135Z</time></trkpt><trkpt lat="44.1130309" lon="12.1413677"><ele>294.0</ele><time>2026-04-04T10:01:01.137Z</time></trkpt><trkpt lat="44.113096" lon="12.1413715"><ele>294.0</ele><time>2026-04-04T10:01:03.136Z</time></trkpt><trkpt lat="44.1131698" lon="12.1413618"><ele>294.0</ele><time>2026-04-04T10:01:05.132Z</time></trkpt><trkpt lat="44.1132532" lon="12.1413612"><ele>294.0</ele><time>2026-04-04T10:01:07.131Z</time></trkpt><trkpt lat="44.1133482" lon="12.141369"><ele>293.3333333333333</ele><time>2026-04-04T10:01:09.131Z</time></trkpt><trkpt lat="44.1134415" lon="12.1413893"><ele>292.6666666666667</ele><time>2026-04-04T10:01:11.138Z</time></trkpt><trkpt lat="44.1135245" lon="12.1414088"><ele>292.0</ele><time>2026-04-04T10:01:13.133Z</time></trkpt><trkpt lat="44.1136031" lon="12.1414496"><ele>291.33333333333337</ele><time>2026-04-04T10:01:15.14Z</time></trkpt><trkpt lat="44.1136646" lon="12.1415013"><ele>290.6666666666667</ele><time>2026-04-04T10:01:17.137Z</time></trkpt><trkpt lat="44.1137302" lon="12.1415685"><ele>290.0</ele><time>2026-04-04T10:01:19.127Z</time></trkpt><trkpt lat="44.1137996" lon="12.1416335"><ele>291.33333333333337</ele><time>2026-04-04T10:01:21.129Z</time></trkpt><trkpt lat="44.1138539" lon="12.1417043"><ele>292.6666666666667</ele><time>2026-04-04T10:01:23.127Z</time></trkpt><trkpt lat="44.1139108" lon="12.1417795"><ele>294.0</ele><time>2026-04-04T10:01:25.135Z</time></trkpt><trkpt lat="44.1139791" lon="12.1418696"><ele>295.3333333333333</ele><time>2026-04-04T10:01:27.13Z</time></trkpt><trkpt lat="44.1140396" lon="12.1419366"><ele>296.66666666666663</ele><time>2026-04-04T10:01:29.135Z</time></trkpt><trkpt lat="44.1141081" lon="12.1419799"><ele>298.0</ele><time>2026-04-04T10:01:31.13Z</time></trkpt><trkpt lat="44.1141827" lon="12.1420457"><ele>298.0</ele><time>2026-04-04T10:01:33.128Z</time></trkpt><trkpt lat="44.1142427" lon="12.1421108"><ele>298.0</ele><time>2026-04-04T10:01:35.13Z</time></trkpt><trkpt lat="44.1143141" lon="12.142171"><ele>298.0</ele><time>2026-04-04T10:01:37.105Z</time></trkpt><trkpt lat="44.1143806" lon="12.1422304"><ele>298.0</ele><time>2026-04-04T10:01:39.088Z</time></trkpt><trkpt lat="44.1144378" lon="12.1422918"><ele>298.0</ele><time>2026-04-04T10:01:41.133Z</time></trkpt><trkpt lat="44.1144959" lon="12.1423361"><ele>298.0</ele><time>2026-04-04T10:01:43.128Z</time></trkpt><trkpt lat="44.1145772" lon="12.1423953"><ele>298.0</ele><time>2026-04-04T10:01:46.144Z</time></trkpt><trkpt lat="44.1146373" lon="12.1423209"><ele>298.0</ele><time>2026-04-04T10:01:49.131Z</time></trkpt><trkpt lat="44.1146537" lon="12.14222"><ele>298.0</ele><time>2026-04-04T10:01:51.127Z</time></trkpt><trkpt lat="44.1146653" lon="12.1420965"><ele>298.0</ele><time>2026-04-04T10:01:53.135Z</time></trkpt><trkpt lat="44.114652" lon="12.1419572"><ele>298.0</ele><time>2026-04-04T10:01:55.136Z</time></trkpt><trkpt lat="44.1146417" lon="12.1418657"><ele>298.0</ele><time>2026-04-04T10:01:56.144Z</time></trkpt><trkpt lat="44.1146365" lon="12.1417735"><ele>298.0</ele><time>2026-04-04T10:01:57.137Z</time></trkpt><trkpt lat="44.1146425" lon="12.1416708"><ele>298.0</ele><time>2026-04-04T10:01:58.125Z</time></trkpt><trkpt lat="44.1146605" lon="12.1415562"><ele>298.0</ele><time>2026-04-04T10:01:59.124Z</time></trkpt><trkpt lat="44.1146918" lon="12.1414367"><ele>298.0</ele><time>2026-04-04T10:02:00.11Z</time></trkpt><trkpt lat="44.1147264" lon="12.1413144"><ele>298.0</ele><time>2026-04-04T10:02:01.124Z</time></trkpt><trkpt lat="44.1147569" lon="12.1411867"><ele>298.0</ele><time>2026-04-04T10:02:02.118Z</time></trkpt><trkpt lat="44.1147735" lon="12.1410582"><ele>296.8</ele><time>2026-04-04T10:02:03.111Z</time></trkpt><trkpt lat="44.1147688" lon="12.1409255"><ele>295.6</ele><time>2026-04-04T10:02:04.108Z</time></trkpt><trkpt lat="44.1147508" lon="12.1407974"><ele>294.4</ele><time>2026-04-04T10:02:05.119Z</time></trkpt><trkpt lat="44.1147336" lon="12.1406733"><ele>293.2</ele><time>2026-04-04T10:02:06.109Z</time></trkpt><trkpt lat="44.1147101" lon="12.1405489"><ele>292.0</ele><time>2026-04-04T10:02:07.112Z</time></trkpt><trkpt lat="44.1147004" lon="12.1404328"><ele>290.8333333333333</ele><time>2026-04-04T10:02:08.132Z</time></trkpt><trkpt lat="44.1147122" lon="12.1403153"><ele>289.66666666666663</ele><time>2026-04-04T10:02:09.109Z</time></trkpt><trkpt lat="44.1147518" lon="12.1402073"><ele>288.5</ele><time>2026-04-04T10:02:10.115Z</time></trkpt><trkpt lat="44.11481" lon="12.1401183"><ele>287.3333333333333</ele><time>2026-04-04T10:02:11.105Z</time></trkpt><trkpt lat="44.1148804" lon="12.1400505"><ele>286.1666666666667</ele><time>2026-04-04T10:02:12.114Z</time></trkpt><trkpt lat="44.1149454" lon="12.1399828"><ele>285.0</ele><time>2026-04-04T10:02:13.101Z</time></trkpt><trkpt lat="44.1150027" lon="12.1399287"><ele>285.5</ele><time>2026-04-04T10:02:14.104Z</time></trkpt><trkpt lat="44.1150557" lon="12.1398757"><ele>286.0</ele><time>2026-04-04T10:02:15.106Z</time></trkpt><trkpt lat="44.1151542" lon="12.1397802"><ele>286.5</ele><time>2026-04-04T10:02:17.111Z</time></trkpt><trkpt lat="44.1152083" lon="12.1397222"><ele>287.0</ele><time>2026-04-04T10:02:18.113Z</time></trkpt><trkpt lat="44.1152653" lon="12.1396689"><ele>287.5</ele><time>2026-04-04T10:02:19.12Z</time></trkpt><trkpt lat="44.1153194" lon="12.1396188"><ele>288.0</ele><time>2026-04-04T10:02:20.109Z</time></trkpt><trkpt lat="44.1154174" lon="12.1395259"><ele>288.0</ele><time>2026-04-04T10:02:22.116Z</time></trkpt><trkpt lat="44.1155148" lon="12.1394328"><ele>288.0</ele><time>2026-04-04T10:02:24.113Z</time></trkpt><trkpt lat="44.1156131" lon="12.139335"><ele>288.0</ele><time>2026-04-04T10:02:26.127Z</time></trkpt><trkpt lat="44.1156886" lon="12.1392162"><ele>288.0</ele><time>2026-04-04T10:02:28.124Z</time></trkpt><trkpt lat="44.1157493" lon="12.1391003"><ele>288.3333333333333</ele><time>2026-04-04T10:02:30.12Z</time></trkpt><trkpt lat="44.1158177" lon="12.1389718"><ele>288.6666666666667</ele><time>2026-04-04T10:02:32.129Z</time></trkpt><trkpt lat="44.1158629" lon="12.138815"><ele>289.0</ele><time>2026-04-04T10:02:34.124Z</time></trkpt><trkpt lat="44.1158759" lon="12.1387269"><ele>289.33333333333337</ele><time>2026-04-04T10:02:35.124Z</time></trkpt><trkpt lat="44.1158851" lon="12.1386394"><ele>289.6666666666667</ele><time>2026-04-04T10:02:36.126Z</time></trkpt><trkpt lat="44.115884" lon="12.1385473"><ele>290.0</ele><time>2026-04-04T10:02:37.127Z</time></trkpt><trkpt lat="44.1158843" lon="12.1384349"><ele>290.0</ele><time>2026-04-04T10:02:38.123Z</time></trkpt><trkpt lat="44.1158889" lon="12.1383241"><ele>290.0</ele><time>2026-04-04T10:02:39.145Z</time></trkpt><trkpt lat="44.1159006" lon="12.1382077"><ele>290.0</ele><time>2026-04-04T10:02:40.121Z</time></trkpt><trkpt lat="44.115904" lon="12.1380757"><ele>290.0</ele><time>2026-04-04T10:02:41.113Z</time></trkpt><trkpt lat="44.1159005" lon="12.1379348"><ele>290.0</ele><time>2026-04-04T10:02:42.12Z</time></trkpt><trkpt lat="44.1158977" lon="12.13779"><ele>287.75</ele><time>2026-04-04T10:02:43.125Z</time></trkpt><trkpt lat="44.1158994" lon="12.1376256"><ele>285.5</ele><time>2026-04-04T10:02:44.115Z</time></trkpt><trkpt lat="44.1158979" lon="12.1374594"><ele>283.25</ele><time>2026-04-04T10:02:45.123Z</time></trkpt><trkpt lat="44.1158922" lon="12.1372874"><ele>281.0</ele><time>2026-04-04T10:02:46.107Z</time></trkpt><trkpt lat="44.1158813" lon="12.137121"><ele>279.25</ele><time>2026-04-04T10:02:47.125Z</time></trkpt><trkpt lat="44.1158639" lon="12.1369589"><ele>277.5</ele><time>2026-04-04T10:02:48.113Z</time></trkpt><trkpt lat="44.115852" lon="12.1367943"><ele>275.75</ele><time>2026-04-04T10:02:49.12Z</time></trkpt><trkpt lat="44.1158377" lon="12.1366366"><ele>274.0</ele><time>2026-04-04T10:02:50.114Z</time></trkpt><trkpt lat="44.1158306" lon="12.1364834"><ele>273.2</ele><time>2026-04-04T10:02:51.116Z</time></trkpt><trkpt lat="44.1158296" lon="12.1363374"><ele>272.4</ele><time>2026-04-04T10:02:52.107Z</time></trkpt><trkpt lat="44.1158297" lon="12.1361894"><ele>271.6</ele><time>2026-04-04T10:02:53.103Z</time></trkpt><trkpt lat="44.1158468" lon="12.1360366"><ele>270.8</ele><time>2026-04-04T10:02:54.104Z</time></trkpt><trkpt lat="44.1158675" lon="12.1358867"><ele>270.0</ele><time>2026-04-04T10:02:55.118Z</time></trkpt><trkpt lat="44.1158926" lon="12.1357443"><ele>269.3333333333333</ele><time>2026-04-04T10:02:56.114Z</time></trkpt><trkpt lat="44.1159155" lon="12.1356197"><ele>268.6666666666667</ele><time>2026-04-04T10:02:57.124Z</time></trkpt><trkpt lat="44.1159455" lon="12.1355029"><ele>268.0</ele><time>2026-04-04T10:02:58.117Z</time></trkpt><trkpt lat="44.1159854" lon="12.1353969"><ele>267.33333333333337</ele><time>2026-04-04T10:02:59.116Z</time></trkpt><trkpt lat="44.1160317" lon="12.1352947"><ele>266.6666666666667</ele><time>2026-04-04T10:03:00.119Z</time></trkpt><trkpt lat="44.116077" lon="12.1352042"><ele>266.0</ele><time>2026-04-04T10:03:01.118Z</time></trkpt><trkpt lat="44.1161152" lon="12.1351179"><ele>266.0</ele><time>2026-04-04T10:03:02.126Z</time></trkpt><trkpt lat="44.1161478" lon="12.1350249"><ele>266.0</ele><time>2026-04-04T10:03:03.113Z</time></trkpt><trkpt lat="44.1161795" lon="12.1349342"><ele>266.0</ele><time>2026-04-04T10:03:04.114Z</time></trkpt><trkpt lat="44.1162172" lon="12.134862"><ele>266.0</ele><time>2026-04-04T10:03:05.112Z</time></trkpt><trkpt lat="44.1162567" lon="12.1347918"><ele>266.0</ele><time>2026-04-04T10:03:06.118Z</time></trkpt><trkpt lat="44.1163258" lon="12.1346525"><ele>266.0</ele><time>2026-04-04T10:03:08.111Z</time></trkpt><trkpt lat="44.1164076" lon="12.1345244"><ele>264.8</ele><time>2026-04-04T10:03:10.142Z</time></trkpt><trkpt lat="44.1164855" lon="12.1343981"><ele>263.6</ele><time>2026-04-04T10:03:12.123Z</time></trkpt><trkpt lat="44.1165609" lon="12.1342808"><ele>262.4</ele><time>2026-04-04T10:03:14.123Z</time></trkpt><trkpt lat="44.1166332" lon="12.1341657"><ele>261.2</ele><time>2026-04-04T10:03:16.124Z</time></trkpt><trkpt lat="44.1166987" lon="12.1340558"><ele>260.0</ele><time>2026-04-04T10:03:18.117Z</time></trkpt><trkpt lat="44.1167621" lon="12.1339323"><ele>262.6666666666667</ele><time>2026-04-04T10:03:20.116Z</time></trkpt><trkpt lat="44.1168211" lon="12.1338225"><ele>265.33333333333337</ele><time>2026-04-04T10:03:22.126Z</time></trkpt><trkpt lat="44.1168791" lon="12.133722"><ele>268.0</ele><time>2026-04-04T10:03:24.128Z</time></trkpt><trkpt lat="44.1169464" lon="12.1336265"><ele>270.6666666666667</ele><time>2026-04-04T10:03:26.124Z</time></trkpt><trkpt lat="44.1169876" lon="12.1335597"><ele>273.3333333333333</ele><time>2026-04-04T10:03:27.125Z</time></trkpt><trkpt lat="44.117041" lon="12.133485"><ele>276.0</ele><time>2026-04-04T10:03:28.12Z</time></trkpt><trkpt lat="44.1170791" lon="12.1334085"><ele>276.0</ele><time>2026-04-04T10:03:29.123Z</time></trkpt><trkpt lat="44.1171223" lon="12.1333275"><ele>276.0</ele><time>2026-04-04T10:03:30.12Z</time></trkpt><trkpt lat="44.1171725" lon="12.1332494"><ele>276.0</ele><time>2026-04-04T10:03:31.122Z</time></trkpt><trkpt lat="44.1172282" lon="12.1331756"><ele>276.0</ele><time>2026-04-04T10:03:32.116Z</time></trkpt><trkpt lat="44.1172828" lon="12.1330981"><ele>276.0</ele><time>2026-04-04T10:03:33.119Z</time></trkpt><trkpt lat="44.1173352" lon="12.1330072"><ele>276.0</ele><time>2026-04-04T10:03:34.121Z</time></trkpt><trkpt lat="44.117386" lon="12.1329218"><ele>276.0</ele><time>2026-04-04T10:03:35.121Z</time></trkpt><trkpt lat="44.1174412" lon="12.1328335"><ele>276.0</ele><time>2026-04-04T10:03:36.122Z</time></trkpt><trkpt lat="44.1174953" lon="12.1327476"><ele>276.0</ele><time>2026-04-04T10:03:37.118Z</time></trkpt><trkpt lat="44.1175462" lon="12.1326599"><ele>276.0</ele><time>2026-04-04T10:03:38.117Z</time></trkpt><trkpt lat="44.1175987" lon="12.1325826"><ele>276.0</ele><time>2026-04-04T10:03:39.115Z</time></trkpt><trkpt lat="44.117649" lon="12.1325187"><ele>276.0</ele><time>2026-04-04T10:03:40.138Z</time></trkpt><trkpt lat="44.1176939" lon="12.1324485"><ele>274.6666666666667</ele><time>2026-04-04T10:03:41.124Z</time></trkpt><trkpt lat="44.1177442" lon="12.1323875"><ele>273.3333333333333</ele><time>2026-04-04T10:03:42.119Z</time></trkpt><trkpt lat="44.1178274" lon="12.1322935"><ele>272.0</ele><time>2026-04-04T10:03:44.113Z</time></trkpt><trkpt lat="44.1178826" lon="12.1322488"><ele>270.66666666666663</ele><time>2026-04-04T10:04:52.136Z</time></trkpt><trkpt lat="44.1179382" lon="12.1322018"><ele>269.3333333333333</ele><time>2026-04-04T10:04:55.126Z</time></trkpt><trkpt lat="44.1180177" lon="12.1321469"><ele>268.0</ele><time>2026-04-04T10:04:58.115Z</time></trkpt><trkpt lat="44.11811" lon="12.1321076"><ele>268.0</ele><time>2026-04-04T10:05:01.118Z</time></trkpt><trkpt lat="44.1181858" lon="12.1320731"><ele>268.0</ele><time>2026-04-04T10:05:04.125Z</time></trkpt><trkpt lat="44.1182748" lon="12.132049"><ele>268.0</ele><time>2026-04-04T10:05:07.129Z</time></trkpt><trkpt lat="44.1183503" lon="12.1320749"><ele>268.0</ele><time>2026-04-04T10:05:09.128Z</time></trkpt><trkpt lat="44.1184525" lon="12.1320789"><ele>268.0</ele><time>2026-04-04T10:05:12.126Z</time></trkpt><trkpt lat="44.1185385" lon="12.1320794"><ele>268.0</ele><time>2026-04-04T10:05:14.117Z</time></trkpt><trkpt lat="44.118637" lon="12.1320874"><ele>268.2</ele><time>2026-04-04T10:05:16.11Z</time></trkpt><trkpt lat="44.1187234" lon="12.1320759"><ele>268.4</ele><time>2026-04-04T10:05:18.107Z</time></trkpt><trkpt lat="44.1188326" lon="12.1320455"><ele>268.59999999999997</ele><time>2026-04-04T10:05:20.107Z</time></trkpt><trkpt lat="44.1189324" lon="12.1320152"><ele>268.8</ele><time>2026-04-04T10:05:22.112Z</time></trkpt><trkpt lat="44.1190202" lon="12.1319297"><ele>269.0</ele><time>2026-04-04T10:05:24.109Z</time></trkpt><trkpt lat="44.1190925" lon="12.1318844"><ele>269.0</ele><time>2026-04-04T10:05:27.111Z</time></trkpt><trkpt lat="44.1191582" lon="12.1319234"><ele>269.0</ele><time>2026-04-04T10:05:29.116Z</time></trkpt><trkpt lat="44.119258" lon="12.1319145"><ele>269.0</ele><time>2026-04-04T10:05:31.107Z</time></trkpt><trkpt lat="44.1193661" lon="12.1318824"><ele>269.0</ele><time>2026-04-04T10:05:33.102Z</time></trkpt><trkpt lat="44.1194729" lon="12.1318275"><ele>269.0</ele><time>2026-04-04T10:05:35.107Z</time></trkpt><trkpt lat="44.1195709" lon="12.1317823"><ele>269.0</ele><time>2026-04-04T10:05:37.101Z</time></trkpt><trkpt lat="44.1196685" lon="12.1317373"><ele>269.0</ele><time>2026-04-04T10:05:39.104Z</time></trkpt><trkpt lat="44.1197745" lon="12.1316871"><ele>269.0</ele><time>2026-04-04T10:05:41.106Z</time></trkpt><trkpt lat="44.1198778" lon="12.1316645"><ele>269.0</ele><time>2026-04-04T10:05:43.108Z</time></trkpt><trkpt lat="44.1199883" lon="12.1316547"><ele>269.0</ele><time>2026-04-04T10:05:45.112Z</time></trkpt><trkpt lat="44.1201031" lon="12.1316895"><ele>268.5</ele><time>2026-04-04T10:05:47.115Z</time></trkpt><trkpt lat="44.1201985" lon="12.1317677"><ele>268.0</ele><time>2026-04-04T10:05:49.115Z</time></trkpt><trkpt lat="44.1202958" lon="12.1318596"><ele>267.5</ele><time>2026-04-04T10:05:51.121Z</time></trkpt><trkpt lat="44.1203539" lon="12.1319153"><ele>267.0</ele><time>2026-04-04T10:05:52.118Z</time></trkpt><trkpt lat="44.1204113" lon="12.1319722"><ele>266.5</ele><time>2026-04-04T10:05:53.12Z</time></trkpt><trkpt lat="44.1204711" lon="12.1320243"><ele>266.0</ele><time>2026-04-04T10:05:54.115Z</time></trkpt><trkpt lat="44.1205388" lon="12.1320859"><ele>266.0</ele><time>2026-04-04T10:05:55.115Z</time></trkpt><trkpt lat="44.1206174" lon="12.1321549"><ele>266.0</ele><time>2026-04-04T10:05:56.111Z</time></trkpt><trkpt lat="44.1207" lon="12.1322292"><ele>266.0</ele><time>2026-04-04T10:05:57.11Z</time></trkpt><trkpt lat="44.1207906" lon="12.1323021"><ele>266.0</ele><time>2026-04-04T10:05:58.108Z</time></trkpt><trkpt lat="44.1208811" lon="12.1323696"><ele>266.0</ele><time>2026-04-04T10:05:59.112Z</time></trkpt><trkpt lat="44.1209795" lon="12.1324372"><ele>264.40000000000003</ele><time>2026-04-04T10:06:00.115Z</time></trkpt><trkpt lat="44.1210802" lon="12.1324969"><ele>262.8</ele><time>2026-04-04T10:06:01.11Z</time></trkpt><trkpt lat="44.1211909" lon="12.1325441"><ele>261.20000000000005</ele><time>2026-04-04T10:06:02.122Z</time></trkpt><trkpt lat="44.1213001" lon="12.1325641"><ele>259.6</ele><time>2026-04-04T10:06:03.118Z</time></trkpt><trkpt lat="44.1214096" lon="12.1325725"><ele>258.0</ele><time>2026-04-04T10:06:04.119Z</time></trkpt><trkpt lat="44.1215173" lon="12.1325911"><ele>256.6</ele><time>2026-04-04T10:06:05.112Z</time></trkpt><trkpt lat="44.1216262" lon="12.1326067"><ele>255.20000000000002</ele><time>2026-04-04T10:06:06.113Z</time></trkpt><trkpt lat="44.1217222" lon="12.1326153"><ele>253.8</ele><time>2026-04-04T10:06:07.118Z</time></trkpt><trkpt lat="44.1218122" lon="12.1326222"><ele>252.4</ele><time>2026-04-04T10:06:08.114Z</time></trkpt><trkpt lat="44.121905" lon="12.1326125"><ele>251.0</ele><time>2026-04-04T10:06:09.112Z</time></trkpt><trkpt lat="44.1219887" lon="12.132588"><ele>251.00000000000003</ele><time>2026-04-04T10:06:10.115Z</time></trkpt><trkpt lat="44.1220682" lon="12.1325516"><ele>251.0</ele><time>2026-04-04T10:06:11.113Z</time></trkpt><trkpt lat="44.1221358" lon="12.1325045"><ele>251.0</ele><time>2026-04-04T10:06:12.116Z</time></trkpt><trkpt lat="44.1222013" lon="12.1324545"><ele>251.0</ele><time>2026-04-04T10:06:13.107Z</time></trkpt><trkpt lat="44.1222587" lon="12.13241"><ele>251.00000000000003</ele><time>2026-04-04T10:06:14.114Z</time></trkpt><trkpt lat="44.1223634" lon="12.1323324"><ele>251.0</ele><time>2026-04-04T10:06:16.113Z</time></trkpt><trkpt lat="44.1224178" lon="12.1322847"><ele>250.5</ele><time>2026-04-04T10:06:17.121Z</time></trkpt><trkpt lat="44.1225153" lon="12.1321999"><ele>250.0</ele><time>2026-04-04T10:06:19.113Z</time></trkpt><trkpt lat="44.1226187" lon="12.1321182"><ele>249.5</ele><time>2026-04-04T10:06:21.115Z</time></trkpt><trkpt lat="44.1227183" lon="12.1320349"><ele>249.0</ele><time>2026-04-04T10:06:23.119Z</time></trkpt><trkpt lat="44.1228276" lon="12.1319749"><ele>249.0</ele><time>2026-04-04T10:06:25.114Z</time></trkpt><trkpt lat="44.1229277" lon="12.1318927"><ele>248.99999999999997</ele><time>2026-04-04T10:06:27.112Z</time></trkpt><trkpt lat="44.1230284" lon="12.131833"><ele>248.99999999999997</ele><time>2026-04-04T10:06:29.104Z</time></trkpt><trkpt lat="44.1231512" lon="12.1317465"><ele>249.0</ele><time>2026-04-04T10:06:31.11Z</time></trkpt><trkpt lat="44.1232239" lon="12.131715"><ele>249.0</ele><time>2026-04-04T10:06:32.114Z</time></trkpt><trkpt lat="44.1233066" lon="12.1316723"><ele>250.39999999999998</ele><time>2026-04-04T10:06:33.108Z</time></trkpt><trkpt lat="44.1234017" lon="12.1316309"><ele>251.79999999999998</ele><time>2026-04-04T10:06:34.108Z</time></trkpt><trkpt lat="44.1234999" lon="12.131594"><ele>253.20000000000002</ele><time>2026-04-04T10:06:35.11Z</time></trkpt><trkpt lat="44.1235996" lon="12.1315653"><ele>254.60000000000002</ele><time>2026-04-04T10:06:36.114Z</time></trkpt><trkpt lat="44.1237065" lon="12.1315349"><ele>256.0</ele><time>2026-04-04T10:06:37.113Z</time></trkpt><trkpt lat="44.1238183" lon="12.1315031"><ele>252.8</ele><time>2026-04-04T10:06:38.106Z</time></trkpt><trkpt lat="44.1239237" lon="12.131477"><ele>249.60000000000002</ele><time>2026-04-04T10:06:39.113Z</time></trkpt><trkpt lat="44.1240297" lon="12.1314508"><ele>246.4</ele><time>2026-04-04T10:06:40.113Z</time></trkpt><trkpt lat="44.1241393" lon="12.1314123"><ele>243.2</ele><time>2026-04-04T10:06:41.12Z</time></trkpt><trkpt lat="44.1242524" lon="12.1313768"><ele>240.0</ele><time>2026-04-04T10:06:42.114Z</time></trkpt><trkpt lat="44.124356" lon="12.1313342"><ele>240.0</ele><time>2026-04-04T10:06:43.114Z</time></trkpt><trkpt lat="44.1244651" lon="12.1312907"><ele>240.0</ele><time>2026-04-04T10:06:44.117Z</time></trkpt><trkpt lat="44.1245641" lon="12.1312558"><ele>240.0</ele><time>2026-04-04T10:06:45.117Z</time></trkpt><trkpt lat="44.1246644" lon="12.131221"><ele>240.0</ele><time>2026-04-04T10:06:46.133Z</time></trkpt><trkpt lat="44.1247631" lon="12.1311886"><ele>240.0</ele><time>2026-04-04T10:06:47.121Z</time></trkpt><trkpt lat="44.1248649" lon="12.1311579"><ele>240.0</ele><time>2026-04-04T10:06:48.12Z</time></trkpt><trkpt lat="44.1249583" lon="12.131126"><ele>240.0</ele><time>2026-04-04T10:06:49.124Z</time></trkpt><trkpt lat="44.1250624" lon="12.13109"><ele>240.0</ele><time>2026-04-04T10:06:50.124Z</time></trkpt><trkpt lat="44.125159" lon="12.131054"><ele>240.0</ele><time>2026-04-04T10:06:51.126Z</time></trkpt><trkpt lat="44.1252446" lon="12.1310378"><ele>240.0</ele><time>2026-04-04T10:06:52.124Z</time></trkpt><trkpt lat="44.1253242" lon="12.1310156"><ele>240.0</ele><time>2026-04-04T10:06:53.126Z</time></trkpt><trkpt lat="44.1254007" lon="12.1309901"><ele>240.0</ele><time>2026-04-04T10:06:54.125Z</time></trkpt><trkpt lat="44.1254717" lon="12.1309712"><ele>240.0</ele><time>2026-04-04T10:06:55.124Z</time></trkpt><trkpt lat="44.1255344" lon="12.130956"><ele>240.0</ele><time>2026-04-04T10:06:56.131Z</time></trkpt><trkpt lat="44.1256457" lon="12.1309341"><ele>240.0</ele><time>2026-04-04T10:06:58.111Z</time></trkpt><trkpt lat="44.1257581" lon="12.1309058"><ele>240.0</ele><time>2026-04-04T10:07:00.118Z</time></trkpt><trkpt lat="44.1258698" lon="12.1308679"><ele>241.2</ele><time>2026-04-04T10:07:02.118Z</time></trkpt><trkpt lat="44.1259868" lon="12.1308429"><ele>242.4</ele><time>2026-04-04T10:07:04.115Z</time></trkpt><trkpt lat="44.1261056" lon="12.1308211"><ele>243.60000000000002</ele><time>2026-04-04T10:07:06.119Z</time></trkpt><trkpt lat="44.1261697" lon="12.1308066"><ele>244.8</ele><time>2026-04-04T10:07:07.123Z</time></trkpt><trkpt lat="44.1262777" lon="12.130778"><ele>246.0</ele><time>2026-04-04T10:07:09.113Z</time></trkpt><trkpt lat="44.126378" lon="12.1307273"><ele>246.0</ele><time>2026-04-04T10:07:11.114Z</time></trkpt><trkpt lat="44.1264809" lon="12.130625"><ele>246.00000000000003</ele><time>2026-04-04T10:07:13.117Z</time></trkpt><trkpt lat="44.1265721" lon="12.1305327"><ele>246.00000000000003</ele><time>2026-04-04T10:07:15.121Z</time></trkpt><trkpt lat="44.1266282" lon="12.1304777"><ele>246.0</ele><time>2026-04-04T10:07:16.116Z</time></trkpt><trkpt lat="44.1266843" lon="12.1304263"><ele>246.0</ele><time>2026-04-04T10:07:17.13Z</time></trkpt><trkpt lat="44.1267427" lon="12.1303534"><ele>246.0</ele><time>2026-04-04T10:07:18.118Z</time></trkpt><trkpt lat="44.1268039" lon="12.1302768"><ele>246.00000000000003</ele><time>2026-04-04T10:07:19.122Z</time></trkpt><trkpt lat="44.1268693" lon="12.1302024"><ele>246.00000000000003</ele><time>2026-04-04T10:07:20.117Z</time></trkpt><trkpt lat="44.1269376" lon="12.1301105"><ele>246.0</ele><time>2026-04-04T10:07:21.12Z</time></trkpt><trkpt lat="44.1270107" lon="12.1300301"><ele>246.0</ele><time>2026-04-04T10:07:22.115Z</time></trkpt><trkpt lat="44.1270848" lon="12.1299353"><ele>244.60000000000002</ele><time>2026-04-04T10:07:23.12Z</time></trkpt><trkpt lat="44.1271557" lon="12.1298358"><ele>243.20000000000002</ele><time>2026-04-04T10:07:24.116Z</time></trkpt><trkpt lat="44.1272316" lon="12.1297444"><ele>241.79999999999998</ele><time>2026-04-04T10:07:25.122Z</time></trkpt><trkpt lat="44.1273047" lon="12.1296424"><ele>240.39999999999998</ele><time>2026-04-04T10:07:26.114Z</time></trkpt><trkpt lat="44.127382" lon="12.1295459"><ele>239.0</ele><time>2026-04-04T10:07:27.12Z</time></trkpt><trkpt lat="44.1274605" lon="12.1294376"><ele>238.0</ele><time>2026-04-04T10:07:28.113Z</time></trkpt><trkpt lat="44.1275409" lon="12.1293309"><ele>237.0</ele><time>2026-04-04T10:07:29.114Z</time></trkpt><trkpt lat="44.1276311" lon="12.129226"><ele>236.0</ele><time>2026-04-04T10:07:30.113Z</time></trkpt><trkpt lat="44.1277241" lon="12.1291416"><ele>235.0</ele><time>2026-04-04T10:07:31.109Z</time></trkpt><trkpt lat="44.1278334" lon="12.1290784"><ele>233.6</ele><time>2026-04-04T10:07:32.114Z</time></trkpt><trkpt lat="44.127947" lon="12.1290352"><ele>232.2</ele><time>2026-04-04T10:07:33.109Z</time></trkpt><trkpt lat="44.1280584" lon="12.1290194"><ele>230.8</ele><time>2026-04-04T10:07:34.108Z</time></trkpt><trkpt lat="44.128151" lon="12.1289849"><ele>229.4</ele><time>2026-04-04T10:07:35.109Z</time></trkpt><trkpt lat="44.128242" lon="12.1289332"><ele>228.0</ele><time>2026-04-04T10:07:36.118Z</time></trkpt><trkpt lat="44.1283011" lon="12.1288501"><ele>226.8</ele><time>2026-04-04T10:07:37.114Z</time></trkpt><trkpt lat="44.1283299" lon="12.1287202"><ele>225.60000000000002</ele><time>2026-04-04T10:07:38.106Z</time></trkpt><trkpt lat="44.1283446" lon="12.1285866"><ele>224.39999999999998</ele><time>2026-04-04T10:07:39.111Z</time></trkpt><trkpt lat="44.1283352" lon="12.1284455"><ele>223.2</ele><time>2026-04-04T10:07:40.114Z</time></trkpt><trkpt lat="44.1283302" lon="12.1282972"><ele>222.0</ele><time>2026-04-04T10:07:41.11Z</time></trkpt><trkpt lat="44.1283223" lon="12.1281494"><ele>220.5</ele><time>2026-04-04T10:07:42.116Z</time></trkpt><trkpt lat="44.1283278" lon="12.1279872"><ele>219.0</ele><time>2026-04-04T10:07:43.108Z</time></trkpt><trkpt lat="44.1283454" lon="12.1278117"><ele>217.5</ele><time>2026-04-04T10:07:44.114Z</time></trkpt><trkpt lat="44.1283734" lon="12.1276499"><ele>216.0</ele><time>2026-04-04T10:07:45.116Z</time></trkpt><trkpt lat="44.128417" lon="12.1275013"><ele>214.4</ele><time>2026-04-04T10:07:46.112Z</time></trkpt><trkpt lat="44.1284693" lon="12.1273661"><ele>212.8</ele><time>2026-04-04T10:07:47.118Z</time></trkpt><trkpt lat="44.1285391" lon="12.1272387"><ele>211.20000000000002</ele><time>2026-04-04T10:07:48.148Z</time></trkpt><trkpt lat="44.1286036" lon="12.1271131"><ele>209.60000000000002</ele><time>2026-04-04T10:07:49.116Z</time></trkpt><trkpt lat="44.1286663" lon="12.1269916"><ele>208.0</ele><time>2026-04-04T10:07:50.122Z</time></trkpt><trkpt lat="44.1287289" lon="12.1268704"><ele>207.99999999999997</ele><time>2026-04-04T10:07:51.115Z</time></trkpt><trkpt lat="44.1287842" lon="12.1267598"><ele>208.0</ele><time>2026-04-04T10:07:52.116Z</time></trkpt><trkpt lat="44.1288375" lon="12.126659"><ele>208.0</ele><time>2026-04-04T10:07:53.118Z</time></trkpt><trkpt lat="44.1288859" lon="12.1265607"><ele>208.0</ele><time>2026-04-04T10:07:54.115Z</time></trkpt><trkpt lat="44.128926" lon="12.126457"><ele>207.99999999999997</ele><time>2026-04-04T10:07:55.12Z</time></trkpt><trkpt lat="44.1289686" lon="12.1263658"><ele>208.0</ele><time>2026-04-04T10:07:56.115Z</time></trkpt><trkpt lat="44.1290112" lon="12.1262776"><ele>207.33333333333331</ele><time>2026-04-04T10:07:57.118Z</time></trkpt><trkpt lat="44.1290531" lon="12.1261961"><ele>206.66666666666666</ele><time>2026-04-04T10:07:58.119Z</time></trkpt><trkpt lat="44.1290854" lon="12.1261181"><ele>206.0</ele><time>2026-04-04T10:07:59.118Z</time></trkpt><trkpt lat="44.1291273" lon="12.1260401"><ele>205.33333333333331</ele><time>2026-04-04T10:08:00.123Z</time></trkpt><trkpt lat="44.1291617" lon="12.1259634"><ele>204.66666666666666</ele><time>2026-04-04T10:08:01.118Z</time></trkpt><trkpt lat="44.1291944" lon="12.1258873"><ele>204.0</ele><time>2026-04-04T10:08:02.118Z</time></trkpt><trkpt lat="44.1292697" lon="12.1257539"><ele>207.2</ele><time>2026-04-04T10:08:04.113Z</time></trkpt><trkpt lat="44.1293355" lon="12.1256013"><ele>210.39999999999998</ele><time>2026-04-04T10:08:06.112Z</time></trkpt><trkpt lat="44.1293684" lon="12.1255261"><ele>213.6</ele><time>2026-04-04T10:08:07.117Z</time></trkpt><trkpt lat="44.1294036" lon="12.1254429"><ele>216.8</ele><time>2026-04-04T10:08:08.113Z</time></trkpt><trkpt lat="44.1294395" lon="12.1253593"><ele>220.0</ele><time>2026-04-04T10:08:09.109Z</time></trkpt><trkpt lat="44.129499" lon="12.1252064"><ele>219.99999999999997</ele><time>2026-04-04T10:08:11.114Z</time></trkpt><trkpt lat="44.1295849" lon="12.1250673"><ele>220.0</ele><time>2026-04-04T10:08:13.116Z</time></trkpt><trkpt lat="44.1296403" lon="12.1249909"><ele>220.0</ele><time>2026-04-04T10:08:14.117Z</time></trkpt><trkpt lat="44.1296969" lon="12.1249197"><ele>220.0</ele><time>2026-04-04T10:08:15.117Z</time></trkpt><trkpt lat="44.1297653" lon="12.124858"><ele>219.99999999999997</ele><time>2026-04-04T10:08:16.111Z</time></trkpt><trkpt lat="44.1298385" lon="12.1248076"><ele>220.0</ele><time>2026-04-04T10:08:17.114Z</time></trkpt><trkpt lat="44.1299185" lon="12.1247625"><ele>217.66666666666666</ele><time>2026-04-04T10:08:18.129Z</time></trkpt><trkpt lat="44.1299967" lon="12.124724"><ele>215.33333333333331</ele><time>2026-04-04T10:08:19.112Z</time></trkpt><trkpt lat="44.1300732" lon="12.1246904"><ele>213.0</ele><time>2026-04-04T10:08:20.119Z</time></trkpt><trkpt lat="44.1301524" lon="12.1246571"><ele>210.66666666666669</ele><time>2026-04-04T10:08:21.111Z</time></trkpt><trkpt lat="44.1302279" lon="12.1246189"><ele>208.33333333333334</ele><time>2026-04-04T10:08:22.11Z</time></trkpt><trkpt lat="44.130299" lon="12.1245928"><ele>206.0</ele><time>2026-04-04T10:08:23.112Z</time></trkpt><trkpt lat="44.1303746" lon="12.1245454"><ele>206.00000000000003</ele><time>2026-04-04T10:08:24.108Z</time></trkpt><trkpt lat="44.1304441" lon="12.1245085"><ele>206.0</ele><time>2026-04-04T10:08:25.115Z</time></trkpt><trkpt lat="44.1305177" lon="12.1244845"><ele>206.0</ele><time>2026-04-04T10:08:26.109Z</time></trkpt><trkpt lat="44.1305906" lon="12.1244586"><ele>206.0</ele><time>2026-04-04T10:08:27.11Z</time></trkpt><trkpt lat="44.1306675" lon="12.1244357"><ele>206.00000000000003</ele><time>2026-04-04T10:08:28.107Z</time></trkpt><trkpt lat="44.1307451" lon="12.1244169"><ele>206.0</ele><time>2026-04-04T10:08:29.11Z</time></trkpt><trkpt lat="44.130825" lon="12.124388"><ele>206.4</ele><time>2026-04-04T10:08:30.106Z</time></trkpt><trkpt lat="44.1309138" lon="12.1243678"><ele>206.8</ele><time>2026-04-04T10:08:31.112Z</time></trkpt><trkpt lat="44.131004" lon="12.1243416"><ele>207.20000000000002</ele><time>2026-04-04T10:08:32.111Z</time></trkpt><trkpt lat="44.1310994" lon="12.1243148"><ele>207.60000000000002</ele><time>2026-04-04T10:08:33.105Z</time></trkpt><trkpt lat="44.1312022" lon="12.1242825"><ele>208.0</ele><time>2026-04-04T10:08:34.115Z</time></trkpt><trkpt lat="44.1313103" lon="12.1242518"><ele>208.0</ele><time>2026-04-04T10:08:35.115Z</time></trkpt><trkpt lat="44.1314022" lon="12.1242113"><ele>208.0</ele><time>2026-04-04T10:08:36.11Z</time></trkpt><trkpt lat="44.1314895" lon="12.1241383"><ele>208.0</ele><time>2026-04-04T10:08:37.118Z</time></trkpt><trkpt lat="44.1315754" lon="12.1240506"><ele>208.0</ele><time>2026-04-04T10:08:38.116Z</time></trkpt><trkpt lat="44.1316646" lon="12.1239697"><ele>208.0</ele><time>2026-04-04T10:08:39.119Z</time></trkpt><trkpt lat="44.1317535" lon="12.1238793"><ele>203.75</ele><time>2026-04-04T10:08:40.118Z</time></trkpt><trkpt lat="44.1318423" lon="12.1237834"><ele>199.5</ele><time>2026-04-04T10:08:41.118Z</time></trkpt><trkpt lat="44.1319329" lon="12.1236889"><ele>195.25</ele><time>2026-04-04T10:08:42.121Z</time></trkpt><trkpt lat="44.1320259" lon="12.1235962"><ele>191.0</ele><time>2026-04-04T10:08:43.122Z</time></trkpt><trkpt lat="44.1321193" lon="12.123499"><ele>191.0</ele><time>2026-04-04T10:08:44.12Z</time></trkpt><trkpt lat="44.1322143" lon="12.1234158"><ele>191.0</ele><time>2026-04-04T10:08:45.119Z</time></trkpt><trkpt lat="44.1323131" lon="12.1233351"><ele>191.0</ele><time>2026-04-04T10:08:46.118Z</time></trkpt><trkpt lat="44.1323989" lon="12.1232457"><ele>191.0</ele><time>2026-04-04T10:08:47.117Z</time></trkpt><trkpt lat="44.132493" lon="12.1231564"><ele>191.0</ele><time>2026-04-04T10:08:48.13Z</time></trkpt><trkpt lat="44.1325849" lon="12.1230711"><ele>190.20000000000002</ele><time>2026-04-04T10:08:49.14Z</time></trkpt><trkpt lat="44.1326708" lon="12.1229924"><ele>189.4</ele><time>2026-04-04T10:08:50.117Z</time></trkpt><trkpt lat="44.1327517" lon="12.1229125"><ele>188.6</ele><time>2026-04-04T10:08:51.126Z</time></trkpt><trkpt lat="44.1328344" lon="12.1228365"><ele>187.8</ele><time>2026-04-04T10:08:52.124Z</time></trkpt><trkpt lat="44.132918" lon="12.1227653"><ele>187.0</ele><time>2026-04-04T10:08:53.125Z</time></trkpt><trkpt lat="44.1330009" lon="12.1226974"><ele>187.0</ele><time>2026-04-04T10:08:54.126Z</time></trkpt><trkpt lat="44.1330759" lon="12.1226205"><ele>187.0</ele><time>2026-04-04T10:08:55.125Z</time></trkpt><trkpt lat="44.1331547" lon="12.1225511"><ele>187.0</ele><time>2026-04-04T10:08:56.128Z</time></trkpt><trkpt lat="44.1332317" lon="12.1224826"><ele>187.0</ele><time>2026-04-04T10:08:57.125Z</time></trkpt><trkpt lat="44.1333196" lon="12.1224079"><ele>187.0</ele><time>2026-04-04T10:08:58.124Z</time></trkpt><trkpt lat="44.1334028" lon="12.12232"><ele>186.0</ele><time>2026-04-04T10:08:59.124Z</time></trkpt><trkpt lat="44.1334901" lon="12.1222328"><ele>185.0</ele><time>2026-04-04T10:09:00.126Z</time></trkpt><trkpt lat="44.1335812" lon="12.1221455"><ele>184.0</ele><time>2026-04-04T10:09:01.124Z</time></trkpt><trkpt lat="44.1336775" lon="12.1220561"><ele>183.0</ele><time>2026-04-04T10:09:02.116Z</time></trkpt><trkpt lat="44.1337731" lon="12.1219671"><ele>182.0</ele><time>2026-04-04T10:09:03.121Z</time></trkpt><trkpt lat="44.1338726" lon="12.1218747"><ele>182.0</ele><time>2026-04-04T10:09:04.119Z</time></trkpt><trkpt lat="44.1339715" lon="12.1217852"><ele>182.0</ele><time>2026-04-04T10:09:05.119Z</time></trkpt><trkpt lat="44.1340688" lon="12.1216942"><ele>182.0</ele><time>2026-04-04T10:09:06.112Z</time></trkpt><trkpt lat="44.134162" lon="12.1216017"><ele>182.0</ele><time>2026-04-04T10:09:07.119Z</time></trkpt><trkpt lat="44.1342585" lon="12.1215046"><ele>180.25</ele><time>2026-04-04T10:09:08.121Z</time></trkpt><trkpt lat="44.134359" lon="12.1214184"><ele>178.5</ele><time>2026-04-04T10:09:09.122Z</time></trkpt><trkpt lat="44.134458" lon="12.1213367"><ele>176.75</ele><time>2026-04-04T10:09:10.125Z</time></trkpt><trkpt lat="44.1345604" lon="12.1212768"><ele>175.0</ele><time>2026-04-04T10:09:11.124Z</time></trkpt><trkpt lat="44.1346676" lon="12.1212305"><ele>175.0</ele><time>2026-04-04T10:09:12.125Z</time></trkpt><trkpt lat="44.1347724" lon="12.1211938"><ele>175.0</ele><time>2026-04-04T10:09:13.13Z</time></trkpt><trkpt lat="44.1348783" lon="12.1211651"><ele>175.0</ele><time>2026-04-04T10:09:14.125Z</time></trkpt><trkpt lat="44.1349843" lon="12.121143"><ele>175.0</ele><time>2026-04-04T10:09:15.126Z</time></trkpt><trkpt lat="44.1350914" lon="12.1211233"><ele>175.0</ele><time>2026-04-04T10:09:16.125Z</time></trkpt><trkpt lat="44.1351997" lon="12.1211002"><ele>174.5</ele><time>2026-04-04T10:09:17.125Z</time></trkpt><trkpt lat="44.1353161" lon="12.1210686"><ele>174.0</ele><time>2026-04-04T10:09:18.123Z</time></trkpt><trkpt lat="44.1354278" lon="12.1210425"><ele>173.5</ele><time>2026-04-04T10:09:19.124Z</time></trkpt><trkpt lat="44.1355339" lon="12.1210134"><ele>173.0</ele><time>2026-04-04T10:09:20.141Z</time></trkpt><trkpt lat="44.1356423" lon="12.1209845"><ele>171.2</ele><time>2026-04-04T10:09:21.124Z</time></trkpt><trkpt lat="44.1357507" lon="12.1209573"><ele>169.4</ele><time>2026-04-04T10:09:22.129Z</time></trkpt><trkpt lat="44.135857" lon="12.1209253"><ele>167.6</ele><time>2026-04-04T10:09:23.127Z</time></trkpt><trkpt lat="44.1359626" lon="12.120893"><ele>165.79999999999998</ele><time>2026-04-04T10:09:24.125Z</time></trkpt><trkpt lat="44.1360695" lon="12.1208627"><ele>164.0</ele><time>2026-04-04T10:09:25.125Z</time></trkpt><trkpt lat="44.1361812" lon="12.1208282"><ele>164.0</ele><time>2026-04-04T10:09:26.128Z</time></trkpt><trkpt lat="44.1362959" lon="12.1207952"><ele>164.0</ele><time>2026-04-04T10:09:27.127Z</time></trkpt><trkpt lat="44.1364086" lon="12.1207624"><ele>164.0</ele><time>2026-04-04T10:09:28.127Z</time></trkpt><trkpt lat="44.1365224" lon="12.120731"><ele>164.0</ele><time>2026-04-04T10:09:29.134Z</time></trkpt><trkpt lat="44.1366389" lon="12.1206984"><ele>161.0</ele><time>2026-04-04T10:09:30.132Z</time></trkpt><trkpt lat="44.1367495" lon="12.1206715"><ele>158.0</ele><time>2026-04-04T10:09:31.139Z</time></trkpt><trkpt lat="44.1368619" lon="12.120641"><ele>155.0</ele><time>2026-04-04T10:09:32.126Z</time></trkpt><trkpt lat="44.1369704" lon="12.120606"><ele>152.0</ele><time>2026-04-04T10:09:33.132Z</time></trkpt><trkpt lat="44.1370774" lon="12.12057"><ele>149.0</ele><time>2026-04-04T10:09:34.132Z</time></trkpt><trkpt lat="44.1371831" lon="12.1205373"><ele>149.0</ele><time>2026-04-04T10:09:35.129Z</time></trkpt><trkpt lat="44.1372865" lon="12.1205021"><ele>149.0</ele><time>2026-04-04T10:09:36.125Z</time></trkpt><trkpt lat="44.1373863" lon="12.1204448"><ele>149.0</ele><time>2026-04-04T10:09:37.129Z</time></trkpt><trkpt lat="44.1374803" lon="12.1203745"><ele>149.0</ele><time>2026-04-04T10:09:38.136Z</time></trkpt><trkpt lat="44.1375761" lon="12.1203147"><ele>149.0</ele><time>2026-04-04T10:09:39.127Z</time></trkpt><trkpt lat="44.1376681" lon="12.1202706"><ele>149.6</ele><time>2026-04-04T10:09:40.132Z</time></trkpt><trkpt lat="44.137761" lon="12.120237"><ele>150.2</ele><time>2026-04-04T10:09:41.127Z</time></trkpt><trkpt lat="44.1378529" lon="12.1202031"><ele>150.79999999999998</ele><time>2026-04-04T10:09:42.13Z</time></trkpt><trkpt lat="44.1379433" lon="12.1201688"><ele>151.4</ele><time>2026-04-04T10:09:43.131Z</time></trkpt><trkpt lat="44.1380306" lon="12.1201324"><ele>152.0</ele><time>2026-04-04T10:09:44.118Z</time></trkpt><trkpt lat="44.1381057" lon="12.1200919"><ele>152.0</ele><time>2026-04-04T10:09:45.123Z</time></trkpt><trkpt lat="44.1381815" lon="12.1200561"><ele>152.0</ele><time>2026-04-04T10:09:46.119Z</time></trkpt><trkpt lat="44.138258" lon="12.1200245"><ele>152.0</ele><time>2026-04-04T10:09:47.114Z</time></trkpt><trkpt lat="44.1383313" lon="12.1199943"><ele>152.0</ele><time>2026-04-04T10:09:48.118Z</time></trkpt><trkpt lat="44.1384013" lon="12.1199647"><ele>152.0</ele><time>2026-04-04T10:09:49.109Z</time></trkpt><trkpt lat="44.1384714" lon="12.1199384"><ele>152.0</ele><time>2026-04-04T10:09:50.118Z</time></trkpt><trkpt lat="44.138543" lon="12.1199088"><ele>150.7142857142857</ele><time>2026-04-04T10:09:51.123Z</time></trkpt><trkpt lat="44.138609" lon="12.1198909"><ele>149.42857142857144</ele><time>2026-04-04T10:09:52.113Z</time></trkpt><trkpt lat="44.1386746" lon="12.1198622"><ele>148.14285714285714</ele><time>2026-04-04T10:09:53.12Z</time></trkpt><trkpt lat="44.1387388" lon="12.1198259"><ele>146.85714285714283</ele><time>2026-04-04T10:09:54.109Z</time></trkpt><trkpt lat="44.1388034" lon="12.1197971"><ele>145.57142857142856</ele><time>2026-04-04T10:09:55.111Z</time></trkpt><trkpt lat="44.1388655" lon="12.1197673"><ele>144.28571428571428</ele><time>2026-04-04T10:09:56.115Z</time></trkpt><trkpt lat="44.138927" lon="12.1197368"><ele>143.0</ele><time>2026-04-04T10:09:57.111Z</time></trkpt><trkpt lat="44.1389892" lon="12.1197117"><ele>144.25</ele><time>2026-04-04T10:09:58.119Z</time></trkpt><trkpt lat="44.1391092" lon="12.1196559"><ele>145.5</ele><time>2026-04-04T10:10:00.117Z</time></trkpt><trkpt lat="44.1392244" lon="12.119595"><ele>146.75</ele><time>2026-04-04T10:10:02.118Z</time></trkpt><trkpt lat="44.139343" lon="12.1195477"><ele>148.0</ele><time>2026-04-04T10:10:04.116Z</time></trkpt><trkpt lat="44.1394496" lon="12.1194957"><ele>148.0</ele><time>2026-04-04T10:10:06.114Z</time></trkpt><trkpt lat="44.1395543" lon="12.1194426"><ele>148.0</ele><time>2026-04-04T10:10:08.114Z</time></trkpt><trkpt lat="44.1396606" lon="12.1194024"><ele>148.0</ele><time>2026-04-04T10:10:10.12Z</time></trkpt><trkpt lat="44.1397545" lon="12.1193533"><ele>148.0</ele><time>2026-04-04T10:10:12.117Z</time></trkpt><trkpt lat="44.1398701" lon="12.1193061"><ele>148.0</ele><time>2026-04-04T10:10:14.115Z</time></trkpt><trkpt lat="44.139985" lon="12.1193047"><ele>149.25</ele><time>2026-04-04T10:10:16.115Z</time></trkpt><trkpt lat="44.1400996" lon="12.1193417"><ele>150.5</ele><time>2026-04-04T10:10:18.115Z</time></trkpt><trkpt lat="44.1402011" lon="12.1193863"><ele>151.75</ele><time>2026-04-04T10:10:20.112Z</time></trkpt><trkpt lat="44.1403198" lon="12.1194191"><ele>153.0</ele><time>2026-04-04T10:10:22.124Z</time></trkpt><trkpt lat="44.1404249" lon="12.1194623"><ele>153.0</ele><time>2026-04-04T10:10:24.115Z</time></trkpt><trkpt lat="44.1405341" lon="12.1194951"><ele>153.0</ele><time>2026-04-04T10:10:26.119Z</time></trkpt><trkpt lat="44.1406401" lon="12.1195523"><ele>153.0</ele><time>2026-04-04T10:10:28.122Z</time></trkpt><trkpt lat="44.1407554" lon="12.1195948"><ele>153.0</ele><time>2026-04-04T10:10:30.12Z</time></trkpt><trkpt lat="44.140868" lon="12.1196258"><ele>153.4</ele><time>2026-04-04T10:10:32.115Z</time></trkpt><trkpt lat="44.1409795" lon="12.1196249"><ele>153.8</ele><time>2026-04-04T10:10:34.12Z</time></trkpt><trkpt lat="44.1410825" lon="12.1196213"><ele>154.2</ele><time>2026-04-04T10:10:36.116Z</time></trkpt><trkpt lat="44.1411781" lon="12.1196055"><ele>154.6</ele><time>2026-04-04T10:10:38.11Z</time></trkpt><trkpt lat="44.1412541" lon="12.1195851"><ele>155.0</ele><time>2026-04-04T10:10:40.123Z</time></trkpt><trkpt lat="44.1413261" lon="12.1195665"><ele>155.0</ele><time>2026-04-04T10:10:42.125Z</time></trkpt><trkpt lat="44.141402" lon="12.1195573"><ele>155.0</ele><time>2026-04-04T10:10:44.122Z</time></trkpt><trkpt lat="44.1414699" lon="12.1195591"><ele>155.0</ele><time>2026-04-04T10:10:46.121Z</time></trkpt><trkpt lat="44.1415436" lon="12.1195406"><ele>155.0</ele><time>2026-04-04T10:10:48.119Z</time></trkpt><trkpt lat="44.1416314" lon="12.1195135"><ele>155.0</ele><time>2026-04-04T10:10:51.113Z</time></trkpt><trkpt lat="44.1417023" lon="12.119442"><ele>155.0</ele><time>2026-04-04T10:10:54.117Z</time></trkpt><trkpt lat="44.1417609" lon="12.1193957"><ele>156.5</ele><time>2026-04-04T10:10:56.121Z</time></trkpt><trkpt lat="44.1418418" lon="12.1193308"><ele>158.0</ele><time>2026-04-04T10:10:59.119Z</time></trkpt><trkpt lat="44.1419169" lon="12.1192954"><ele>159.5</ele><time>2026-04-04T10:11:01.12Z</time></trkpt><trkpt lat="44.1419893" lon="12.1192492"><ele>161.0</ele><time>2026-04-04T10:11:03.118Z</time></trkpt><trkpt lat="44.1420637" lon="12.1191971"><ele>162.5</ele><time>2026-04-04T10:11:05.118Z</time></trkpt><trkpt lat="44.1421567" lon="12.1191478"><ele>164.0</ele><time>2026-04-04T10:11:07.119Z</time></trkpt><trkpt lat="44.142246" lon="12.119093"><ele>163.0</ele><time>2026-04-04T10:11:09.122Z</time></trkpt><trkpt lat="44.1423395" lon="12.1190236"><ele>162.0</ele><time>2026-04-04T10:11:11.119Z</time></trkpt><trkpt lat="44.1424385" lon="12.1189683"><ele>161.0</ele><time>2026-04-04T10:11:13.118Z</time></trkpt><trkpt lat="44.1425332" lon="12.118909"><ele>160.0</ele><time>2026-04-04T10:11:15.114Z</time></trkpt><trkpt lat="44.1426101" lon="12.1188831"><ele>159.0</ele><time>2026-04-04T10:11:17.12Z</time></trkpt><trkpt lat="44.1426906" lon="12.1188738"><ele>161.83333333333334</ele><time>2026-04-04T10:11:19.118Z</time></trkpt><trkpt lat="44.142757" lon="12.1188551"><ele>164.66666666666666</ele><time>2026-04-04T10:11:21.115Z</time></trkpt><trkpt lat="44.142827" lon="12.1188127"><ele>167.5</ele><time>2026-04-04T10:11:23.123Z</time></trkpt><trkpt lat="44.1428857" lon="12.1187758"><ele>170.33333333333331</ele><time>2026-04-04T10:11:25.125Z</time></trkpt><trkpt lat="44.1429827" lon="12.1187849"><ele>173.16666666666666</ele><time>2026-04-04T10:11:27.121Z</time></trkpt><trkpt lat="44.1430853" lon="12.1188196"><ele>176.0</ele><time>2026-04-04T10:11:29.13Z</time></trkpt><trkpt lat="44.1431743" lon="12.1188329"><ele>178.57142857142858</ele><time>2026-04-04T10:11:31.084Z</time></trkpt><trkpt lat="44.1432511" lon="12.118822"><ele>181.14285714285714</ele><time>2026-04-04T10:11:33.087Z</time></trkpt><trkpt lat="44.1433169" lon="12.1188106"><ele>183.71428571428572</ele><time>2026-04-04T10:11:35.126Z</time></trkpt><trkpt lat="44.1433816" lon="12.1188052"><ele>186.28571428571428</ele><time>2026-04-04T10:11:37.12Z</time></trkpt><trkpt lat="44.1434665" lon="12.1187929"><ele>188.85714285714286</ele><time>2026-04-04T10:11:40.129Z</time></trkpt><trkpt lat="44.1435344" lon="12.1187849"><ele>191.42857142857142</ele><time>2026-04-04T10:11:42.133Z</time></trkpt><trkpt lat="44.1436014" lon="12.1187747"><ele>194.0</ele><time>2026-04-04T10:11:44.131Z</time></trkpt><trkpt lat="44.1436668" lon="12.1187514"><ele>194.00000000000003</ele><time>2026-04-04T10:11:46.125Z</time></trkpt><trkpt lat="44.1437596" lon="12.1187378"><ele>194.0</ele><time>2026-04-04T10:11:49.131Z</time></trkpt><trkpt lat="44.1438489" lon="12.118755"><ele>194.0</ele><time>2026-04-04T10:11:52.13Z</time></trkpt><trkpt lat="44.1439118" lon="12.1187599"><ele>194.0</ele><time>2026-04-04T10:11:54.128Z</time></trkpt><trkpt lat="44.1440014" lon="12.1187516"><ele>194.00000000000003</ele><time>2026-04-04T10:11:57.135Z</time></trkpt><trkpt lat="44.144069" lon="12.1187373"><ele>194.0</ele><time>2026-04-04T10:11:59.135Z</time></trkpt><trkpt lat="44.1441421" lon="12.1187274"><ele>194.57142857142856</ele><time>2026-04-04T10:12:01.131Z</time></trkpt><trkpt lat="44.144215" lon="12.1187299"><ele>195.14285714285717</ele><time>2026-04-04T10:12:03.134Z</time></trkpt><trkpt lat="44.1442856" lon="12.1187235"><ele>195.71428571428572</ele><time>2026-04-04T10:12:05.126Z</time></trkpt><trkpt lat="44.1443567" lon="12.1186945"><ele>196.28571428571428</ele><time>2026-04-04T10:12:07.134Z</time></trkpt><trkpt lat="44.1444121" lon="12.1186438"><ele>196.85714285714283</ele><time>2026-04-04T10:12:09.139Z</time></trkpt><trkpt lat="44.1444637" lon="12.1185853"><ele>197.42857142857144</ele><time>2026-04-04T10:12:11.126Z</time></trkpt><trkpt lat="44.1445137" lon="12.1185228"><ele>198.0</ele><time>2026-04-04T10:12:13.129Z</time></trkpt><trkpt lat="44.1445515" lon="12.1184301"><ele>198.0</ele><time>2026-04-04T10:12:15.134Z</time></trkpt><trkpt lat="44.1445765" lon="12.1183071"><ele>198.0</ele><time>2026-04-04T10:12:17.134Z</time></trkpt><trkpt lat="44.1446016" lon="12.1181833"><ele>198.0</ele><time>2026-04-04T10:12:19.121Z</time></trkpt><trkpt lat="44.1446455" lon="12.1180526"><ele>198.0</ele><time>2026-04-04T10:12:21.12Z</time></trkpt><trkpt lat="44.1447162" lon="12.1179213"><ele>198.0</ele><time>2026-04-04T10:12:23.126Z</time></trkpt><trkpt lat="44.1448192" lon="12.117806"><ele>197.85714285714286</ele><time>2026-04-04T10:12:25.126Z</time></trkpt><trkpt lat="44.1448852" lon="12.1177532"><ele>197.7142857142857</ele><time>2026-04-04T10:12:26.15Z</time></trkpt><trkpt lat="44.144956" lon="12.1177221"><ele>197.57142857142856</ele><time>2026-04-04T10:12:27.125Z</time></trkpt><trkpt lat="44.1450281" lon="12.1177193"><ele>197.42857142857144</ele><time>2026-04-04T10:12:28.128Z</time></trkpt><trkpt lat="44.1451005" lon="12.1177296"><ele>197.28571428571428</ele><time>2026-04-04T10:12:29.126Z</time></trkpt><trkpt lat="44.1451727" lon="12.1177394"><ele>197.14285714285714</ele><time>2026-04-04T10:12:30.125Z</time></trkpt><trkpt lat="44.1452461" lon="12.1177463"><ele>197.0</ele><time>2026-04-04T10:12:31.122Z</time></trkpt><trkpt lat="44.1453226" lon="12.1177505"><ele>197.00000000000003</ele><time>2026-04-04T10:12:32.125Z</time></trkpt><trkpt lat="44.1453968" lon="12.1177523"><ele>197.0</ele><time>2026-04-04T10:12:33.126Z</time></trkpt><trkpt lat="44.1454656" lon="12.1177504"><ele>197.0</ele><time>2026-04-04T10:12:34.125Z</time></trkpt><trkpt lat="44.1455296" lon="12.1177398"><ele>197.0</ele><time>2026-04-04T10:12:35.125Z</time></trkpt><trkpt lat="44.1456533" lon="12.1177096"><ele>197.00000000000003</ele><time>2026-04-04T10:12:37.124Z</time></trkpt><trkpt lat="44.1457137" lon="12.1176777"><ele>197.0</ele><time>2026-04-04T10:12:38.124Z</time></trkpt><trkpt lat="44.1457748" lon="12.1176419"><ele>197.0</ele><time>2026-04-04T10:12:39.123Z</time></trkpt><trkpt lat="44.1458724" lon="12.1175541"><ele>197.0</ele><time>2026-04-04T10:12:41.123Z</time></trkpt><trkpt lat="44.1459636" lon="12.1174405"><ele>197.0</ele><time>2026-04-04T10:12:43.128Z</time></trkpt><trkpt lat="44.1460409" lon="12.1173323"><ele>197.0</ele><time>2026-04-04T10:12:45.123Z</time></trkpt><trkpt lat="44.1461291" lon="12.1172141"><ele>197.0</ele><time>2026-04-04T10:12:47.131Z</time></trkpt><trkpt lat="44.1461689" lon="12.1171446"><ele>197.0</ele><time>2026-04-04T10:12:48.13Z</time></trkpt><trkpt lat="44.1462098" lon="12.1170773"><ele>197.0</ele><time>2026-04-04T10:12:49.129Z</time></trkpt><trkpt lat="44.146256" lon="12.1170136"><ele>197.0</ele><time>2026-04-04T10:12:50.129Z</time></trkpt><trkpt lat="44.1463039" lon="12.1169541"><ele>197.0</ele><time>2026-04-04T10:12:51.124Z</time></trkpt><trkpt lat="44.1463532" lon="12.1168992"><ele>197.0</ele><time>2026-04-04T10:12:52.13Z</time></trkpt><trkpt lat="44.1464553" lon="12.1168148"><ele>197.0</ele><time>2026-04-04T10:12:54.127Z</time></trkpt><trkpt lat="44.1465507" lon="12.1167306"><ele>195.2</ele><time>2026-04-04T10:12:56.146Z</time></trkpt><trkpt lat="44.1466404" lon="12.1166689"><ele>193.39999999999998</ele><time>2026-04-04T10:12:58.135Z</time></trkpt><trkpt lat="44.1467349" lon="12.1166357"><ele>191.60000000000002</ele><time>2026-04-04T10:13:00.124Z</time></trkpt><trkpt lat="44.1468323" lon="12.1165951"><ele>189.8</ele><time>2026-04-04T10:13:02.128Z</time></trkpt><trkpt lat="44.1469265" lon="12.1165614"><ele>188.0</ele><time>2026-04-04T10:13:04.128Z</time></trkpt><trkpt lat="44.1470172" lon="12.1165337"><ele>188.0</ele><time>2026-04-04T10:13:06.132Z</time></trkpt><trkpt lat="44.1470876" lon="12.1164689"><ele>188.0</ele><time>2026-04-04T10:13:08.132Z</time></trkpt><trkpt lat="44.1471828" lon="12.1163708"><ele>188.0</ele><time>2026-04-04T10:13:10.126Z</time></trkpt><trkpt lat="44.1472399" lon="12.1163089"><ele>188.0</ele><time>2026-04-04T10:13:11.125Z</time></trkpt><trkpt lat="44.1473017" lon="12.1162297"><ele>188.0</ele><time>2026-04-04T10:13:12.121Z</time></trkpt><trkpt lat="44.147365" lon="12.1161266"><ele>183.5</ele><time>2026-04-04T10:13:13.118Z</time></trkpt><trkpt lat="44.1474286" lon="12.1160085"><ele>179.0</ele><time>2026-04-04T10:13:14.12Z</time></trkpt><trkpt lat="44.1474773" lon="12.11587"><ele>174.5</ele><time>2026-04-04T10:13:15.128Z</time></trkpt><trkpt lat="44.1475031" lon="12.1157042"><ele>170.0</ele><time>2026-04-04T10:13:16.127Z</time></trkpt><trkpt lat="44.1475057" lon="12.1155191"><ele>168.0</ele><time>2026-04-04T10:13:17.123Z</time></trkpt><trkpt lat="44.1475019" lon="12.1153313"><ele>166.0</ele><time>2026-04-04T10:13:18.122Z</time></trkpt><trkpt lat="44.1474893" lon="12.1151546"><ele>164.0</ele><time>2026-04-04T10:13:19.118Z</time></trkpt><trkpt lat="44.1474901" lon="12.1149618"><ele>162.0</ele><time>2026-04-04T10:13:20.125Z</time></trkpt><trkpt lat="44.1475051" lon="12.1147852"><ele>161.25</ele><time>2026-04-04T10:13:21.119Z</time></trkpt><trkpt lat="44.1475408" lon="12.1146097"><ele>160.5</ele><time>2026-04-04T10:13:22.12Z</time></trkpt><trkpt lat="44.14759" lon="12.1144346"><ele>159.75</ele><time>2026-04-04T10:13:23.124Z</time></trkpt><trkpt lat="44.1476445" lon="12.1142872"><ele>159.0</ele><time>2026-04-04T10:13:24.12Z</time></trkpt><trkpt lat="44.1477196" lon="12.1141468"><ele>156.0</ele><time>2026-04-04T10:13:25.133Z</time></trkpt><trkpt lat="44.1478196" lon="12.1140485"><ele>153.0</ele><time>2026-04-04T10:13:26.12Z</time></trkpt><trkpt lat="44.1479335" lon="12.1139466"><ele>150.0</ele><time>2026-04-04T10:13:27.139Z</time></trkpt><trkpt lat="44.1480671" lon="12.1138484"><ele>147.0</ele><time>2026-04-04T10:13:28.121Z</time></trkpt><trkpt lat="44.1482144" lon="12.1137605"><ele>146.5</ele><time>2026-04-04T10:13:29.133Z</time></trkpt><trkpt lat="44.1483516" lon="12.1136789"><ele>146.0</ele><time>2026-04-04T10:13:30.126Z</time></trkpt><trkpt lat="44.1484741" lon="12.1135938"><ele>145.5</ele><time>2026-04-04T10:13:31.12Z</time></trkpt><trkpt lat="44.148586" lon="12.1134863"><ele>145.0</ele><time>2026-04-04T10:13:32.121Z</time></trkpt><trkpt lat="44.1486782" lon="12.113379"><ele>145.0</ele><time>2026-04-04T10:13:33.128Z</time></trkpt><trkpt lat="44.1487496" lon="12.1132607"><ele>145.0</ele><time>2026-04-04T10:13:34.119Z</time></trkpt><trkpt lat="44.1488285" lon="12.1131416"><ele>145.0</ele><time>2026-04-04T10:13:35.12Z</time></trkpt><trkpt lat="44.1489166" lon="12.1130341"><ele>145.0</ele><time>2026-04-04T10:13:36.116Z</time></trkpt><trkpt lat="44.1490094" lon="12.1129516"><ele>144.0</ele><time>2026-04-04T10:13:37.115Z</time></trkpt><trkpt lat="44.1491074" lon="12.1128895"><ele>143.0</ele><time>2026-04-04T10:13:38.116Z</time></trkpt><trkpt lat="44.1492142" lon="12.1128363"><ele>142.0</ele><time>2026-04-04T10:13:39.113Z</time></trkpt><trkpt lat="44.1493204" lon="12.1128107"><ele>141.0</ele><time>2026-04-04T10:13:40.124Z</time></trkpt><trkpt lat="44.1494313" lon="12.1127835"><ele>140.0</ele><time>2026-04-04T10:13:41.112Z</time></trkpt><trkpt lat="44.1495447" lon="12.1127525"><ele>140.0</ele><time>2026-04-04T10:13:42.114Z</time></trkpt><trkpt lat="44.1496532" lon="12.1127243"><ele>140.0</ele><time>2026-04-04T10:13:43.108Z</time></trkpt><trkpt lat="44.1497538" lon="12.1127114"><ele>140.0</ele><time>2026-04-04T10:13:44.107Z</time></trkpt><trkpt lat="44.1498506" lon="12.1127454"><ele>140.0</ele><time>2026-04-04T10:13:45.121Z</time></trkpt><trkpt lat="44.1499225" lon="12.1128229"><ele>140.0</ele><time>2026-04-04T10:13:46.111Z</time></trkpt><trkpt lat="44.149973" lon="12.1129137"><ele>141.16666666666666</ele><time>2026-04-04T10:13:47.118Z</time></trkpt><trkpt lat="44.1500225" lon="12.1129718"><ele>142.33333333333331</ele><time>2026-04-04T10:13:48.108Z</time></trkpt><trkpt lat="44.1501111" lon="12.1130455"><ele>143.5</ele><time>2026-04-04T10:13:50.117Z</time></trkpt><trkpt lat="44.1501898" lon="12.113072"><ele>144.66666666666666</ele><time>2026-04-04T10:13:52.118Z</time></trkpt><trkpt lat="44.1502627" lon="12.1130759"><ele>145.83333333333334</ele><time>2026-04-04T10:13:55.127Z</time></trkpt><trkpt lat="44.1503327" lon="12.1130897"><ele>147.0</ele><time>2026-04-04T10:13:57.124Z</time></trkpt><trkpt lat="44.1504065" lon="12.1131133"><ele>147.0</ele><time>2026-04-04T10:13:59.13Z</time></trkpt><trkpt lat="44.1505072" lon="12.1131006"><ele>147.0</ele><time>2026-04-04T10:14:01.136Z</time></trkpt><trkpt lat="44.1506133" lon="12.1130961"><ele>147.0</ele><time>2026-04-04T10:14:03.135Z</time></trkpt><trkpt lat="44.1507063" lon="12.1131086"><ele>147.0</ele><time>2026-04-04T10:14:05.126Z</time></trkpt><trkpt lat="44.1508058" lon="12.1131102"><ele>147.0</ele><time>2026-04-04T10:14:07.125Z</time></trkpt><trkpt lat="44.1509124" lon="12.1131244"><ele>147.75</ele><time>2026-04-04T10:14:09.129Z</time></trkpt><trkpt lat="44.1510283" lon="12.1131282"><ele>148.5</ele><time>2026-04-04T10:14:11.122Z</time></trkpt><trkpt lat="44.1511436" lon="12.1131304"><ele>149.25</ele><time>2026-04-04T10:14:13.122Z</time></trkpt><trkpt lat="44.1512559" lon="12.113135"><ele>150.0</ele><time>2026-04-04T10:14:15.122Z</time></trkpt><trkpt lat="44.1513699" lon="12.1131379"><ele>150.0</ele><time>2026-04-04T10:14:17.128Z</time></trkpt><trkpt lat="44.1514336" lon="12.1131307"><ele>150.0</ele><time>2026-04-04T10:14:18.126Z</time></trkpt><trkpt lat="44.1515007" lon="12.1131266"><ele>150.0</ele><time>2026-04-04T10:14:19.126Z</time></trkpt><trkpt lat="44.1515688" lon="12.1131246"><ele>150.0</ele><time>2026-04-04T10:14:20.121Z</time></trkpt><trkpt lat="44.1516944" lon="12.1131067"><ele>150.0</ele><time>2026-04-04T10:14:22.126Z</time></trkpt><trkpt lat="44.1517598" lon="12.1130983"><ele>150.0</ele><time>2026-04-04T10:14:23.125Z</time></trkpt><trkpt lat="44.1518305" lon="12.1130842"><ele>148.99999999999997</ele><time>2026-04-04T10:14:24.121Z</time></trkpt><trkpt lat="44.1518972" lon="12.1130676"><ele>148.0</ele><time>2026-04-04T10:14:25.13Z</time></trkpt><trkpt lat="44.1519653" lon="12.1130494"><ele>147.0</ele><time>2026-04-04T10:14:26.125Z</time></trkpt><trkpt lat="44.1520347" lon="12.1130408"><ele>146.0</ele><time>2026-04-04T10:14:27.126Z</time></trkpt><trkpt lat="44.1521014" lon="12.1130329"><ele>145.0</ele><time>2026-04-04T10:14:28.125Z</time></trkpt><trkpt lat="44.1521643" lon="12.1130292"><ele>143.99999999999997</ele><time>2026-04-04T10:14:29.141Z</time></trkpt><trkpt lat="44.1522287" lon="12.1130356"><ele>143.0</ele><time>2026-04-04T10:14:30.125Z</time></trkpt><trkpt lat="44.1522949" lon="12.1130545"><ele>143.0</ele><time>2026-04-04T10:14:31.124Z</time></trkpt><trkpt lat="44.1523613" lon="12.1130691"><ele>143.0</ele><time>2026-04-04T10:14:32.12Z</time></trkpt><trkpt lat="44.1524298" lon="12.1130864"><ele>143.0</ele><time>2026-04-04T10:14:33.12Z</time></trkpt><trkpt lat="44.1525041" lon="12.1130943"><ele>143.0</ele><time>2026-04-04T10:14:34.125Z</time></trkpt><trkpt lat="44.1525732" lon="12.1131108"><ele>143.0</ele><time>2026-04-04T10:14:35.123Z</time></trkpt><trkpt lat="44.1526335" lon="12.1131367"><ele>143.0</ele><time>2026-04-04T10:14:36.132Z</time></trkpt><trkpt lat="44.1527552" lon="12.1131538"><ele>142.66666666666666</ele><time>2026-04-04T10:14:38.112Z</time></trkpt><trkpt lat="44.1528226" lon="12.1131602"><ele>142.33333333333331</ele><time>2026-04-04T10:14:39.108Z</time></trkpt><trkpt lat="44.1528958" lon="12.1131582"><ele>142.0</ele><time>2026-04-04T10:14:40.119Z</time></trkpt><trkpt lat="44.1529657" lon="12.1131575"><ele>141.66666666666666</ele><time>2026-04-04T10:14:41.122Z</time></trkpt><trkpt lat="44.1530289" lon="12.1131553"><ele>141.33333333333334</ele><time>2026-04-04T10:14:42.118Z</time></trkpt><trkpt lat="44.1530928" lon="12.1131565"><ele>141.0</ele><time>2026-04-04T10:14:43.12Z</time></trkpt><trkpt lat="44.1532066" lon="12.1131647"><ele>139.8</ele><time>2026-04-04T10:14:45.13Z</time></trkpt><trkpt lat="44.1533325" lon="12.1131708"><ele>138.6</ele><time>2026-04-04T10:14:47.126Z</time></trkpt><trkpt lat="44.1534451" lon="12.1131666"><ele>137.4</ele><time>2026-04-04T10:14:49.122Z</time></trkpt><trkpt lat="44.1535665" lon="12.1131779"><ele>136.2</ele><time>2026-04-04T10:14:51.122Z</time></trkpt><trkpt lat="44.1536361" lon="12.1131837"><ele>135.0</ele><time>2026-04-04T10:14:52.128Z</time></trkpt><trkpt lat="44.153766" lon="12.1131757"><ele>135.0</ele><time>2026-04-04T10:14:54.121Z</time></trkpt><trkpt lat="44.1538297" lon="12.1131624"><ele>135.0</ele><time>2026-04-04T10:14:55.135Z</time></trkpt><trkpt lat="44.1539576" lon="12.1131339"><ele>135.0</ele><time>2026-04-04T10:14:57.13Z</time></trkpt><trkpt lat="44.1540737" lon="12.1131202"><ele>135.0</ele><time>2026-04-04T10:14:59.125Z</time></trkpt><trkpt lat="44.1541802" lon="12.113099"><ele>135.0</ele><time>2026-04-04T10:15:01.123Z</time></trkpt><trkpt lat="44.1542926" lon="12.1130729"><ele>133.75</ele><time>2026-04-04T10:15:03.122Z</time></trkpt><trkpt lat="44.1544046" lon="12.1130419"><ele>132.5</ele><time>2026-04-04T10:15:05.131Z</time></trkpt><trkpt lat="44.1545079" lon="12.1130114"><ele>131.25</ele><time>2026-04-04T10:15:07.126Z</time></trkpt><trkpt lat="44.154622" lon="12.1129882"><ele>130.0</ele><time>2026-04-04T10:15:09.121Z</time></trkpt><trkpt lat="44.1547443" lon="12.1129622"><ele>130.00000000000003</ele><time>2026-04-04T10:15:11.126Z</time></trkpt><trkpt lat="44.154812" lon="12.1129429"><ele>130.0</ele><time>2026-04-04T10:15:12.127Z</time></trkpt><trkpt lat="44.1548821" lon="12.1129221"><ele>130.0</ele><time>2026-04-04T10:15:13.125Z</time></trkpt><trkpt lat="44.1549538" lon="12.1129082"><ele>130.0</ele><time>2026-04-04T10:15:14.131Z</time></trkpt><trkpt lat="44.1550317" lon="12.112888"><ele>130.0</ele><time>2026-04-04T10:15:15.134Z</time></trkpt><trkpt lat="44.1551091" lon="12.1128776"><ele>130.00000000000003</ele><time>2026-04-04T10:15:16.124Z</time></trkpt><trkpt lat="44.1551876" lon="12.1128658"><ele>130.0</ele><time>2026-04-04T10:15:17.13Z</time></trkpt><trkpt lat="44.1552666" lon="12.1128556"><ele>129.83333333333334</ele><time>2026-04-04T10:15:18.128Z</time></trkpt><trkpt lat="44.1553457" lon="12.1128489"><ele>129.66666666666669</ele><time>2026-04-04T10:15:19.13Z</time></trkpt><trkpt lat="44.1554283" lon="12.1128337"><ele>129.5</ele><time>2026-04-04T10:15:20.125Z</time></trkpt><trkpt lat="44.1555089" lon="12.1128172"><ele>129.33333333333334</ele><time>2026-04-04T10:15:21.125Z</time></trkpt><trkpt lat="44.155592" lon="12.1128026"><ele>129.16666666666666</ele><time>2026-04-04T10:15:22.124Z</time></trkpt><trkpt lat="44.1556734" lon="12.1127853"><ele>129.0</ele><time>2026-04-04T10:15:23.126Z</time></trkpt><trkpt lat="44.1557546" lon="12.1127614"><ele>128.0</ele><time>2026-04-04T10:15:24.127Z</time></trkpt><trkpt lat="44.155836" lon="12.1127438"><ele>127.0</ele><time>2026-04-04T10:15:25.123Z</time></trkpt><trkpt lat="44.1559151" lon="12.1127286"><ele>126.0</ele><time>2026-04-04T10:15:26.133Z</time></trkpt><trkpt lat="44.156001" lon="12.1127075"><ele>125.0</ele><time>2026-04-04T10:15:27.123Z</time></trkpt><trkpt lat="44.1560888" lon="12.1126769"><ele>124.0</ele><time>2026-04-04T10:15:28.124Z</time></trkpt><trkpt lat="44.1561736" lon="12.1126585"><ele>123.0</ele><time>2026-04-04T10:15:29.125Z</time></trkpt><trkpt lat="44.1562638" lon="12.1126403"><ele>123.0</ele><time>2026-04-04T10:15:30.122Z</time></trkpt><trkpt lat="44.1563539" lon="12.1126262"><ele>123.00000000000001</ele><time>2026-04-04T10:15:31.138Z</time></trkpt><trkpt lat="44.156448" lon="12.1126064"><ele>123.00000000000001</ele><time>2026-04-04T10:15:32.124Z</time></trkpt><trkpt lat="44.1565473" lon="12.1125828"><ele>123.0</ele><time>2026-04-04T10:15:33.127Z</time></trkpt><trkpt lat="44.1566505" lon="12.1125618"><ele>123.0</ele><time>2026-04-04T10:15:34.112Z</time></trkpt><trkpt lat="44.1567538" lon="12.1125366"><ele>121.80000000000001</ele><time>2026-04-04T10:15:35.119Z</time></trkpt><trkpt lat="44.1568613" lon="12.1125049"><ele>120.60000000000001</ele><time>2026-04-04T10:15:36.136Z</time></trkpt><trkpt lat="44.1569684" lon="12.112489"><ele>119.39999999999999</ele><time>2026-04-04T10:15:37.124Z</time></trkpt><trkpt lat="44.157078" lon="12.1124764"><ele>118.19999999999999</ele><time>2026-04-04T10:15:38.13Z</time></trkpt><trkpt lat="44.1571934" lon="12.1124699"><ele>117.0</ele><time>2026-04-04T10:15:39.123Z</time></trkpt><trkpt lat="44.1573083" lon="12.1124649"><ele>115.75</ele><time>2026-04-04T10:15:40.121Z</time></trkpt><trkpt lat="44.1574254" lon="12.1124628"><ele>114.5</ele><time>2026-04-04T10:15:41.121Z</time></trkpt><trkpt lat="44.1575439" lon="12.1124575"><ele>113.25</ele><time>2026-04-04T10:15:42.11Z</time></trkpt><trkpt lat="44.1576723" lon="12.1124485"><ele>112.0</ele><time>2026-04-04T10:15:43.127Z</time></trkpt><trkpt lat="44.1577981" lon="12.1124382"><ele>112.0</ele><time>2026-04-04T10:15:44.123Z</time></trkpt><trkpt lat="44.1579273" lon="12.1124284"><ele>112.0</ele><time>2026-04-04T10:15:45.118Z</time></trkpt><trkpt lat="44.1580546" lon="12.1124185"><ele>112.0</ele><time>2026-04-04T10:15:46.133Z</time></trkpt><trkpt lat="44.1581765" lon="12.1124061"><ele>112.0</ele><time>2026-04-04T10:15:47.12Z</time></trkpt><trkpt lat="44.1582958" lon="12.1123875"><ele>106.75</ele><time>2026-04-04T10:15:48.128Z</time></trkpt><trkpt lat="44.1584151" lon="12.1123849"><ele>101.5</ele><time>2026-04-04T10:15:49.123Z</time></trkpt><trkpt lat="44.158544" lon="12.1123772"><ele>96.25</ele><time>2026-04-04T10:15:50.123Z</time></trkpt><trkpt lat="44.1586704" lon="12.112379"><ele>91.0</ele><time>2026-04-04T10:15:51.115Z</time></trkpt><trkpt lat="44.1587991" lon="12.1123743"><ele>91.0</ele><time>2026-04-04T10:15:52.121Z</time></trkpt><trkpt lat="44.1589311" lon="12.1123689"><ele>91.0</ele><time>2026-04-04T10:15:53.119Z</time></trkpt><trkpt lat="44.1590675" lon="12.1123623"><ele>91.0</ele><time>2026-04-04T10:15:54.119Z</time></trkpt><trkpt lat="44.1592034" lon="12.1123747"><ele>91.0</ele><time>2026-04-04T10:15:55.12Z</time></trkpt><trkpt lat="44.1593404" lon="12.1124047"><ele>92.25</ele><time>2026-04-04T10:15:56.12Z</time></trkpt><trkpt lat="44.1594747" lon="12.1124554"><ele>93.5</ele><time>2026-04-04T10:15:57.128Z</time></trkpt><trkpt lat="44.1596043" lon="12.11251"><ele>94.75</ele><time>2026-04-04T10:15:58.124Z</time></trkpt><trkpt lat="44.1597367" lon="12.1125492"><ele>96.0</ele><time>2026-04-04T10:15:59.128Z</time></trkpt><trkpt lat="44.1598735" lon="12.1125834"><ele>92.25</ele><time>2026-04-04T10:16:00.125Z</time></trkpt><trkpt lat="44.1600075" lon="12.112621"><ele>88.5</ele><time>2026-04-04T10:16:01.124Z</time></trkpt><trkpt lat="44.1601366" lon="12.1126604"><ele>84.75</ele><time>2026-04-04T10:16:02.139Z</time></trkpt><trkpt lat="44.1602753" lon="12.112696"><ele>81.0</ele><time>2026-04-04T10:16:03.124Z</time></trkpt><trkpt lat="44.1604088" lon="12.1127302"><ele>81.0</ele><time>2026-04-04T10:16:04.128Z</time></trkpt><trkpt lat="44.1605472" lon="12.1127659"><ele>81.0</ele><time>2026-04-04T10:16:05.12Z</time></trkpt><trkpt lat="44.1606944" lon="12.1127997"><ele>81.0</ele><time>2026-04-04T10:16:06.122Z</time></trkpt><trkpt lat="44.1608342" lon="12.1128414"><ele>81.0</ele><time>2026-04-04T10:16:07.123Z</time></trkpt><trkpt lat="44.1609651" lon="12.112884"><ele>77.75</ele><time>2026-04-04T10:16:08.122Z</time></trkpt><trkpt lat="44.1611019" lon="12.1129215"><ele>74.5</ele><time>2026-04-04T10:16:09.127Z</time></trkpt><trkpt lat="44.1612406" lon="12.1129563"><ele>71.25</ele><time>2026-04-04T10:16:10.127Z</time></trkpt><trkpt lat="44.1613833" lon="12.1129878"><ele>68.0</ele><time>2026-04-04T10:16:11.131Z</time></trkpt><trkpt lat="44.1615221" lon="12.1130217"><ele>67.75</ele><time>2026-04-04T10:16:12.125Z</time></trkpt><trkpt lat="44.1616617" lon="12.1130534"><ele>67.5</ele><time>2026-04-04T10:16:13.128Z</time></trkpt><trkpt lat="44.1617937" lon="12.1131086"><ele>67.25</ele><time>2026-04-04T10:16:14.122Z</time></trkpt><trkpt lat="44.1619178" lon="12.113192"><ele>67.0</ele><time>2026-04-04T10:16:15.118Z</time></trkpt><trkpt lat="44.1620391" lon="12.1132969"><ele>67.0</ele><time>2026-04-04T10:16:16.119Z</time></trkpt><trkpt lat="44.1621391" lon="12.1134223"><ele>67.0</ele><time>2026-04-04T10:16:17.116Z</time></trkpt><trkpt lat="44.1622263" lon="12.1135314"><ele>67.0</ele><time>2026-04-04T10:16:18.123Z</time></trkpt><trkpt lat="44.1623083" lon="12.1136508"><ele>67.0</ele><time>2026-04-04T10:16:19.12Z</time></trkpt><trkpt lat="44.1623678" lon="12.1137474"><ele>65.66666666666666</ele><time>2026-04-04T10:16:20.114Z</time></trkpt><trkpt lat="44.1624341" lon="12.1138236"><ele>64.33333333333333</ele><time>2026-04-04T10:16:21.106Z</time></trkpt><trkpt lat="44.1624955" lon="12.1139222"><ele>63.0</ele><time>2026-04-04T10:16:23.11Z</time></trkpt><trkpt lat="44.1625185" lon="12.1140073"><ele>61.66666666666667</ele><time>2026-04-04T10:16:25.126Z</time></trkpt><trkpt lat="44.1626136" lon="12.1140697"><ele>60.333333333333336</ele><time>2026-04-04T10:16:28.12Z</time></trkpt><trkpt lat="44.1626891" lon="12.1141197"><ele>59.0</ele><time>2026-04-04T10:16:30.133Z</time></trkpt><trkpt lat="44.1627702" lon="12.1141881"><ele>59.0</ele><time>2026-04-04T10:16:32.131Z</time></trkpt><trkpt lat="44.1628729" lon="12.1142508"><ele>59.00000000000001</ele><time>2026-04-04T10:16:34.124Z</time></trkpt><trkpt lat="44.1629719" lon="12.1143145"><ele>59.00000000000001</ele><time>2026-04-04T10:16:36.12Z</time></trkpt><trkpt lat="44.163068" lon="12.1143822"><ele>59.0</ele><time>2026-04-04T10:16:38.124Z</time></trkpt><trkpt lat="44.1631643" lon="12.1144507"><ele>59.0</ele><time>2026-04-04T10:16:40.122Z</time></trkpt><trkpt lat="44.1632459" lon="12.1145303"><ele>59.16666666666667</ele><time>2026-04-04T10:16:42.127Z</time></trkpt><trkpt lat="44.163325" lon="12.1145942"><ele>59.333333333333336</ele><time>2026-04-04T10:16:44.125Z</time></trkpt><trkpt lat="44.1634022" lon="12.1146603"><ele>59.5</ele><time>2026-04-04T10:16:46.119Z</time></trkpt><trkpt lat="44.163503" lon="12.1147401"><ele>59.66666666666667</ele><time>2026-04-04T10:16:48.117Z</time></trkpt><trkpt lat="44.1635557" lon="12.1147921"><ele>59.833333333333336</ele><time>2026-04-04T10:16:49.117Z</time></trkpt><trkpt lat="44.1636164" lon="12.1148345"><ele>60.0</ele><time>2026-04-04T10:16:50.118Z</time></trkpt><trkpt lat="44.1637092" lon="12.1149349"><ele>60.0</ele><time>2026-04-04T10:16:52.121Z</time></trkpt><trkpt lat="44.1637606" lon="12.1149885"><ele>60.0</ele><time>2026-04-04T10:16:53.119Z</time></trkpt><trkpt lat="44.1638132" lon="12.1150422"><ele>60.0</ele><time>2026-04-04T10:16:54.122Z</time></trkpt><trkpt lat="44.1638628" lon="12.1151"><ele>60.0</ele><time>2026-04-04T10:16:55.121Z</time></trkpt><trkpt lat="44.1639509" lon="12.1151914"><ele>60.0</ele><time>2026-04-04T10:16:57.122Z</time></trkpt><trkpt lat="44.1640425" lon="12.1152784"><ele>60.0</ele><time>2026-04-04T10:16:59.124Z</time></trkpt><trkpt lat="44.1641485" lon="12.1153182"><ele>59.166666666666664</ele><time>2026-04-04T10:17:01.127Z</time></trkpt><trkpt lat="44.16424" lon="12.1153855"><ele>58.33333333333333</ele><time>2026-04-04T10:17:03.124Z</time></trkpt><trkpt lat="44.1643406" lon="12.115443"><ele>57.5</ele><time>2026-04-04T10:17:05.122Z</time></trkpt><trkpt lat="44.1644042" lon="12.1154757"><ele>56.666666666666664</ele><time>2026-04-04T10:17:06.123Z</time></trkpt><trkpt lat="44.1644707" lon="12.1155001"><ele>55.83333333333333</ele><time>2026-04-04T10:17:07.128Z</time></trkpt><trkpt lat="44.1645404" lon="12.1155161"><ele>55.0</ele><time>2026-04-04T10:17:08.126Z</time></trkpt><trkpt lat="44.1646051" lon="12.1155325"><ele>55.0</ele><time>2026-04-04T10:17:09.125Z</time></trkpt><trkpt lat="44.1646705" lon="12.1155543"><ele>55.0</ele><time>2026-04-04T10:17:10.131Z</time></trkpt><trkpt lat="44.1647896" lon="12.1156075"><ele>55.0</ele><time>2026-04-04T10:17:12.125Z</time></trkpt><trkpt lat="44.1649091" lon="12.1156569"><ele>55.0</ele><time>2026-04-04T10:17:14.126Z</time></trkpt><trkpt lat="44.1650169" lon="12.1156921"><ele>55.0</ele><time>2026-04-04T10:17:16.123Z</time></trkpt><trkpt lat="44.1651196" lon="12.115746"><ele>55.0</ele><time>2026-04-04T10:17:18.122Z</time></trkpt><trkpt lat="44.1652075" lon="12.115797"><ele>55.0</ele><time>2026-04-04T10:17:20.123Z</time></trkpt><trkpt lat="44.1653004" lon="12.1158617"><ele>55.0</ele><time>2026-04-04T10:17:22.126Z</time></trkpt><trkpt lat="44.1654004" lon="12.1159059"><ele>55.0</ele><time>2026-04-04T10:17:24.128Z</time></trkpt><trkpt lat="44.1655" lon="12.115959"><ele>55.0</ele><time>2026-04-04T10:17:26.126Z</time></trkpt><trkpt lat="44.1656036" lon="12.1160055"><ele>54.8</ele><time>2026-04-04T10:17:28.124Z</time></trkpt><trkpt lat="44.1656973" lon="12.1160429"><ele>54.6</ele><time>2026-04-04T10:17:30.125Z</time></trkpt><trkpt lat="44.1657894" lon="12.1160895"><ele>54.400000000000006</ele><time>2026-04-04T10:17:32.124Z</time></trkpt><trkpt lat="44.1658806" lon="12.1161453"><ele>54.2</ele><time>2026-04-04T10:17:34.131Z</time></trkpt><trkpt lat="44.1659724" lon="12.1162115"><ele>54.0</ele><time>2026-04-04T10:17:36.124Z</time></trkpt><trkpt lat="44.1660618" lon="12.1162488"><ele>54.0</ele><time>2026-04-04T10:17:38.127Z</time></trkpt><trkpt lat="44.1661576" lon="12.1162812"><ele>54.00000000000001</ele><time>2026-04-04T10:17:40.13Z</time></trkpt><trkpt lat="44.1662413" lon="12.1163437"><ele>54.00000000000001</ele><time>2026-04-04T10:17:42.133Z</time></trkpt><trkpt lat="44.1663356" lon="12.1163925"><ele>54.0</ele><time>2026-04-04T10:17:44.128Z</time></trkpt><trkpt lat="44.1664284" lon="12.1164443"><ele>54.0</ele><time>2026-04-04T10:17:46.127Z</time></trkpt><trkpt lat="44.1665257" lon="12.116496"><ele>53.400000000000006</ele><time>2026-04-04T10:17:48.124Z</time></trkpt><trkpt lat="44.1666112" lon="12.1165405"><ele>52.800000000000004</ele><time>2026-04-04T10:17:50.125Z</time></trkpt><trkpt lat="44.1667059" lon="12.1165652"><ele>52.2</ele><time>2026-04-04T10:17:52.13Z</time></trkpt><trkpt lat="44.1668026" lon="12.1165911"><ele>51.599999999999994</ele><time>2026-04-04T10:17:54.132Z</time></trkpt><trkpt lat="44.1669045" lon="12.1166143"><ele>51.0</ele><time>2026-04-04T10:17:56.126Z</time></trkpt><trkpt lat="44.1670091" lon="12.1166372"><ele>51.0</ele><time>2026-04-04T10:17:58.128Z</time></trkpt><trkpt lat="44.167115" lon="12.1166689"><ele>51.0</ele><time>2026-04-04T10:18:00.13Z</time></trkpt><trkpt lat="44.1672226" lon="12.1166893"><ele>51.0</ele><time>2026-04-04T10:18:02.123Z</time></trkpt><trkpt lat="44.1673243" lon="12.1167219"><ele>51.0</ele><time>2026-04-04T10:18:04.123Z</time></trkpt><trkpt lat="44.1674388" lon="12.1167435"><ele>51.0</ele><time>2026-04-04T10:18:06.141Z</time></trkpt><trkpt lat="44.1675426" lon="12.1167768"><ele>50.75</ele><time>2026-04-04T10:18:08.13Z</time></trkpt><trkpt lat="44.1676493" lon="12.1168096"><ele>50.5</ele><time>2026-04-04T10:18:10.125Z</time></trkpt><trkpt lat="44.1677643" lon="12.116844"><ele>50.25</ele><time>2026-04-04T10:18:12.128Z</time></trkpt><trkpt lat="44.1678781" lon="12.1168578"><ele>50.0</ele><time>2026-04-04T10:18:14.126Z</time></trkpt><trkpt lat="44.1679878" lon="12.1168946"><ele>50.0</ele><time>2026-04-04T10:18:16.126Z</time></trkpt><trkpt lat="44.1680992" lon="12.116925"><ele>50.0</ele><time>2026-04-04T10:18:18.123Z</time></trkpt><trkpt lat="44.1682146" lon="12.1169505"><ele>50.0</ele><time>2026-04-04T10:18:20.128Z</time></trkpt><trkpt lat="44.1682792" lon="12.1169687"><ele>50.0</ele><time>2026-04-04T10:18:21.126Z</time></trkpt><trkpt lat="44.1684045" lon="12.1169944"><ele>50.0</ele><time>2026-04-04T10:18:23.125Z</time></trkpt><trkpt lat="44.1685196" lon="12.1170146"><ele>50.2</ele><time>2026-04-04T10:18:25.125Z</time></trkpt><trkpt lat="44.1686269" lon="12.117035"><ele>50.4</ele><time>2026-04-04T10:18:27.126Z</time></trkpt><trkpt lat="44.1687367" lon="12.1170635"><ele>50.599999999999994</ele><time>2026-04-04T10:18:29.126Z</time></trkpt><trkpt lat="44.1688482" lon="12.1170844"><ele>50.8</ele><time>2026-04-04T10:18:31.124Z</time></trkpt><trkpt lat="44.168953" lon="12.1171275"><ele>51.0</ele><time>2026-04-04T10:18:33.123Z</time></trkpt><trkpt lat="44.1690511" lon="12.1171407"><ele>50.0</ele><time>2026-04-04T10:18:35.126Z</time></trkpt><trkpt lat="44.1691531" lon="12.1171647"><ele>49.0</ele><time>2026-04-04T10:18:37.143Z</time></trkpt><trkpt lat="44.1692725" lon="12.1171923"><ele>48.0</ele><time>2026-04-04T10:18:39.129Z</time></trkpt><trkpt lat="44.1693818" lon="12.117182"><ele>47.0</ele><time>2026-04-04T10:18:41.124Z</time></trkpt><trkpt lat="44.1694636" lon="12.11719"><ele>46.0</ele><time>2026-04-04T10:18:43.134Z</time></trkpt><trkpt lat="44.1695364" lon="12.1171781"><ele>46.0</ele><time>2026-04-04T10:18:45.131Z</time></trkpt><trkpt lat="44.1695828" lon="12.1170722"><ele>46.0</ele><time>2026-04-04T10:18:47.127Z</time></trkpt><trkpt lat="44.1696094" lon="12.1169863"><ele>46.0</ele><time>2026-04-04T10:18:48.117Z</time></trkpt><trkpt lat="44.1696328" lon="12.1168977"><ele>46.0</ele><time>2026-04-04T10:18:49.12Z</time></trkpt><trkpt lat="44.1696614" lon="12.1168053"><ele>46.0</ele><time>2026-04-04T10:18:50.12Z</time></trkpt><trkpt lat="44.1696852" lon="12.1166967"><ele>46.0</ele><time>2026-04-04T10:18:51.121Z</time></trkpt><trkpt lat="44.1697189" lon="12.1165916"><ele>45.199999999999996</ele><time>2026-04-04T10:18:52.125Z</time></trkpt><trkpt lat="44.1697629" lon="12.1164719"><ele>44.4</ele><time>2026-04-04T10:18:53.12Z</time></trkpt><trkpt lat="44.1698069" lon="12.1163623"><ele>43.6</ele><time>2026-04-04T10:18:54.106Z</time></trkpt><trkpt lat="44.1698531" lon="12.1162358"><ele>42.8</ele><time>2026-04-04T10:18:55.121Z</time></trkpt><trkpt lat="44.1699013" lon="12.1161206"><ele>42.0</ele><time>2026-04-04T10:18:56.12Z</time></trkpt><trkpt lat="44.1699518" lon="12.1160219"><ele>40.800000000000004</ele><time>2026-04-04T10:18:57.125Z</time></trkpt><trkpt lat="44.1700083" lon="12.1159271"><ele>39.6</ele><time>2026-04-04T10:18:58.121Z</time></trkpt><trkpt lat="44.1700723" lon="12.115831"><ele>38.400000000000006</ele><time>2026-04-04T10:18:59.124Z</time></trkpt><trkpt lat="44.1701331" lon="12.1157403"><ele>37.2</ele><time>2026-04-04T10:19:00.124Z</time></trkpt><trkpt lat="44.170193" lon="12.1156454"><ele>36.0</ele><time>2026-04-04T10:19:01.124Z</time></trkpt><trkpt lat="44.1702526" lon="12.1155432"><ele>36.0</ele><time>2026-04-04T10:19:02.126Z</time></trkpt><trkpt lat="44.1703119" lon="12.1154606"><ele>36.0</ele><time>2026-04-04T10:19:03.12Z</time></trkpt><trkpt lat="44.1703632" lon="12.1153711"><ele>36.0</ele><time>2026-04-04T10:19:04.12Z</time></trkpt><trkpt lat="44.170413" lon="12.1152851"><ele>36.0</ele><time>2026-04-04T10:19:05.12Z</time></trkpt><trkpt lat="44.1704601" lon="12.1152009"><ele>36.0</ele><time>2026-04-04T10:19:06.12Z</time></trkpt><trkpt lat="44.1705073" lon="12.1151154"><ele>36.0</ele><time>2026-04-04T10:19:07.115Z</time></trkpt><trkpt lat="44.1705549" lon="12.1150304"><ele>36.00000000000001</ele><time>2026-04-04T10:19:08.137Z</time></trkpt><trkpt lat="44.1706094" lon="12.1149427"><ele>36.0</ele><time>2026-04-04T10:19:09.119Z</time></trkpt><trkpt lat="44.1706601" lon="12.1148585"><ele>36.0</ele><time>2026-04-04T10:19:10.118Z</time></trkpt><trkpt lat="44.1707029" lon="12.1147799"><ele>36.0</ele><time>2026-04-04T10:19:11.12Z</time></trkpt><trkpt lat="44.1707493" lon="12.1147072"><ele>36.0</ele><time>2026-04-04T10:19:12.121Z</time></trkpt><trkpt lat="44.1707875" lon="12.1146321"><ele>36.00000000000001</ele><time>2026-04-04T10:19:13.12Z</time></trkpt><trkpt lat="44.1708237" lon="12.1145549"><ele>36.0</ele><time>2026-04-04T10:19:14.122Z</time></trkpt><trkpt lat="44.1709078" lon="12.1144258"><ele>35.6</ele><time>2026-04-04T10:19:16.112Z</time></trkpt><trkpt lat="44.1709514" lon="12.1143576"><ele>35.2</ele><time>2026-04-04T10:19:17.118Z</time></trkpt><trkpt lat="44.1710293" lon="12.1142081"><ele>34.8</ele><time>2026-04-04T10:19:19.123Z</time></trkpt><trkpt lat="44.1711094" lon="12.1140798"><ele>34.4</ele><time>2026-04-04T10:19:21.12Z</time></trkpt><trkpt lat="44.1711908" lon="12.1139468"><ele>34.0</ele><time>2026-04-04T10:19:23.122Z</time></trkpt><trkpt lat="44.1712269" lon="12.1138694"><ele>34.0</ele><time>2026-04-04T10:19:24.121Z</time></trkpt><trkpt lat="44.1712662" lon="12.1137972"><ele>34.0</ele><time>2026-04-04T10:19:25.128Z</time></trkpt><trkpt lat="44.1713076" lon="12.1137239"><ele>34.0</ele><time>2026-04-04T10:19:26.122Z</time></trkpt><trkpt lat="44.1713801" lon="12.1135743"><ele>34.0</ele><time>2026-04-04T10:19:28.118Z</time></trkpt><trkpt lat="44.1714577" lon="12.1134441"><ele>34.0</ele><time>2026-04-04T10:19:30.125Z</time></trkpt><trkpt lat="44.1715019" lon="12.1133695"><ele>33.8</ele><time>2026-04-04T10:19:31.125Z</time></trkpt><trkpt lat="44.1715709" lon="12.113225"><ele>33.599999999999994</ele><time>2026-04-04T10:19:33.123Z</time></trkpt><trkpt lat="44.1716331" lon="12.113078"><ele>33.4</ele><time>2026-04-04T10:19:35.122Z</time></trkpt><trkpt lat="44.1716629" lon="12.1129963"><ele>33.199999999999996</ele><time>2026-04-04T10:19:36.124Z</time></trkpt><trkpt lat="44.1716968" lon="12.1129149"><ele>33.0</ele><time>2026-04-04T10:19:37.125Z</time></trkpt><trkpt lat="44.1717536" lon="12.1127632"><ele>33.0</ele><time>2026-04-04T10:19:39.144Z</time></trkpt><trkpt lat="44.1718112" lon="12.1126101"><ele>33.0</ele><time>2026-04-04T10:19:41.126Z</time></trkpt><trkpt lat="44.1718739" lon="12.1124616"><ele>33.0</ele><time>2026-04-04T10:19:43.121Z</time></trkpt><trkpt lat="44.1719061" lon="12.1123836"><ele>33.0</ele><time>2026-04-04T10:19:44.122Z</time></trkpt><trkpt lat="44.1719397" lon="12.112307"><ele>33.0</ele><time>2026-04-04T10:19:45.128Z</time></trkpt><trkpt lat="44.1720078" lon="12.112158"><ele>32.0</ele><time>2026-04-04T10:19:47.13Z</time></trkpt><trkpt lat="44.1720819" lon="12.11201"><ele>31.0</ele><time>2026-04-04T10:19:49.131Z</time></trkpt><trkpt lat="44.1721205" lon="12.1119394"><ele>30.0</ele><time>2026-04-04T10:19:50.13Z</time></trkpt><trkpt lat="44.1721629" lon="12.1118647"><ele>29.0</ele><time>2026-04-04T10:19:51.128Z</time></trkpt><trkpt lat="44.1722048" lon="12.1117969"><ele>28.0</ele><time>2026-04-04T10:19:52.13Z</time></trkpt><trkpt lat="44.1722504" lon="12.1117329"><ele>27.0</ele><time>2026-04-04T10:19:53.129Z</time></trkpt><trkpt lat="44.1723445" lon="12.1116332"><ele>28.400000000000002</ele><time>2026-04-04T10:19:55.129Z</time></trkpt><trkpt lat="44.1723997" lon="12.1115868"><ele>29.800000000000004</ele><time>2026-04-04T10:19:56.121Z</time></trkpt><trkpt lat="44.1724976" lon="12.1114936"><ele>31.2</ele><time>2026-04-04T10:19:58.121Z</time></trkpt><trkpt lat="44.1725988" lon="12.1114032"><ele>32.6</ele><time>2026-04-04T10:20:00.117Z</time></trkpt><trkpt lat="44.1726942" lon="12.1113155"><ele>34.0</ele><time>2026-04-04T10:20:02.115Z</time></trkpt><trkpt lat="44.1727966" lon="12.1112306"><ele>34.0</ele><time>2026-04-04T10:20:04.122Z</time></trkpt><trkpt lat="44.1728929" lon="12.1111697"><ele>34.0</ele><time>2026-04-04T10:20:06.121Z</time></trkpt><trkpt lat="44.1729848" lon="12.1111017"><ele>34.0</ele><time>2026-04-04T10:20:08.119Z</time></trkpt><trkpt lat="44.1730488" lon="12.1110495"><ele>34.0</ele><time>2026-04-04T10:20:10.139Z</time></trkpt><trkpt lat="44.1731074" lon="12.1109993"><ele>34.0</ele><time>2026-04-04T10:20:12.131Z</time></trkpt><trkpt lat="44.1731643" lon="12.1109513"><ele>34.0</ele><time>2026-04-04T10:20:14.132Z</time></trkpt><trkpt lat="44.1732537" lon="12.1109077"><ele>34.2</ele><time>2026-04-04T10:20:16.13Z</time></trkpt><trkpt lat="44.1733557" lon="12.1108589"><ele>34.4</ele><time>2026-04-04T10:20:18.128Z</time></trkpt><trkpt lat="44.1734612" lon="12.1108115"><ele>34.6</ele><time>2026-04-04T10:20:20.121Z</time></trkpt><trkpt lat="44.173554" lon="12.1107851"><ele>34.8</ele><time>2026-04-04T10:20:22.116Z</time></trkpt><trkpt lat="44.1736457" lon="12.1107575"><ele>35.0</ele><time>2026-04-04T10:20:24.12Z</time></trkpt><trkpt lat="44.1737253" lon="12.1107312"><ele>35.0</ele><time>2026-04-04T10:20:26.123Z</time></trkpt><trkpt lat="44.1738058" lon="12.1107024"><ele>35.0</ele><time>2026-04-04T10:20:28.122Z</time></trkpt><trkpt lat="44.1738702" lon="12.1106758"><ele>35.0</ele><time>2026-04-04T10:20:30.125Z</time></trkpt><trkpt lat="44.1739285" lon="12.1106275"><ele>35.0</ele><time>2026-04-04T10:21:46.116Z</time></trkpt><trkpt lat="44.1740003" lon="12.1106125"><ele>35.0</ele><time>2026-04-04T10:21:49.113Z</time></trkpt><trkpt lat="44.1740885" lon="12.1106197"><ele>35.0</ele><time>2026-04-04T10:21:52.125Z</time></trkpt><trkpt lat="44.1741547" lon="12.1106262"><ele>35.0</ele><time>2026-04-04T10:21:54.125Z</time></trkpt><trkpt lat="44.1742453" lon="12.110626"><ele>35.0</ele><time>2026-04-04T10:21:57.118Z</time></trkpt><trkpt lat="44.1743386" lon="12.1105788"><ele>35.0</ele><time>2026-04-04T10:22:00.124Z</time></trkpt><trkpt lat="44.1744124" lon="12.1105385"><ele>35.0</ele><time>2026-04-04T10:22:02.124Z</time></trkpt><trkpt lat="44.1744836" lon="12.1105086"><ele>35.0</ele><time>2026-04-04T10:22:04.123Z</time></trkpt><trkpt lat="44.1745471" lon="12.1104785"><ele>35.0</ele><time>2026-04-04T10:22:06.127Z</time></trkpt><trkpt lat="44.1746025" lon="12.1105294"><ele>35.0</ele><time>2026-04-04T10:22:09.126Z</time></trkpt><trkpt lat="44.1746691" lon="12.1106076"><ele>35.0</ele><time>2026-04-04T10:22:12.117Z</time></trkpt><trkpt lat="44.1747458" lon="12.1105506"><ele>35.0</ele><time>2026-04-04T10:22:14.119Z</time></trkpt><trkpt lat="44.1748379" lon="12.1104384"><ele>35.0</ele><time>2026-04-04T10:22:16.109Z</time></trkpt><trkpt lat="44.1749248" lon="12.1103318"><ele>35.0</ele><time>2026-04-04T10:22:18.114Z</time></trkpt><trkpt lat="44.1750241" lon="12.1102418"><ele>35.0</ele><time>2026-04-04T10:22:20.111Z</time></trkpt><trkpt lat="44.1751082" lon="12.1101426"><ele>34.75</ele><time>2026-04-04T10:22:22.118Z</time></trkpt><trkpt lat="44.1752056" lon="12.1100551"><ele>34.5</ele><time>2026-04-04T10:22:24.125Z</time></trkpt><trkpt lat="44.1753004" lon="12.1099603"><ele>34.25</ele><time>2026-04-04T10:22:26.123Z</time></trkpt><trkpt lat="44.1753835" lon="12.1098627"><ele>34.0</ele><time>2026-04-04T10:22:28.113Z</time></trkpt><trkpt lat="44.1754546" lon="12.1097354"><ele>33.8</ele><time>2026-04-04T10:22:30.115Z</time></trkpt><trkpt lat="44.1755205" lon="12.1096193"><ele>33.599999999999994</ele><time>2026-04-04T10:22:32.114Z</time></trkpt><trkpt lat="44.1755353" lon="12.1094801"><ele>33.4</ele><time>2026-04-04T10:22:34.116Z</time></trkpt><trkpt lat="44.1755332" lon="12.1093053"><ele>33.199999999999996</ele><time>2026-04-04T10:22:36.115Z</time></trkpt><trkpt lat="44.1755252" lon="12.1092139"><ele>33.0</ele><time>2026-04-04T10:22:37.122Z</time></trkpt><trkpt lat="44.1755291" lon="12.1090582"><ele>33.0</ele><time>2026-04-04T10:22:39.118Z</time></trkpt><trkpt lat="44.1755276" lon="12.1088911"><ele>33.0</ele><time>2026-04-04T10:22:41.118Z</time></trkpt><trkpt lat="44.1755166" lon="12.1087238"><ele>33.0</ele><time>2026-04-04T10:22:43.115Z</time></trkpt><trkpt lat="44.1755098" lon="12.1085733"><ele>33.0</ele><time>2026-04-04T10:22:45.115Z</time></trkpt><trkpt lat="44.1754978" lon="12.1084117"><ele>33.0</ele><time>2026-04-04T10:22:47.124Z</time></trkpt><trkpt lat="44.1754877" lon="12.1082491"><ele>33.0</ele><time>2026-04-04T10:22:49.125Z</time></trkpt><trkpt lat="44.1754793" lon="12.1081538"><ele>33.0</ele><time>2026-04-04T10:22:50.121Z</time></trkpt><trkpt lat="44.1754533" lon="12.1079925"><ele>33.0</ele><time>2026-04-04T10:22:52.123Z</time></trkpt><trkpt lat="44.1754142" lon="12.1078269"><ele>33.0</ele><time>2026-04-04T10:22:54.126Z</time></trkpt><trkpt lat="44.1753849" lon="12.1076722"><ele>33.199999999999996</ele><time>2026-04-04T10:22:56.123Z</time></trkpt><trkpt lat="44.1753384" lon="12.1075233"><ele>33.4</ele><time>2026-04-04T10:22:58.122Z</time></trkpt><trkpt lat="44.1753125" lon="12.1074428"><ele>33.599999999999994</ele><time>2026-04-04T10:22:59.127Z</time></trkpt><trkpt lat="44.1752758" lon="12.1072815"><ele>33.8</ele><time>2026-04-04T10:23:01.127Z</time></trkpt><trkpt lat="44.1753289" lon="12.1071322"><ele>34.0</ele><time>2026-04-04T10:23:03.12Z</time></trkpt><trkpt lat="44.1754119" lon="12.1069916"><ele>34.0</ele><time>2026-04-04T10:23:05.119Z</time></trkpt><trkpt lat="44.1754544" lon="12.1069172"><ele>34.0</ele><time>2026-04-04T10:23:06.118Z</time></trkpt><trkpt lat="44.1755154" lon="12.1067835"><ele>34.0</ele><time>2026-04-04T10:23:08.12Z</time></trkpt><trkpt lat="44.1755738" lon="12.1066428"><ele>34.0</ele><time>2026-04-04T10:23:10.124Z</time></trkpt><trkpt lat="44.1756326" lon="12.1065024"><ele>34.0</ele><time>2026-04-04T10:23:12.125Z</time></trkpt><trkpt lat="44.1756861" lon="12.1063692"><ele>33.6</ele><time>2026-04-04T10:23:14.121Z</time></trkpt><trkpt lat="44.1757349" lon="12.106235"><ele>33.2</ele><time>2026-04-04T10:23:16.125Z</time></trkpt><trkpt lat="44.1757852" lon="12.1061005"><ele>32.800000000000004</ele><time>2026-04-04T10:23:18.123Z</time></trkpt><trkpt lat="44.1758852" lon="12.1060514"><ele>32.4</ele><time>2026-04-04T10:23:20.126Z</time></trkpt><trkpt lat="44.1759819" lon="12.1061357"><ele>32.0</ele><time>2026-04-04T10:23:22.133Z</time></trkpt><trkpt lat="44.1760721" lon="12.1062455"><ele>32.0</ele><time>2026-04-04T10:23:24.121Z</time></trkpt><trkpt lat="44.1761746" lon="12.1063344"><ele>32.0</ele><time>2026-04-04T10:23:26.128Z</time></trkpt><trkpt lat="44.1762714" lon="12.1064282"><ele>32.0</ele><time>2026-04-04T10:23:28.125Z</time></trkpt><trkpt lat="44.1763215" lon="12.1064829"><ele>32.0</ele><time>2026-04-04T10:23:29.114Z</time></trkpt><trkpt lat="44.1764205" lon="12.1065838"><ele>32.0</ele><time>2026-04-04T10:23:31.126Z</time></trkpt><trkpt lat="44.1765194" lon="12.1066759"><ele>32.0</ele><time>2026-04-04T10:23:33.128Z</time></trkpt><trkpt lat="44.1766258" lon="12.1067572"><ele>32.0</ele><time>2026-04-04T10:23:35.114Z</time></trkpt><trkpt lat="44.1767213" lon="12.106839"><ele>32.0</ele><time>2026-04-04T10:23:37.126Z</time></trkpt><trkpt lat="44.1767769" lon="12.1068807"><ele>32.0</ele><time>2026-04-04T10:23:38.127Z</time></trkpt><trkpt lat="44.176878" lon="12.1069769"><ele>32.0</ele><time>2026-04-04T10:23:40.123Z</time></trkpt><trkpt lat="44.1769317" lon="12.1070244"><ele>32.0</ele><time>2026-04-04T10:23:41.128Z</time></trkpt><trkpt lat="44.1769856" lon="12.1070718"><ele>32.0</ele><time>2026-04-04T10:23:42.125Z</time></trkpt><trkpt lat="44.1770675" lon="12.1071727"><ele>32.0</ele><time>2026-04-04T10:23:44.126Z</time></trkpt><trkpt lat="44.1771563" lon="12.1072823"><ele>32.0</ele><time>2026-04-04T10:23:46.14Z</time></trkpt><trkpt lat="44.1772522" lon="12.1073708"><ele>32.0</ele><time>2026-04-04T10:23:48.129Z</time></trkpt><trkpt lat="44.1773529" lon="12.1074545"><ele>31.75</ele><time>2026-04-04T10:23:50.126Z</time></trkpt><trkpt lat="44.1774459" lon="12.1075429"><ele>31.5</ele><time>2026-04-04T10:23:52.127Z</time></trkpt><trkpt lat="44.1775437" lon="12.1076385"><ele>31.25</ele><time>2026-04-04T10:23:54.126Z</time></trkpt><trkpt lat="44.1776414" lon="12.107721"><ele>31.0</ele><time>2026-04-04T10:23:56.127Z</time></trkpt><trkpt lat="44.1777377" lon="12.1078008"><ele>31.0</ele><time>2026-04-04T10:23:58.127Z</time></trkpt><trkpt lat="44.1778373" lon="12.1078859"><ele>31.0</ele><time>2026-04-04T10:24:00.126Z</time></trkpt><trkpt lat="44.1779366" lon="12.1079808"><ele>31.0</ele><time>2026-04-04T10:24:02.127Z</time></trkpt><trkpt lat="44.1779885" lon="12.1080342"><ele>31.0</ele><time>2026-04-04T10:24:03.124Z</time></trkpt><trkpt lat="44.1780948" lon="12.1081215"><ele>31.0</ele><time>2026-04-04T10:24:05.125Z</time></trkpt><trkpt lat="44.1782024" lon="12.1082048"><ele>30.8</ele><time>2026-04-04T10:24:07.127Z</time></trkpt><trkpt lat="44.1782552" lon="12.1082538"><ele>30.6</ele><time>2026-04-04T10:24:08.126Z</time></trkpt><trkpt lat="44.1783584" lon="12.1083486"><ele>30.4</ele><time>2026-04-04T10:24:10.125Z</time></trkpt><trkpt lat="44.1784577" lon="12.1084416"><ele>30.2</ele><time>2026-04-04T10:24:12.126Z</time></trkpt><trkpt lat="44.1785594" lon="12.1085287"><ele>30.0</ele><time>2026-04-04T10:24:14.125Z</time></trkpt><trkpt lat="44.1786606" lon="12.1086318"><ele>30.0</ele><time>2026-04-04T10:24:16.126Z</time></trkpt><trkpt lat="44.1787186" lon="12.1086811"><ele>30.0</ele><time>2026-04-04T10:24:17.144Z</time></trkpt><trkpt lat="44.1787745" lon="12.1087288"><ele>30.0</ele><time>2026-04-04T10:24:18.127Z</time></trkpt><trkpt lat="44.1788587" lon="12.1088415"><ele>30.0</ele><time>2026-04-04T10:24:20.13Z</time></trkpt><trkpt lat="44.1789492" lon="12.1089349"><ele>30.0</ele><time>2026-04-04T10:24:22.13Z</time></trkpt><trkpt lat="44.1790469" lon="12.1090305"><ele>30.166666666666668</ele><time>2026-04-04T10:24:24.124Z</time></trkpt><trkpt lat="44.1791479" lon="12.1091311"><ele>30.333333333333336</ele><time>2026-04-04T10:24:26.13Z</time></trkpt><trkpt lat="44.179207" lon="12.1091792"><ele>30.5</ele><time>2026-04-04T10:24:27.127Z</time></trkpt><trkpt lat="44.1792672" lon="12.1092241"><ele>30.666666666666668</ele><time>2026-04-04T10:24:28.128Z</time></trkpt><trkpt lat="44.1793225" lon="12.1092748"><ele>30.833333333333336</ele><time>2026-04-04T10:24:29.128Z</time></trkpt><trkpt lat="44.1793772" lon="12.1093248"><ele>31.0</ele><time>2026-04-04T10:24:30.13Z</time></trkpt><trkpt lat="44.1794753" lon="12.1094259"><ele>31.0</ele><time>2026-04-04T10:24:32.127Z</time></trkpt><trkpt lat="44.1795762" lon="12.1095053"><ele>31.0</ele><time>2026-04-04T10:24:34.127Z</time></trkpt><trkpt lat="44.179676" lon="12.1095957"><ele>31.0</ele><time>2026-04-04T10:24:36.125Z</time></trkpt><trkpt lat="44.1797761" lon="12.1096947"><ele>31.0</ele><time>2026-04-04T10:24:38.125Z</time></trkpt><trkpt lat="44.1798773" lon="12.1097869"><ele>30.8</ele><time>2026-04-04T10:24:40.125Z</time></trkpt><trkpt lat="44.1799846" lon="12.1098775"><ele>30.6</ele><time>2026-04-04T10:24:42.122Z</time></trkpt><trkpt lat="44.1800402" lon="12.1099206"><ele>30.4</ele><time>2026-04-04T10:24:43.122Z</time></trkpt><trkpt lat="44.1801467" lon="12.1099999"><ele>30.2</ele><time>2026-04-04T10:24:45.122Z</time></trkpt><trkpt lat="44.1802528" lon="12.1100809"><ele>30.0</ele><time>2026-04-04T10:24:47.129Z</time></trkpt><trkpt lat="44.1803608" lon="12.1101591"><ele>30.0</ele><time>2026-04-04T10:24:49.124Z</time></trkpt><trkpt lat="44.1804161" lon="12.1102044"><ele>30.0</ele><time>2026-04-04T10:24:50.133Z</time></trkpt><trkpt lat="44.1805223" lon="12.1102866"><ele>30.0</ele><time>2026-04-04T10:24:52.126Z</time></trkpt><trkpt lat="44.1806228" lon="12.1103708"><ele>30.0</ele><time>2026-04-04T10:24:54.129Z</time></trkpt><trkpt lat="44.1807308" lon="12.1104555"><ele>30.0</ele><time>2026-04-04T10:24:56.127Z</time></trkpt><trkpt lat="44.1807895" lon="12.1104943"><ele>29.8</ele><time>2026-04-04T10:24:57.126Z</time></trkpt><trkpt lat="44.180848" lon="12.1105344"><ele>29.6</ele><time>2026-04-04T10:24:58.127Z</time></trkpt><trkpt lat="44.1809473" lon="12.1106211"><ele>29.4</ele><time>2026-04-04T10:25:00.126Z</time></trkpt><trkpt lat="44.1810478" lon="12.1106974"><ele>29.2</ele><time>2026-04-04T10:25:02.125Z</time></trkpt><trkpt lat="44.1811059" lon="12.1107382"><ele>29.0</ele><time>2026-04-04T10:25:03.126Z</time></trkpt><trkpt lat="44.1812107" lon="12.1108199"><ele>29.0</ele><time>2026-04-04T10:25:05.127Z</time></trkpt><trkpt lat="44.1813134" lon="12.1108956"><ele>29.0</ele><time>2026-04-04T10:25:07.125Z</time></trkpt><trkpt lat="44.1813686" lon="12.1109394"><ele>29.0</ele><time>2026-04-04T10:25:08.125Z</time></trkpt><trkpt lat="44.1814628" lon="12.1110133"><ele>29.0</ele><time>2026-04-04T10:25:10.127Z</time></trkpt><trkpt lat="44.1815529" lon="12.1110774"><ele>29.0</ele><time>2026-04-04T10:25:12.127Z</time></trkpt><trkpt lat="44.1816377" lon="12.1111584"><ele>28.85714285714286</ele><time>2026-04-04T10:25:14.124Z</time></trkpt><trkpt lat="44.1817433" lon="12.1112327"><ele>28.714285714285715</ele><time>2026-04-04T10:25:16.127Z</time></trkpt><trkpt lat="44.1817967" lon="12.1112824"><ele>28.571428571428573</ele><time>2026-04-04T10:25:17.126Z</time></trkpt><trkpt lat="44.1818523" lon="12.1113245"><ele>28.42857142857143</ele><time>2026-04-04T10:25:18.131Z</time></trkpt><trkpt lat="44.1819078" lon="12.1113763"><ele>28.285714285714285</ele><time>2026-04-04T10:25:19.141Z</time></trkpt><trkpt lat="44.1819665" lon="12.111423"><ele>28.142857142857142</ele><time>2026-04-04T10:25:20.128Z</time></trkpt><trkpt lat="44.182025" lon="12.1114667"><ele>28.0</ele><time>2026-04-04T10:25:21.128Z</time></trkpt><trkpt lat="44.1820848" lon="12.1114978"><ele>28.000000000000004</ele><time>2026-04-04T10:25:22.129Z</time></trkpt><trkpt lat="44.1821482" lon="12.1115359"><ele>28.0</ele><time>2026-04-04T10:25:23.127Z</time></trkpt><trkpt lat="44.1822051" lon="12.1115792"><ele>28.0</ele><time>2026-04-04T10:25:24.131Z</time></trkpt><trkpt lat="44.182264" lon="12.1116221"><ele>28.0</ele><time>2026-04-04T10:25:25.127Z</time></trkpt><trkpt lat="44.182323" lon="12.1116709"><ele>28.000000000000004</ele><time>2026-04-04T10:25:26.124Z</time></trkpt><trkpt lat="44.1823829" lon="12.1117133"><ele>28.0</ele><time>2026-04-04T10:25:27.124Z</time></trkpt><trkpt lat="44.1824947" lon="12.1117954"><ele>27.799999999999997</ele><time>2026-04-04T10:25:29.127Z</time></trkpt><trkpt lat="44.1825995" lon="12.1118848"><ele>27.599999999999998</ele><time>2026-04-04T10:25:31.125Z</time></trkpt><trkpt lat="44.1827039" lon="12.1119652"><ele>27.400000000000002</ele><time>2026-04-04T10:25:33.126Z</time></trkpt><trkpt lat="44.1828128" lon="12.1120531"><ele>27.200000000000003</ele><time>2026-04-04T10:25:35.122Z</time></trkpt><trkpt lat="44.1828701" lon="12.1120961"><ele>27.0</ele><time>2026-04-04T10:25:36.122Z</time></trkpt><trkpt lat="44.1829299" lon="12.1121413"><ele>27.0</ele><time>2026-04-04T10:25:37.122Z</time></trkpt><trkpt lat="44.182985" lon="12.1121869"><ele>27.000000000000004</ele><time>2026-04-04T10:25:38.116Z</time></trkpt><trkpt lat="44.1830917" lon="12.1122659"><ele>27.000000000000004</ele><time>2026-04-04T10:25:40.117Z</time></trkpt><trkpt lat="44.1832012" lon="12.1123451"><ele>27.0</ele><time>2026-04-04T10:25:42.125Z</time></trkpt><trkpt lat="44.1833011" lon="12.1124181"><ele>27.0</ele><time>2026-04-04T10:25:44.12Z</time></trkpt><trkpt lat="44.1833997" lon="12.1125047"><ele>27.0</ele><time>2026-04-04T10:25:46.124Z</time></trkpt><trkpt lat="44.1835045" lon="12.1125862"><ele>27.0</ele><time>2026-04-04T10:25:48.129Z</time></trkpt><trkpt lat="44.1836152" lon="12.1126582"><ele>27.0</ele><time>2026-04-04T10:25:50.14Z</time></trkpt><trkpt lat="44.1837191" lon="12.1127459"><ele>27.0</ele><time>2026-04-04T10:25:52.131Z</time></trkpt><trkpt lat="44.1838231" lon="12.1128288"><ele>27.0</ele><time>2026-04-04T10:25:54.126Z</time></trkpt><trkpt lat="44.1839289" lon="12.112873"><ele>27.0</ele><time>2026-04-04T10:25:56.124Z</time></trkpt><trkpt lat="44.1840009" lon="12.1128883"><ele>27.0</ele><time>2026-04-04T10:25:57.123Z</time></trkpt><trkpt lat="44.184063" lon="12.1129237"><ele>27.0</ele><time>2026-04-04T10:25:58.123Z</time></trkpt><trkpt lat="44.1841261" lon="12.112964"><ele>27.0</ele><time>2026-04-04T10:25:59.124Z</time></trkpt><trkpt lat="44.1842376" lon="12.1129691"><ele>27.0</ele><time>2026-04-04T10:26:01.128Z</time></trkpt><trkpt lat="44.1842895" lon="12.1128953"><ele>27.0</ele><time>2026-04-04T10:26:02.118Z</time></trkpt><trkpt lat="44.1843242" lon="12.1128058"><ele>27.000000000000004</ele><time>2026-04-04T10:26:03.12Z</time></trkpt><trkpt lat="44.1843633" lon="12.112736"><ele>27.000000000000004</ele><time>2026-04-04T10:26:04.123Z</time></trkpt><trkpt lat="44.1844387" lon="12.1126223"><ele>27.0</ele><time>2026-04-04T10:26:06.13Z</time></trkpt><trkpt lat="44.1845023" lon="12.1124749"><ele>27.0</ele><time>2026-04-04T10:26:08.116Z</time></trkpt><trkpt lat="44.1845451" lon="12.1123732"><ele>27.166666666666668</ele><time>2026-04-04T10:26:09.116Z</time></trkpt><trkpt lat="44.1845822" lon="12.112283"><ele>27.333333333333336</ele><time>2026-04-04T10:26:10.123Z</time></trkpt><trkpt lat="44.1846172" lon="12.1121905"><ele>27.5</ele><time>2026-04-04T10:26:11.12Z</time></trkpt><trkpt lat="44.1846549" lon="12.1120852"><ele>27.666666666666668</ele><time>2026-04-04T10:26:12.104Z</time></trkpt><trkpt lat="44.1846998" lon="12.1119916"><ele>27.833333333333336</ele><time>2026-04-04T10:26:13.088Z</time></trkpt><trkpt lat="44.1847469" lon="12.1119013"><ele>28.0</ele><time>2026-04-04T10:26:14.077Z</time></trkpt><trkpt lat="44.1847859" lon="12.1118185"><ele>27.833333333333336</ele><time>2026-04-04T10:26:15.074Z</time></trkpt><trkpt lat="44.1848522" lon="12.1116831"><ele>27.666666666666668</ele><time>2026-04-04T10:26:17.086Z</time></trkpt><trkpt lat="44.1848876" lon="12.1115638"><ele>27.5</ele><time>2026-04-04T10:26:18.095Z</time></trkpt><trkpt lat="44.1849195" lon="12.1114598"><ele>27.333333333333336</ele><time>2026-04-04T10:26:19.102Z</time></trkpt><trkpt lat="44.1849574" lon="12.1113788"><ele>27.166666666666668</ele><time>2026-04-04T10:26:20.108Z</time></trkpt><trkpt lat="44.1849864" lon="12.1112902"><ele>27.0</ele><time>2026-04-04T10:26:21.135Z</time></trkpt><trkpt lat="44.1850219" lon="12.1112155"><ele>27.0</ele><time>2026-04-04T10:26:22.112Z</time></trkpt><trkpt lat="44.1850691" lon="12.1110595"><ele>27.000000000000004</ele><time>2026-04-04T10:26:24.115Z</time></trkpt><trkpt lat="44.1851239" lon="12.1109104"><ele>27.000000000000004</ele><time>2026-04-04T10:26:26.118Z</time></trkpt><trkpt lat="44.1851637" lon="12.110836"><ele>27.0</ele><time>2026-04-04T10:26:27.113Z</time></trkpt><trkpt lat="44.1852475" lon="12.1107023"><ele>27.0</ele><time>2026-04-04T10:26:29.104Z</time></trkpt><trkpt lat="44.1852877" lon="12.1106274"><ele>27.0</ele><time>2026-04-04T10:26:30.11Z</time></trkpt><trkpt lat="44.1853154" lon="12.1105399"><ele>27.0</ele><time>2026-04-04T10:26:31.107Z</time></trkpt><trkpt lat="44.185345" lon="12.1104526"><ele>27.0</ele><time>2026-04-04T10:26:32.112Z</time></trkpt><trkpt lat="44.1853765" lon="12.1103667"><ele>27.0</ele><time>2026-04-04T10:26:33.111Z</time></trkpt><trkpt lat="44.1854077" lon="12.1102892"><ele>27.0</ele><time>2026-04-04T10:26:34.111Z</time></trkpt><trkpt lat="44.1854401" lon="12.1102056"><ele>27.0</ele><time>2026-04-04T10:26:35.11Z</time></trkpt><trkpt lat="44.1854743" lon="12.1101172"><ele>27.0</ele><time>2026-04-04T10:26:36.11Z</time></trkpt><trkpt lat="44.1855196" lon="12.1100542"><ele>27.0</ele><time>2026-04-04T10:26:37.122Z</time></trkpt><trkpt lat="44.1855666" lon="12.1099943"><ele>27.0</ele><time>2026-04-04T10:26:38.115Z</time></trkpt><trkpt lat="44.1856532" lon="12.1098668"><ele>27.0</ele><time>2026-04-04T10:26:40.118Z</time></trkpt><trkpt lat="44.1857109" lon="12.1097999"><ele>27.0</ele><time>2026-04-04T10:26:41.12Z</time></trkpt><trkpt lat="44.1857663" lon="12.1097424"><ele>27.0</ele><time>2026-04-04T10:26:42.119Z</time></trkpt><trkpt lat="44.1858149" lon="12.1096794"><ele>27.0</ele><time>2026-04-04T10:26:43.122Z</time></trkpt><trkpt lat="44.1858606" lon="12.1096118"><ele>27.25</ele><time>2026-04-04T10:26:44.119Z</time></trkpt><trkpt lat="44.1859414" lon="12.1094895"><ele>27.5</ele><time>2026-04-04T10:26:46.118Z</time></trkpt><trkpt lat="44.1860227" lon="12.1093662"><ele>27.75</ele><time>2026-04-04T10:26:48.119Z</time></trkpt><trkpt lat="44.186093" lon="12.1092314"><ele>28.0</ele><time>2026-04-04T10:26:50.119Z</time></trkpt><trkpt lat="44.1861543" lon="12.1090797"><ele>28.0</ele><time>2026-04-04T10:26:52.121Z</time></trkpt><trkpt lat="44.1861849" lon="12.1090022"><ele>27.999999999999996</ele><time>2026-04-04T10:26:53.121Z</time></trkpt><trkpt lat="44.1862473" lon="12.1088553"><ele>27.999999999999996</ele><time>2026-04-04T10:26:55.12Z</time></trkpt><trkpt lat="44.1862817" lon="12.1087802"><ele>28.0</ele><time>2026-04-04T10:26:56.123Z</time></trkpt><trkpt lat="44.1863487" lon="12.1086463"><ele>28.0</ele><time>2026-04-04T10:26:58.126Z</time></trkpt><trkpt lat="44.1864202" lon="12.1084982"><ele>28.0</ele><time>2026-04-04T10:27:00.119Z</time></trkpt><trkpt lat="44.1864528" lon="12.1084203"><ele>28.0</ele><time>2026-04-04T10:27:01.123Z</time></trkpt><trkpt lat="44.1864905" lon="12.1083486"><ele>28.0</ele><time>2026-04-04T10:27:02.122Z</time></trkpt><trkpt lat="44.1865244" lon="12.1082715"><ele>28.0</ele><time>2026-04-04T10:27:03.122Z</time></trkpt><trkpt lat="44.1865971" lon="12.1081302"><ele>28.0</ele><time>2026-04-04T10:27:05.123Z</time></trkpt><trkpt lat="44.1866322" lon="12.1080524"><ele>28.0</ele><time>2026-04-04T10:27:06.121Z</time></trkpt><trkpt lat="44.1866658" lon="12.1079775"><ele>28.0</ele><time>2026-04-04T10:27:07.126Z</time></trkpt><trkpt lat="44.1866991" lon="12.1079017"><ele>27.857142857142858</ele><time>2026-04-04T10:27:08.117Z</time></trkpt><trkpt lat="44.1867321" lon="12.1078212"><ele>27.714285714285715</ele><time>2026-04-04T10:27:09.121Z</time></trkpt><trkpt lat="44.1867697" lon="12.1077418"><ele>27.57142857142857</ele><time>2026-04-04T10:27:10.123Z</time></trkpt><trkpt lat="44.1868073" lon="12.1076641"><ele>27.42857142857143</ele><time>2026-04-04T10:27:11.118Z</time></trkpt><trkpt lat="44.1868453" lon="12.1075843"><ele>27.285714285714285</ele><time>2026-04-04T10:27:12.117Z</time></trkpt><trkpt lat="44.1868805" lon="12.1075005"><ele>27.142857142857142</ele><time>2026-04-04T10:27:13.118Z</time></trkpt><trkpt lat="44.1869155" lon="12.1074254"><ele>27.0</ele><time>2026-04-04T10:27:14.119Z</time></trkpt><trkpt lat="44.1869539" lon="12.1073552"><ele>27.0</ele><time>2026-04-04T10:27:15.116Z</time></trkpt><trkpt lat="44.1870181" lon="12.1072044"><ele>27.0</ele><time>2026-04-04T10:27:17.117Z</time></trkpt><trkpt lat="44.1870492" lon="12.1071213"><ele>27.0</ele><time>2026-04-04T10:27:18.121Z</time></trkpt><trkpt lat="44.187085" lon="12.1070448"><ele>27.0</ele><time>2026-04-04T10:27:19.11Z</time></trkpt><trkpt lat="44.1871185" lon="12.1069667"><ele>27.0</ele><time>2026-04-04T10:27:20.125Z</time></trkpt><trkpt lat="44.1871777" lon="12.1068213"><ele>27.0</ele><time>2026-04-04T10:27:22.133Z</time></trkpt><trkpt lat="44.1872497" lon="12.1066742"><ele>27.0</ele><time>2026-04-04T10:27:24.118Z</time></trkpt><trkpt lat="44.1872854" lon="12.1065912"><ele>27.000000000000004</ele><time>2026-04-04T10:27:25.121Z</time></trkpt><trkpt lat="44.1873432" lon="12.1064426"><ele>27.000000000000004</ele><time>2026-04-04T10:27:27.121Z</time></trkpt><trkpt lat="44.1874071" lon="12.1062959"><ele>27.0</ele><time>2026-04-04T10:27:29.124Z</time></trkpt><trkpt lat="44.1875105" lon="12.1062256"><ele>27.0</ele><time>2026-04-04T10:27:31.105Z</time></trkpt><trkpt lat="44.1875809" lon="12.1062487"><ele>27.166666666666668</ele><time>2026-04-04T10:27:32.114Z</time></trkpt><trkpt lat="44.1876389" lon="12.1063059"><ele>27.333333333333336</ele><time>2026-04-04T10:27:33.118Z</time></trkpt><trkpt lat="44.1877489" lon="12.1063952"><ele>27.5</ele><time>2026-04-04T10:27:35.122Z</time></trkpt><trkpt lat="44.1878007" lon="12.1064514"><ele>27.666666666666668</ele><time>2026-04-04T10:27:36.113Z</time></trkpt><trkpt lat="44.1878526" lon="12.1065081"><ele>27.833333333333336</ele><time>2026-04-04T10:27:37.119Z</time></trkpt><trkpt lat="44.1879609" lon="12.1065765"><ele>28.0</ele><time>2026-04-04T10:27:39.117Z</time></trkpt><trkpt lat="44.1880632" lon="12.1066496"><ele>28.0</ele><time>2026-04-04T10:27:41.114Z</time></trkpt><trkpt lat="44.1881583" lon="12.1067343"><ele>27.999999999999996</ele><time>2026-04-04T10:27:43.115Z</time></trkpt><trkpt lat="44.1882587" lon="12.1068169"><ele>27.999999999999996</ele><time>2026-04-04T10:27:45.115Z</time></trkpt><trkpt lat="44.1883162" lon="12.1068568"><ele>28.0</ele><time>2026-04-04T10:27:46.117Z</time></trkpt><trkpt lat="44.1884191" lon="12.1069305"><ele>28.0</ele><time>2026-04-04T10:27:48.117Z</time></trkpt><trkpt lat="44.1885228" lon="12.1070088"><ele>27.75</ele><time>2026-04-04T10:27:50.12Z</time></trkpt><trkpt lat="44.1886242" lon="12.1070749"><ele>27.5</ele><time>2026-04-04T10:27:52.117Z</time></trkpt><trkpt lat="44.1887242" lon="12.1071642"><ele>27.25</ele><time>2026-04-04T10:27:54.111Z</time></trkpt><trkpt lat="44.1888349" lon="12.1072445"><ele>27.0</ele><time>2026-04-04T10:27:56.117Z</time></trkpt><trkpt lat="44.1889394" lon="12.1073373"><ele>27.0</ele><time>2026-04-04T10:27:58.105Z</time></trkpt><trkpt lat="44.1889965" lon="12.1073747"><ele>27.000000000000004</ele><time>2026-04-04T10:27:59.119Z</time></trkpt><trkpt lat="44.1891019" lon="12.1074541"><ele>27.000000000000004</ele><time>2026-04-04T10:28:01.108Z</time></trkpt><trkpt lat="44.189157" lon="12.1075003"><ele>27.0</ele><time>2026-04-04T10:28:02.112Z</time></trkpt><trkpt lat="44.1892665" lon="12.1075541"><ele>27.0</ele><time>2026-04-04T10:28:04.116Z</time></trkpt><trkpt lat="44.1893833" lon="12.1075093"><ele>27.166666666666668</ele><time>2026-04-04T10:28:06.104Z</time></trkpt><trkpt lat="44.1894293" lon="12.1074352"><ele>27.333333333333336</ele><time>2026-04-04T10:28:07.108Z</time></trkpt><trkpt lat="44.1894628" lon="12.1073454"><ele>27.5</ele><time>2026-04-04T10:28:08.114Z</time></trkpt><trkpt lat="44.1895057" lon="12.1072699"><ele>27.666666666666668</ele><time>2026-04-04T10:28:09.103Z</time></trkpt><trkpt lat="44.1896261" lon="12.1072227"><ele>27.833333333333336</ele><time>2026-04-04T10:28:11.115Z</time></trkpt><trkpt lat="44.1896871" lon="12.1072582"><ele>28.0</ele><time>2026-04-04T10:28:12.11Z</time></trkpt><trkpt lat="44.1897948" lon="12.1073582"><ele>28.0</ele><time>2026-04-04T10:28:14.118Z</time></trkpt><trkpt lat="44.1898912" lon="12.1074521"><ele>27.999999999999996</ele><time>2026-04-04T10:28:16.12Z</time></trkpt><trkpt lat="44.1899479" lon="12.1074904"><ele>27.999999999999996</ele><time>2026-04-04T10:28:17.124Z</time></trkpt><trkpt lat="44.1900496" lon="12.1075809"><ele>28.0</ele><time>2026-04-04T10:28:19.125Z</time></trkpt><trkpt lat="44.1901645" lon="12.1076502"><ele>28.0</ele><time>2026-04-04T10:28:21.118Z</time></trkpt><trkpt lat="44.1902224" lon="12.1076848"><ele>28.000000000000004</ele><time>2026-04-04T10:28:22.122Z</time></trkpt><trkpt lat="44.1903323" lon="12.1077697"><ele>28.0</ele><time>2026-04-04T10:28:24.134Z</time></trkpt><trkpt lat="44.1903932" lon="12.1078071"><ele>28.0</ele><time>2026-04-04T10:28:25.124Z</time></trkpt><trkpt lat="44.1904522" lon="12.1078509"><ele>28.0</ele><time>2026-04-04T10:28:26.124Z</time></trkpt><trkpt lat="44.1905632" lon="12.1079262"><ele>28.000000000000004</ele><time>2026-04-04T10:28:28.122Z</time></trkpt><trkpt lat="44.1906201" lon="12.1079696"><ele>28.0</ele><time>2026-04-04T10:28:29.123Z</time></trkpt><trkpt lat="44.190677" lon="12.1080128"><ele>28.000000000000004</ele><time>2026-04-04T10:28:30.119Z</time></trkpt><trkpt lat="44.1907346" lon="12.1080503"><ele>28.0</ele><time>2026-04-04T10:28:31.123Z</time></trkpt><trkpt lat="44.1908213" lon="12.1081264"><ele>28.0</ele><time>2026-04-04T10:28:33.118Z</time></trkpt><trkpt lat="44.1908819" lon="12.1081601"><ele>28.0</ele><time>2026-04-04T10:28:34.108Z</time></trkpt><trkpt lat="44.1909986" lon="12.1082355"><ele>28.000000000000004</ele><time>2026-04-04T10:28:36.113Z</time></trkpt><trkpt lat="44.1910535" lon="12.1082822"><ele>28.0</ele><time>2026-04-04T10:28:37.111Z</time></trkpt><trkpt lat="44.1911082" lon="12.1083287"><ele>27.799999999999997</ele><time>2026-04-04T10:28:38.117Z</time></trkpt><trkpt lat="44.1912137" lon="12.1084099"><ele>27.599999999999998</ele><time>2026-04-04T10:28:40.119Z</time></trkpt><trkpt lat="44.1913233" lon="12.1084946"><ele>27.400000000000002</ele><time>2026-04-04T10:28:42.122Z</time></trkpt><trkpt lat="44.1913798" lon="12.1085437"><ele>27.200000000000003</ele><time>2026-04-04T10:28:43.122Z</time></trkpt><trkpt lat="44.1914875" lon="12.1086046"><ele>27.0</ele><time>2026-04-04T10:28:45.119Z</time></trkpt><trkpt lat="44.1915965" lon="12.1086822"><ele>26.8</ele><time>2026-04-04T10:28:47.119Z</time></trkpt><trkpt lat="44.1916539" lon="12.1087265"><ele>26.6</ele><time>2026-04-04T10:28:48.118Z</time></trkpt><trkpt lat="44.1917619" lon="12.1088045"><ele>26.400000000000002</ele><time>2026-04-04T10:28:50.112Z</time></trkpt><trkpt lat="44.1918174" lon="12.10885"><ele>26.200000000000003</ele><time>2026-04-04T10:28:51.113Z</time></trkpt><trkpt lat="44.1919257" lon="12.1089295"><ele>26.0</ele><time>2026-04-04T10:28:53.117Z</time></trkpt><trkpt lat="44.1920327" lon="12.1090074"><ele>25.999999999999996</ele><time>2026-04-04T10:28:55.137Z</time></trkpt><trkpt lat="44.1920938" lon="12.1090534"><ele>26.0</ele><time>2026-04-04T10:28:56.114Z</time></trkpt><trkpt lat="44.1921521" lon="12.1090966"><ele>26.0</ele><time>2026-04-04T10:28:57.118Z</time></trkpt><trkpt lat="44.1922147" lon="12.1091359"><ele>26.0</ele><time>2026-04-04T10:28:58.116Z</time></trkpt><trkpt lat="44.1922739" lon="12.1091761"><ele>25.999999999999996</ele><time>2026-04-04T10:28:59.118Z</time></trkpt><trkpt lat="44.1923339" lon="12.1092113"><ele>26.0</ele><time>2026-04-04T10:29:00.114Z</time></trkpt><trkpt lat="44.1924466" lon="12.1092833"><ele>26.0</ele><time>2026-04-04T10:29:02.113Z</time></trkpt><trkpt lat="44.1925097" lon="12.109318"><ele>26.0</ele><time>2026-04-04T10:29:03.116Z</time></trkpt><trkpt lat="44.1926229" lon="12.1093875"><ele>26.0</ele><time>2026-04-04T10:29:05.12Z</time></trkpt><trkpt lat="44.1927323" lon="12.1094764"><ele>26.0</ele><time>2026-04-04T10:29:07.117Z</time></trkpt><trkpt lat="44.1928369" lon="12.1095664"><ele>26.0</ele><time>2026-04-04T10:29:09.118Z</time></trkpt><trkpt lat="44.1929415" lon="12.1096459"><ele>26.0</ele><time>2026-04-04T10:29:11.11Z</time></trkpt><trkpt lat="44.1930431" lon="12.1097261"><ele>26.0</ele><time>2026-04-04T10:29:13.116Z</time></trkpt><trkpt lat="44.1931425" lon="12.1097849"><ele>26.0</ele><time>2026-04-04T10:29:15.118Z</time></trkpt><trkpt lat="44.1932331" lon="12.1098502"><ele>26.0</ele><time>2026-04-04T10:29:17.115Z</time></trkpt><trkpt lat="44.1933111" lon="12.1099222"><ele>26.0</ele><time>2026-04-04T10:29:19.113Z</time></trkpt><trkpt lat="44.1933753" lon="12.1099922"><ele>25.999999999999996</ele><time>2026-04-04T10:29:21.115Z</time></trkpt><trkpt lat="44.1934384" lon="12.1100619"><ele>26.0</ele><time>2026-04-04T10:29:26.137Z</time></trkpt><trkpt lat="44.1935233" lon="12.1100633"><ele>26.0</ele><time>2026-04-04T10:29:28.118Z</time></trkpt><trkpt lat="44.1935476" lon="12.1099538"><ele>26.0</ele><time>2026-04-04T10:29:30.117Z</time></trkpt><trkpt lat="44.1935848" lon="12.1098428"><ele>25.999999999999996</ele><time>2026-04-04T10:29:33.124Z</time></trkpt><trkpt lat="44.1936366" lon="12.1097466"><ele>26.0</ele><time>2026-04-04T10:29:36.123Z</time></trkpt><trkpt lat="44.1936811" lon="12.1096575"><ele>25.999999999999996</ele><time>2026-04-04T10:29:38.125Z</time></trkpt><trkpt lat="44.1937231" lon="12.1095701"><ele>26.0</ele><time>2026-04-04T10:29:40.122Z</time></trkpt><trkpt lat="44.1937545" lon="12.1094931"><ele>26.0</ele><time>2026-04-04T10:29:42.114Z</time></trkpt><trkpt lat="44.1937644" lon="12.1093815"><ele>26.0</ele><time>2026-04-04T10:29:44.115Z</time></trkpt><trkpt lat="44.1937894" lon="12.109273"><ele>25.999999999999996</ele><time>2026-04-04T10:29:46.121Z</time></trkpt><trkpt lat="44.1938261" lon="12.1091699"><ele>26.0</ele><time>2026-04-04T10:29:48.119Z</time></trkpt><trkpt lat="44.1938534" lon="12.1090692"><ele>25.8</ele><time>2026-04-04T10:29:50.119Z</time></trkpt><trkpt lat="44.1938929" lon="12.1089702"><ele>25.6</ele><time>2026-04-04T10:29:52.124Z</time></trkpt><trkpt lat="44.1939402" lon="12.1088745"><ele>25.4</ele><time>2026-04-04T10:29:54.121Z</time></trkpt><trkpt lat="44.1939811" lon="12.1087342"><ele>25.2</ele><time>2026-04-04T10:29:56.111Z</time></trkpt><trkpt lat="44.1940144" lon="12.1086511"><ele>25.0</ele><time>2026-04-04T10:29:57.148Z</time></trkpt><trkpt lat="44.1940829" lon="12.1085037"><ele>25.333333333333336</ele><time>2026-04-04T10:29:59.122Z</time></trkpt><trkpt lat="44.1941242" lon="12.1084311"><ele>25.666666666666668</ele><time>2026-04-04T10:30:00.122Z</time></trkpt><trkpt lat="44.194167" lon="12.1083537"><ele>26.0</ele><time>2026-04-04T10:30:01.122Z</time></trkpt><trkpt lat="44.1942024" lon="12.1082774"><ele>26.333333333333336</ele><time>2026-04-04T10:30:02.121Z</time></trkpt><trkpt lat="44.1942677" lon="12.1081336"><ele>26.666666666666668</ele><time>2026-04-04T10:30:04.118Z</time></trkpt><trkpt lat="44.1942932" lon="12.1080505"><ele>27.0</ele><time>2026-04-04T10:30:05.119Z</time></trkpt><trkpt lat="44.1943216" lon="12.107969"><ele>27.0</ele><time>2026-04-04T10:30:06.121Z</time></trkpt><trkpt lat="44.1943559" lon="12.1078901"><ele>27.0</ele><time>2026-04-04T10:30:07.135Z</time></trkpt><trkpt lat="44.1943842" lon="12.1078024"><ele>27.0</ele><time>2026-04-04T10:30:08.112Z</time></trkpt><trkpt lat="44.1944162" lon="12.1077216"><ele>27.0</ele><time>2026-04-04T10:30:09.115Z</time></trkpt><trkpt lat="44.1944485" lon="12.107645"><ele>27.0</ele><time>2026-04-04T10:30:10.112Z</time></trkpt><trkpt lat="44.1945084" lon="12.107493"><ele>27.0</ele><time>2026-04-04T10:30:12.119Z</time></trkpt><trkpt lat="44.194531" lon="12.1074082"><ele>27.0</ele><time>2026-04-04T10:30:13.111Z</time></trkpt><trkpt lat="44.1945525" lon="12.1073221"><ele>27.0</ele><time>2026-04-04T10:30:14.113Z</time></trkpt><trkpt lat="44.1946175" lon="12.1071733"><ele>27.0</ele><time>2026-04-04T10:30:16.113Z</time></trkpt><trkpt lat="44.1946505" lon="12.1070926"><ele>27.0</ele><time>2026-04-04T10:30:17.126Z</time></trkpt><trkpt lat="44.1946851" lon="12.1070061"><ele>27.0</ele><time>2026-04-04T10:30:18.11Z</time></trkpt><trkpt lat="44.1947166" lon="12.1069265"><ele>27.0</ele><time>2026-04-04T10:30:19.115Z</time></trkpt><trkpt lat="44.1947506" lon="12.1068427"><ele>27.0</ele><time>2026-04-04T10:30:20.108Z</time></trkpt><trkpt lat="44.1947905" lon="12.1067611"><ele>27.0</ele><time>2026-04-04T10:30:21.11Z</time></trkpt><trkpt lat="44.1948275" lon="12.1066837"><ele>27.0</ele><time>2026-04-04T10:30:22.113Z</time></trkpt><trkpt lat="44.1948589" lon="12.1066041"><ele>27.0</ele><time>2026-04-04T10:30:23.105Z</time></trkpt><trkpt lat="44.1948984" lon="12.106527"><ele>27.0</ele><time>2026-04-04T10:30:24.12Z</time></trkpt><trkpt lat="44.1949308" lon="12.1064517"><ele>27.0</ele><time>2026-04-04T10:30:25.113Z</time></trkpt><trkpt lat="44.1949593" lon="12.1063675"><ele>27.0</ele><time>2026-04-04T10:30:26.119Z</time></trkpt><trkpt lat="44.1949941" lon="12.1062933"><ele>27.0</ele><time>2026-04-04T10:30:27.126Z</time></trkpt><trkpt lat="44.1950584" lon="12.106148"><ele>27.000000000000004</ele><time>2026-04-04T10:30:29.118Z</time></trkpt><trkpt lat="44.195114" lon="12.1059912"><ele>27.000000000000004</ele><time>2026-04-04T10:30:31.109Z</time></trkpt><trkpt lat="44.1951825" lon="12.1058347"><ele>27.0</ele><time>2026-04-04T10:30:33.115Z</time></trkpt><trkpt lat="44.1952207" lon="12.105759"><ele>27.0</ele><time>2026-04-04T10:30:34.124Z</time></trkpt><trkpt lat="44.1952593" lon="12.1056871"><ele>27.0</ele><time>2026-04-04T10:30:35.118Z</time></trkpt><trkpt lat="44.1952924" lon="12.1056115"><ele>27.0</ele><time>2026-04-04T10:30:36.116Z</time></trkpt><trkpt lat="44.1953492" lon="12.105462"><ele>27.0</ele><time>2026-04-04T10:30:38.119Z</time></trkpt><trkpt lat="44.1953814" lon="12.1053847"><ele>27.0</ele><time>2026-04-04T10:30:39.118Z</time></trkpt><trkpt lat="44.1954174" lon="12.1053088"><ele>27.0</ele><time>2026-04-04T10:30:40.118Z</time></trkpt><trkpt lat="44.1954493" lon="12.1052322"><ele>27.0</ele><time>2026-04-04T10:30:41.112Z</time></trkpt><trkpt lat="44.1954858" lon="12.1051535"><ele>27.0</ele><time>2026-04-04T10:30:42.112Z</time></trkpt><trkpt lat="44.1955125" lon="12.1050733"><ele>27.0</ele><time>2026-04-04T10:30:43.112Z</time></trkpt><trkpt lat="44.1955423" lon="12.1049908"><ele>27.000000000000004</ele><time>2026-04-04T10:30:44.11Z</time></trkpt><trkpt lat="44.195592" lon="12.1048482"><ele>27.000000000000004</ele><time>2026-04-04T10:30:46.109Z</time></trkpt><trkpt lat="44.1956406" lon="12.1047052"><ele>27.0</ele><time>2026-04-04T10:30:48.109Z</time></trkpt><trkpt lat="44.1956938" lon="12.104553"><ele>27.0</ele><time>2026-04-04T10:30:50.109Z</time></trkpt><trkpt lat="44.1957506" lon="12.1044353"><ele>27.0</ele><time>2026-04-04T10:30:52.113Z</time></trkpt><trkpt lat="44.1957989" lon="12.10429"><ele>27.000000000000004</ele><time>2026-04-04T10:30:54.098Z</time></trkpt><trkpt lat="44.1958593" lon="12.104156"><ele>27.000000000000004</ele><time>2026-04-04T10:30:56.101Z</time></trkpt><trkpt lat="44.1958912" lon="12.1040736"><ele>27.0</ele><time>2026-04-04T10:30:57.112Z</time></trkpt><trkpt lat="44.1959546" lon="12.103922"><ele>27.0</ele><time>2026-04-04T10:30:59.142Z</time></trkpt><trkpt lat="44.1959892" lon="12.1038379"><ele>27.0</ele><time>2026-04-04T10:31:00.116Z</time></trkpt><trkpt lat="44.1960417" lon="12.1036889"><ele>27.000000000000004</ele><time>2026-04-04T10:31:02.114Z</time></trkpt><trkpt lat="44.1961011" lon="12.1035399"><ele>27.000000000000004</ele><time>2026-04-04T10:31:04.114Z</time></trkpt><trkpt lat="44.1961665" lon="12.1033978"><ele>27.0</ele><time>2026-04-04T10:31:06.109Z</time></trkpt><trkpt lat="44.1961984" lon="12.1033168"><ele>27.0</ele><time>2026-04-04T10:31:07.114Z</time></trkpt><trkpt lat="44.1962602" lon="12.1031697"><ele>27.0</ele><time>2026-04-04T10:31:09.111Z</time></trkpt><trkpt lat="44.1962979" lon="12.1030918"><ele>27.0</ele><time>2026-04-04T10:31:10.109Z</time></trkpt><trkpt lat="44.1963284" lon="12.1030094"><ele>27.0</ele><time>2026-04-04T10:31:11.113Z</time></trkpt><trkpt lat="44.196364" lon="12.1029273"><ele>27.0</ele><time>2026-04-04T10:31:12.118Z</time></trkpt><trkpt lat="44.1963952" lon="12.1028489"><ele>27.0</ele><time>2026-04-04T10:31:13.112Z</time></trkpt><trkpt lat="44.1964421" lon="12.1026791"><ele>27.0</ele><time>2026-04-04T10:31:15.11Z</time></trkpt><trkpt lat="44.196468" lon="12.1025927"><ele>27.0</ele><time>2026-04-04T10:31:16.11Z</time></trkpt><trkpt lat="44.1964973" lon="12.1025125"><ele>27.0</ele><time>2026-04-04T10:31:17.123Z</time></trkpt><trkpt lat="44.1965408" lon="12.1023551"><ele>27.0</ele><time>2026-04-04T10:31:19.111Z</time></trkpt><trkpt lat="44.19657" lon="12.1022751"><ele>27.0</ele><time>2026-04-04T10:31:20.112Z</time></trkpt><trkpt lat="44.1966053" lon="12.102194"><ele>27.0</ele><time>2026-04-04T10:31:21.11Z</time></trkpt><trkpt lat="44.1966616" lon="12.102041"><ele>27.0</ele><time>2026-04-04T10:31:23.114Z</time></trkpt><trkpt lat="44.1966989" lon="12.1019603"><ele>27.0</ele><time>2026-04-04T10:31:24.113Z</time></trkpt><trkpt lat="44.196729" lon="12.1018824"><ele>27.0</ele><time>2026-04-04T10:31:25.118Z</time></trkpt><trkpt lat="44.196782" lon="12.1017326"><ele>27.0</ele><time>2026-04-04T10:31:27.119Z</time></trkpt><trkpt lat="44.1968112" lon="12.1016508"><ele>27.0</ele><time>2026-04-04T10:31:28.113Z</time></trkpt><trkpt lat="44.19684" lon="12.101571"><ele>27.0</ele><time>2026-04-04T10:31:29.129Z</time></trkpt><trkpt lat="44.1968701" lon="12.1014907"><ele>27.0</ele><time>2026-04-04T10:31:30.11Z</time></trkpt><trkpt lat="44.1969013" lon="12.1014129"><ele>27.0</ele><time>2026-04-04T10:31:31.107Z</time></trkpt><trkpt lat="44.1969365" lon="12.1013248"><ele>27.0</ele><time>2026-04-04T10:31:32.111Z</time></trkpt><trkpt lat="44.1969669" lon="12.101245"><ele>27.0</ele><time>2026-04-04T10:31:33.112Z</time></trkpt><trkpt lat="44.1969986" lon="12.1011605"><ele>27.0</ele><time>2026-04-04T10:31:34.111Z</time></trkpt><trkpt lat="44.1970312" lon="12.1010837"><ele>27.0</ele><time>2026-04-04T10:31:35.11Z</time></trkpt><trkpt lat="44.1970955" lon="12.1009336"><ele>27.0</ele><time>2026-04-04T10:31:37.115Z</time></trkpt><trkpt lat="44.1971306" lon="12.1008599"><ele>27.0</ele><time>2026-04-04T10:31:38.112Z</time></trkpt><trkpt lat="44.1971673" lon="12.1007848"><ele>27.0</ele><time>2026-04-04T10:31:39.11Z</time></trkpt><trkpt lat="44.1972002" lon="12.1007074"><ele>27.0</ele><time>2026-04-04T10:31:40.111Z</time></trkpt><trkpt lat="44.1972316" lon="12.1006291"><ele>27.0</ele><time>2026-04-04T10:31:41.115Z</time></trkpt><trkpt lat="44.1972639" lon="12.1005455"><ele>27.0</ele><time>2026-04-04T10:31:42.112Z</time></trkpt><trkpt lat="44.1972986" lon="12.1004664"><ele>27.0</ele><time>2026-04-04T10:31:43.119Z</time></trkpt><trkpt lat="44.1973718" lon="12.1003274"><ele>27.0</ele><time>2026-04-04T10:31:45.114Z</time></trkpt><trkpt lat="44.1974236" lon="12.1002588"><ele>27.0</ele><time>2026-04-04T10:31:46.114Z</time></trkpt><trkpt lat="44.1974598" lon="12.100186"><ele>27.000000000000004</ele><time>2026-04-04T10:31:47.108Z</time></trkpt><trkpt lat="44.1975267" lon="12.1000266"><ele>27.000000000000004</ele><time>2026-04-04T10:31:49.108Z</time></trkpt><trkpt lat="44.1975669" lon="12.0999418"><ele>27.0</ele><time>2026-04-04T10:31:50.121Z</time></trkpt><trkpt lat="44.1976316" lon="12.0997992"><ele>27.0</ele><time>2026-04-04T10:31:52.11Z</time></trkpt><trkpt lat="44.1976664" lon="12.0997224"><ele>26.8</ele><time>2026-04-04T10:31:53.114Z</time></trkpt><trkpt lat="44.1977016" lon="12.0996407"><ele>26.6</ele><time>2026-04-04T10:31:54.109Z</time></trkpt><trkpt lat="44.1977762" lon="12.0994964"><ele>26.400000000000002</ele><time>2026-04-04T10:31:56.111Z</time></trkpt><trkpt lat="44.1978173" lon="12.0994188"><ele>26.200000000000003</ele><time>2026-04-04T10:31:57.112Z</time></trkpt><trkpt lat="44.1978492" lon="12.0993385"><ele>26.0</ele><time>2026-04-04T10:31:58.109Z</time></trkpt><trkpt lat="44.1978857" lon="12.0991743"><ele>25.999999999999996</ele><time>2026-04-04T10:32:00.124Z</time></trkpt><trkpt lat="44.197905" lon="12.0990872"><ele>26.0</ele><time>2026-04-04T10:32:01.11Z</time></trkpt><trkpt lat="44.1979535" lon="12.0989266"><ele>26.0</ele><time>2026-04-04T10:32:03.109Z</time></trkpt><trkpt lat="44.1979815" lon="12.0988465"><ele>26.0</ele><time>2026-04-04T10:32:04.112Z</time></trkpt><trkpt lat="44.198011" lon="12.0987606"><ele>25.999999999999996</ele><time>2026-04-04T10:32:05.124Z</time></trkpt><trkpt lat="44.1980425" lon="12.0986805"><ele>26.0</ele><time>2026-04-04T10:32:06.11Z</time></trkpt><trkpt lat="44.198082" lon="12.098604"><ele>25.999999999999996</ele><time>2026-04-04T10:32:07.116Z</time></trkpt><trkpt lat="44.1981169" lon="12.0985288"><ele>26.0</ele><time>2026-04-04T10:32:08.106Z</time></trkpt><trkpt lat="44.1981888" lon="12.098388"><ele>26.0</ele><time>2026-04-04T10:32:10.109Z</time></trkpt><trkpt lat="44.1982258" lon="12.0983044"><ele>26.0</ele><time>2026-04-04T10:32:11.108Z</time></trkpt><trkpt lat="44.1982589" lon="12.0982267"><ele>25.999999999999996</ele><time>2026-04-04T10:32:12.107Z</time></trkpt><trkpt lat="44.1982914" lon="12.0981477"><ele>26.0</ele><time>2026-04-04T10:32:13.114Z</time></trkpt><trkpt lat="44.1983305" lon="12.0980721"><ele>25.999999999999996</ele><time>2026-04-04T10:32:14.112Z</time></trkpt><trkpt lat="44.1983781" lon="12.0980083"><ele>26.0</ele><time>2026-04-04T10:32:15.122Z</time></trkpt><trkpt lat="44.1984214" lon="12.0979333"><ele>26.0</ele><time>2026-04-04T10:32:16.108Z</time></trkpt><trkpt lat="44.1984533" lon="12.0978549"><ele>26.0</ele><time>2026-04-04T10:32:17.112Z</time></trkpt><trkpt lat="44.1985148" lon="12.0977099"><ele>25.999999999999996</ele><time>2026-04-04T10:32:19.108Z</time></trkpt><trkpt lat="44.1985724" lon="12.0975576"><ele>26.0</ele><time>2026-04-04T10:32:21.11Z</time></trkpt><trkpt lat="44.1986267" lon="12.09741"><ele>25.8</ele><time>2026-04-04T10:32:23.114Z</time></trkpt><trkpt lat="44.1986922" lon="12.0972603"><ele>25.6</ele><time>2026-04-04T10:32:25.112Z</time></trkpt><trkpt lat="44.1987263" lon="12.0971856"><ele>25.4</ele><time>2026-04-04T10:32:26.107Z</time></trkpt><trkpt lat="44.1987589" lon="12.0971084"><ele>25.2</ele><time>2026-04-04T10:32:27.105Z</time></trkpt><trkpt lat="44.198814" lon="12.0969561"><ele>25.0</ele><time>2026-04-04T10:32:29.107Z</time></trkpt><trkpt lat="44.1988734" lon="12.0968234"><ele>25.000000000000004</ele><time>2026-04-04T10:32:31.118Z</time></trkpt><trkpt lat="44.1989233" lon="12.0966934"><ele>25.0</ele><time>2026-04-04T10:32:33.107Z</time></trkpt><trkpt lat="44.1989506" lon="12.0965282"><ele>25.0</ele><time>2026-04-04T10:32:35.104Z</time></trkpt><trkpt lat="44.198978" lon="12.0964304"><ele>25.0</ele><time>2026-04-04T10:32:36.108Z</time></trkpt><trkpt lat="44.1990156" lon="12.0963458"><ele>25.000000000000004</ele><time>2026-04-04T10:32:37.112Z</time></trkpt><trkpt lat="44.1990505" lon="12.0962707"><ele>25.0</ele><time>2026-04-04T10:32:38.112Z</time></trkpt><trkpt lat="44.1990892" lon="12.0961961"><ele>24.75</ele><time>2026-04-04T10:32:39.111Z</time></trkpt><trkpt lat="44.1991495" lon="12.0960442"><ele>24.5</ele><time>2026-04-04T10:32:41.112Z</time></trkpt><trkpt lat="44.1992112" lon="12.0958945"><ele>24.25</ele><time>2026-04-04T10:32:43.114Z</time></trkpt><trkpt lat="44.1992773" lon="12.0957617"><ele>24.0</ele><time>2026-04-04T10:32:45.111Z</time></trkpt><trkpt lat="44.1993622" lon="12.0956572"><ele>24.166666666666668</ele><time>2026-04-04T10:32:47.113Z</time></trkpt><trkpt lat="44.1994494" lon="12.0955537"><ele>24.333333333333336</ele><time>2026-04-04T10:32:49.11Z</time></trkpt><trkpt lat="44.1995017" lon="12.0955045"><ele>24.5</ele><time>2026-04-04T10:32:50.107Z</time></trkpt><trkpt lat="44.199615" lon="12.0954335"><ele>24.666666666666668</ele><time>2026-04-04T10:32:52.106Z</time></trkpt><trkpt lat="44.1996776" lon="12.0954028"><ele>24.833333333333336</ele><time>2026-04-04T10:32:53.111Z</time></trkpt><trkpt lat="44.1997427" lon="12.0953849"><ele>25.0</ele><time>2026-04-04T10:32:54.109Z</time></trkpt><trkpt lat="44.199864" lon="12.095391"><ele>25.000000000000004</ele><time>2026-04-04T10:32:56.11Z</time></trkpt><trkpt lat="44.199981" lon="12.0953607"><ele>25.0</ele><time>2026-04-04T10:32:58.107Z</time></trkpt><trkpt lat="44.2000408" lon="12.0953202"><ele>25.0</ele><time>2026-04-04T10:32:59.116Z</time></trkpt><trkpt lat="44.2001018" lon="12.0952902"><ele>25.0</ele><time>2026-04-04T10:33:00.097Z</time></trkpt><trkpt lat="44.2001684" lon="12.0952837"><ele>25.000000000000004</ele><time>2026-04-04T10:33:01.101Z</time></trkpt><trkpt lat="44.2002731" lon="12.0953463"><ele>25.0</ele><time>2026-04-04T10:33:03.111Z</time></trkpt><trkpt lat="44.2003369" lon="12.0953591"><ele>25.0</ele><time>2026-04-04T10:33:04.11Z</time></trkpt><trkpt lat="44.2004464" lon="12.0954413"><ele>25.0</ele><time>2026-04-04T10:33:06.108Z</time></trkpt><trkpt lat="44.2005051" lon="12.0954909"><ele>25.0</ele><time>2026-04-04T10:33:07.113Z</time></trkpt><trkpt lat="44.2006166" lon="12.0955771"><ele>25.0</ele><time>2026-04-04T10:33:09.108Z</time></trkpt><trkpt lat="44.2007082" lon="12.09566"><ele>25.0</ele><time>2026-04-04T10:33:11.108Z</time></trkpt><trkpt lat="44.2008054" lon="12.0957335"><ele>25.0</ele><time>2026-04-04T10:33:13.112Z</time></trkpt><trkpt lat="44.2009083" lon="12.0958199"><ele>25.0</ele><time>2026-04-04T10:33:15.112Z</time></trkpt><trkpt lat="44.201017" lon="12.0958902"><ele>25.0</ele><time>2026-04-04T10:33:17.117Z</time></trkpt><trkpt lat="44.2011082" lon="12.0959548"><ele>25.0</ele><time>2026-04-04T10:33:19.106Z</time></trkpt><trkpt lat="44.2011916" lon="12.0960424"><ele>25.0</ele><time>2026-04-04T10:33:21.111Z</time></trkpt><trkpt lat="44.2012891" lon="12.0961181"><ele>25.0</ele><time>2026-04-04T10:33:23.112Z</time></trkpt><trkpt lat="44.2013947" lon="12.0961863"><ele>25.0</ele><time>2026-04-04T10:33:25.106Z</time></trkpt><trkpt lat="44.2014538" lon="12.0962283"><ele>25.0</ele><time>2026-04-04T10:33:26.115Z</time></trkpt><trkpt lat="44.2015491" lon="12.0963091"><ele>25.0</ele><time>2026-04-04T10:33:28.112Z</time></trkpt><trkpt lat="44.2016545" lon="12.0963889"><ele>25.0</ele><time>2026-04-04T10:33:30.109Z</time></trkpt><trkpt lat="44.2017539" lon="12.0964581"><ele>25.0</ele><time>2026-04-04T10:33:32.11Z</time></trkpt><trkpt lat="44.2018606" lon="12.0965481"><ele>25.0</ele><time>2026-04-04T10:33:34.108Z</time></trkpt><trkpt lat="44.2019689" lon="12.096626"><ele>25.0</ele><time>2026-04-04T10:33:36.111Z</time></trkpt><trkpt lat="44.2020263" lon="12.0966647"><ele>25.0</ele><time>2026-04-04T10:33:37.112Z</time></trkpt><trkpt lat="44.2020794" lon="12.096713"><ele>25.0</ele><time>2026-04-04T10:33:38.111Z</time></trkpt><trkpt lat="44.2021812" lon="12.0968022"><ele>24.8</ele><time>2026-04-04T10:33:40.109Z</time></trkpt><trkpt lat="44.202278" lon="12.0969057"><ele>24.6</ele><time>2026-04-04T10:33:42.111Z</time></trkpt><trkpt lat="44.2023342" lon="12.0969523"><ele>24.4</ele><time>2026-04-04T10:33:43.112Z</time></trkpt><trkpt lat="44.2023955" lon="12.0969987"><ele>24.2</ele><time>2026-04-04T10:33:44.107Z</time></trkpt><trkpt lat="44.2024657" lon="12.0971331"><ele>24.0</ele><time>2026-04-04T10:33:46.091Z</time></trkpt><trkpt lat="44.2025149" lon="12.0972872"><ele>24.0</ele><time>2026-04-04T10:33:48.11Z</time></trkpt><trkpt lat="44.2025176" lon="12.097376"><ele>24.0</ele><time>2026-04-04T10:33:49.11Z</time></trkpt><trkpt lat="44.2025166" lon="12.0974725"><ele>24.0</ele><time>2026-04-04T10:33:50.11Z</time></trkpt><trkpt lat="44.2025243" lon="12.0975682"><ele>24.0</ele><time>2026-04-04T10:33:51.108Z</time></trkpt><trkpt lat="44.2025818" lon="12.0977064"><ele>24.0</ele><time>2026-04-04T10:33:53.113Z</time></trkpt><trkpt lat="44.2026306" lon="12.0977733"><ele>24.0</ele><time>2026-04-04T10:33:54.106Z</time></trkpt><trkpt lat="44.2026847" lon="12.0978258"><ele>24.0</ele><time>2026-04-04T10:33:55.104Z</time></trkpt><trkpt lat="44.2027453" lon="12.0978641"><ele>24.0</ele><time>2026-04-04T10:33:56.105Z</time></trkpt><trkpt lat="44.2028063" lon="12.097889"><ele>24.0</ele><time>2026-04-04T10:33:57.109Z</time></trkpt><trkpt lat="44.2028673" lon="12.0979133"><ele>24.0</ele><time>2026-04-04T10:33:58.105Z</time></trkpt><trkpt lat="44.2029279" lon="12.0979378"><ele>24.0</ele><time>2026-04-04T10:33:59.12Z</time></trkpt><trkpt lat="44.2030402" lon="12.0980087"><ele>24.0</ele><time>2026-04-04T10:34:01.107Z</time></trkpt><trkpt lat="44.2031206" lon="12.0981419"><ele>24.0</ele><time>2026-04-04T10:34:03.106Z</time></trkpt><trkpt lat="44.2031591" lon="12.0982147"><ele>24.0</ele><time>2026-04-04T10:34:04.125Z</time></trkpt><trkpt lat="44.2031956" lon="12.0982895"><ele>24.0</ele><time>2026-04-04T10:34:05.11Z</time></trkpt><trkpt lat="44.2032565" lon="12.0984399"><ele>24.0</ele><time>2026-04-04T10:34:07.102Z</time></trkpt><trkpt lat="44.2033128" lon="12.0985935"><ele>24.0</ele><time>2026-04-04T10:34:09.111Z</time></trkpt><trkpt lat="44.2033429" lon="12.0986764"><ele>24.0</ele><time>2026-04-04T10:34:10.107Z</time></trkpt><trkpt lat="44.2033985" lon="12.0988322"><ele>24.0</ele><time>2026-04-04T10:34:12.112Z</time></trkpt><trkpt lat="44.2034309" lon="12.0989125"><ele>24.0</ele><time>2026-04-04T10:34:13.11Z</time></trkpt><trkpt lat="44.203458" lon="12.0989959"><ele>24.0</ele><time>2026-04-04T10:34:14.107Z</time></trkpt><trkpt lat="44.2035138" lon="12.0991533"><ele>24.0</ele><time>2026-04-04T10:34:16.111Z</time></trkpt><trkpt lat="44.2035679" lon="12.0993066"><ele>24.0</ele><time>2026-04-04T10:34:18.114Z</time></trkpt><trkpt lat="44.2035987" lon="12.0993875"><ele>24.0</ele><time>2026-04-04T10:34:19.109Z</time></trkpt><trkpt lat="44.2036311" lon="12.0994703"><ele>23.799999999999997</ele><time>2026-04-04T10:34:20.108Z</time></trkpt><trkpt lat="44.2036503" lon="12.09956"><ele>23.599999999999998</ele><time>2026-04-04T10:34:21.11Z</time></trkpt><trkpt lat="44.2036982" lon="12.0997131"><ele>23.4</ele><time>2026-04-04T10:34:23.104Z</time></trkpt><trkpt lat="44.2037231" lon="12.0997962"><ele>23.2</ele><time>2026-04-04T10:34:24.112Z</time></trkpt><trkpt lat="44.2037712" lon="12.0999554"><ele>23.0</ele><time>2026-04-04T10:34:26.114Z</time></trkpt><trkpt lat="44.2038307" lon="12.1001055"><ele>23.25</ele><time>2026-04-04T10:34:28.114Z</time></trkpt><trkpt lat="44.2038884" lon="12.1002526"><ele>23.5</ele><time>2026-04-04T10:34:30.111Z</time></trkpt><trkpt lat="44.2039547" lon="12.1004013"><ele>23.75</ele><time>2026-04-04T10:34:32.116Z</time></trkpt><trkpt lat="44.2040302" lon="12.1005392"><ele>24.0</ele><time>2026-04-04T10:34:34.109Z</time></trkpt><trkpt lat="44.2041059" lon="12.100675"><ele>24.4</ele><time>2026-04-04T10:34:36.114Z</time></trkpt><trkpt lat="44.2041816" lon="12.1007969"><ele>24.799999999999997</ele><time>2026-04-04T10:34:38.112Z</time></trkpt><trkpt lat="44.2042575" lon="12.1009201"><ele>25.200000000000003</ele><time>2026-04-04T10:34:40.112Z</time></trkpt><trkpt lat="44.2043392" lon="12.1010466"><ele>25.6</ele><time>2026-04-04T10:34:42.111Z</time></trkpt><trkpt lat="44.2043891" lon="12.1011072"><ele>26.0</ele><time>2026-04-04T10:34:43.114Z</time></trkpt><trkpt lat="44.2044828" lon="12.1012179"><ele>26.0</ele><time>2026-04-04T10:34:45.109Z</time></trkpt><trkpt lat="44.2045338" lon="12.1012769"><ele>26.0</ele><time>2026-04-04T10:34:46.102Z</time></trkpt><trkpt lat="44.2046342" lon="12.1013682"><ele>26.0</ele><time>2026-04-04T10:34:48.119Z</time></trkpt><trkpt lat="44.2047364" lon="12.1014701"><ele>26.0</ele><time>2026-04-04T10:34:50.117Z</time></trkpt><trkpt lat="44.2048312" lon="12.1015636"><ele>26.0</ele><time>2026-04-04T10:34:52.118Z</time></trkpt><trkpt lat="44.2049198" lon="12.1016391"><ele>25.5</ele><time>2026-04-04T10:34:54.109Z</time></trkpt><trkpt lat="44.2050266" lon="12.1017213"><ele>25.0</ele><time>2026-04-04T10:34:56.117Z</time></trkpt><trkpt lat="44.205137" lon="12.1017955"><ele>24.5</ele><time>2026-04-04T10:34:58.115Z</time></trkpt><trkpt lat="44.2052351" lon="12.1018784"><ele>24.0</ele><time>2026-04-04T10:35:00.112Z</time></trkpt><trkpt lat="44.2053396" lon="12.1019652"><ele>24.0</ele><time>2026-04-04T10:35:02.114Z</time></trkpt><trkpt lat="44.2054524" lon="12.1020478"><ele>24.0</ele><time>2026-04-04T10:35:04.112Z</time></trkpt><trkpt lat="44.2055605" lon="12.1021265"><ele>24.0</ele><time>2026-04-04T10:35:06.126Z</time></trkpt><trkpt lat="44.2056139" lon="12.1021735"><ele>24.0</ele><time>2026-04-04T10:35:07.11Z</time></trkpt><trkpt lat="44.2056721" lon="12.1022247"><ele>24.0</ele><time>2026-04-04T10:35:08.119Z</time></trkpt><trkpt lat="44.2057383" lon="12.1022757"><ele>24.166666666666668</ele><time>2026-04-04T10:35:09.115Z</time></trkpt><trkpt lat="44.2058093" lon="12.1023391"><ele>24.333333333333336</ele><time>2026-04-04T10:35:10.112Z</time></trkpt><trkpt lat="44.2058806" lon="12.1024015"><ele>24.5</ele><time>2026-04-04T10:35:11.108Z</time></trkpt><trkpt lat="44.2059565" lon="12.1024554"><ele>24.666666666666668</ele><time>2026-04-04T10:35:12.109Z</time></trkpt><trkpt lat="44.2060265" lon="12.1025105"><ele>24.833333333333336</ele><time>2026-04-04T10:35:13.115Z</time></trkpt><trkpt lat="44.2060994" lon="12.1025702"><ele>25.0</ele><time>2026-04-04T10:35:14.109Z</time></trkpt><trkpt lat="44.2061751" lon="12.1026382"><ele>25.0</ele><time>2026-04-04T10:35:15.115Z</time></trkpt><trkpt lat="44.2062531" lon="12.102701"><ele>25.0</ele><time>2026-04-04T10:35:16.114Z</time></trkpt><trkpt lat="44.2063297" lon="12.1027728"><ele>25.0</ele><time>2026-04-04T10:35:17.117Z</time></trkpt><trkpt lat="44.2064074" lon="12.1028432"><ele>25.0</ele><time>2026-04-04T10:35:18.115Z</time></trkpt><trkpt lat="44.2064836" lon="12.1029063"><ele>25.0</ele><time>2026-04-04T10:35:19.113Z</time></trkpt><trkpt lat="44.2065624" lon="12.1029812"><ele>25.0</ele><time>2026-04-04T10:35:20.116Z</time></trkpt><trkpt lat="44.2066426" lon="12.1030593"><ele>25.0</ele><time>2026-04-04T10:35:21.114Z</time></trkpt><trkpt lat="44.206711" lon="12.1031601"><ele>25.0</ele><time>2026-04-04T10:35:22.119Z</time></trkpt><trkpt lat="44.2067664" lon="12.1032749"><ele>25.0</ele><time>2026-04-04T10:35:23.113Z</time></trkpt><trkpt lat="44.2068302" lon="12.103376"><ele>25.0</ele><time>2026-04-04T10:35:24.104Z</time></trkpt><trkpt lat="44.2069046" lon="12.1034546"><ele>24.8</ele><time>2026-04-04T10:35:25.115Z</time></trkpt><trkpt lat="44.2069961" lon="12.1034807"><ele>24.6</ele><time>2026-04-04T10:35:26.099Z</time></trkpt><trkpt lat="44.2070847" lon="12.103474"><ele>24.4</ele><time>2026-04-04T10:35:27.114Z</time></trkpt><trkpt lat="44.207175" lon="12.1034632"><ele>24.2</ele><time>2026-04-04T10:35:28.102Z</time></trkpt><trkpt lat="44.2072635" lon="12.103481"><ele>24.0</ele><time>2026-04-04T10:35:29.103Z</time></trkpt><trkpt lat="44.2073469" lon="12.1035247"><ele>24.0</ele><time>2026-04-04T10:35:30.106Z</time></trkpt><trkpt lat="44.2074208" lon="12.1035803"><ele>24.0</ele><time>2026-04-04T10:35:31.112Z</time></trkpt><trkpt lat="44.20749" lon="12.1036356"><ele>24.0</ele><time>2026-04-04T10:35:32.107Z</time></trkpt><trkpt lat="44.2075575" lon="12.103684"><ele>24.0</ele><time>2026-04-04T10:35:33.111Z</time></trkpt><trkpt lat="44.2076231" lon="12.1037309"><ele>24.0</ele><time>2026-04-04T10:35:34.109Z</time></trkpt><trkpt lat="44.2076889" lon="12.1037744"><ele>24.0</ele><time>2026-04-04T10:35:35.11Z</time></trkpt><trkpt lat="44.2077536" lon="12.1038169"><ele>24.0</ele><time>2026-04-04T10:35:36.111Z</time></trkpt><trkpt lat="44.207821" lon="12.1038551"><ele>24.0</ele><time>2026-04-04T10:35:37.14Z</time></trkpt><trkpt lat="44.2078864" lon="12.1038903"><ele>24.0</ele><time>2026-04-04T10:35:38.117Z</time></trkpt><trkpt lat="44.2079504" lon="12.1039264"><ele>24.0</ele><time>2026-04-04T10:35:39.114Z</time></trkpt><trkpt lat="44.2080106" lon="12.1039718"><ele>24.0</ele><time>2026-04-04T10:35:40.114Z</time></trkpt><trkpt lat="44.208127" lon="12.1040386"><ele>24.0</ele><time>2026-04-04T10:35:42.115Z</time></trkpt><trkpt lat="44.2082389" lon="12.1041188"><ele>24.0</ele><time>2026-04-04T10:35:44.111Z</time></trkpt><trkpt lat="44.2082971" lon="12.1041661"><ele>24.0</ele><time>2026-04-04T10:35:45.11Z</time></trkpt><trkpt lat="44.2084071" lon="12.1042403"><ele>24.0</ele><time>2026-04-04T10:35:47.115Z</time></trkpt><trkpt lat="44.208523" lon="12.1043137"><ele>24.0</ele><time>2026-04-04T10:35:49.11Z</time></trkpt><trkpt lat="44.2086205" lon="12.1044068"><ele>24.0</ele><time>2026-04-04T10:35:51.111Z</time></trkpt><trkpt lat="44.2087037" lon="12.1045149"><ele>24.0</ele><time>2026-04-04T10:35:53.113Z</time></trkpt><trkpt lat="44.208794" lon="12.1046197"><ele>24.0</ele><time>2026-04-04T10:35:55.117Z</time></trkpt><trkpt lat="44.2089018" lon="12.1046586"><ele>24.0</ele><time>2026-04-04T10:35:57.112Z</time></trkpt><trkpt lat="44.2089875" lon="12.104547"><ele>24.0</ele><time>2026-04-04T10:35:59.102Z</time></trkpt><trkpt lat="44.2090013" lon="12.1043792"><ele>24.0</ele><time>2026-04-04T10:36:01.098Z</time></trkpt><trkpt lat="44.2090014" lon="12.1042832"><ele>24.0</ele><time>2026-04-04T10:36:02.11Z</time></trkpt><trkpt lat="44.2090213" lon="12.1041129"><ele>24.0</ele><time>2026-04-04T10:36:04.109Z</time></trkpt><trkpt lat="44.2090538" lon="12.1039498"><ele>24.0</ele><time>2026-04-04T10:36:06.106Z</time></trkpt><trkpt lat="44.2091076" lon="12.1038033"><ele>24.0</ele><time>2026-04-04T10:36:08.108Z</time></trkpt><trkpt lat="44.209168" lon="12.1036494"><ele>24.0</ele><time>2026-04-04T10:36:10.109Z</time></trkpt><trkpt lat="44.2092307" lon="12.1035077"><ele>24.0</ele><time>2026-04-04T10:36:12.107Z</time></trkpt><trkpt lat="44.2092933" lon="12.1033625"><ele>24.0</ele><time>2026-04-04T10:36:14.111Z</time></trkpt><trkpt lat="44.2093428" lon="12.1032174"><ele>24.0</ele><time>2026-04-04T10:36:16.117Z</time></trkpt><trkpt lat="44.2094134" lon="12.1030695"><ele>23.833333333333332</ele><time>2026-04-04T10:36:18.114Z</time></trkpt><trkpt lat="44.2094673" lon="12.1029274"><ele>23.666666666666668</ele><time>2026-04-04T10:36:20.106Z</time></trkpt><trkpt lat="44.2095212" lon="12.1027797"><ele>23.5</ele><time>2026-04-04T10:36:22.113Z</time></trkpt><trkpt lat="44.2095461" lon="12.102697"><ele>23.333333333333336</ele><time>2026-04-04T10:36:23.106Z</time></trkpt><trkpt lat="44.2095824" lon="12.1026177"><ele>23.166666666666668</ele><time>2026-04-04T10:36:24.114Z</time></trkpt><trkpt lat="44.2096166" lon="12.1025326"><ele>23.0</ele><time>2026-04-04T10:36:25.109Z</time></trkpt><trkpt lat="44.2096485" lon="12.1024567"><ele>23.25</ele><time>2026-04-04T10:36:26.108Z</time></trkpt><trkpt lat="44.2097108" lon="12.1023111"><ele>23.5</ele><time>2026-04-04T10:36:28.108Z</time></trkpt><trkpt lat="44.2097837" lon="12.1021786"><ele>23.75</ele><time>2026-04-04T10:36:30.106Z</time></trkpt><trkpt lat="44.2098512" lon="12.1020293"><ele>24.0</ele><time>2026-04-04T10:36:32.105Z</time></trkpt><trkpt lat="44.209914" lon="12.1018842"><ele>24.25</ele><time>2026-04-04T10:36:34.115Z</time></trkpt><trkpt lat="44.209977" lon="12.1017351"><ele>24.5</ele><time>2026-04-04T10:36:36.108Z</time></trkpt><trkpt lat="44.2100443" lon="12.1016007"><ele>24.75</ele><time>2026-04-04T10:36:38.12Z</time></trkpt><trkpt lat="44.2101183" lon="12.1014679"><ele>25.0</ele><time>2026-04-04T10:36:40.111Z</time></trkpt><trkpt lat="44.2101899" lon="12.1013382"><ele>25.000000000000004</ele><time>2026-04-04T10:36:42.107Z</time></trkpt><trkpt lat="44.2102611" lon="12.1011984"><ele>25.0</ele><time>2026-04-04T10:36:44.103Z</time></trkpt><trkpt lat="44.2103327" lon="12.1010726"><ele>25.0</ele><time>2026-04-04T10:36:46.106Z</time></trkpt><trkpt lat="44.2103724" lon="12.1010027"><ele>25.0</ele><time>2026-04-04T10:36:47.111Z</time></trkpt><trkpt lat="44.2104172" lon="12.1009377"><ele>25.000000000000004</ele><time>2026-04-04T10:36:48.109Z</time></trkpt><trkpt lat="44.2104648" lon="12.1008722"><ele>25.0</ele><time>2026-04-04T10:36:49.115Z</time></trkpt><trkpt lat="44.2105397" lon="12.1007495"><ele>25.0</ele><time>2026-04-04T10:36:51.107Z</time></trkpt><trkpt lat="44.2106016" lon="12.1006296"><ele>25.0</ele><time>2026-04-04T10:36:53.107Z</time></trkpt><trkpt lat="44.2106749" lon="12.1004975"><ele>25.0</ele><time>2026-04-04T10:36:55.11Z</time></trkpt><trkpt lat="44.2107085" lon="12.1004229"><ele>25.0</ele><time>2026-04-04T10:36:56.108Z</time></trkpt><trkpt lat="44.2107824" lon="12.1002748"><ele>25.0</ele><time>2026-04-04T10:36:58.105Z</time></trkpt><trkpt lat="44.210877" lon="12.100151"><ele>25.2</ele><time>2026-04-04T10:37:00.107Z</time></trkpt><trkpt lat="44.2109163" lon="12.1000805"><ele>25.4</ele><time>2026-04-04T10:37:01.11Z</time></trkpt><trkpt lat="44.210999" lon="12.0999606"><ele>25.6</ele><time>2026-04-04T10:37:03.108Z</time></trkpt><trkpt lat="44.2110738" lon="12.0998426"><ele>25.8</ele><time>2026-04-04T10:37:05.107Z</time></trkpt><trkpt lat="44.21114" lon="12.0997159"><ele>26.0</ele><time>2026-04-04T10:37:07.104Z</time></trkpt><trkpt lat="44.2112183" lon="12.0996124"><ele>26.0</ele><time>2026-04-04T10:37:09.118Z</time></trkpt><trkpt lat="44.2112579" lon="12.0995426"><ele>26.0</ele><time>2026-04-04T10:37:10.105Z</time></trkpt><trkpt lat="44.2113294" lon="12.0994094"><ele>26.0</ele><time>2026-04-04T10:37:12.103Z</time></trkpt><trkpt lat="44.2113914" lon="12.0992735"><ele>26.0</ele><time>2026-04-04T10:37:14.105Z</time></trkpt><trkpt lat="44.2114094" lon="12.0990971"><ele>26.0</ele><time>2026-04-04T10:37:16.099Z</time></trkpt><trkpt lat="44.21138" lon="12.0990111"><ele>25.857142857142858</ele><time>2026-04-04T10:37:17.107Z</time></trkpt><trkpt lat="44.2113267" lon="12.0989596"><ele>25.714285714285715</ele><time>2026-04-04T10:37:18.103Z</time></trkpt><trkpt lat="44.2112564" lon="12.0989174"><ele>25.571428571428573</ele><time>2026-04-04T10:37:19.108Z</time></trkpt><trkpt lat="44.2111894" lon="12.0988891"><ele>25.42857142857143</ele><time>2026-04-04T10:37:20.109Z</time></trkpt><trkpt lat="44.2111295" lon="12.0988596"><ele>25.285714285714285</ele><time>2026-04-04T10:37:21.108Z</time></trkpt><trkpt lat="44.21107" lon="12.0988301"><ele>25.142857142857146</ele><time>2026-04-04T10:37:22.102Z</time></trkpt><trkpt lat="44.211003" lon="12.0987865"><ele>25.0</ele><time>2026-04-04T10:37:23.112Z</time></trkpt><trkpt lat="44.2109374" lon="12.0987503"><ele>25.0</ele><time>2026-04-04T10:37:24.107Z</time></trkpt><trkpt lat="44.2108769" lon="12.098721"><ele>25.0</ele><time>2026-04-04T10:37:25.107Z</time></trkpt><trkpt lat="44.210819" lon="12.0986833"><ele>25.0</ele><time>2026-04-04T10:37:26.105Z</time></trkpt><trkpt lat="44.2107146" lon="12.0986137"><ele>25.0</ele><time>2026-04-04T10:37:28.108Z</time></trkpt><trkpt lat="44.2106083" lon="12.098553"><ele>25.0</ele><time>2026-04-04T10:37:30.106Z</time></trkpt><trkpt lat="44.2104992" lon="12.0984745"><ele>25.2</ele><time>2026-04-04T10:37:32.108Z</time></trkpt><trkpt lat="44.2103809" lon="12.0984069"><ele>25.4</ele><time>2026-04-04T10:37:34.104Z</time></trkpt><trkpt lat="44.2102706" lon="12.098333"><ele>25.6</ele><time>2026-04-04T10:37:36.108Z</time></trkpt><trkpt lat="44.2102117" lon="12.098293"><ele>25.8</ele><time>2026-04-04T10:37:37.106Z</time></trkpt><trkpt lat="44.2101147" lon="12.0982137"><ele>26.0</ele><time>2026-04-04T10:37:39.106Z</time></trkpt><trkpt lat="44.2100219" lon="12.0981975"><ele>24.0</ele><time>2026-04-04T10:37:41.107Z</time></trkpt><trkpt lat="44.2099738" lon="12.0982813"><ele>26.0</ele><time>2026-04-04T10:37:43.1Z</time></trkpt><trkpt lat="44.2099642" lon="12.0983826"><ele>26.0</ele><time>2026-04-04T10:37:45.111Z</time></trkpt><trkpt lat="44.2099889" lon="12.0984737"><ele>26.0</ele><time>2026-04-04T10:37:47.116Z</time></trkpt><trkpt lat="44.2099452" lon="12.0985386"><ele>26.0</ele><time>2026-04-04T10:38:02.113Z</time></trkpt><trkpt lat="44.2099897" lon="12.0984618"><ele>26.0</ele><time>2026-04-04T10:38:26.112Z</time></trkpt><trkpt lat="44.2099617" lon="12.0985521"><ele>26.0</ele><time>2026-04-04T10:38:40.104Z</time></trkpt></trkseg></trk></gpx>